<?xml version="1.0" encoding="UTF-8" standalone="no" ?>
<gpx xmlns="http://www.topografix.com/GPX/1/1" xmlns:xsi="http://www.w3.org/2001/XMLSchema-instance" xsi:schemaLocation="http://www.topografix.com/GPX/1/1 http://www.topografix.com/GPX/1/1/gpx.xsd" version="1.1" creator="VisuGPX - https://www.visugpx.com">
  <metadata>
    <name>GTV jour 2</name>
    <desc><![CDATA[GTV jour 2]]></desc>
  </metadata>
  <trk>
    <name><![CDATA[GTV 8JUN]]></name>
    <trkseg>
      <trkpt lat="46.14586" lon="5.86657">
        <ele>1589.2</ele>
        <time>2013-06-08T03:21:45Z</time>
      </trkpt>
      <trkpt lat="46.14589" lon="5.86654">
        <ele>1591.12</ele>
        <time>2013-06-08T03:22:00Z</time>
      </trkpt>
      <trkpt lat="46.14588" lon="5.86654">
        <ele>1590.16</ele>
        <time>2013-06-08T03:22:14Z</time>
      </trkpt>
      <trkpt lat="46.14592" lon="5.86642">
        <ele>1597.37</ele>
        <time>2013-06-08T03:22:27Z</time>
      </trkpt>
      <trkpt lat="46.1459" lon="5.86655">
        <ele>1588.72</ele>
        <time>2013-06-08T03:22:45Z</time>
      </trkpt>
      <trkpt lat="46.14715" lon="5.8669">
        <ele>1567.09</ele>
        <time>2013-06-08T03:26:03Z</time>
      </trkpt>
      <trkpt lat="46.14712" lon="5.86697">
        <ele>1560.84</ele>
        <time>2013-06-08T03:26:13Z</time>
      </trkpt>
      <trkpt lat="46.14721" lon="5.86708">
        <ele>1556.99</ele>
        <time>2013-06-08T03:26:25Z</time>
      </trkpt>
      <trkpt lat="46.14723" lon="5.8671">
        <ele>1555.55</ele>
        <time>2013-06-08T03:26:29Z</time>
      </trkpt>
      <trkpt lat="46.14729" lon="5.86699">
        <ele>1554.59</ele>
        <time>2013-06-08T03:26:37Z</time>
      </trkpt>
      <trkpt lat="46.14745" lon="5.86683">
        <ele>1551.71</ele>
        <time>2013-06-08T03:26:51Z</time>
      </trkpt>
      <trkpt lat="46.1475" lon="5.86679">
        <ele>1550.74</ele>
        <time>2013-06-08T03:26:56Z</time>
      </trkpt>
      <trkpt lat="46.14767" lon="5.86667">
        <ele>1548.82</ele>
        <time>2013-06-08T03:27:10Z</time>
      </trkpt>
      <trkpt lat="46.14775" lon="5.86665">
        <ele>1546.42</ele>
        <time>2013-06-08T03:27:19Z</time>
      </trkpt>
      <trkpt lat="46.14786" lon="5.86659">
        <ele>1543.53</ele>
        <time>2013-06-08T03:27:31Z</time>
      </trkpt>
      <trkpt lat="46.14787" lon="5.86659">
        <ele>1542.09</ele>
        <time>2013-06-08T03:27:46Z</time>
      </trkpt>
      <trkpt lat="46.14795" lon="5.86659">
        <ele>1541.13</ele>
        <time>2013-06-08T03:28:01Z</time>
      </trkpt>
      <trkpt lat="46.14807" lon="5.86656">
        <ele>1541.61</ele>
        <time>2013-06-08T03:28:09Z</time>
      </trkpt>
      <trkpt lat="46.14828" lon="5.86648">
        <ele>1540.65</ele>
        <time>2013-06-08T03:28:23Z</time>
      </trkpt>
      <trkpt lat="46.14829" lon="5.86648">
        <ele>1540.65</ele>
        <time>2013-06-08T03:28:24Z</time>
      </trkpt>
      <trkpt lat="46.14844" lon="5.86649">
        <ele>1539.21</ele>
        <time>2013-06-08T03:28:34Z</time>
      </trkpt>
      <trkpt lat="46.14851" lon="5.86649">
        <ele>1538.73</ele>
        <time>2013-06-08T03:28:39Z</time>
      </trkpt>
      <trkpt lat="46.14869" lon="5.8665">
        <ele>1542.09</ele>
        <time>2013-06-08T03:28:53Z</time>
      </trkpt>
      <trkpt lat="46.14871" lon="5.86648">
        <ele>1542.57</ele>
        <time>2013-06-08T03:28:56Z</time>
      </trkpt>
      <trkpt lat="46.14875" lon="5.86644">
        <ele>1543.05</ele>
        <time>2013-06-08T03:29:00Z</time>
      </trkpt>
      <trkpt lat="46.14877" lon="5.86642">
        <ele>1543.05</ele>
        <time>2013-06-08T03:29:02Z</time>
      </trkpt>
      <trkpt lat="46.14883" lon="5.86629">
        <ele>1544.5</ele>
        <time>2013-06-08T03:29:16Z</time>
      </trkpt>
      <trkpt lat="46.14884" lon="5.86629">
        <ele>1544.98</ele>
        <time>2013-06-08T03:29:21Z</time>
      </trkpt>
      <trkpt lat="46.14891" lon="5.86608">
        <ele>1544.98</ele>
        <time>2013-06-08T03:29:35Z</time>
      </trkpt>
      <trkpt lat="46.14897" lon="5.86586">
        <ele>1549.3</ele>
        <time>2013-06-08T03:29:48Z</time>
      </trkpt>
      <trkpt lat="46.14902" lon="5.86567">
        <ele>1552.19</ele>
        <time>2013-06-08T03:29:59Z</time>
      </trkpt>
      <trkpt lat="46.14905" lon="5.86553">
        <ele>1552.19</ele>
        <time>2013-06-08T03:30:07Z</time>
      </trkpt>
      <trkpt lat="46.14914" lon="5.86531">
        <ele>1555.07</ele>
        <time>2013-06-08T03:30:21Z</time>
      </trkpt>
      <trkpt lat="46.14919" lon="5.86521">
        <ele>1556.51</ele>
        <time>2013-06-08T03:30:28Z</time>
      </trkpt>
      <trkpt lat="46.14922" lon="5.86506">
        <ele>1559.88</ele>
        <time>2013-06-08T03:30:38Z</time>
      </trkpt>
      <trkpt lat="46.14926" lon="5.86499">
        <ele>1561.8</ele>
        <time>2013-06-08T03:30:44Z</time>
      </trkpt>
      <trkpt lat="46.14931" lon="5.86489">
        <ele>1567.09</ele>
        <time>2013-06-08T03:30:57Z</time>
      </trkpt>
      <trkpt lat="46.14941" lon="5.86488">
        <ele>1569.01</ele>
        <time>2013-06-08T03:31:07Z</time>
      </trkpt>
      <trkpt lat="46.14944" lon="5.86481">
        <ele>1571.41</ele>
        <time>2013-06-08T03:31:16Z</time>
      </trkpt>
      <trkpt lat="46.14941" lon="5.86466">
        <ele>1578.14</ele>
        <time>2013-06-08T03:31:30Z</time>
      </trkpt>
      <trkpt lat="46.14941" lon="5.86464">
        <ele>1578.62</ele>
        <time>2013-06-08T03:31:32Z</time>
      </trkpt>
      <trkpt lat="46.14943" lon="5.86462">
        <ele>1579.1</ele>
        <time>2013-06-08T03:31:35Z</time>
      </trkpt>
      <trkpt lat="46.14948" lon="5.86456">
        <ele>1581.03</ele>
        <time>2013-06-08T03:31:43Z</time>
      </trkpt>
      <trkpt lat="46.14956" lon="5.86451">
        <ele>1585.35</ele>
        <time>2013-06-08T03:31:54Z</time>
      </trkpt>
      <trkpt lat="46.1496" lon="5.8644">
        <ele>1588.72</ele>
        <time>2013-06-08T03:32:04Z</time>
      </trkpt>
      <trkpt lat="46.14964" lon="5.86429">
        <ele>1590.16</ele>
        <time>2013-06-08T03:32:13Z</time>
      </trkpt>
      <trkpt lat="46.14969" lon="5.86422">
        <ele>1592.08</ele>
        <time>2013-06-08T03:32:22Z</time>
      </trkpt>
      <trkpt lat="46.14977" lon="5.86414">
        <ele>1594.96</ele>
        <time>2013-06-08T03:32:37Z</time>
      </trkpt>
      <trkpt lat="46.14984" lon="5.86406">
        <ele>1598.33</ele>
        <time>2013-06-08T03:32:51Z</time>
      </trkpt>
      <trkpt lat="46.14992" lon="5.86397">
        <ele>1601.69</ele>
        <time>2013-06-08T03:33:03Z</time>
      </trkpt>
      <trkpt lat="46.15001" lon="5.86392">
        <ele>1606.02</ele>
        <time>2013-06-08T03:33:14Z</time>
      </trkpt>
      <trkpt lat="46.15011" lon="5.86386">
        <ele>1611.79</ele>
        <time>2013-06-08T03:33:27Z</time>
      </trkpt>
      <trkpt lat="46.15018" lon="5.86381">
        <ele>1614.67</ele>
        <time>2013-06-08T03:33:38Z</time>
      </trkpt>
      <trkpt lat="46.15029" lon="5.86377">
        <ele>1618.52</ele>
        <time>2013-06-08T03:33:50Z</time>
      </trkpt>
      <trkpt lat="46.15033" lon="5.86376">
        <ele>1619.96</ele>
        <time>2013-06-08T03:33:55Z</time>
      </trkpt>
      <trkpt lat="46.15039" lon="5.86376">
        <ele>1621.88</ele>
        <time>2013-06-08T03:34:11Z</time>
      </trkpt>
      <trkpt lat="46.1504" lon="5.86374">
        <ele>1621.4</ele>
        <time>2013-06-08T03:34:26Z</time>
      </trkpt>
      <trkpt lat="46.15039" lon="5.86377">
        <ele>1621.4</ele>
        <time>2013-06-08T03:34:38Z</time>
      </trkpt>
      <trkpt lat="46.15038" lon="5.86376">
        <ele>1621.4</ele>
        <time>2013-06-08T03:35:08Z</time>
      </trkpt>
      <trkpt lat="46.15038" lon="5.86376">
        <ele>1620.92</ele>
        <time>2013-06-08T03:35:33Z</time>
      </trkpt>
      <trkpt lat="46.15039" lon="5.86376">
        <ele>1620.44</ele>
        <time>2013-06-08T03:35:54Z</time>
      </trkpt>
      <trkpt lat="46.15039" lon="5.86375">
        <ele>1620.44</ele>
        <time>2013-06-08T03:36:04Z</time>
      </trkpt>
      <trkpt lat="46.15042" lon="5.86374">
        <ele>1619.48</ele>
        <time>2013-06-08T03:36:09Z</time>
      </trkpt>
      <trkpt lat="46.15045" lon="5.86375">
        <ele>1619.48</ele>
        <time>2013-06-08T03:36:14Z</time>
      </trkpt>
      <trkpt lat="46.15058" lon="5.86375">
        <ele>1617.07</ele>
        <time>2013-06-08T03:36:20Z</time>
      </trkpt>
      <trkpt lat="46.15082" lon="5.86372">
        <ele>1613.23</ele>
        <time>2013-06-08T03:36:33Z</time>
      </trkpt>
      <trkpt lat="46.15101" lon="5.86365">
        <ele>1609.86</ele>
        <time>2013-06-08T03:36:47Z</time>
      </trkpt>
      <trkpt lat="46.15101" lon="5.86365">
        <ele>1609.38</ele>
        <time>2013-06-08T03:37:02Z</time>
      </trkpt>
      <trkpt lat="46.15102" lon="5.86364">
        <ele>1609.86</ele>
        <time>2013-06-08T03:37:22Z</time>
      </trkpt>
      <trkpt lat="46.15106" lon="5.86363">
        <ele>1609.86</ele>
        <time>2013-06-08T03:37:39Z</time>
      </trkpt>
      <trkpt lat="46.15112" lon="5.86363">
        <ele>1609.38</ele>
        <time>2013-06-08T03:37:48Z</time>
      </trkpt>
      <trkpt lat="46.1513" lon="5.86363">
        <ele>1609.38</ele>
        <time>2013-06-08T03:38:02Z</time>
      </trkpt>
      <trkpt lat="46.15137" lon="5.86362">
        <ele>1608.9</ele>
        <time>2013-06-08T03:38:06Z</time>
      </trkpt>
      <trkpt lat="46.15145" lon="5.86362">
        <ele>1607.94</ele>
        <time>2013-06-08T03:38:11Z</time>
      </trkpt>
      <trkpt lat="46.15158" lon="5.8636">
        <ele>1605.54</ele>
        <time>2013-06-08T03:38:20Z</time>
      </trkpt>
      <trkpt lat="46.1517" lon="5.86358">
        <ele>1601.21</ele>
        <time>2013-06-08T03:38:30Z</time>
      </trkpt>
      <trkpt lat="46.15181" lon="5.86357">
        <ele>1597.85</ele>
        <time>2013-06-08T03:38:41Z</time>
      </trkpt>
      <trkpt lat="46.15197" lon="5.86364">
        <ele>1594.96</ele>
        <time>2013-06-08T03:38:51Z</time>
      </trkpt>
      <trkpt lat="46.15223" lon="5.86354">
        <ele>1585.83</ele>
        <time>2013-06-08T03:39:02Z</time>
      </trkpt>
      <trkpt lat="46.15241" lon="5.86343">
        <ele>1579.58</ele>
        <time>2013-06-08T03:39:13Z</time>
      </trkpt>
      <trkpt lat="46.15258" lon="5.86348">
        <ele>1575.26</ele>
        <time>2013-06-08T03:39:25Z</time>
      </trkpt>
      <trkpt lat="46.15259" lon="5.8635">
        <ele>1575.26</ele>
        <time>2013-06-08T03:39:26Z</time>
      </trkpt>
      <trkpt lat="46.15278" lon="5.86357">
        <ele>1571.89</ele>
        <time>2013-06-08T03:39:38Z</time>
      </trkpt>
      <trkpt lat="46.15291" lon="5.86366">
        <ele>1569.01</ele>
        <time>2013-06-08T03:39:46Z</time>
      </trkpt>
      <trkpt lat="46.153" lon="5.8637">
        <ele>1566.61</ele>
        <time>2013-06-08T03:39:51Z</time>
      </trkpt>
      <trkpt lat="46.15309" lon="5.86373">
        <ele>1564.68</ele>
        <time>2013-06-08T03:39:57Z</time>
      </trkpt>
      <trkpt lat="46.15312" lon="5.86375">
        <ele>1564.68</ele>
        <time>2013-06-08T03:40:10Z</time>
      </trkpt>
      <trkpt lat="46.15312" lon="5.86375">
        <ele>1565.16</ele>
        <time>2013-06-08T03:40:19Z</time>
      </trkpt>
      <trkpt lat="46.15312" lon="5.86375">
        <ele>1565.64</ele>
        <time>2013-06-08T03:40:29Z</time>
      </trkpt>
      <trkpt lat="46.15313" lon="5.86376">
        <ele>1566.12</ele>
        <time>2013-06-08T03:40:39Z</time>
      </trkpt>
      <trkpt lat="46.15328" lon="5.86382">
        <ele>1563.24</ele>
        <time>2013-06-08T03:40:51Z</time>
      </trkpt>
      <trkpt lat="46.15338" lon="5.86391">
        <ele>1559.88</ele>
        <time>2013-06-08T03:40:59Z</time>
      </trkpt>
      <trkpt lat="46.15347" lon="5.864">
        <ele>1557.95</ele>
        <time>2013-06-08T03:41:05Z</time>
      </trkpt>
      <trkpt lat="46.15363" lon="5.86401">
        <ele>1553.63</ele>
        <time>2013-06-08T03:41:19Z</time>
      </trkpt>
      <trkpt lat="46.15376" lon="5.86399">
        <ele>1550.74</ele>
        <time>2013-06-08T03:41:31Z</time>
      </trkpt>
      <trkpt lat="46.15389" lon="5.86404">
        <ele>1549.3</ele>
        <time>2013-06-08T03:41:42Z</time>
      </trkpt>
      <trkpt lat="46.15393" lon="5.86409">
        <ele>1548.82</ele>
        <time>2013-06-08T03:41:47Z</time>
      </trkpt>
      <trkpt lat="46.15397" lon="5.8641">
        <ele>1548.82</ele>
        <time>2013-06-08T03:41:50Z</time>
      </trkpt>
      <trkpt lat="46.15403" lon="5.86411">
        <ele>1548.34</ele>
        <time>2013-06-08T03:41:54Z</time>
      </trkpt>
      <trkpt lat="46.15421" lon="5.86428">
        <ele>1544.5</ele>
        <time>2013-06-08T03:42:08Z</time>
      </trkpt>
      <trkpt lat="46.15426" lon="5.86432">
        <ele>1543.05</ele>
        <time>2013-06-08T03:42:12Z</time>
      </trkpt>
      <trkpt lat="46.15439" lon="5.86437">
        <ele>1539.69</ele>
        <time>2013-06-08T03:42:21Z</time>
      </trkpt>
      <trkpt lat="46.15452" lon="5.86436">
        <ele>1536.32</ele>
        <time>2013-06-08T03:42:31Z</time>
      </trkpt>
      <trkpt lat="46.15455" lon="5.86432">
        <ele>1534.88</ele>
        <time>2013-06-08T03:42:34Z</time>
      </trkpt>
      <trkpt lat="46.15459" lon="5.86431">
        <ele>1533.92</ele>
        <time>2013-06-08T03:42:38Z</time>
      </trkpt>
      <trkpt lat="46.15464" lon="5.86437">
        <ele>1532</ele>
        <time>2013-06-08T03:42:42Z</time>
      </trkpt>
      <trkpt lat="46.15484" lon="5.86431">
        <ele>1526.23</ele>
        <time>2013-06-08T03:42:53Z</time>
      </trkpt>
      <trkpt lat="46.15498" lon="5.86426">
        <ele>1522.39</ele>
        <time>2013-06-08T03:43:02Z</time>
      </trkpt>
      <trkpt lat="46.1551" lon="5.86442">
        <ele>1516.14</ele>
        <time>2013-06-08T03:43:14Z</time>
      </trkpt>
      <trkpt lat="46.15515" lon="5.86457">
        <ele>1511.81</ele>
        <time>2013-06-08T03:43:20Z</time>
      </trkpt>
      <trkpt lat="46.15519" lon="5.86467">
        <ele>1509.41</ele>
        <time>2013-06-08T03:43:26Z</time>
      </trkpt>
      <trkpt lat="46.15524" lon="5.86475">
        <ele>1507.97</ele>
        <time>2013-06-08T03:43:32Z</time>
      </trkpt>
      <trkpt lat="46.15528" lon="5.86484">
        <ele>1506.04</ele>
        <time>2013-06-08T03:43:38Z</time>
      </trkpt>
      <trkpt lat="46.15535" lon="5.86486">
        <ele>1503.16</ele>
        <time>2013-06-08T03:43:43Z</time>
      </trkpt>
      <trkpt lat="46.15538" lon="5.86487">
        <ele>1502.2</ele>
        <time>2013-06-08T03:43:45Z</time>
      </trkpt>
      <trkpt lat="46.15545" lon="5.86497">
        <ele>1499.79</ele>
        <time>2013-06-08T03:43:52Z</time>
      </trkpt>
      <trkpt lat="46.15564" lon="5.86501">
        <ele>1498.35</ele>
        <time>2013-06-08T03:44:05Z</time>
      </trkpt>
      <trkpt lat="46.15567" lon="5.86503">
        <ele>1500.27</ele>
        <time>2013-06-08T03:44:20Z</time>
      </trkpt>
      <trkpt lat="46.15574" lon="5.86505">
        <ele>1500.76</ele>
        <time>2013-06-08T03:44:30Z</time>
      </trkpt>
      <trkpt lat="46.15593" lon="5.86508">
        <ele>1502.68</ele>
        <time>2013-06-08T03:44:44Z</time>
      </trkpt>
      <trkpt lat="46.15609" lon="5.86511">
        <ele>1506.04</ele>
        <time>2013-06-08T03:44:58Z</time>
      </trkpt>
      <trkpt lat="46.1561" lon="5.86512">
        <ele>1506.52</ele>
        <time>2013-06-08T03:45:11Z</time>
      </trkpt>
      <trkpt lat="46.15613" lon="5.86518">
        <ele>1507</ele>
        <time>2013-06-08T03:45:19Z</time>
      </trkpt>
      <trkpt lat="46.15614" lon="5.8653">
        <ele>1506.04</ele>
        <time>2013-06-08T03:45:26Z</time>
      </trkpt>
      <trkpt lat="46.15615" lon="5.86559">
        <ele>1501.72</ele>
        <time>2013-06-08T03:45:38Z</time>
      </trkpt>
      <trkpt lat="46.15615" lon="5.86562">
        <ele>1501.72</ele>
        <time>2013-06-08T03:45:39Z</time>
      </trkpt>
      <trkpt lat="46.15622" lon="5.86583">
        <ele>1500.76</ele>
        <time>2013-06-08T03:45:54Z</time>
      </trkpt>
      <trkpt lat="46.1562" lon="5.86602">
        <ele>1499.31</ele>
        <time>2013-06-08T03:46:07Z</time>
      </trkpt>
      <trkpt lat="46.15615" lon="5.8663">
        <ele>1495.47</ele>
        <time>2013-06-08T03:46:18Z</time>
      </trkpt>
      <trkpt lat="46.15616" lon="5.86639">
        <ele>1494.03</ele>
        <time>2013-06-08T03:46:23Z</time>
      </trkpt>
      <trkpt lat="46.15623" lon="5.86646">
        <ele>1491.62</ele>
        <time>2013-06-08T03:46:31Z</time>
      </trkpt>
      <trkpt lat="46.15628" lon="5.86647">
        <ele>1490.66</ele>
        <time>2013-06-08T03:46:36Z</time>
      </trkpt>
      <trkpt lat="46.15645" lon="5.86662">
        <ele>1484.41</ele>
        <time>2013-06-08T03:46:47Z</time>
      </trkpt>
      <trkpt lat="46.1566" lon="5.86668">
        <ele>1481.53</ele>
        <time>2013-06-08T03:46:58Z</time>
      </trkpt>
      <trkpt lat="46.15674" lon="5.86683">
        <ele>1479.61</ele>
        <time>2013-06-08T03:47:09Z</time>
      </trkpt>
      <trkpt lat="46.1568" lon="5.86688">
        <ele>1479.61</ele>
        <time>2013-06-08T03:47:14Z</time>
      </trkpt>
      <trkpt lat="46.15688" lon="5.8669">
        <ele>1480.09</ele>
        <time>2013-06-08T03:47:19Z</time>
      </trkpt>
      <trkpt lat="46.15705" lon="5.86703">
        <ele>1482.49</ele>
        <time>2013-06-08T03:47:34Z</time>
      </trkpt>
      <trkpt lat="46.15722" lon="5.8671">
        <ele>1484.89</ele>
        <time>2013-06-08T03:47:48Z</time>
      </trkpt>
      <trkpt lat="46.15739" lon="5.86712">
        <ele>1486.34</ele>
        <time>2013-06-08T03:48:00Z</time>
      </trkpt>
      <trkpt lat="46.15758" lon="5.8671">
        <ele>1487.3</ele>
        <time>2013-06-08T03:48:14Z</time>
      </trkpt>
      <trkpt lat="46.15769" lon="5.86706">
        <ele>1487.3</ele>
        <time>2013-06-08T03:48:23Z</time>
      </trkpt>
      <trkpt lat="46.15781" lon="5.86705">
        <ele>1485.85</ele>
        <time>2013-06-08T03:48:32Z</time>
      </trkpt>
      <trkpt lat="46.15801" lon="5.86711">
        <ele>1482.01</ele>
        <time>2013-06-08T03:48:48Z</time>
      </trkpt>
      <trkpt lat="46.15809" lon="5.86712">
        <ele>1481.05</ele>
        <time>2013-06-08T03:49:02Z</time>
      </trkpt>
      <trkpt lat="46.1581" lon="5.86712">
        <ele>1481.05</ele>
        <time>2013-06-08T03:49:05Z</time>
      </trkpt>
      <trkpt lat="46.15815" lon="5.8671">
        <ele>1480.57</ele>
        <time>2013-06-08T03:49:09Z</time>
      </trkpt>
      <trkpt lat="46.15821" lon="5.86713">
        <ele>1478.16</ele>
        <time>2013-06-08T03:49:14Z</time>
      </trkpt>
      <trkpt lat="46.15836" lon="5.86716">
        <ele>1471.92</ele>
        <time>2013-06-08T03:49:27Z</time>
      </trkpt>
      <trkpt lat="46.15844" lon="5.86704">
        <ele>1469.99</ele>
        <time>2013-06-08T03:49:39Z</time>
      </trkpt>
      <trkpt lat="46.15853" lon="5.86697">
        <ele>1467.11</ele>
        <time>2013-06-08T03:49:52Z</time>
      </trkpt>
      <trkpt lat="46.15858" lon="5.86697">
        <ele>1466.15</ele>
        <time>2013-06-08T03:50:00Z</time>
      </trkpt>
      <trkpt lat="46.15874" lon="5.86695">
        <ele>1460.86</ele>
        <time>2013-06-08T03:50:11Z</time>
      </trkpt>
      <trkpt lat="46.15876" lon="5.86696">
        <ele>1459.42</ele>
        <time>2013-06-08T03:50:13Z</time>
      </trkpt>
      <trkpt lat="46.15883" lon="5.8671">
        <ele>1455.57</ele>
        <time>2013-06-08T03:50:25Z</time>
      </trkpt>
      <trkpt lat="46.15886" lon="5.86714">
        <ele>1453.65</ele>
        <time>2013-06-08T03:50:31Z</time>
      </trkpt>
      <trkpt lat="46.15891" lon="5.86728">
        <ele>1448.84</ele>
        <time>2013-06-08T03:50:41Z</time>
      </trkpt>
      <trkpt lat="46.15896" lon="5.86735">
        <ele>1445</ele>
        <time>2013-06-08T03:50:47Z</time>
      </trkpt>
      <trkpt lat="46.159" lon="5.86731">
        <ele>1443.08</ele>
        <time>2013-06-08T03:50:58Z</time>
      </trkpt>
      <trkpt lat="46.15901" lon="5.86742">
        <ele>1442.11</ele>
        <time>2013-06-08T03:51:03Z</time>
      </trkpt>
      <trkpt lat="46.15902" lon="5.86753">
        <ele>1442.6</ele>
        <time>2013-06-08T03:51:09Z</time>
      </trkpt>
      <trkpt lat="46.15904" lon="5.86763">
        <ele>1441.15</ele>
        <time>2013-06-08T03:51:18Z</time>
      </trkpt>
      <trkpt lat="46.15903" lon="5.86777">
        <ele>1438.75</ele>
        <time>2013-06-08T03:51:26Z</time>
      </trkpt>
      <trkpt lat="46.15907" lon="5.86779">
        <ele>1437.79</ele>
        <time>2013-06-08T03:51:29Z</time>
      </trkpt>
      <trkpt lat="46.15911" lon="5.86783">
        <ele>1436.35</ele>
        <time>2013-06-08T03:51:33Z</time>
      </trkpt>
      <trkpt lat="46.15922" lon="5.86775">
        <ele>1434.91</ele>
        <time>2013-06-08T03:51:44Z</time>
      </trkpt>
      <trkpt lat="46.15928" lon="5.86775">
        <ele>1433.94</ele>
        <time>2013-06-08T03:51:49Z</time>
      </trkpt>
      <trkpt lat="46.15941" lon="5.86771">
        <ele>1431.54</ele>
        <time>2013-06-08T03:52:01Z</time>
      </trkpt>
      <trkpt lat="46.15958" lon="5.86761">
        <ele>1427.7</ele>
        <time>2013-06-08T03:52:12Z</time>
      </trkpt>
      <trkpt lat="46.15968" lon="5.86754">
        <ele>1425.29</ele>
        <time>2013-06-08T03:52:20Z</time>
      </trkpt>
      <trkpt lat="46.15982" lon="5.86745">
        <ele>1420.49</ele>
        <time>2013-06-08T03:52:36Z</time>
      </trkpt>
      <trkpt lat="46.15983" lon="5.86744">
        <ele>1420</ele>
        <time>2013-06-08T03:52:37Z</time>
      </trkpt>
      <trkpt lat="46.15991" lon="5.86743">
        <ele>1418.08</ele>
        <time>2013-06-08T03:52:42Z</time>
      </trkpt>
      <trkpt lat="46.15994" lon="5.86741">
        <ele>1417.6</ele>
        <time>2013-06-08T03:52:44Z</time>
      </trkpt>
      <trkpt lat="46.1601" lon="5.86724">
        <ele>1413.28</ele>
        <time>2013-06-08T03:52:59Z</time>
      </trkpt>
      <trkpt lat="46.16009" lon="5.86721">
        <ele>1412.31</ele>
        <time>2013-06-08T03:53:13Z</time>
      </trkpt>
      <trkpt lat="46.16013" lon="5.86707">
        <ele>1410.87</ele>
        <time>2013-06-08T03:53:28Z</time>
      </trkpt>
      <trkpt lat="46.16015" lon="5.86705">
        <ele>1411.83</ele>
        <time>2013-06-08T03:53:36Z</time>
      </trkpt>
      <trkpt lat="46.16023" lon="5.86702">
        <ele>1412.31</ele>
        <time>2013-06-08T03:53:41Z</time>
      </trkpt>
      <trkpt lat="46.16035" lon="5.86693">
        <ele>1410.39</ele>
        <time>2013-06-08T03:53:53Z</time>
      </trkpt>
      <trkpt lat="46.16038" lon="5.8669">
        <ele>1409.43</ele>
        <time>2013-06-08T03:53:56Z</time>
      </trkpt>
      <trkpt lat="46.16046" lon="5.86684">
        <ele>1406.07</ele>
        <time>2013-06-08T03:54:07Z</time>
      </trkpt>
      <trkpt lat="46.16058" lon="5.86673">
        <ele>1402.22</ele>
        <time>2013-06-08T03:54:20Z</time>
      </trkpt>
      <trkpt lat="46.16061" lon="5.86669">
        <ele>1400.78</ele>
        <time>2013-06-08T03:54:23Z</time>
      </trkpt>
      <trkpt lat="46.16076" lon="5.86646">
        <ele>1397.41</ele>
        <time>2013-06-08T03:54:40Z</time>
      </trkpt>
      <trkpt lat="46.16089" lon="5.86634">
        <ele>1396.93</ele>
        <time>2013-06-08T03:54:53Z</time>
      </trkpt>
      <trkpt lat="46.16105" lon="5.86632">
        <ele>1393.57</ele>
        <time>2013-06-08T03:55:05Z</time>
      </trkpt>
      <trkpt lat="46.16125" lon="5.86636">
        <ele>1387.32</ele>
        <time>2013-06-08T03:55:19Z</time>
      </trkpt>
      <trkpt lat="46.16131" lon="5.86639">
        <ele>1387.8</ele>
        <time>2013-06-08T03:55:24Z</time>
      </trkpt>
      <trkpt lat="46.16145" lon="5.86656">
        <ele>1385.4</ele>
        <time>2013-06-08T03:55:39Z</time>
      </trkpt>
      <trkpt lat="46.16162" lon="5.86664">
        <ele>1383.47</ele>
        <time>2013-06-08T03:55:53Z</time>
      </trkpt>
      <trkpt lat="46.16181" lon="5.86665">
        <ele>1381.55</ele>
        <time>2013-06-08T03:56:07Z</time>
      </trkpt>
      <trkpt lat="46.16201" lon="5.86672">
        <ele>1380.59</ele>
        <time>2013-06-08T03:56:19Z</time>
      </trkpt>
      <trkpt lat="46.16218" lon="5.86681">
        <ele>1377.71</ele>
        <time>2013-06-08T03:56:32Z</time>
      </trkpt>
      <trkpt lat="46.16222" lon="5.86683">
        <ele>1377.23</ele>
        <time>2013-06-08T03:56:35Z</time>
      </trkpt>
      <trkpt lat="46.16236" lon="5.86702">
        <ele>1378.19</ele>
        <time>2013-06-08T03:56:49Z</time>
      </trkpt>
      <trkpt lat="46.16237" lon="5.86701">
        <ele>1379.63</ele>
        <time>2013-06-08T03:56:57Z</time>
      </trkpt>
      <trkpt lat="46.16249" lon="5.8669">
        <ele>1380.11</ele>
        <time>2013-06-08T03:57:07Z</time>
      </trkpt>
      <trkpt lat="46.16249" lon="5.86687">
        <ele>1380.11</ele>
        <time>2013-06-08T03:57:21Z</time>
      </trkpt>
      <trkpt lat="46.16247" lon="5.86685">
        <ele>1379.63</ele>
        <time>2013-06-08T03:57:24Z</time>
      </trkpt>
      <trkpt lat="46.16242" lon="5.86676">
        <ele>1377.71</ele>
        <time>2013-06-08T03:57:32Z</time>
      </trkpt>
      <trkpt lat="46.16244" lon="5.86674">
        <ele>1377.23</ele>
        <time>2013-06-08T03:57:35Z</time>
      </trkpt>
      <trkpt lat="46.16249" lon="5.86672">
        <ele>1375.78</ele>
        <time>2013-06-08T03:57:45Z</time>
      </trkpt>
      <trkpt lat="46.1625" lon="5.86676">
        <ele>1376.26</ele>
        <time>2013-06-08T03:57:48Z</time>
      </trkpt>
      <trkpt lat="46.16254" lon="5.86683">
        <ele>1378.19</ele>
        <time>2013-06-08T03:57:54Z</time>
      </trkpt>
      <trkpt lat="46.16256" lon="5.8669">
        <ele>1379.15</ele>
        <time>2013-06-08T03:58:00Z</time>
      </trkpt>
      <trkpt lat="46.16262" lon="5.86696">
        <ele>1381.55</ele>
        <time>2013-06-08T03:58:07Z</time>
      </trkpt>
      <trkpt lat="46.16271" lon="5.867">
        <ele>1382.03</ele>
        <time>2013-06-08T03:58:15Z</time>
      </trkpt>
      <trkpt lat="46.16276" lon="5.86708">
        <ele>1382.03</ele>
        <time>2013-06-08T03:58:21Z</time>
      </trkpt>
      <trkpt lat="46.16292" lon="5.8671">
        <ele>1381.07</ele>
        <time>2013-06-08T03:58:33Z</time>
      </trkpt>
      <trkpt lat="46.16296" lon="5.86711">
        <ele>1381.07</ele>
        <time>2013-06-08T03:58:37Z</time>
      </trkpt>
      <trkpt lat="46.16298" lon="5.86736">
        <ele>1382.03</ele>
        <time>2013-06-08T03:58:53Z</time>
      </trkpt>
      <trkpt lat="46.16302" lon="5.86752">
        <ele>1382.03</ele>
        <time>2013-06-08T03:59:07Z</time>
      </trkpt>
      <trkpt lat="46.16307" lon="5.86757">
        <ele>1382.03</ele>
        <time>2013-06-08T03:59:11Z</time>
      </trkpt>
      <trkpt lat="46.16313" lon="5.86762">
        <ele>1382.51</ele>
        <time>2013-06-08T03:59:17Z</time>
      </trkpt>
      <trkpt lat="46.1633" lon="5.86758">
        <ele>1384.92</ele>
        <time>2013-06-08T03:59:31Z</time>
      </trkpt>
      <trkpt lat="46.16335" lon="5.86755">
        <ele>1388.28</ele>
        <time>2013-06-08T03:59:46Z</time>
      </trkpt>
      <trkpt lat="46.16344" lon="5.86749">
        <ele>1392.13</ele>
        <time>2013-06-08T03:59:53Z</time>
      </trkpt>
      <trkpt lat="46.16366" lon="5.86732">
        <ele>1395.97</ele>
        <time>2013-06-08T04:00:07Z</time>
      </trkpt>
      <trkpt lat="46.16384" lon="5.86719">
        <ele>1400.3</ele>
        <time>2013-06-08T04:00:22Z</time>
      </trkpt>
      <trkpt lat="46.16399" lon="5.86705">
        <ele>1404.62</ele>
        <time>2013-06-08T04:00:37Z</time>
      </trkpt>
      <trkpt lat="46.16409" lon="5.86698">
        <ele>1409.43</ele>
        <time>2013-06-08T04:00:50Z</time>
      </trkpt>
      <trkpt lat="46.1641" lon="5.86696">
        <ele>1408.95</ele>
        <time>2013-06-08T04:00:51Z</time>
      </trkpt>
      <trkpt lat="46.16423" lon="5.86681">
        <ele>1406.07</ele>
        <time>2013-06-08T04:00:55Z</time>
      </trkpt>
      <trkpt lat="46.16449" lon="5.86665">
        <ele>1396.93</ele>
        <time>2013-06-08T04:01:07Z</time>
      </trkpt>
      <trkpt lat="46.16464" lon="5.86659">
        <ele>1396.45</ele>
        <time>2013-06-08T04:01:18Z</time>
      </trkpt>
      <trkpt lat="46.16477" lon="5.86659">
        <ele>1398.37</ele>
        <time>2013-06-08T04:01:32Z</time>
      </trkpt>
      <trkpt lat="46.16483" lon="5.86658">
        <ele>1400.78</ele>
        <time>2013-06-08T04:01:47Z</time>
      </trkpt>
      <trkpt lat="46.16491" lon="5.86658">
        <ele>1402.22</ele>
        <time>2013-06-08T04:02:03Z</time>
      </trkpt>
      <trkpt lat="46.16497" lon="5.86658">
        <ele>1403.18</ele>
        <time>2013-06-08T04:02:09Z</time>
      </trkpt>
      <trkpt lat="46.16515" lon="5.86658">
        <ele>1408.95</ele>
        <time>2013-06-08T04:02:24Z</time>
      </trkpt>
      <trkpt lat="46.16532" lon="5.86655">
        <ele>1413.28</ele>
        <time>2013-06-08T04:02:35Z</time>
      </trkpt>
      <trkpt lat="46.1654" lon="5.86651">
        <ele>1416.64</ele>
        <time>2013-06-08T04:02:41Z</time>
      </trkpt>
      <trkpt lat="46.16551" lon="5.86645">
        <ele>1421.45</ele>
        <time>2013-06-08T04:02:49Z</time>
      </trkpt>
      <trkpt lat="46.1655" lon="5.86641">
        <ele>1420.97</ele>
        <time>2013-06-08T04:02:52Z</time>
      </trkpt>
      <trkpt lat="46.16551" lon="5.86634">
        <ele>1419.04</ele>
        <time>2013-06-08T04:02:55Z</time>
      </trkpt>
      <trkpt lat="46.16552" lon="5.86624">
        <ele>1416.64</ele>
        <time>2013-06-08T04:02:58Z</time>
      </trkpt>
      <trkpt lat="46.16555" lon="5.86596">
        <ele>1409.91</ele>
        <time>2013-06-08T04:03:11Z</time>
      </trkpt>
      <trkpt lat="46.16554" lon="5.86586">
        <ele>1407.51</ele>
        <time>2013-06-08T04:03:21Z</time>
      </trkpt>
      <trkpt lat="46.16556" lon="5.86593">
        <ele>1405.58</ele>
        <time>2013-06-08T04:03:26Z</time>
      </trkpt>
      <trkpt lat="46.16557" lon="5.86611">
        <ele>1400.78</ele>
        <time>2013-06-08T04:03:33Z</time>
      </trkpt>
      <trkpt lat="46.16559" lon="5.86631">
        <ele>1395.97</ele>
        <time>2013-06-08T04:03:44Z</time>
      </trkpt>
      <trkpt lat="46.1658" lon="5.86629">
        <ele>1392.13</ele>
        <time>2013-06-08T04:03:57Z</time>
      </trkpt>
      <trkpt lat="46.166" lon="5.8663">
        <ele>1389.72</ele>
        <time>2013-06-08T04:04:10Z</time>
      </trkpt>
      <trkpt lat="46.16623" lon="5.86644">
        <ele>1387.32</ele>
        <time>2013-06-08T04:04:28Z</time>
      </trkpt>
      <trkpt lat="46.16642" lon="5.86637">
        <ele>1392.61</ele>
        <time>2013-06-08T04:04:44Z</time>
      </trkpt>
      <trkpt lat="46.16653" lon="5.86633">
        <ele>1394.53</ele>
        <time>2013-06-08T04:05:00Z</time>
      </trkpt>
      <trkpt lat="46.16664" lon="5.86628">
        <ele>1395.01</ele>
        <time>2013-06-08T04:05:08Z</time>
      </trkpt>
      <trkpt lat="46.16689" lon="5.86616">
        <ele>1395.97</ele>
        <time>2013-06-08T04:05:21Z</time>
      </trkpt>
      <trkpt lat="46.16695" lon="5.86607">
        <ele>1396.45</ele>
        <time>2013-06-08T04:05:29Z</time>
      </trkpt>
      <trkpt lat="46.16707" lon="5.86571">
        <ele>1393.57</ele>
        <time>2013-06-08T04:05:37Z</time>
      </trkpt>
      <trkpt lat="46.1672" lon="5.86555">
        <ele>1389.72</ele>
        <time>2013-06-08T04:05:45Z</time>
      </trkpt>
      <trkpt lat="46.16724" lon="5.8655">
        <ele>1388.28</ele>
        <time>2013-06-08T04:05:48Z</time>
      </trkpt>
      <trkpt lat="46.16727" lon="5.8654">
        <ele>1387.8</ele>
        <time>2013-06-08T04:06:04Z</time>
      </trkpt>
      <trkpt lat="46.16734" lon="5.86535">
        <ele>1384.44</ele>
        <time>2013-06-08T04:06:34Z</time>
      </trkpt>
      <trkpt lat="46.16742" lon="5.8653">
        <ele>1385.4</ele>
        <time>2013-06-08T04:06:51Z</time>
      </trkpt>
      <trkpt lat="46.16759" lon="5.86521">
        <ele>1385.88</ele>
        <time>2013-06-08T04:07:07Z</time>
      </trkpt>
      <trkpt lat="46.16772" lon="5.86513">
        <ele>1385.88</ele>
        <time>2013-06-08T04:07:22Z</time>
      </trkpt>
      <trkpt lat="46.16796" lon="5.86505">
        <ele>1384.44</ele>
        <time>2013-06-08T04:07:40Z</time>
      </trkpt>
      <trkpt lat="46.16819" lon="5.86506">
        <ele>1384.44</ele>
        <time>2013-06-08T04:07:55Z</time>
      </trkpt>
      <trkpt lat="46.1683" lon="5.86502">
        <ele>1386.84</ele>
        <time>2013-06-08T04:08:09Z</time>
      </trkpt>
      <trkpt lat="46.16836" lon="5.865">
        <ele>1389.72</ele>
        <time>2013-06-08T04:08:18Z</time>
      </trkpt>
      <trkpt lat="46.16845" lon="5.86496">
        <ele>1391.65</ele>
        <time>2013-06-08T04:08:25Z</time>
      </trkpt>
      <trkpt lat="46.16878" lon="5.86487">
        <ele>1387.32</ele>
        <time>2013-06-08T04:08:41Z</time>
      </trkpt>
      <trkpt lat="46.16899" lon="5.86486">
        <ele>1383.96</ele>
        <time>2013-06-08T04:08:57Z</time>
      </trkpt>
      <trkpt lat="46.16917" lon="5.86485">
        <ele>1385.88</ele>
        <time>2013-06-08T04:09:14Z</time>
      </trkpt>
      <trkpt lat="46.16931" lon="5.86481">
        <ele>1388.28</ele>
        <time>2013-06-08T04:09:30Z</time>
      </trkpt>
      <trkpt lat="46.16951" lon="5.86473">
        <ele>1386.36</ele>
        <time>2013-06-08T04:09:46Z</time>
      </trkpt>
      <trkpt lat="46.16981" lon="5.86468">
        <ele>1381.07</ele>
        <time>2013-06-08T04:10:01Z</time>
      </trkpt>
      <trkpt lat="46.16993" lon="5.86459">
        <ele>1378.67</ele>
        <time>2013-06-08T04:10:16Z</time>
      </trkpt>
      <trkpt lat="46.1702" lon="5.86456">
        <ele>1376.26</ele>
        <time>2013-06-08T04:10:34Z</time>
      </trkpt>
      <trkpt lat="46.17029" lon="5.86455">
        <ele>1377.23</ele>
        <time>2013-06-08T04:10:49Z</time>
      </trkpt>
      <trkpt lat="46.17033" lon="5.86447">
        <ele>1384.92</ele>
        <time>2013-06-08T04:11:04Z</time>
      </trkpt>
      <trkpt lat="46.17046" lon="5.86436">
        <ele>1379.15</ele>
        <time>2013-06-08T04:11:16Z</time>
      </trkpt>
      <trkpt lat="46.17071" lon="5.86447">
        <ele>1368.09</ele>
        <time>2013-06-08T04:11:26Z</time>
      </trkpt>
      <trkpt lat="46.17075" lon="5.86447">
        <ele>1370.02</ele>
        <time>2013-06-08T04:11:39Z</time>
      </trkpt>
      <trkpt lat="46.17084" lon="5.8644">
        <ele>1373.86</ele>
        <time>2013-06-08T04:11:50Z</time>
      </trkpt>
      <trkpt lat="46.17089" lon="5.86436">
        <ele>1374.82</ele>
        <time>2013-06-08T04:11:54Z</time>
      </trkpt>
      <trkpt lat="46.17106" lon="5.86392">
        <ele>1375.3</ele>
        <time>2013-06-08T04:12:12Z</time>
      </trkpt>
      <trkpt lat="46.17125" lon="5.86364">
        <ele>1368.09</ele>
        <time>2013-06-08T04:12:26Z</time>
      </trkpt>
      <trkpt lat="46.17129" lon="5.86359">
        <ele>1369.05</ele>
        <time>2013-06-08T04:12:34Z</time>
      </trkpt>
      <trkpt lat="46.17136" lon="5.8635">
        <ele>1370.5</ele>
        <time>2013-06-08T04:12:45Z</time>
      </trkpt>
      <trkpt lat="46.17137" lon="5.86341">
        <ele>1369.54</ele>
        <time>2013-06-08T04:12:57Z</time>
      </trkpt>
      <trkpt lat="46.17153" lon="5.86315">
        <ele>1361.36</ele>
        <time>2013-06-08T04:13:10Z</time>
      </trkpt>
      <trkpt lat="46.17167" lon="5.86303">
        <ele>1363.29</ele>
        <time>2013-06-08T04:13:23Z</time>
      </trkpt>
      <trkpt lat="46.17176" lon="5.86278">
        <ele>1369.54</ele>
        <time>2013-06-08T04:13:40Z</time>
      </trkpt>
      <trkpt lat="46.17179" lon="5.86273">
        <ele>1370.5</ele>
        <time>2013-06-08T04:13:43Z</time>
      </trkpt>
      <trkpt lat="46.17183" lon="5.86269">
        <ele>1371.46</ele>
        <time>2013-06-08T04:13:46Z</time>
      </trkpt>
      <trkpt lat="46.17185" lon="5.8626">
        <ele>1374.34</ele>
        <time>2013-06-08T04:13:52Z</time>
      </trkpt>
      <trkpt lat="46.17189" lon="5.86233">
        <ele>1378.67</ele>
        <time>2013-06-08T04:14:04Z</time>
      </trkpt>
      <trkpt lat="46.17206" lon="5.86211">
        <ele>1376.75</ele>
        <time>2013-06-08T04:14:17Z</time>
      </trkpt>
      <trkpt lat="46.17215" lon="5.86204">
        <ele>1379.15</ele>
        <time>2013-06-08T04:14:26Z</time>
      </trkpt>
      <trkpt lat="46.17217" lon="5.86187">
        <ele>1384.92</ele>
        <time>2013-06-08T04:14:39Z</time>
      </trkpt>
      <trkpt lat="46.17225" lon="5.86137">
        <ele>1386.36</ele>
        <time>2013-06-08T04:14:52Z</time>
      </trkpt>
      <trkpt lat="46.17236" lon="5.86124">
        <ele>1388.28</ele>
        <time>2013-06-08T04:15:07Z</time>
      </trkpt>
      <trkpt lat="46.17238" lon="5.86097">
        <ele>1380.59</ele>
        <time>2013-06-08T04:15:25Z</time>
      </trkpt>
      <trkpt lat="46.17239" lon="5.86096">
        <ele>1381.55</ele>
        <time>2013-06-08T04:15:29Z</time>
      </trkpt>
      <trkpt lat="46.17239" lon="5.86095">
        <ele>1382.03</ele>
        <time>2013-06-08T04:15:32Z</time>
      </trkpt>
      <trkpt lat="46.17239" lon="5.86094">
        <ele>1381.55</ele>
        <time>2013-06-08T04:15:35Z</time>
      </trkpt>
      <trkpt lat="46.17249" lon="5.86091">
        <ele>1371.94</ele>
        <time>2013-06-08T04:15:41Z</time>
      </trkpt>
      <trkpt lat="46.17262" lon="5.86084">
        <ele>1369.05</ele>
        <time>2013-06-08T04:15:56Z</time>
      </trkpt>
      <trkpt lat="46.17272" lon="5.86075">
        <ele>1372.42</ele>
        <time>2013-06-08T04:16:09Z</time>
      </trkpt>
      <trkpt lat="46.17275" lon="5.86069">
        <ele>1374.34</ele>
        <time>2013-06-08T04:16:14Z</time>
      </trkpt>
      <trkpt lat="46.17283" lon="5.86044">
        <ele>1379.15</ele>
        <time>2013-06-08T04:16:26Z</time>
      </trkpt>
      <trkpt lat="46.17297" lon="5.86001">
        <ele>1380.59</ele>
        <time>2013-06-08T04:16:41Z</time>
      </trkpt>
      <trkpt lat="46.17298" lon="5.85995">
        <ele>1380.11</ele>
        <time>2013-06-08T04:16:43Z</time>
      </trkpt>
      <trkpt lat="46.17316" lon="5.85961">
        <ele>1366.17</ele>
        <time>2013-06-08T04:16:57Z</time>
      </trkpt>
      <trkpt lat="46.17318" lon="5.85951">
        <ele>1365.69</ele>
        <time>2013-06-08T04:17:04Z</time>
      </trkpt>
      <trkpt lat="46.17332" lon="5.85915">
        <ele>1362.33</ele>
        <time>2013-06-08T04:17:19Z</time>
      </trkpt>
      <trkpt lat="46.17343" lon="5.85894">
        <ele>1358</ele>
        <time>2013-06-08T04:17:33Z</time>
      </trkpt>
      <trkpt lat="46.17349" lon="5.85876">
        <ele>1349.35</ele>
        <time>2013-06-08T04:17:38Z</time>
      </trkpt>
      <trkpt lat="46.17346" lon="5.8588">
        <ele>1346.46</ele>
        <time>2013-06-08T04:17:43Z</time>
      </trkpt>
      <trkpt lat="46.17343" lon="5.85883">
        <ele>1345.5</ele>
        <time>2013-06-08T04:17:46Z</time>
      </trkpt>
      <trkpt lat="46.17325" lon="5.85902">
        <ele>1342.14</ele>
        <time>2013-06-08T04:18:01Z</time>
      </trkpt>
      <trkpt lat="46.17317" lon="5.85926">
        <ele>1338.29</ele>
        <time>2013-06-08T04:18:15Z</time>
      </trkpt>
      <trkpt lat="46.17306" lon="5.85946">
        <ele>1339.25</ele>
        <time>2013-06-08T04:18:29Z</time>
      </trkpt>
      <trkpt lat="46.173" lon="5.85974">
        <ele>1341.18</ele>
        <time>2013-06-08T04:18:43Z</time>
      </trkpt>
      <trkpt lat="46.17304" lon="5.8599">
        <ele>1341.66</ele>
        <time>2013-06-08T04:18:54Z</time>
      </trkpt>
      <trkpt lat="46.17317" lon="5.86009">
        <ele>1347.43</ele>
        <time>2013-06-08T04:19:14Z</time>
      </trkpt>
      <trkpt lat="46.17331" lon="5.86017">
        <ele>1353.19</ele>
        <time>2013-06-08T04:19:28Z</time>
      </trkpt>
      <trkpt lat="46.17355" lon="5.86021">
        <ele>1362.81</ele>
        <time>2013-06-08T04:19:44Z</time>
      </trkpt>
      <trkpt lat="46.17374" lon="5.86021">
        <ele>1370.02</ele>
        <time>2013-06-08T04:19:56Z</time>
      </trkpt>
      <trkpt lat="46.1739" lon="5.86029">
        <ele>1377.71</ele>
        <time>2013-06-08T04:20:10Z</time>
      </trkpt>
      <trkpt lat="46.17404" lon="5.86029">
        <ele>1382.51</ele>
        <time>2013-06-08T04:20:24Z</time>
      </trkpt>
      <trkpt lat="46.17419" lon="5.86029">
        <ele>1386.36</ele>
        <time>2013-06-08T04:20:42Z</time>
      </trkpt>
      <trkpt lat="46.17428" lon="5.86027">
        <ele>1386.36</ele>
        <time>2013-06-08T04:20:48Z</time>
      </trkpt>
      <trkpt lat="46.17433" lon="5.86023">
        <ele>1388.76</ele>
        <time>2013-06-08T04:20:52Z</time>
      </trkpt>
      <trkpt lat="46.17442" lon="5.86015">
        <ele>1389.72</ele>
        <time>2013-06-08T04:20:59Z</time>
      </trkpt>
      <trkpt lat="46.17459" lon="5.85998">
        <ele>1391.65</ele>
        <time>2013-06-08T04:21:14Z</time>
      </trkpt>
      <trkpt lat="46.17489" lon="5.86">
        <ele>1387.8</ele>
        <time>2013-06-08T04:21:32Z</time>
      </trkpt>
      <trkpt lat="46.17507" lon="5.86011">
        <ele>1390.2</ele>
        <time>2013-06-08T04:21:46Z</time>
      </trkpt>
      <trkpt lat="46.17531" lon="5.86022">
        <ele>1393.09</ele>
        <time>2013-06-08T04:22:03Z</time>
      </trkpt>
      <trkpt lat="46.1755" lon="5.86036">
        <ele>1394.53</ele>
        <time>2013-06-08T04:22:20Z</time>
      </trkpt>
      <trkpt lat="46.17556" lon="5.86042">
        <ele>1394.05</ele>
        <time>2013-06-08T04:22:24Z</time>
      </trkpt>
      <trkpt lat="46.17583" lon="5.86044">
        <ele>1396.45</ele>
        <time>2013-06-08T04:22:38Z</time>
      </trkpt>
      <trkpt lat="46.17614" lon="5.86041">
        <ele>1385.88</ele>
        <time>2013-06-08T04:22:48Z</time>
      </trkpt>
      <trkpt lat="46.17618" lon="5.86042">
        <ele>1384.44</ele>
        <time>2013-06-08T04:22:51Z</time>
      </trkpt>
      <trkpt lat="46.17637" lon="5.86062">
        <ele>1381.55</ele>
        <time>2013-06-08T04:23:08Z</time>
      </trkpt>
      <trkpt lat="46.17658" lon="5.8608">
        <ele>1384.92</ele>
        <time>2013-06-08T04:23:24Z</time>
      </trkpt>
      <trkpt lat="46.17681" lon="5.86073">
        <ele>1390.68</ele>
        <time>2013-06-08T04:23:40Z</time>
      </trkpt>
      <trkpt lat="46.1769" lon="5.86076">
        <ele>1393.09</ele>
        <time>2013-06-08T04:23:47Z</time>
      </trkpt>
      <trkpt lat="46.17714" lon="5.86075">
        <ele>1400.78</ele>
        <time>2013-06-08T04:24:02Z</time>
      </trkpt>
      <trkpt lat="46.17732" lon="5.86078">
        <ele>1406.55</ele>
        <time>2013-06-08T04:24:16Z</time>
      </trkpt>
      <trkpt lat="46.17757" lon="5.86077">
        <ele>1407.99</ele>
        <time>2013-06-08T04:24:30Z</time>
      </trkpt>
      <trkpt lat="46.17769" lon="5.86075">
        <ele>1408.47</ele>
        <time>2013-06-08T04:24:37Z</time>
      </trkpt>
      <trkpt lat="46.17775" lon="5.86076">
        <ele>1409.43</ele>
        <time>2013-06-08T04:24:41Z</time>
      </trkpt>
      <trkpt lat="46.17795" lon="5.86079">
        <ele>1410.39</ele>
        <time>2013-06-08T04:24:54Z</time>
      </trkpt>
      <trkpt lat="46.178" lon="5.8608">
        <ele>1411.35</ele>
        <time>2013-06-08T04:24:57Z</time>
      </trkpt>
      <trkpt lat="46.17806" lon="5.86082">
        <ele>1409.91</ele>
        <time>2013-06-08T04:25:00Z</time>
      </trkpt>
      <trkpt lat="46.17822" lon="5.86082">
        <ele>1408.95</ele>
        <time>2013-06-08T04:25:11Z</time>
      </trkpt>
      <trkpt lat="46.1783" lon="5.86082">
        <ele>1409.43</ele>
        <time>2013-06-08T04:25:21Z</time>
      </trkpt>
      <trkpt lat="46.17831" lon="5.86082">
        <ele>1409.43</ele>
        <time>2013-06-08T04:25:23Z</time>
      </trkpt>
      <trkpt lat="46.17833" lon="5.86083">
        <ele>1409.43</ele>
        <time>2013-06-08T04:25:25Z</time>
      </trkpt>
      <trkpt lat="46.17838" lon="5.86085">
        <ele>1409.43</ele>
        <time>2013-06-08T04:25:28Z</time>
      </trkpt>
      <trkpt lat="46.17842" lon="5.8609">
        <ele>1406.55</ele>
        <time>2013-06-08T04:25:33Z</time>
      </trkpt>
      <trkpt lat="46.17843" lon="5.861">
        <ele>1400.78</ele>
        <time>2013-06-08T04:25:38Z</time>
      </trkpt>
      <trkpt lat="46.17841" lon="5.86105">
        <ele>1397.89</ele>
        <time>2013-06-08T04:25:41Z</time>
      </trkpt>
      <trkpt lat="46.17842" lon="5.86109">
        <ele>1394.53</ele>
        <time>2013-06-08T04:25:43Z</time>
      </trkpt>
      <trkpt lat="46.17842" lon="5.86123">
        <ele>1382.99</ele>
        <time>2013-06-08T04:25:54Z</time>
      </trkpt>
      <trkpt lat="46.17849" lon="5.86158">
        <ele>1376.75</ele>
        <time>2013-06-08T04:26:10Z</time>
      </trkpt>
      <trkpt lat="46.17851" lon="5.86183">
        <ele>1374.82</ele>
        <time>2013-06-08T04:26:27Z</time>
      </trkpt>
      <trkpt lat="46.17849" lon="5.86183">
        <ele>1374.82</ele>
        <time>2013-06-08T04:26:28Z</time>
      </trkpt>
      <trkpt lat="46.17846" lon="5.86196">
        <ele>1377.71</ele>
        <time>2013-06-08T04:26:38Z</time>
      </trkpt>
      <trkpt lat="46.17842" lon="5.86216">
        <ele>1377.23</ele>
        <time>2013-06-08T04:26:51Z</time>
      </trkpt>
      <trkpt lat="46.1785" lon="5.86263">
        <ele>1376.75</ele>
        <time>2013-06-08T04:27:05Z</time>
      </trkpt>
      <trkpt lat="46.17866" lon="5.86275">
        <ele>1378.67</ele>
        <time>2013-06-08T04:27:19Z</time>
      </trkpt>
      <trkpt lat="46.17883" lon="5.86266">
        <ele>1383.47</ele>
        <time>2013-06-08T04:27:34Z</time>
      </trkpt>
      <trkpt lat="46.17891" lon="5.86259">
        <ele>1385.4</ele>
        <time>2013-06-08T04:27:42Z</time>
      </trkpt>
      <trkpt lat="46.17917" lon="5.86248">
        <ele>1387.8</ele>
        <time>2013-06-08T04:28:00Z</time>
      </trkpt>
      <trkpt lat="46.17932" lon="5.86251">
        <ele>1395.01</ele>
        <time>2013-06-08T04:28:13Z</time>
      </trkpt>
      <trkpt lat="46.17933" lon="5.86253">
        <ele>1395.97</ele>
        <time>2013-06-08T04:28:14Z</time>
      </trkpt>
      <trkpt lat="46.17954" lon="5.86268">
        <ele>1405.1</ele>
        <time>2013-06-08T04:28:31Z</time>
      </trkpt>
      <trkpt lat="46.17959" lon="5.86268">
        <ele>1408.95</ele>
        <time>2013-06-08T04:28:37Z</time>
      </trkpt>
      <trkpt lat="46.17967" lon="5.86294">
        <ele>1403.66</ele>
        <time>2013-06-08T04:28:52Z</time>
      </trkpt>
      <trkpt lat="46.17969" lon="5.86298">
        <ele>1402.7</ele>
        <time>2013-06-08T04:28:54Z</time>
      </trkpt>
      <trkpt lat="46.17969" lon="5.86331">
        <ele>1392.61</ele>
        <time>2013-06-08T04:29:10Z</time>
      </trkpt>
      <trkpt lat="46.17969" lon="5.86332">
        <ele>1392.61</ele>
        <time>2013-06-08T04:29:11Z</time>
      </trkpt>
      <trkpt lat="46.17983" lon="5.86368">
        <ele>1395.01</ele>
        <time>2013-06-08T04:29:26Z</time>
      </trkpt>
      <trkpt lat="46.17999" lon="5.86368">
        <ele>1401.74</ele>
        <time>2013-06-08T04:29:41Z</time>
      </trkpt>
      <trkpt lat="46.18019" lon="5.86357">
        <ele>1408.95</ele>
        <time>2013-06-08T04:29:56Z</time>
      </trkpt>
      <trkpt lat="46.1802" lon="5.86357">
        <ele>1409.43</ele>
        <time>2013-06-08T04:29:57Z</time>
      </trkpt>
      <trkpt lat="46.18041" lon="5.86353">
        <ele>1413.76</ele>
        <time>2013-06-08T04:30:12Z</time>
      </trkpt>
      <trkpt lat="46.18042" lon="5.86352">
        <ele>1413.76</ele>
        <time>2013-06-08T04:30:13Z</time>
      </trkpt>
      <trkpt lat="46.18058" lon="5.86343">
        <ele>1421.93</ele>
        <time>2013-06-08T04:30:26Z</time>
      </trkpt>
      <trkpt lat="46.18075" lon="5.86335">
        <ele>1432.5</ele>
        <time>2013-06-08T04:30:41Z</time>
      </trkpt>
      <trkpt lat="46.18098" lon="5.86327">
        <ele>1438.75</ele>
        <time>2013-06-08T04:31:00Z</time>
      </trkpt>
      <trkpt lat="46.18111" lon="5.86319">
        <ele>1444.52</ele>
        <time>2013-06-08T04:31:14Z</time>
      </trkpt>
      <trkpt lat="46.18129" lon="5.86318">
        <ele>1445</ele>
        <time>2013-06-08T04:31:28Z</time>
      </trkpt>
      <trkpt lat="46.18152" lon="5.86317">
        <ele>1444.04</ele>
        <time>2013-06-08T04:31:43Z</time>
      </trkpt>
      <trkpt lat="46.1817" lon="5.86316">
        <ele>1440.67</ele>
        <time>2013-06-08T04:31:57Z</time>
      </trkpt>
      <trkpt lat="46.18186" lon="5.86326">
        <ele>1438.27</ele>
        <time>2013-06-08T04:32:06Z</time>
      </trkpt>
      <trkpt lat="46.18218" lon="5.86318">
        <ele>1397.41</ele>
        <time>2013-06-08T04:32:19Z</time>
      </trkpt>
      <trkpt lat="46.18225" lon="5.86325">
        <ele>1389.24</ele>
        <time>2013-06-08T04:32:33Z</time>
      </trkpt>
      <trkpt lat="46.18228" lon="5.86326">
        <ele>1388.28</ele>
        <time>2013-06-08T04:32:36Z</time>
      </trkpt>
      <trkpt lat="46.1824" lon="5.86316">
        <ele>1388.76</ele>
        <time>2013-06-08T04:32:43Z</time>
      </trkpt>
      <trkpt lat="46.18253" lon="5.86307">
        <ele>1389.24</ele>
        <time>2013-06-08T04:32:52Z</time>
      </trkpt>
      <trkpt lat="46.1826" lon="5.86314">
        <ele>1386.84</ele>
        <time>2013-06-08T04:33:01Z</time>
      </trkpt>
      <trkpt lat="46.1826" lon="5.86316">
        <ele>1383.96</ele>
        <time>2013-06-08T04:33:13Z</time>
      </trkpt>
      <trkpt lat="46.18261" lon="5.86317">
        <ele>1382.51</ele>
        <time>2013-06-08T04:33:36Z</time>
      </trkpt>
      <trkpt lat="46.1826" lon="5.86317">
        <ele>1381.55</ele>
        <time>2013-06-08T04:34:03Z</time>
      </trkpt>
      <trkpt lat="46.1826" lon="5.86316">
        <ele>1382.03</ele>
        <time>2013-06-08T04:34:28Z</time>
      </trkpt>
      <trkpt lat="46.18261" lon="5.86317">
        <ele>1382.03</ele>
        <time>2013-06-08T04:34:52Z</time>
      </trkpt>
      <trkpt lat="46.18261" lon="5.86316">
        <ele>1382.51</ele>
        <time>2013-06-08T04:35:17Z</time>
      </trkpt>
      <trkpt lat="46.18261" lon="5.86317">
        <ele>1382.03</ele>
        <time>2013-06-08T04:35:37Z</time>
      </trkpt>
      <trkpt lat="46.1826" lon="5.86316">
        <ele>1382.03</ele>
        <time>2013-06-08T04:35:53Z</time>
      </trkpt>
      <trkpt lat="46.18259" lon="5.86316">
        <ele>1382.03</ele>
        <time>2013-06-08T04:36:14Z</time>
      </trkpt>
      <trkpt lat="46.18259" lon="5.86316">
        <ele>1382.03</ele>
        <time>2013-06-08T04:36:28Z</time>
      </trkpt>
      <trkpt lat="46.18263" lon="5.86316">
        <ele>1381.55</ele>
        <time>2013-06-08T04:36:31Z</time>
      </trkpt>
      <trkpt lat="46.18269" lon="5.86323">
        <ele>1380.59</ele>
        <time>2013-06-08T04:36:37Z</time>
      </trkpt>
      <trkpt lat="46.18286" lon="5.86339">
        <ele>1380.11</ele>
        <time>2013-06-08T04:36:52Z</time>
      </trkpt>
      <trkpt lat="46.18297" lon="5.86353">
        <ele>1381.55</ele>
        <time>2013-06-08T04:37:08Z</time>
      </trkpt>
      <trkpt lat="46.18303" lon="5.8637">
        <ele>1384.44</ele>
        <time>2013-06-08T04:37:24Z</time>
      </trkpt>
      <trkpt lat="46.18315" lon="5.86386">
        <ele>1388.76</ele>
        <time>2013-06-08T04:37:39Z</time>
      </trkpt>
      <trkpt lat="46.18332" lon="5.86394">
        <ele>1394.53</ele>
        <time>2013-06-08T04:37:57Z</time>
      </trkpt>
      <trkpt lat="46.18346" lon="5.86402">
        <ele>1402.22</ele>
        <time>2013-06-08T04:38:15Z</time>
      </trkpt>
      <trkpt lat="46.18362" lon="5.86402">
        <ele>1406.07</ele>
        <time>2013-06-08T04:38:30Z</time>
      </trkpt>
      <trkpt lat="46.18379" lon="5.86387">
        <ele>1409.91</ele>
        <time>2013-06-08T04:38:46Z</time>
      </trkpt>
      <trkpt lat="46.18387" lon="5.86379">
        <ele>1418.56</ele>
        <time>2013-06-08T04:39:00Z</time>
      </trkpt>
      <trkpt lat="46.18391" lon="5.86378">
        <ele>1422.41</ele>
        <time>2013-06-08T04:39:13Z</time>
      </trkpt>
      <trkpt lat="46.18399" lon="5.86378">
        <ele>1429.62</ele>
        <time>2013-06-08T04:39:25Z</time>
      </trkpt>
      <trkpt lat="46.18406" lon="5.86379">
        <ele>1431.54</ele>
        <time>2013-06-08T04:39:38Z</time>
      </trkpt>
      <trkpt lat="46.18414" lon="5.86387">
        <ele>1433.46</ele>
        <time>2013-06-08T04:39:51Z</time>
      </trkpt>
      <trkpt lat="46.1843" lon="5.86383">
        <ele>1434.42</ele>
        <time>2013-06-08T04:40:05Z</time>
      </trkpt>
      <trkpt lat="46.18437" lon="5.86384">
        <ele>1434.42</ele>
        <time>2013-06-08T04:40:17Z</time>
      </trkpt>
      <trkpt lat="46.18451" lon="5.86386">
        <ele>1435.39</ele>
        <time>2013-06-08T04:40:33Z</time>
      </trkpt>
      <trkpt lat="46.18461" lon="5.86378">
        <ele>1435.87</ele>
        <time>2013-06-08T04:40:48Z</time>
      </trkpt>
      <trkpt lat="46.18473" lon="5.86381">
        <ele>1440.19</ele>
        <time>2013-06-08T04:41:05Z</time>
      </trkpt>
      <trkpt lat="46.18481" lon="5.86382">
        <ele>1444.04</ele>
        <time>2013-06-08T04:41:18Z</time>
      </trkpt>
      <trkpt lat="46.1849" lon="5.8638">
        <ele>1448.84</ele>
        <time>2013-06-08T04:41:30Z</time>
      </trkpt>
      <trkpt lat="46.18497" lon="5.86381">
        <ele>1450.29</ele>
        <time>2013-06-08T04:41:42Z</time>
      </trkpt>
      <trkpt lat="46.18497" lon="5.86382">
        <ele>1450.29</ele>
        <time>2013-06-08T04:41:43Z</time>
      </trkpt>
      <trkpt lat="46.18508" lon="5.86388">
        <ele>1453.65</ele>
        <time>2013-06-08T04:41:55Z</time>
      </trkpt>
      <trkpt lat="46.18514" lon="5.86393">
        <ele>1455.57</ele>
        <time>2013-06-08T04:42:02Z</time>
      </trkpt>
      <trkpt lat="46.18522" lon="5.86401">
        <ele>1456.53</ele>
        <time>2013-06-08T04:42:10Z</time>
      </trkpt>
      <trkpt lat="46.18525" lon="5.86409">
        <ele>1457.02</ele>
        <time>2013-06-08T04:42:15Z</time>
      </trkpt>
      <trkpt lat="46.18528" lon="5.86414">
        <ele>1457.5</ele>
        <time>2013-06-08T04:42:18Z</time>
      </trkpt>
      <trkpt lat="46.18539" lon="5.86438">
        <ele>1457.98</ele>
        <time>2013-06-08T04:42:33Z</time>
      </trkpt>
      <trkpt lat="46.1854" lon="5.86447">
        <ele>1458.46</ele>
        <time>2013-06-08T04:42:38Z</time>
      </trkpt>
      <trkpt lat="46.18543" lon="5.86461">
        <ele>1458.46</ele>
        <time>2013-06-08T04:42:45Z</time>
      </trkpt>
      <trkpt lat="46.1855" lon="5.86472">
        <ele>1459.9</ele>
        <time>2013-06-08T04:42:52Z</time>
      </trkpt>
      <trkpt lat="46.18555" lon="5.86475">
        <ele>1459.9</ele>
        <time>2013-06-08T04:42:56Z</time>
      </trkpt>
      <trkpt lat="46.1856" lon="5.86481">
        <ele>1459.42</ele>
        <time>2013-06-08T04:43:03Z</time>
      </trkpt>
      <trkpt lat="46.18568" lon="5.86489">
        <ele>1458.94</ele>
        <time>2013-06-08T04:43:10Z</time>
      </trkpt>
      <trkpt lat="46.18577" lon="5.86501">
        <ele>1457.5</ele>
        <time>2013-06-08T04:43:21Z</time>
      </trkpt>
      <trkpt lat="46.18581" lon="5.86503">
        <ele>1457.02</ele>
        <time>2013-06-08T04:43:24Z</time>
      </trkpt>
      <trkpt lat="46.18585" lon="5.86509">
        <ele>1457.02</ele>
        <time>2013-06-08T04:43:28Z</time>
      </trkpt>
      <trkpt lat="46.18601" lon="5.86514">
        <ele>1457.5</ele>
        <time>2013-06-08T04:43:41Z</time>
      </trkpt>
      <trkpt lat="46.18608" lon="5.86514">
        <ele>1457.98</ele>
        <time>2013-06-08T04:43:53Z</time>
      </trkpt>
      <trkpt lat="46.18621" lon="5.86516">
        <ele>1459.42</ele>
        <time>2013-06-08T04:44:06Z</time>
      </trkpt>
      <trkpt lat="46.18632" lon="5.8652">
        <ele>1460.38</ele>
        <time>2013-06-08T04:44:18Z</time>
      </trkpt>
      <trkpt lat="46.18639" lon="5.86528">
        <ele>1461.34</ele>
        <time>2013-06-08T04:44:28Z</time>
      </trkpt>
      <trkpt lat="46.18649" lon="5.86547">
        <ele>1464.23</ele>
        <time>2013-06-08T04:44:42Z</time>
      </trkpt>
      <trkpt lat="46.18652" lon="5.86551">
        <ele>1465.19</ele>
        <time>2013-06-08T04:44:45Z</time>
      </trkpt>
      <trkpt lat="46.18659" lon="5.86559">
        <ele>1466.63</ele>
        <time>2013-06-08T04:44:53Z</time>
      </trkpt>
      <trkpt lat="46.18668" lon="5.86588">
        <ele>1468.55</ele>
        <time>2013-06-08T04:45:10Z</time>
      </trkpt>
      <trkpt lat="46.1867" lon="5.8659">
        <ele>1468.55</ele>
        <time>2013-06-08T04:45:12Z</time>
      </trkpt>
      <trkpt lat="46.18677" lon="5.86599">
        <ele>1469.99</ele>
        <time>2013-06-08T04:45:19Z</time>
      </trkpt>
      <trkpt lat="46.18693" lon="5.86601">
        <ele>1468.07</ele>
        <time>2013-06-08T04:45:29Z</time>
      </trkpt>
      <trkpt lat="46.18701" lon="5.86606">
        <ele>1467.11</ele>
        <time>2013-06-08T04:45:36Z</time>
      </trkpt>
      <trkpt lat="46.1871" lon="5.86608">
        <ele>1465.67</ele>
        <time>2013-06-08T04:45:43Z</time>
      </trkpt>
      <trkpt lat="46.18716" lon="5.86612">
        <ele>1465.19</ele>
        <time>2013-06-08T04:45:47Z</time>
      </trkpt>
      <trkpt lat="46.18718" lon="5.86614">
        <ele>1465.19</ele>
        <time>2013-06-08T04:45:49Z</time>
      </trkpt>
      <trkpt lat="46.1873" lon="5.86624">
        <ele>1464.71</ele>
        <time>2013-06-08T04:46:01Z</time>
      </trkpt>
      <trkpt lat="46.18734" lon="5.86629">
        <ele>1465.19</ele>
        <time>2013-06-08T04:46:09Z</time>
      </trkpt>
      <trkpt lat="46.18744" lon="5.86638">
        <ele>1464.71</ele>
        <time>2013-06-08T04:46:20Z</time>
      </trkpt>
      <trkpt lat="46.18745" lon="5.86641">
        <ele>1466.63</ele>
        <time>2013-06-08T04:46:44Z</time>
      </trkpt>
      <trkpt lat="46.18756" lon="5.86661">
        <ele>1466.63</ele>
        <time>2013-06-08T04:46:58Z</time>
      </trkpt>
      <trkpt lat="46.18757" lon="5.86662">
        <ele>1466.63</ele>
        <time>2013-06-08T04:46:59Z</time>
      </trkpt>
      <trkpt lat="46.18772" lon="5.86677">
        <ele>1468.07</ele>
        <time>2013-06-08T04:47:12Z</time>
      </trkpt>
      <trkpt lat="46.18785" lon="5.8669">
        <ele>1469.51</ele>
        <time>2013-06-08T04:47:24Z</time>
      </trkpt>
      <trkpt lat="46.18793" lon="5.86698">
        <ele>1469.51</ele>
        <time>2013-06-08T04:47:32Z</time>
      </trkpt>
      <trkpt lat="46.18794" lon="5.86702">
        <ele>1469.03</ele>
        <time>2013-06-08T04:47:34Z</time>
      </trkpt>
      <trkpt lat="46.18795" lon="5.86712">
        <ele>1467.59</ele>
        <time>2013-06-08T04:47:39Z</time>
      </trkpt>
      <trkpt lat="46.18794" lon="5.86739">
        <ele>1462.3</ele>
        <time>2013-06-08T04:47:52Z</time>
      </trkpt>
      <trkpt lat="46.18796" lon="5.86746">
        <ele>1461.34</ele>
        <time>2013-06-08T04:47:55Z</time>
      </trkpt>
      <trkpt lat="46.18798" lon="5.86768">
        <ele>1457.5</ele>
        <time>2013-06-08T04:48:05Z</time>
      </trkpt>
      <trkpt lat="46.1881" lon="5.86792">
        <ele>1452.21</ele>
        <time>2013-06-08T04:48:21Z</time>
      </trkpt>
      <trkpt lat="46.18811" lon="5.86794">
        <ele>1451.25</ele>
        <time>2013-06-08T04:48:31Z</time>
      </trkpt>
      <trkpt lat="46.18812" lon="5.86796">
        <ele>1450.77</ele>
        <time>2013-06-08T04:48:33Z</time>
      </trkpt>
      <trkpt lat="46.18812" lon="5.86804">
        <ele>1449.81</ele>
        <time>2013-06-08T04:48:38Z</time>
      </trkpt>
      <trkpt lat="46.18819" lon="5.86814">
        <ele>1450.29</ele>
        <time>2013-06-08T04:48:46Z</time>
      </trkpt>
      <trkpt lat="46.18819" lon="5.86819">
        <ele>1450.77</ele>
        <time>2013-06-08T04:48:49Z</time>
      </trkpt>
      <trkpt lat="46.18823" lon="5.86828">
        <ele>1452.21</ele>
        <time>2013-06-08T04:48:55Z</time>
      </trkpt>
      <trkpt lat="46.18824" lon="5.86848">
        <ele>1453.17</ele>
        <time>2013-06-08T04:49:10Z</time>
      </trkpt>
      <trkpt lat="46.1882" lon="5.86875">
        <ele>1451.25</ele>
        <time>2013-06-08T04:49:23Z</time>
      </trkpt>
      <trkpt lat="46.18816" lon="5.86884">
        <ele>1449.81</ele>
        <time>2013-06-08T04:49:27Z</time>
      </trkpt>
      <trkpt lat="46.18817" lon="5.86918">
        <ele>1445.48</ele>
        <time>2013-06-08T04:49:41Z</time>
      </trkpt>
      <trkpt lat="46.18819" lon="5.86934">
        <ele>1442.6</ele>
        <time>2013-06-08T04:49:53Z</time>
      </trkpt>
      <trkpt lat="46.18815" lon="5.86955">
        <ele>1443.08</ele>
        <time>2013-06-08T04:50:07Z</time>
      </trkpt>
      <trkpt lat="46.18813" lon="5.86963">
        <ele>1445.48</ele>
        <time>2013-06-08T04:50:15Z</time>
      </trkpt>
      <trkpt lat="46.18808" lon="5.86971">
        <ele>1447.4</ele>
        <time>2013-06-08T04:50:20Z</time>
      </trkpt>
      <trkpt lat="46.18801" lon="5.86994">
        <ele>1448.36</ele>
        <time>2013-06-08T04:50:34Z</time>
      </trkpt>
      <trkpt lat="46.18786" lon="5.8701">
        <ele>1450.77</ele>
        <time>2013-06-08T04:50:50Z</time>
      </trkpt>
      <trkpt lat="46.18784" lon="5.87018">
        <ele>1450.77</ele>
        <time>2013-06-08T04:50:56Z</time>
      </trkpt>
      <trkpt lat="46.1879" lon="5.87028">
        <ele>1451.25</ele>
        <time>2013-06-08T04:51:02Z</time>
      </trkpt>
      <trkpt lat="46.18803" lon="5.87039">
        <ele>1453.17</ele>
        <time>2013-06-08T04:51:15Z</time>
      </trkpt>
      <trkpt lat="46.18804" lon="5.87041">
        <ele>1453.65</ele>
        <time>2013-06-08T04:51:22Z</time>
      </trkpt>
      <trkpt lat="46.18801" lon="5.87046">
        <ele>1453.17</ele>
        <time>2013-06-08T04:51:27Z</time>
      </trkpt>
      <trkpt lat="46.1879" lon="5.87081">
        <ele>1450.29</ele>
        <time>2013-06-08T04:51:45Z</time>
      </trkpt>
      <trkpt lat="46.18788" lon="5.87105">
        <ele>1447.88</ele>
        <time>2013-06-08T04:51:57Z</time>
      </trkpt>
      <trkpt lat="46.18789" lon="5.87114">
        <ele>1447.4</ele>
        <time>2013-06-08T04:52:12Z</time>
      </trkpt>
      <trkpt lat="46.18789" lon="5.87114">
        <ele>1447.4</ele>
        <time>2013-06-08T04:52:30Z</time>
      </trkpt>
      <trkpt lat="46.1879" lon="5.87115">
        <ele>1446.92</ele>
        <time>2013-06-08T04:52:40Z</time>
      </trkpt>
      <trkpt lat="46.18796" lon="5.87138">
        <ele>1445.48</ele>
        <time>2013-06-08T04:52:54Z</time>
      </trkpt>
      <trkpt lat="46.188" lon="5.87147">
        <ele>1444.52</ele>
        <time>2013-06-08T04:53:04Z</time>
      </trkpt>
      <trkpt lat="46.18809" lon="5.87175">
        <ele>1444.04</ele>
        <time>2013-06-08T04:53:19Z</time>
      </trkpt>
      <trkpt lat="46.1882" lon="5.87201">
        <ele>1444.04</ele>
        <time>2013-06-08T04:53:33Z</time>
      </trkpt>
      <trkpt lat="46.18824" lon="5.87209">
        <ele>1443.56</ele>
        <time>2013-06-08T04:53:37Z</time>
      </trkpt>
      <trkpt lat="46.18827" lon="5.87219">
        <ele>1443.08</ele>
        <time>2013-06-08T04:53:42Z</time>
      </trkpt>
      <trkpt lat="46.18828" lon="5.87226">
        <ele>1442.11</ele>
        <time>2013-06-08T04:53:47Z</time>
      </trkpt>
      <trkpt lat="46.18829" lon="5.87242">
        <ele>1441.15</ele>
        <time>2013-06-08T04:53:55Z</time>
      </trkpt>
      <trkpt lat="46.18832" lon="5.8727">
        <ele>1444.04</ele>
        <time>2013-06-08T04:54:09Z</time>
      </trkpt>
      <trkpt lat="46.18832" lon="5.87271">
        <ele>1444.52</ele>
        <time>2013-06-08T04:54:10Z</time>
      </trkpt>
      <trkpt lat="46.18843" lon="5.87282">
        <ele>1447.4</ele>
        <time>2013-06-08T04:54:22Z</time>
      </trkpt>
      <trkpt lat="46.18849" lon="5.87276">
        <ele>1447.88</ele>
        <time>2013-06-08T04:54:36Z</time>
      </trkpt>
      <trkpt lat="46.18853" lon="5.87279">
        <ele>1448.84</ele>
        <time>2013-06-08T04:54:44Z</time>
      </trkpt>
      <trkpt lat="46.18865" lon="5.87291">
        <ele>1448.84</ele>
        <time>2013-06-08T04:54:56Z</time>
      </trkpt>
      <trkpt lat="46.1888" lon="5.87305">
        <ele>1449.81</ele>
        <time>2013-06-08T04:55:10Z</time>
      </trkpt>
      <trkpt lat="46.1889" lon="5.8731">
        <ele>1449.32</ele>
        <time>2013-06-08T04:55:17Z</time>
      </trkpt>
      <trkpt lat="46.18897" lon="5.87322">
        <ele>1444.04</ele>
        <time>2013-06-08T04:55:29Z</time>
      </trkpt>
      <trkpt lat="46.18898" lon="5.87323">
        <ele>1443.56</ele>
        <time>2013-06-08T04:55:30Z</time>
      </trkpt>
      <trkpt lat="46.18902" lon="5.87333">
        <ele>1440.67</ele>
        <time>2013-06-08T04:55:37Z</time>
      </trkpt>
      <trkpt lat="46.18905" lon="5.8734">
        <ele>1439.23</ele>
        <time>2013-06-08T04:55:41Z</time>
      </trkpt>
      <trkpt lat="46.18908" lon="5.87349">
        <ele>1437.79</ele>
        <time>2013-06-08T04:55:46Z</time>
      </trkpt>
      <trkpt lat="46.1892" lon="5.87372">
        <ele>1433.46</ele>
        <time>2013-06-08T04:56:01Z</time>
      </trkpt>
      <trkpt lat="46.18921" lon="5.87375">
        <ele>1432.98</ele>
        <time>2013-06-08T04:56:04Z</time>
      </trkpt>
      <trkpt lat="46.18928" lon="5.87397">
        <ele>1431.06</ele>
        <time>2013-06-08T04:56:15Z</time>
      </trkpt>
      <trkpt lat="46.1893" lon="5.87413">
        <ele>1431.06</ele>
        <time>2013-06-08T04:56:23Z</time>
      </trkpt>
      <trkpt lat="46.18928" lon="5.87418">
        <ele>1431.06</ele>
        <time>2013-06-08T04:56:27Z</time>
      </trkpt>
      <trkpt lat="46.18925" lon="5.87432">
        <ele>1432.02</ele>
        <time>2013-06-08T04:56:35Z</time>
      </trkpt>
      <trkpt lat="46.18931" lon="5.87459">
        <ele>1429.62</ele>
        <time>2013-06-08T04:56:48Z</time>
      </trkpt>
      <trkpt lat="46.18932" lon="5.87473">
        <ele>1428.18</ele>
        <time>2013-06-08T04:56:54Z</time>
      </trkpt>
      <trkpt lat="46.18932" lon="5.87479">
        <ele>1428.66</ele>
        <time>2013-06-08T04:56:56Z</time>
      </trkpt>
      <trkpt lat="46.18932" lon="5.87495">
        <ele>1430.58</ele>
        <time>2013-06-08T04:57:05Z</time>
      </trkpt>
      <trkpt lat="46.18935" lon="5.87508">
        <ele>1432.02</ele>
        <time>2013-06-08T04:57:17Z</time>
      </trkpt>
      <trkpt lat="46.18934" lon="5.87521">
        <ele>1432.02</ele>
        <time>2013-06-08T04:57:26Z</time>
      </trkpt>
      <trkpt lat="46.18934" lon="5.87527">
        <ele>1432.02</ele>
        <time>2013-06-08T04:57:29Z</time>
      </trkpt>
      <trkpt lat="46.18935" lon="5.87541">
        <ele>1434.91</ele>
        <time>2013-06-08T04:57:36Z</time>
      </trkpt>
      <trkpt lat="46.18937" lon="5.87551">
        <ele>1436.83</ele>
        <time>2013-06-08T04:57:42Z</time>
      </trkpt>
      <trkpt lat="46.18938" lon="5.8756">
        <ele>1437.31</ele>
        <time>2013-06-08T04:57:47Z</time>
      </trkpt>
      <trkpt lat="46.18939" lon="5.87565">
        <ele>1437.31</ele>
        <time>2013-06-08T04:57:50Z</time>
      </trkpt>
      <trkpt lat="46.18944" lon="5.87592">
        <ele>1437.79</ele>
        <time>2013-06-08T04:58:05Z</time>
      </trkpt>
      <trkpt lat="46.18947" lon="5.87602">
        <ele>1436.83</ele>
        <time>2013-06-08T04:58:10Z</time>
      </trkpt>
      <trkpt lat="46.18942" lon="5.8763">
        <ele>1433.94</ele>
        <time>2013-06-08T04:58:24Z</time>
      </trkpt>
      <trkpt lat="46.18943" lon="5.87642">
        <ele>1432.02</ele>
        <time>2013-06-08T04:58:30Z</time>
      </trkpt>
      <trkpt lat="46.18944" lon="5.87667">
        <ele>1430.1</ele>
        <time>2013-06-08T04:58:43Z</time>
      </trkpt>
      <trkpt lat="46.18948" lon="5.87691">
        <ele>1431.06</ele>
        <time>2013-06-08T04:58:54Z</time>
      </trkpt>
      <trkpt lat="46.1896" lon="5.87713">
        <ele>1431.54</ele>
        <time>2013-06-08T04:59:07Z</time>
      </trkpt>
      <trkpt lat="46.18964" lon="5.87717">
        <ele>1431.06</ele>
        <time>2013-06-08T04:59:10Z</time>
      </trkpt>
      <trkpt lat="46.18979" lon="5.87728">
        <ele>1428.18</ele>
        <time>2013-06-08T04:59:23Z</time>
      </trkpt>
      <trkpt lat="46.18997" lon="5.87736">
        <ele>1426.25</ele>
        <time>2013-06-08T04:59:37Z</time>
      </trkpt>
      <trkpt lat="46.19" lon="5.87745">
        <ele>1426.73</ele>
        <time>2013-06-08T04:59:44Z</time>
      </trkpt>
      <trkpt lat="46.19005" lon="5.87758">
        <ele>1424.81</ele>
        <time>2013-06-08T04:59:52Z</time>
      </trkpt>
      <trkpt lat="46.19013" lon="5.87767">
        <ele>1424.81</ele>
        <time>2013-06-08T04:59:59Z</time>
      </trkpt>
      <trkpt lat="46.19016" lon="5.87771">
        <ele>1424.81</ele>
        <time>2013-06-08T05:00:14Z</time>
      </trkpt>
      <trkpt lat="46.19016" lon="5.87771">
        <ele>1424.81</ele>
        <time>2013-06-08T05:00:22Z</time>
      </trkpt>
      <trkpt lat="46.19026" lon="5.87777">
        <ele>1425.77</ele>
        <time>2013-06-08T05:00:37Z</time>
      </trkpt>
      <trkpt lat="46.19035" lon="5.87784">
        <ele>1429.14</ele>
        <time>2013-06-08T05:00:45Z</time>
      </trkpt>
      <trkpt lat="46.19048" lon="5.87797">
        <ele>1431.54</ele>
        <time>2013-06-08T05:01:01Z</time>
      </trkpt>
      <trkpt lat="46.19049" lon="5.87798">
        <ele>1431.06</ele>
        <time>2013-06-08T05:01:02Z</time>
      </trkpt>
      <trkpt lat="46.19061" lon="5.87812">
        <ele>1428.66</ele>
        <time>2013-06-08T05:01:12Z</time>
      </trkpt>
      <trkpt lat="46.19073" lon="5.87823">
        <ele>1426.73</ele>
        <time>2013-06-08T05:01:24Z</time>
      </trkpt>
      <trkpt lat="46.19086" lon="5.8783">
        <ele>1426.25</ele>
        <time>2013-06-08T05:01:38Z</time>
      </trkpt>
      <trkpt lat="46.19097" lon="5.8783">
        <ele>1424.33</ele>
        <time>2013-06-08T05:01:53Z</time>
      </trkpt>
      <trkpt lat="46.19108" lon="5.8783">
        <ele>1422.89</ele>
        <time>2013-06-08T05:02:08Z</time>
      </trkpt>
      <trkpt lat="46.19112" lon="5.87831">
        <ele>1422.41</ele>
        <time>2013-06-08T05:02:20Z</time>
      </trkpt>
      <trkpt lat="46.19118" lon="5.87836">
        <ele>1421.93</ele>
        <time>2013-06-08T05:02:37Z</time>
      </trkpt>
      <trkpt lat="46.19134" lon="5.87841">
        <ele>1426.25</ele>
        <time>2013-06-08T05:02:50Z</time>
      </trkpt>
      <trkpt lat="46.19148" lon="5.87836">
        <ele>1428.66</ele>
        <time>2013-06-08T05:03:03Z</time>
      </trkpt>
      <trkpt lat="46.1916" lon="5.87832">
        <ele>1432.5</ele>
        <time>2013-06-08T05:03:15Z</time>
      </trkpt>
      <trkpt lat="46.19172" lon="5.87832">
        <ele>1435.39</ele>
        <time>2013-06-08T05:03:28Z</time>
      </trkpt>
      <trkpt lat="46.19174" lon="5.87832">
        <ele>1435.39</ele>
        <time>2013-06-08T05:03:29Z</time>
      </trkpt>
      <trkpt lat="46.19182" lon="5.87834">
        <ele>1435.39</ele>
        <time>2013-06-08T05:03:35Z</time>
      </trkpt>
      <trkpt lat="46.19196" lon="5.8784">
        <ele>1438.27</ele>
        <time>2013-06-08T05:03:50Z</time>
      </trkpt>
      <trkpt lat="46.192" lon="5.87846">
        <ele>1436.35</ele>
        <time>2013-06-08T05:04:05Z</time>
      </trkpt>
      <trkpt lat="46.19202" lon="5.87844">
        <ele>1434.42</ele>
        <time>2013-06-08T05:04:26Z</time>
      </trkpt>
      <trkpt lat="46.19203" lon="5.87845">
        <ele>1433.94</ele>
        <time>2013-06-08T05:04:29Z</time>
      </trkpt>
      <trkpt lat="46.19213" lon="5.87853">
        <ele>1433.46</ele>
        <time>2013-06-08T05:04:41Z</time>
      </trkpt>
      <trkpt lat="46.19221" lon="5.87861">
        <ele>1433.46</ele>
        <time>2013-06-08T05:04:49Z</time>
      </trkpt>
      <trkpt lat="46.1923" lon="5.8787">
        <ele>1433.94</ele>
        <time>2013-06-08T05:04:58Z</time>
      </trkpt>
      <trkpt lat="46.19247" lon="5.8788">
        <ele>1435.87</ele>
        <time>2013-06-08T05:05:12Z</time>
      </trkpt>
      <trkpt lat="46.1926" lon="5.87888">
        <ele>1436.35</ele>
        <time>2013-06-08T05:05:25Z</time>
      </trkpt>
      <trkpt lat="46.19262" lon="5.87889">
        <ele>1435.87</ele>
        <time>2013-06-08T05:05:26Z</time>
      </trkpt>
      <trkpt lat="46.19281" lon="5.87895">
        <ele>1434.91</ele>
        <time>2013-06-08T05:05:40Z</time>
      </trkpt>
      <trkpt lat="46.19288" lon="5.87897">
        <ele>1433.94</ele>
        <time>2013-06-08T05:05:45Z</time>
      </trkpt>
      <trkpt lat="46.19301" lon="5.8791">
        <ele>1433.94</ele>
        <time>2013-06-08T05:05:56Z</time>
      </trkpt>
      <trkpt lat="46.19308" lon="5.87931">
        <ele>1432.98</ele>
        <time>2013-06-08T05:06:09Z</time>
      </trkpt>
      <trkpt lat="46.19312" lon="5.87933">
        <ele>1432.5</ele>
        <time>2013-06-08T05:06:12Z</time>
      </trkpt>
      <trkpt lat="46.19329" lon="5.87952">
        <ele>1432.5</ele>
        <time>2013-06-08T05:06:26Z</time>
      </trkpt>
      <trkpt lat="46.19346" lon="5.8796">
        <ele>1428.18</ele>
        <time>2013-06-08T05:06:38Z</time>
      </trkpt>
      <trkpt lat="46.19359" lon="5.87963">
        <ele>1425.77</ele>
        <time>2013-06-08T05:06:50Z</time>
      </trkpt>
      <trkpt lat="46.19368" lon="5.87966">
        <ele>1426.73</ele>
        <time>2013-06-08T05:07:04Z</time>
      </trkpt>
      <trkpt lat="46.19381" lon="5.87978">
        <ele>1428.18</ele>
        <time>2013-06-08T05:07:21Z</time>
      </trkpt>
      <trkpt lat="46.19393" lon="5.87988">
        <ele>1428.18</ele>
        <time>2013-06-08T05:07:40Z</time>
      </trkpt>
      <trkpt lat="46.19396" lon="5.87994">
        <ele>1427.7</ele>
        <time>2013-06-08T05:07:48Z</time>
      </trkpt>
      <trkpt lat="46.19403" lon="5.88011">
        <ele>1426.73</ele>
        <time>2013-06-08T05:07:57Z</time>
      </trkpt>
      <trkpt lat="46.19408" lon="5.88021">
        <ele>1426.25</ele>
        <time>2013-06-08T05:08:06Z</time>
      </trkpt>
      <trkpt lat="46.19417" lon="5.88026">
        <ele>1426.25</ele>
        <time>2013-06-08T05:08:14Z</time>
      </trkpt>
      <trkpt lat="46.19421" lon="5.88028">
        <ele>1427.7</ele>
        <time>2013-06-08T05:08:17Z</time>
      </trkpt>
      <trkpt lat="46.19434" lon="5.88037">
        <ele>1430.58</ele>
        <time>2013-06-08T05:08:33Z</time>
      </trkpt>
      <trkpt lat="46.1944" lon="5.8804">
        <ele>1431.06</ele>
        <time>2013-06-08T05:08:53Z</time>
      </trkpt>
      <trkpt lat="46.19447" lon="5.88032">
        <ele>1430.1</ele>
        <time>2013-06-08T05:09:13Z</time>
      </trkpt>
      <trkpt lat="46.19449" lon="5.88033">
        <ele>1430.1</ele>
        <time>2013-06-08T05:09:39Z</time>
      </trkpt>
      <trkpt lat="46.1945" lon="5.88033">
        <ele>1429.62</ele>
        <time>2013-06-08T05:09:57Z</time>
      </trkpt>
      <trkpt lat="46.1945" lon="5.88032">
        <ele>1428.66</ele>
        <time>2013-06-08T05:10:24Z</time>
      </trkpt>
      <trkpt lat="46.1945" lon="5.88032">
        <ele>1429.14</ele>
        <time>2013-06-08T05:10:46Z</time>
      </trkpt>
      <trkpt lat="46.19449" lon="5.88033">
        <ele>1427.7</ele>
        <time>2013-06-08T05:11:15Z</time>
      </trkpt>
      <trkpt lat="46.19448" lon="5.88033">
        <ele>1426.73</ele>
        <time>2013-06-08T05:11:38Z</time>
      </trkpt>
      <trkpt lat="46.19449" lon="5.88034">
        <ele>1426.25</ele>
        <time>2013-06-08T05:12:06Z</time>
      </trkpt>
      <trkpt lat="46.1945" lon="5.88033">
        <ele>1426.73</ele>
        <time>2013-06-08T05:12:34Z</time>
      </trkpt>
      <trkpt lat="46.1945" lon="5.88033">
        <ele>1426.25</ele>
        <time>2013-06-08T05:12:55Z</time>
      </trkpt>
      <trkpt lat="46.1945" lon="5.88035">
        <ele>1426.73</ele>
        <time>2013-06-08T05:13:13Z</time>
      </trkpt>
      <trkpt lat="46.19456" lon="5.88051">
        <ele>1427.7</ele>
        <time>2013-06-08T05:13:26Z</time>
      </trkpt>
      <trkpt lat="46.19466" lon="5.88059">
        <ele>1428.66</ele>
        <time>2013-06-08T05:13:38Z</time>
      </trkpt>
      <trkpt lat="46.19481" lon="5.8807">
        <ele>1429.62</ele>
        <time>2013-06-08T05:13:53Z</time>
      </trkpt>
      <trkpt lat="46.19497" lon="5.88091">
        <ele>1433.94</ele>
        <time>2013-06-08T05:14:09Z</time>
      </trkpt>
      <trkpt lat="46.19502" lon="5.88107">
        <ele>1435.39</ele>
        <time>2013-06-08T05:14:20Z</time>
      </trkpt>
      <trkpt lat="46.19511" lon="5.88132">
        <ele>1438.75</ele>
        <time>2013-06-08T05:14:34Z</time>
      </trkpt>
      <trkpt lat="46.19518" lon="5.88148">
        <ele>1439.71</ele>
        <time>2013-06-08T05:14:43Z</time>
      </trkpt>
      <trkpt lat="46.19527" lon="5.88159">
        <ele>1439.23</ele>
        <time>2013-06-08T05:14:52Z</time>
      </trkpt>
      <trkpt lat="46.19541" lon="5.88188">
        <ele>1435.39</ele>
        <time>2013-06-08T05:15:06Z</time>
      </trkpt>
      <trkpt lat="46.19557" lon="5.88203">
        <ele>1431.06</ele>
        <time>2013-06-08T05:15:20Z</time>
      </trkpt>
      <trkpt lat="46.19561" lon="5.88205">
        <ele>1429.62</ele>
        <time>2013-06-08T05:15:31Z</time>
      </trkpt>
      <trkpt lat="46.19572" lon="5.88218">
        <ele>1426.73</ele>
        <time>2013-06-08T05:15:41Z</time>
      </trkpt>
      <trkpt lat="46.19573" lon="5.88219">
        <ele>1426.25</ele>
        <time>2013-06-08T05:15:42Z</time>
      </trkpt>
      <trkpt lat="46.19579" lon="5.88236">
        <ele>1423.85</ele>
        <time>2013-06-08T05:15:54Z</time>
      </trkpt>
      <trkpt lat="46.19581" lon="5.88243">
        <ele>1423.37</ele>
        <time>2013-06-08T05:15:59Z</time>
      </trkpt>
      <trkpt lat="46.19584" lon="5.88254">
        <ele>1421.45</ele>
        <time>2013-06-08T05:16:04Z</time>
      </trkpt>
      <trkpt lat="46.19593" lon="5.88274">
        <ele>1421.45</ele>
        <time>2013-06-08T05:16:18Z</time>
      </trkpt>
      <trkpt lat="46.19592" lon="5.88277">
        <ele>1421.45</ele>
        <time>2013-06-08T05:16:20Z</time>
      </trkpt>
      <trkpt lat="46.19591" lon="5.88286">
        <ele>1420.49</ele>
        <time>2013-06-08T05:16:23Z</time>
      </trkpt>
      <trkpt lat="46.19592" lon="5.88314">
        <ele>1418.08</ele>
        <time>2013-06-08T05:16:34Z</time>
      </trkpt>
      <trkpt lat="46.19592" lon="5.88316">
        <ele>1417.6</ele>
        <time>2013-06-08T05:16:35Z</time>
      </trkpt>
      <trkpt lat="46.19599" lon="5.88341">
        <ele>1411.83</ele>
        <time>2013-06-08T05:16:49Z</time>
      </trkpt>
      <trkpt lat="46.196" lon="5.88342">
        <ele>1411.83</ele>
        <time>2013-06-08T05:16:50Z</time>
      </trkpt>
      <trkpt lat="46.19606" lon="5.88358">
        <ele>1408.47</ele>
        <time>2013-06-08T05:17:00Z</time>
      </trkpt>
      <trkpt lat="46.19616" lon="5.88365">
        <ele>1406.55</ele>
        <time>2013-06-08T05:17:14Z</time>
      </trkpt>
      <trkpt lat="46.19628" lon="5.88376">
        <ele>1405.1</ele>
        <time>2013-06-08T05:17:27Z</time>
      </trkpt>
      <trkpt lat="46.19637" lon="5.8839">
        <ele>1403.66</ele>
        <time>2013-06-08T05:17:40Z</time>
      </trkpt>
      <trkpt lat="46.1964" lon="5.88394">
        <ele>1403.18</ele>
        <time>2013-06-08T05:17:42Z</time>
      </trkpt>
      <trkpt lat="46.19648" lon="5.88419">
        <ele>1395.49</ele>
        <time>2013-06-08T05:17:55Z</time>
      </trkpt>
      <trkpt lat="46.19649" lon="5.88432">
        <ele>1392.13</ele>
        <time>2013-06-08T05:18:01Z</time>
      </trkpt>
      <trkpt lat="46.19648" lon="5.88445">
        <ele>1388.76</ele>
        <time>2013-06-08T05:18:12Z</time>
      </trkpt>
      <trkpt lat="46.19658" lon="5.88467">
        <ele>1390.2</ele>
        <time>2013-06-08T05:18:26Z</time>
      </trkpt>
      <trkpt lat="46.19675" lon="5.8849">
        <ele>1392.61</ele>
        <time>2013-06-08T05:18:42Z</time>
      </trkpt>
      <trkpt lat="46.19677" lon="5.88492">
        <ele>1392.61</ele>
        <time>2013-06-08T05:18:44Z</time>
      </trkpt>
      <trkpt lat="46.19685" lon="5.885">
        <ele>1394.53</ele>
        <time>2013-06-08T05:18:52Z</time>
      </trkpt>
      <trkpt lat="46.19695" lon="5.88503">
        <ele>1396.45</ele>
        <time>2013-06-08T05:19:01Z</time>
      </trkpt>
      <trkpt lat="46.19704" lon="5.88501">
        <ele>1398.86</ele>
        <time>2013-06-08T05:19:18Z</time>
      </trkpt>
      <trkpt lat="46.19708" lon="5.88502">
        <ele>1400.3</ele>
        <time>2013-06-08T05:19:34Z</time>
      </trkpt>
      <trkpt lat="46.19715" lon="5.88507">
        <ele>1400.78</ele>
        <time>2013-06-08T05:19:41Z</time>
      </trkpt>
      <trkpt lat="46.19733" lon="5.88518">
        <ele>1398.37</ele>
        <time>2013-06-08T05:19:54Z</time>
      </trkpt>
      <trkpt lat="46.19748" lon="5.88527">
        <ele>1396.93</ele>
        <time>2013-06-08T05:20:07Z</time>
      </trkpt>
      <trkpt lat="46.1975" lon="5.88529">
        <ele>1396.93</ele>
        <time>2013-06-08T05:20:08Z</time>
      </trkpt>
      <trkpt lat="46.19755" lon="5.88534">
        <ele>1396.93</ele>
        <time>2013-06-08T05:20:12Z</time>
      </trkpt>
      <trkpt lat="46.19764" lon="5.88541">
        <ele>1396.93</ele>
        <time>2013-06-08T05:20:19Z</time>
      </trkpt>
      <trkpt lat="46.19781" lon="5.88558">
        <ele>1395.01</ele>
        <time>2013-06-08T05:20:32Z</time>
      </trkpt>
      <trkpt lat="46.19786" lon="5.88562">
        <ele>1394.53</ele>
        <time>2013-06-08T05:20:36Z</time>
      </trkpt>
      <trkpt lat="46.19794" lon="5.88583">
        <ele>1388.76</ele>
        <time>2013-06-08T05:20:52Z</time>
      </trkpt>
      <trkpt lat="46.19805" lon="5.88603">
        <ele>1386.36</ele>
        <time>2013-06-08T05:21:00Z</time>
      </trkpt>
      <trkpt lat="46.19809" lon="5.88609">
        <ele>1385.4</ele>
        <time>2013-06-08T05:21:04Z</time>
      </trkpt>
      <trkpt lat="46.19816" lon="5.88617">
        <ele>1383.96</ele>
        <time>2013-06-08T05:21:10Z</time>
      </trkpt>
      <trkpt lat="46.19819" lon="5.88621">
        <ele>1382.99</ele>
        <time>2013-06-08T05:21:13Z</time>
      </trkpt>
      <trkpt lat="46.19833" lon="5.88641">
        <ele>1381.07</ele>
        <time>2013-06-08T05:21:26Z</time>
      </trkpt>
      <trkpt lat="46.19854" lon="5.88651">
        <ele>1382.03</ele>
        <time>2013-06-08T05:21:42Z</time>
      </trkpt>
      <trkpt lat="46.1986" lon="5.88656">
        <ele>1381.55</ele>
        <time>2013-06-08T05:21:47Z</time>
      </trkpt>
      <trkpt lat="46.19872" lon="5.8868">
        <ele>1382.99</ele>
        <time>2013-06-08T05:21:59Z</time>
      </trkpt>
      <trkpt lat="46.19873" lon="5.88681">
        <ele>1382.99</ele>
        <time>2013-06-08T05:22:00Z</time>
      </trkpt>
      <trkpt lat="46.19878" lon="5.88687">
        <ele>1383.47</ele>
        <time>2013-06-08T05:22:05Z</time>
      </trkpt>
      <trkpt lat="46.19891" lon="5.88712">
        <ele>1384.44</ele>
        <time>2013-06-08T05:22:21Z</time>
      </trkpt>
      <trkpt lat="46.19897" lon="5.88731">
        <ele>1385.4</ele>
        <time>2013-06-08T05:22:30Z</time>
      </trkpt>
      <trkpt lat="46.19917" lon="5.88747">
        <ele>1387.8</ele>
        <time>2013-06-08T05:22:44Z</time>
      </trkpt>
      <trkpt lat="46.19934" lon="5.88757">
        <ele>1387.8</ele>
        <time>2013-06-08T05:22:57Z</time>
      </trkpt>
      <trkpt lat="46.19952" lon="5.88773">
        <ele>1387.8</ele>
        <time>2013-06-08T05:23:12Z</time>
      </trkpt>
      <trkpt lat="46.19957" lon="5.88779">
        <ele>1388.28</ele>
        <time>2013-06-08T05:23:15Z</time>
      </trkpt>
      <trkpt lat="46.19977" lon="5.88789">
        <ele>1385.88</ele>
        <time>2013-06-08T05:23:28Z</time>
      </trkpt>
      <trkpt lat="46.19994" lon="5.88779">
        <ele>1378.67</ele>
        <time>2013-06-08T05:23:39Z</time>
      </trkpt>
      <trkpt lat="46.20006" lon="5.88779">
        <ele>1377.71</ele>
        <time>2013-06-08T05:23:49Z</time>
      </trkpt>
      <trkpt lat="46.2002" lon="5.88787">
        <ele>1379.15</ele>
        <time>2013-06-08T05:24:01Z</time>
      </trkpt>
      <trkpt lat="46.20032" lon="5.88795">
        <ele>1384.44</ele>
        <time>2013-06-08T05:24:14Z</time>
      </trkpt>
      <trkpt lat="46.20045" lon="5.88805">
        <ele>1387.32</ele>
        <time>2013-06-08T05:24:30Z</time>
      </trkpt>
      <trkpt lat="46.20058" lon="5.8881">
        <ele>1387.8</ele>
        <time>2013-06-08T05:24:43Z</time>
      </trkpt>
      <trkpt lat="46.20076" lon="5.8882">
        <ele>1387.8</ele>
        <time>2013-06-08T05:24:56Z</time>
      </trkpt>
      <trkpt lat="46.20077" lon="5.8882">
        <ele>1388.28</ele>
        <time>2013-06-08T05:24:57Z</time>
      </trkpt>
      <trkpt lat="46.20097" lon="5.88814">
        <ele>1391.65</ele>
        <time>2013-06-08T05:25:13Z</time>
      </trkpt>
      <trkpt lat="46.20116" lon="5.88801">
        <ele>1395.49</ele>
        <time>2013-06-08T05:25:26Z</time>
      </trkpt>
      <trkpt lat="46.20128" lon="5.888">
        <ele>1398.86</ele>
        <time>2013-06-08T05:25:36Z</time>
      </trkpt>
      <trkpt lat="46.20139" lon="5.88793">
        <ele>1404.62</ele>
        <time>2013-06-08T05:25:48Z</time>
      </trkpt>
      <trkpt lat="46.20164" lon="5.88799">
        <ele>1405.1</ele>
        <time>2013-06-08T05:26:07Z</time>
      </trkpt>
      <trkpt lat="46.20183" lon="5.88792">
        <ele>1401.74</ele>
        <time>2013-06-08T05:26:20Z</time>
      </trkpt>
      <trkpt lat="46.20193" lon="5.88791">
        <ele>1402.7</ele>
        <time>2013-06-08T05:26:31Z</time>
      </trkpt>
      <trkpt lat="46.20207" lon="5.88796">
        <ele>1399.34</ele>
        <time>2013-06-08T05:26:44Z</time>
      </trkpt>
      <trkpt lat="46.20221" lon="5.88793">
        <ele>1395.01</ele>
        <time>2013-06-08T05:26:52Z</time>
      </trkpt>
      <trkpt lat="46.20228" lon="5.88795">
        <ele>1393.57</ele>
        <time>2013-06-08T05:26:56Z</time>
      </trkpt>
      <trkpt lat="46.20246" lon="5.88792">
        <ele>1388.28</ele>
        <time>2013-06-08T05:27:09Z</time>
      </trkpt>
      <trkpt lat="46.20263" lon="5.88788">
        <ele>1382.51</ele>
        <time>2013-06-08T05:27:22Z</time>
      </trkpt>
      <trkpt lat="46.2028" lon="5.88792">
        <ele>1381.07</ele>
        <time>2013-06-08T05:27:36Z</time>
      </trkpt>
      <trkpt lat="46.20296" lon="5.88794">
        <ele>1382.03</ele>
        <time>2013-06-08T05:27:51Z</time>
      </trkpt>
      <trkpt lat="46.2031" lon="5.88783">
        <ele>1383.47</ele>
        <time>2013-06-08T05:28:05Z</time>
      </trkpt>
      <trkpt lat="46.20335" lon="5.88767">
        <ele>1383.47</ele>
        <time>2013-06-08T05:28:22Z</time>
      </trkpt>
      <trkpt lat="46.20355" lon="5.88764">
        <ele>1383.96</ele>
        <time>2013-06-08T05:28:39Z</time>
      </trkpt>
      <trkpt lat="46.20373" lon="5.88771">
        <ele>1385.4</ele>
        <time>2013-06-08T05:28:58Z</time>
      </trkpt>
      <trkpt lat="46.20385" lon="5.88787">
        <ele>1387.8</ele>
        <time>2013-06-08T05:29:11Z</time>
      </trkpt>
      <trkpt lat="46.20397" lon="5.88803">
        <ele>1384.92</ele>
        <time>2013-06-08T05:29:26Z</time>
      </trkpt>
      <trkpt lat="46.20397" lon="5.88809">
        <ele>1385.4</ele>
        <time>2013-06-08T05:29:31Z</time>
      </trkpt>
      <trkpt lat="46.20403" lon="5.88837">
        <ele>1386.36</ele>
        <time>2013-06-08T05:29:46Z</time>
      </trkpt>
      <trkpt lat="46.20403" lon="5.88844">
        <ele>1384.92</ele>
        <time>2013-06-08T05:30:07Z</time>
      </trkpt>
      <trkpt lat="46.20405" lon="5.88854">
        <ele>1381.07</ele>
        <time>2013-06-08T05:30:21Z</time>
      </trkpt>
      <trkpt lat="46.20406" lon="5.88862">
        <ele>1379.15</ele>
        <time>2013-06-08T05:30:28Z</time>
      </trkpt>
      <trkpt lat="46.20413" lon="5.88886">
        <ele>1381.07</ele>
        <time>2013-06-08T05:30:41Z</time>
      </trkpt>
      <trkpt lat="46.20413" lon="5.88902">
        <ele>1382.51</ele>
        <time>2013-06-08T05:30:50Z</time>
      </trkpt>
      <trkpt lat="46.20412" lon="5.88905">
        <ele>1382.03</ele>
        <time>2013-06-08T05:30:52Z</time>
      </trkpt>
      <trkpt lat="46.20405" lon="5.88924">
        <ele>1382.03</ele>
        <time>2013-06-08T05:31:07Z</time>
      </trkpt>
      <trkpt lat="46.2041" lon="5.88945">
        <ele>1381.07</ele>
        <time>2013-06-08T05:31:15Z</time>
      </trkpt>
      <trkpt lat="46.20418" lon="5.88973">
        <ele>1384.44</ele>
        <time>2013-06-08T05:31:28Z</time>
      </trkpt>
      <trkpt lat="46.20424" lon="5.88983">
        <ele>1387.8</ele>
        <time>2013-06-08T05:31:36Z</time>
      </trkpt>
      <trkpt lat="46.20424" lon="5.88994">
        <ele>1390.68</ele>
        <time>2013-06-08T05:31:40Z</time>
      </trkpt>
      <trkpt lat="46.20429" lon="5.89005">
        <ele>1395.01</ele>
        <time>2013-06-08T05:31:55Z</time>
      </trkpt>
      <trkpt lat="46.20432" lon="5.89008">
        <ele>1396.45</ele>
        <time>2013-06-08T05:31:58Z</time>
      </trkpt>
      <trkpt lat="46.20452" lon="5.89029">
        <ele>1405.58</ele>
        <time>2013-06-08T05:32:14Z</time>
      </trkpt>
      <trkpt lat="46.20472" lon="5.89039">
        <ele>1407.51</ele>
        <time>2013-06-08T05:32:27Z</time>
      </trkpt>
      <trkpt lat="46.20484" lon="5.89053">
        <ele>1408.47</ele>
        <time>2013-06-08T05:32:40Z</time>
      </trkpt>
      <trkpt lat="46.20485" lon="5.89053">
        <ele>1408.47</ele>
        <time>2013-06-08T05:32:41Z</time>
      </trkpt>
      <trkpt lat="46.20497" lon="5.89067">
        <ele>1407.51</ele>
        <time>2013-06-08T05:32:56Z</time>
      </trkpt>
      <trkpt lat="46.20501" lon="5.89071">
        <ele>1407.51</ele>
        <time>2013-06-08T05:33:00Z</time>
      </trkpt>
      <trkpt lat="46.20508" lon="5.89083">
        <ele>1407.03</ele>
        <time>2013-06-08T05:33:08Z</time>
      </trkpt>
      <trkpt lat="46.20512" lon="5.89087">
        <ele>1407.03</ele>
        <time>2013-06-08T05:33:12Z</time>
      </trkpt>
      <trkpt lat="46.20519" lon="5.89102">
        <ele>1406.07</ele>
        <time>2013-06-08T05:33:24Z</time>
      </trkpt>
      <trkpt lat="46.20523" lon="5.89113">
        <ele>1405.58</ele>
        <time>2013-06-08T05:33:40Z</time>
      </trkpt>
      <trkpt lat="46.20531" lon="5.89126">
        <ele>1407.03</ele>
        <time>2013-06-08T05:33:56Z</time>
      </trkpt>
      <trkpt lat="46.20553" lon="5.89139">
        <ele>1414.24</ele>
        <time>2013-06-08T05:34:13Z</time>
      </trkpt>
      <trkpt lat="46.20567" lon="5.89146">
        <ele>1416.64</ele>
        <time>2013-06-08T05:34:22Z</time>
      </trkpt>
      <trkpt lat="46.20583" lon="5.8915">
        <ele>1417.6</ele>
        <time>2013-06-08T05:34:35Z</time>
      </trkpt>
      <trkpt lat="46.20599" lon="5.89155">
        <ele>1422.41</ele>
        <time>2013-06-08T05:34:50Z</time>
      </trkpt>
      <trkpt lat="46.2061" lon="5.89161">
        <ele>1427.21</ele>
        <time>2013-06-08T05:35:04Z</time>
      </trkpt>
      <trkpt lat="46.20628" lon="5.89173">
        <ele>1430.58</ele>
        <time>2013-06-08T05:35:19Z</time>
      </trkpt>
      <trkpt lat="46.20648" lon="5.89186">
        <ele>1432.5</ele>
        <time>2013-06-08T05:35:31Z</time>
      </trkpt>
      <trkpt lat="46.20651" lon="5.89192">
        <ele>1431.54</ele>
        <time>2013-06-08T05:35:33Z</time>
      </trkpt>
      <trkpt lat="46.20666" lon="5.89199">
        <ele>1432.5</ele>
        <time>2013-06-08T05:35:46Z</time>
      </trkpt>
      <trkpt lat="46.20677" lon="5.89199">
        <ele>1439.71</ele>
        <time>2013-06-08T05:35:59Z</time>
      </trkpt>
      <trkpt lat="46.20693" lon="5.89208">
        <ele>1445.96</ele>
        <time>2013-06-08T05:36:16Z</time>
      </trkpt>
      <trkpt lat="46.20708" lon="5.89219">
        <ele>1453.17</ele>
        <time>2013-06-08T05:36:31Z</time>
      </trkpt>
      <trkpt lat="46.20723" lon="5.89232">
        <ele>1460.86</ele>
        <time>2013-06-08T05:36:47Z</time>
      </trkpt>
      <trkpt lat="46.20744" lon="5.89245">
        <ele>1462.3</ele>
        <time>2013-06-08T05:36:59Z</time>
      </trkpt>
      <trkpt lat="46.2075" lon="5.89249">
        <ele>1460.38</ele>
        <time>2013-06-08T05:37:06Z</time>
      </trkpt>
      <trkpt lat="46.20766" lon="5.89259">
        <ele>1458.46</ele>
        <time>2013-06-08T05:37:20Z</time>
      </trkpt>
      <trkpt lat="46.20769" lon="5.89259">
        <ele>1458.46</ele>
        <time>2013-06-08T05:37:23Z</time>
      </trkpt>
      <trkpt lat="46.20781" lon="5.89259">
        <ele>1464.23</ele>
        <time>2013-06-08T05:37:33Z</time>
      </trkpt>
      <trkpt lat="46.20785" lon="5.89259">
        <ele>1464.71</ele>
        <time>2013-06-08T05:37:35Z</time>
      </trkpt>
      <trkpt lat="46.20792" lon="5.89261">
        <ele>1463.26</ele>
        <time>2013-06-08T05:37:39Z</time>
      </trkpt>
      <trkpt lat="46.20809" lon="5.89262">
        <ele>1456.05</ele>
        <time>2013-06-08T05:37:50Z</time>
      </trkpt>
      <trkpt lat="46.20812" lon="5.89262">
        <ele>1456.05</ele>
        <time>2013-06-08T05:37:52Z</time>
      </trkpt>
      <trkpt lat="46.20822" lon="5.89278">
        <ele>1454.13</ele>
        <time>2013-06-08T05:38:06Z</time>
      </trkpt>
      <trkpt lat="46.20834" lon="5.89289">
        <ele>1451.73</ele>
        <time>2013-06-08T05:38:19Z</time>
      </trkpt>
      <trkpt lat="46.20841" lon="5.89295">
        <ele>1451.25</ele>
        <time>2013-06-08T05:38:24Z</time>
      </trkpt>
      <trkpt lat="46.20858" lon="5.89315">
        <ele>1439.71</ele>
        <time>2013-06-08T05:38:36Z</time>
      </trkpt>
      <trkpt lat="46.20865" lon="5.89324">
        <ele>1438.75</ele>
        <time>2013-06-08T05:38:45Z</time>
      </trkpt>
      <trkpt lat="46.20869" lon="5.89325">
        <ele>1440.19</ele>
        <time>2013-06-08T05:38:49Z</time>
      </trkpt>
      <trkpt lat="46.20876" lon="5.89329">
        <ele>1440.67</ele>
        <time>2013-06-08T05:38:54Z</time>
      </trkpt>
      <trkpt lat="46.20891" lon="5.89339">
        <ele>1442.6</ele>
        <time>2013-06-08T05:39:07Z</time>
      </trkpt>
      <trkpt lat="46.20896" lon="5.89344">
        <ele>1445</ele>
        <time>2013-06-08T05:39:12Z</time>
      </trkpt>
      <trkpt lat="46.209" lon="5.89346">
        <ele>1446.44</ele>
        <time>2013-06-08T05:39:15Z</time>
      </trkpt>
      <trkpt lat="46.20909" lon="5.89361">
        <ele>1453.65</ele>
        <time>2013-06-08T05:39:28Z</time>
      </trkpt>
      <trkpt lat="46.20922" lon="5.89377">
        <ele>1460.38</ele>
        <time>2013-06-08T05:39:43Z</time>
      </trkpt>
      <trkpt lat="46.20938" lon="5.8939">
        <ele>1466.15</ele>
        <time>2013-06-08T05:39:57Z</time>
      </trkpt>
      <trkpt lat="46.20941" lon="5.89394">
        <ele>1466.63</ele>
        <time>2013-06-08T05:40:01Z</time>
      </trkpt>
      <trkpt lat="46.20959" lon="5.89415">
        <ele>1466.15</ele>
        <time>2013-06-08T05:40:19Z</time>
      </trkpt>
      <trkpt lat="46.20975" lon="5.89425">
        <ele>1465.19</ele>
        <time>2013-06-08T05:40:33Z</time>
      </trkpt>
      <trkpt lat="46.20991" lon="5.89438">
        <ele>1464.23</ele>
        <time>2013-06-08T05:40:48Z</time>
      </trkpt>
      <trkpt lat="46.21011" lon="5.89459">
        <ele>1465.67</ele>
        <time>2013-06-08T05:41:05Z</time>
      </trkpt>
      <trkpt lat="46.21028" lon="5.89475">
        <ele>1461.82</ele>
        <time>2013-06-08T05:41:18Z</time>
      </trkpt>
      <trkpt lat="46.21051" lon="5.89487">
        <ele>1460.38</ele>
        <time>2013-06-08T05:41:35Z</time>
      </trkpt>
      <trkpt lat="46.21068" lon="5.8949">
        <ele>1457.98</ele>
        <time>2013-06-08T05:41:47Z</time>
      </trkpt>
      <trkpt lat="46.21084" lon="5.89496">
        <ele>1454.61</ele>
        <time>2013-06-08T05:42:01Z</time>
      </trkpt>
      <trkpt lat="46.21088" lon="5.89495">
        <ele>1454.61</ele>
        <time>2013-06-08T05:42:20Z</time>
      </trkpt>
      <trkpt lat="46.21089" lon="5.89494">
        <ele>1455.09</ele>
        <time>2013-06-08T05:42:43Z</time>
      </trkpt>
      <trkpt lat="46.21088" lon="5.89493">
        <ele>1455.57</ele>
        <time>2013-06-08T05:43:06Z</time>
      </trkpt>
      <trkpt lat="46.21088" lon="5.89492">
        <ele>1455.57</ele>
        <time>2013-06-08T05:43:30Z</time>
      </trkpt>
      <trkpt lat="46.2109" lon="5.89494">
        <ele>1455.09</ele>
        <time>2013-06-08T05:43:33Z</time>
      </trkpt>
      <trkpt lat="46.21091" lon="5.89496">
        <ele>1452.21</ele>
        <time>2013-06-08T05:43:47Z</time>
      </trkpt>
      <trkpt lat="46.21091" lon="5.89493">
        <ele>1451.25</ele>
        <time>2013-06-08T05:44:13Z</time>
      </trkpt>
      <trkpt lat="46.21091" lon="5.89493">
        <ele>1452.21</ele>
        <time>2013-06-08T05:44:42Z</time>
      </trkpt>
      <trkpt lat="46.21091" lon="5.89495">
        <ele>1448.84</ele>
        <time>2013-06-08T05:44:56Z</time>
      </trkpt>
      <trkpt lat="46.21094" lon="5.89498">
        <ele>1447.88</ele>
        <time>2013-06-08T05:45:15Z</time>
      </trkpt>
      <trkpt lat="46.21099" lon="5.89503">
        <ele>1447.4</ele>
        <time>2013-06-08T05:45:19Z</time>
      </trkpt>
      <trkpt lat="46.21122" lon="5.89509">
        <ele>1444.52</ele>
        <time>2013-06-08T05:45:35Z</time>
      </trkpt>
      <trkpt lat="46.21137" lon="5.89512">
        <ele>1444.52</ele>
        <time>2013-06-08T05:45:47Z</time>
      </trkpt>
      <trkpt lat="46.21149" lon="5.89518">
        <ele>1445.48</ele>
        <time>2013-06-08T05:46:01Z</time>
      </trkpt>
      <trkpt lat="46.2117" lon="5.89539">
        <ele>1447.88</ele>
        <time>2013-06-08T05:46:18Z</time>
      </trkpt>
      <trkpt lat="46.21171" lon="5.89541">
        <ele>1447.88</ele>
        <time>2013-06-08T05:46:19Z</time>
      </trkpt>
      <trkpt lat="46.21182" lon="5.89552">
        <ele>1447.4</ele>
        <time>2013-06-08T05:46:27Z</time>
      </trkpt>
      <trkpt lat="46.21203" lon="5.89561">
        <ele>1446.92</ele>
        <time>2013-06-08T05:46:41Z</time>
      </trkpt>
      <trkpt lat="46.21231" lon="5.89566">
        <ele>1445.48</ele>
        <time>2013-06-08T05:46:55Z</time>
      </trkpt>
      <trkpt lat="46.21245" lon="5.89561">
        <ele>1446.44</ele>
        <time>2013-06-08T05:47:05Z</time>
      </trkpt>
      <trkpt lat="46.21252" lon="5.89561">
        <ele>1446.44</ele>
        <time>2013-06-08T05:47:09Z</time>
      </trkpt>
      <trkpt lat="46.21268" lon="5.8957">
        <ele>1443.08</ele>
        <time>2013-06-08T05:47:21Z</time>
      </trkpt>
      <trkpt lat="46.21289" lon="5.8958">
        <ele>1442.6</ele>
        <time>2013-06-08T05:47:35Z</time>
      </trkpt>
      <trkpt lat="46.213" lon="5.89583">
        <ele>1443.56</ele>
        <time>2013-06-08T05:47:45Z</time>
      </trkpt>
      <trkpt lat="46.21305" lon="5.89586">
        <ele>1443.08</ele>
        <time>2013-06-08T05:47:49Z</time>
      </trkpt>
      <trkpt lat="46.21327" lon="5.89591">
        <ele>1442.11</ele>
        <time>2013-06-08T05:48:03Z</time>
      </trkpt>
      <trkpt lat="46.21332" lon="5.89588">
        <ele>1441.15</ele>
        <time>2013-06-08T05:48:17Z</time>
      </trkpt>
      <trkpt lat="46.21335" lon="5.89589">
        <ele>1441.63</ele>
        <time>2013-06-08T05:48:22Z</time>
      </trkpt>
      <trkpt lat="46.21339" lon="5.89591">
        <ele>1442.11</ele>
        <time>2013-06-08T05:48:26Z</time>
      </trkpt>
      <trkpt lat="46.21348" lon="5.89597">
        <ele>1444.04</ele>
        <time>2013-06-08T05:48:37Z</time>
      </trkpt>
      <trkpt lat="46.21357" lon="5.89608">
        <ele>1446.92</ele>
        <time>2013-06-08T05:48:47Z</time>
      </trkpt>
      <trkpt lat="46.21369" lon="5.89616">
        <ele>1448.36</ele>
        <time>2013-06-08T05:48:58Z</time>
      </trkpt>
      <trkpt lat="46.21374" lon="5.89625">
        <ele>1449.81</ele>
        <time>2013-06-08T05:49:05Z</time>
      </trkpt>
      <trkpt lat="46.21377" lon="5.89648">
        <ele>1452.69</ele>
        <time>2013-06-08T05:49:18Z</time>
      </trkpt>
      <trkpt lat="46.21375" lon="5.89659">
        <ele>1453.65</ele>
        <time>2013-06-08T05:49:25Z</time>
      </trkpt>
      <trkpt lat="46.21376" lon="5.89666">
        <ele>1453.17</ele>
        <time>2013-06-08T05:49:28Z</time>
      </trkpt>
      <trkpt lat="46.21379" lon="5.89678">
        <ele>1453.65</ele>
        <time>2013-06-08T05:49:32Z</time>
      </trkpt>
      <trkpt lat="46.21386" lon="5.89689">
        <ele>1451.25</ele>
        <time>2013-06-08T05:49:38Z</time>
      </trkpt>
      <trkpt lat="46.21401" lon="5.89712">
        <ele>1448.84</ele>
        <time>2013-06-08T05:49:50Z</time>
      </trkpt>
      <trkpt lat="46.21409" lon="5.89726">
        <ele>1446.44</ele>
        <time>2013-06-08T05:49:59Z</time>
      </trkpt>
      <trkpt lat="46.21423" lon="5.89745">
        <ele>1441.63</ele>
        <time>2013-06-08T05:50:12Z</time>
      </trkpt>
      <trkpt lat="46.2143" lon="5.89756">
        <ele>1441.15</ele>
        <time>2013-06-08T05:50:20Z</time>
      </trkpt>
      <trkpt lat="46.21435" lon="5.89773">
        <ele>1440.67</ele>
        <time>2013-06-08T05:50:30Z</time>
      </trkpt>
      <trkpt lat="46.21444" lon="5.89786">
        <ele>1437.79</ele>
        <time>2013-06-08T05:50:38Z</time>
      </trkpt>
      <trkpt lat="46.21449" lon="5.898">
        <ele>1436.35</ele>
        <time>2013-06-08T05:50:47Z</time>
      </trkpt>
      <trkpt lat="46.21457" lon="5.89811">
        <ele>1437.31</ele>
        <time>2013-06-08T05:50:55Z</time>
      </trkpt>
      <trkpt lat="46.21465" lon="5.89818">
        <ele>1437.79</ele>
        <time>2013-06-08T05:51:02Z</time>
      </trkpt>
      <trkpt lat="46.21473" lon="5.89824">
        <ele>1436.35</ele>
        <time>2013-06-08T05:51:14Z</time>
      </trkpt>
      <trkpt lat="46.21475" lon="5.8982">
        <ele>1433.94</ele>
        <time>2013-06-08T05:51:39Z</time>
      </trkpt>
      <trkpt lat="46.21475" lon="5.8982">
        <ele>1433.94</ele>
        <time>2013-06-08T05:51:55Z</time>
      </trkpt>
      <trkpt lat="46.21473" lon="5.8982">
        <ele>1433.94</ele>
        <time>2013-06-08T05:51:57Z</time>
      </trkpt>
      <trkpt lat="46.21469" lon="5.89824">
        <ele>1433.46</ele>
        <time>2013-06-08T05:52:01Z</time>
      </trkpt>
      <trkpt lat="46.21465" lon="5.89826">
        <ele>1432.5</ele>
        <time>2013-06-08T05:52:04Z</time>
      </trkpt>
      <trkpt lat="46.21459" lon="5.89828">
        <ele>1432.98</ele>
        <time>2013-06-08T05:52:09Z</time>
      </trkpt>
      <trkpt lat="46.21453" lon="5.89828">
        <ele>1433.94</ele>
        <time>2013-06-08T05:52:15Z</time>
      </trkpt>
      <trkpt lat="46.21449" lon="5.89824">
        <ele>1434.42</ele>
        <time>2013-06-08T05:52:19Z</time>
      </trkpt>
      <trkpt lat="46.21447" lon="5.89818">
        <ele>1435.39</ele>
        <time>2013-06-08T05:52:23Z</time>
      </trkpt>
      <trkpt lat="46.21437" lon="5.89798">
        <ele>1437.31</ele>
        <time>2013-06-08T05:52:37Z</time>
      </trkpt>
      <trkpt lat="46.21442" lon="5.8979">
        <ele>1438.75</ele>
        <time>2013-06-08T05:52:46Z</time>
      </trkpt>
      <trkpt lat="46.21445" lon="5.89791">
        <ele>1438.75</ele>
        <time>2013-06-08T05:52:48Z</time>
      </trkpt>
      <trkpt lat="46.21449" lon="5.89796">
        <ele>1437.79</ele>
        <time>2013-06-08T05:52:59Z</time>
      </trkpt>
      <trkpt lat="46.21449" lon="5.89797">
        <ele>1436.83</ele>
        <time>2013-06-08T05:53:34Z</time>
      </trkpt>
      <trkpt lat="46.2145" lon="5.89797">
        <ele>1435.39</ele>
        <time>2013-06-08T05:54:10Z</time>
      </trkpt>
      <trkpt lat="46.21449" lon="5.89798">
        <ele>1434.91</ele>
        <time>2013-06-08T05:54:45Z</time>
      </trkpt>
      <trkpt lat="46.2145" lon="5.89797">
        <ele>1433.94</ele>
        <time>2013-06-08T05:55:23Z</time>
      </trkpt>
      <trkpt lat="46.2145" lon="5.89798">
        <ele>1433.46</ele>
        <time>2013-06-08T05:55:57Z</time>
      </trkpt>
      <trkpt lat="46.2145" lon="5.89797">
        <ele>1432.98</ele>
        <time>2013-06-08T05:56:36Z</time>
      </trkpt>
      <trkpt lat="46.2145" lon="5.89797">
        <ele>1432.5</ele>
        <time>2013-06-08T05:57:14Z</time>
      </trkpt>
      <trkpt lat="46.2145" lon="5.89798">
        <ele>1432.02</ele>
        <time>2013-06-08T05:57:48Z</time>
      </trkpt>
      <trkpt lat="46.2145" lon="5.89797">
        <ele>1431.54</ele>
        <time>2013-06-08T05:58:21Z</time>
      </trkpt>
      <trkpt lat="46.2145" lon="5.89798">
        <ele>1431.54</ele>
        <time>2013-06-08T05:58:59Z</time>
      </trkpt>
      <trkpt lat="46.21449" lon="5.89798">
        <ele>1431.06</ele>
        <time>2013-06-08T05:59:37Z</time>
      </trkpt>
      <trkpt lat="46.21449" lon="5.89798">
        <ele>1430.58</ele>
        <time>2013-06-08T06:00:09Z</time>
      </trkpt>
      <trkpt lat="46.2145" lon="5.89798">
        <ele>1431.54</ele>
        <time>2013-06-08T06:00:41Z</time>
      </trkpt>
      <trkpt lat="46.2145" lon="5.89798">
        <ele>1432.02</ele>
        <time>2013-06-08T06:01:14Z</time>
      </trkpt>
      <trkpt lat="46.21451" lon="5.89798">
        <ele>1431.54</ele>
        <time>2013-06-08T06:01:45Z</time>
      </trkpt>
      <trkpt lat="46.21451" lon="5.89798">
        <ele>1431.54</ele>
        <time>2013-06-08T06:01:48Z</time>
      </trkpt>
      <trkpt lat="46.21467" lon="5.89818">
        <ele>1431.06</ele>
        <time>2013-06-08T06:02:03Z</time>
      </trkpt>
      <trkpt lat="46.21478" lon="5.8983">
        <ele>1432.02</ele>
        <time>2013-06-08T06:02:11Z</time>
      </trkpt>
      <trkpt lat="46.21489" lon="5.89829">
        <ele>1432.5</ele>
        <time>2013-06-08T06:02:20Z</time>
      </trkpt>
      <trkpt lat="46.21493" lon="5.89835">
        <ele>1431.06</ele>
        <time>2013-06-08T06:02:25Z</time>
      </trkpt>
      <trkpt lat="46.215" lon="5.89838">
        <ele>1428.18</ele>
        <time>2013-06-08T06:02:33Z</time>
      </trkpt>
      <trkpt lat="46.21506" lon="5.89838">
        <ele>1426.73</ele>
        <time>2013-06-08T06:02:41Z</time>
      </trkpt>
      <trkpt lat="46.21522" lon="5.89833">
        <ele>1425.77</ele>
        <time>2013-06-08T06:02:54Z</time>
      </trkpt>
      <trkpt lat="46.21538" lon="5.8983">
        <ele>1425.77</ele>
        <time>2013-06-08T06:03:06Z</time>
      </trkpt>
      <trkpt lat="46.21541" lon="5.89829">
        <ele>1425.29</ele>
        <time>2013-06-08T06:03:08Z</time>
      </trkpt>
      <trkpt lat="46.21549" lon="5.89826">
        <ele>1424.81</ele>
        <time>2013-06-08T06:03:13Z</time>
      </trkpt>
      <trkpt lat="46.21564" lon="5.89826">
        <ele>1423.37</ele>
        <time>2013-06-08T06:03:21Z</time>
      </trkpt>
      <trkpt lat="46.21584" lon="5.89836">
        <ele>1417.12</ele>
        <time>2013-06-08T06:03:34Z</time>
      </trkpt>
      <trkpt lat="46.21608" lon="5.89847">
        <ele>1412.79</ele>
        <time>2013-06-08T06:03:49Z</time>
      </trkpt>
      <trkpt lat="46.2162" lon="5.8986">
        <ele>1411.35</ele>
        <time>2013-06-08T06:04:00Z</time>
      </trkpt>
      <trkpt lat="46.2164" lon="5.8987">
        <ele>1410.87</ele>
        <time>2013-06-08T06:04:12Z</time>
      </trkpt>
      <trkpt lat="46.2166" lon="5.89882">
        <ele>1410.87</ele>
        <time>2013-06-08T06:04:25Z</time>
      </trkpt>
      <trkpt lat="46.21663" lon="5.89886">
        <ele>1410.87</ele>
        <time>2013-06-08T06:04:28Z</time>
      </trkpt>
      <trkpt lat="46.2167" lon="5.89893">
        <ele>1409.43</ele>
        <time>2013-06-08T06:04:34Z</time>
      </trkpt>
      <trkpt lat="46.21676" lon="5.89897">
        <ele>1407.51</ele>
        <time>2013-06-08T06:04:39Z</time>
      </trkpt>
      <trkpt lat="46.21683" lon="5.89909">
        <ele>1407.03</ele>
        <time>2013-06-08T06:04:46Z</time>
      </trkpt>
      <trkpt lat="46.21687" lon="5.89913">
        <ele>1407.03</ele>
        <time>2013-06-08T06:04:49Z</time>
      </trkpt>
      <trkpt lat="46.21699" lon="5.89911">
        <ele>1409.43</ele>
        <time>2013-06-08T06:05:03Z</time>
      </trkpt>
      <trkpt lat="46.21707" lon="5.89914">
        <ele>1410.87</ele>
        <time>2013-06-08T06:05:14Z</time>
      </trkpt>
      <trkpt lat="46.2172" lon="5.89917">
        <ele>1416.16</ele>
        <time>2013-06-08T06:05:25Z</time>
      </trkpt>
      <trkpt lat="46.21727" lon="5.89917">
        <ele>1424.33</ele>
        <time>2013-06-08T06:05:36Z</time>
      </trkpt>
      <trkpt lat="46.2173" lon="5.89923">
        <ele>1429.14</ele>
        <time>2013-06-08T06:05:42Z</time>
      </trkpt>
      <trkpt lat="46.21739" lon="5.89933">
        <ele>1434.91</ele>
        <time>2013-06-08T06:05:55Z</time>
      </trkpt>
      <trkpt lat="46.21741" lon="5.89935">
        <ele>1436.35</ele>
        <time>2013-06-08T06:05:57Z</time>
      </trkpt>
      <trkpt lat="46.21759" lon="5.8995">
        <ele>1436.83</ele>
        <time>2013-06-08T06:06:13Z</time>
      </trkpt>
      <trkpt lat="46.2177" lon="5.8996">
        <ele>1434.42</ele>
        <time>2013-06-08T06:06:24Z</time>
      </trkpt>
      <trkpt lat="46.21781" lon="5.89968">
        <ele>1432.02</ele>
        <time>2013-06-08T06:06:37Z</time>
      </trkpt>
      <trkpt lat="46.21781" lon="5.89968">
        <ele>1432.5</ele>
        <time>2013-06-08T06:06:43Z</time>
      </trkpt>
      <trkpt lat="46.21784" lon="5.89974">
        <ele>1433.46</ele>
        <time>2013-06-08T06:06:48Z</time>
      </trkpt>
      <trkpt lat="46.2179" lon="5.89978">
        <ele>1435.39</ele>
        <time>2013-06-08T06:06:52Z</time>
      </trkpt>
      <trkpt lat="46.21794" lon="5.89982">
        <ele>1436.83</ele>
        <time>2013-06-08T06:06:56Z</time>
      </trkpt>
      <trkpt lat="46.21798" lon="5.8999">
        <ele>1437.79</ele>
        <time>2013-06-08T06:07:01Z</time>
      </trkpt>
      <trkpt lat="46.21801" lon="5.89995">
        <ele>1438.75</ele>
        <time>2013-06-08T06:07:05Z</time>
      </trkpt>
      <trkpt lat="46.21811" lon="5.9001">
        <ele>1439.23</ele>
        <time>2013-06-08T06:07:18Z</time>
      </trkpt>
      <trkpt lat="46.21831" lon="5.90029">
        <ele>1432.02</ele>
        <time>2013-06-08T06:07:30Z</time>
      </trkpt>
      <trkpt lat="46.21833" lon="5.90033">
        <ele>1430.58</ele>
        <time>2013-06-08T06:07:32Z</time>
      </trkpt>
      <trkpt lat="46.21837" lon="5.90038">
        <ele>1429.14</ele>
        <time>2013-06-08T06:07:46Z</time>
      </trkpt>
      <trkpt lat="46.21837" lon="5.90039">
        <ele>1427.7</ele>
        <time>2013-06-08T06:08:17Z</time>
      </trkpt>
      <trkpt lat="46.21839" lon="5.90043">
        <ele>1426.73</ele>
        <time>2013-06-08T06:08:21Z</time>
      </trkpt>
      <trkpt lat="46.21841" lon="5.90054">
        <ele>1425.77</ele>
        <time>2013-06-08T06:08:27Z</time>
      </trkpt>
      <trkpt lat="46.21843" lon="5.90065">
        <ele>1424.33</ele>
        <time>2013-06-08T06:08:33Z</time>
      </trkpt>
      <trkpt lat="46.2185" lon="5.90081">
        <ele>1421.45</ele>
        <time>2013-06-08T06:08:43Z</time>
      </trkpt>
      <trkpt lat="46.21855" lon="5.90091">
        <ele>1420.49</ele>
        <time>2013-06-08T06:08:50Z</time>
      </trkpt>
      <trkpt lat="46.2186" lon="5.901">
        <ele>1418.56</ele>
        <time>2013-06-08T06:08:55Z</time>
      </trkpt>
      <trkpt lat="46.21865" lon="5.90106">
        <ele>1418.08</ele>
        <time>2013-06-08T06:09:00Z</time>
      </trkpt>
      <trkpt lat="46.21867" lon="5.90107">
        <ele>1417.6</ele>
        <time>2013-06-08T06:09:02Z</time>
      </trkpt>
      <trkpt lat="46.21879" lon="5.90108">
        <ele>1418.08</ele>
        <time>2013-06-08T06:09:14Z</time>
      </trkpt>
      <trkpt lat="46.21891" lon="5.9011">
        <ele>1418.56</ele>
        <time>2013-06-08T06:09:26Z</time>
      </trkpt>
      <trkpt lat="46.21896" lon="5.90107">
        <ele>1420.49</ele>
        <time>2013-06-08T06:09:45Z</time>
      </trkpt>
      <trkpt lat="46.21899" lon="5.90108">
        <ele>1421.45</ele>
        <time>2013-06-08T06:09:59Z</time>
      </trkpt>
      <trkpt lat="46.21906" lon="5.90104">
        <ele>1420.49</ele>
        <time>2013-06-08T06:10:04Z</time>
      </trkpt>
      <trkpt lat="46.2191" lon="5.90103">
        <ele>1419.52</ele>
        <time>2013-06-08T06:10:08Z</time>
      </trkpt>
      <trkpt lat="46.21919" lon="5.90104">
        <ele>1417.6</ele>
        <time>2013-06-08T06:10:14Z</time>
      </trkpt>
      <trkpt lat="46.21923" lon="5.90104">
        <ele>1416.64</ele>
        <time>2013-06-08T06:10:17Z</time>
      </trkpt>
      <trkpt lat="46.21932" lon="5.90113">
        <ele>1413.28</ele>
        <time>2013-06-08T06:10:28Z</time>
      </trkpt>
      <trkpt lat="46.2194" lon="5.90119">
        <ele>1411.35</ele>
        <time>2013-06-08T06:10:37Z</time>
      </trkpt>
      <trkpt lat="46.2195" lon="5.90121">
        <ele>1410.87</ele>
        <time>2013-06-08T06:10:50Z</time>
      </trkpt>
      <trkpt lat="46.2195" lon="5.90121">
        <ele>1410.39</ele>
        <time>2013-06-08T06:11:12Z</time>
      </trkpt>
      <trkpt lat="46.2195" lon="5.9012">
        <ele>1410.39</ele>
        <time>2013-06-08T06:11:13Z</time>
      </trkpt>
      <trkpt lat="46.21952" lon="5.90118">
        <ele>1410.87</ele>
        <time>2013-06-08T06:11:23Z</time>
      </trkpt>
      <trkpt lat="46.21953" lon="5.90117">
        <ele>1411.35</ele>
        <time>2013-06-08T06:11:46Z</time>
      </trkpt>
      <trkpt lat="46.21953" lon="5.90117">
        <ele>1411.35</ele>
        <time>2013-06-08T06:11:48Z</time>
      </trkpt>
      <trkpt lat="46.21958" lon="5.90121">
        <ele>1409.91</ele>
        <time>2013-06-08T06:11:53Z</time>
      </trkpt>
      <trkpt lat="46.21964" lon="5.90122">
        <ele>1410.39</ele>
        <time>2013-06-08T06:11:57Z</time>
      </trkpt>
      <trkpt lat="46.21972" lon="5.90126">
        <ele>1410.39</ele>
        <time>2013-06-08T06:12:03Z</time>
      </trkpt>
      <trkpt lat="46.21977" lon="5.90125">
        <ele>1411.35</ele>
        <time>2013-06-08T06:12:07Z</time>
      </trkpt>
      <trkpt lat="46.2198" lon="5.90127">
        <ele>1411.83</ele>
        <time>2013-06-08T06:12:11Z</time>
      </trkpt>
      <trkpt lat="46.21991" lon="5.90134">
        <ele>1418.08</ele>
        <time>2013-06-08T06:12:24Z</time>
      </trkpt>
      <trkpt lat="46.21997" lon="5.90136">
        <ele>1421.45</ele>
        <time>2013-06-08T06:12:32Z</time>
      </trkpt>
      <trkpt lat="46.22" lon="5.90136">
        <ele>1422.89</ele>
        <time>2013-06-08T06:12:35Z</time>
      </trkpt>
      <trkpt lat="46.22003" lon="5.90135">
        <ele>1424.33</ele>
        <time>2013-06-08T06:12:37Z</time>
      </trkpt>
      <trkpt lat="46.22017" lon="5.90134">
        <ele>1430.58</ele>
        <time>2013-06-08T06:12:51Z</time>
      </trkpt>
      <trkpt lat="46.22028" lon="5.9014">
        <ele>1436.83</ele>
        <time>2013-06-08T06:13:04Z</time>
      </trkpt>
      <trkpt lat="46.22041" lon="5.90147">
        <ele>1441.15</ele>
        <time>2013-06-08T06:13:21Z</time>
      </trkpt>
      <trkpt lat="46.22043" lon="5.90149">
        <ele>1442.11</ele>
        <time>2013-06-08T06:13:24Z</time>
      </trkpt>
      <trkpt lat="46.22044" lon="5.9015">
        <ele>1442.6</ele>
        <time>2013-06-08T06:13:26Z</time>
      </trkpt>
      <trkpt lat="46.22052" lon="5.90154">
        <ele>1445.96</ele>
        <time>2013-06-08T06:13:40Z</time>
      </trkpt>
      <trkpt lat="46.22057" lon="5.90163">
        <ele>1449.81</ele>
        <time>2013-06-08T06:13:54Z</time>
      </trkpt>
      <trkpt lat="46.22062" lon="5.90169">
        <ele>1454.61</ele>
        <time>2013-06-08T06:14:05Z</time>
      </trkpt>
      <trkpt lat="46.2207" lon="5.90177">
        <ele>1457.98</ele>
        <time>2013-06-08T06:14:20Z</time>
      </trkpt>
      <trkpt lat="46.22078" lon="5.90187">
        <ele>1462.78</ele>
        <time>2013-06-08T06:14:29Z</time>
      </trkpt>
      <trkpt lat="46.22091" lon="5.90192">
        <ele>1465.67</ele>
        <time>2013-06-08T06:14:43Z</time>
      </trkpt>
      <trkpt lat="46.22097" lon="5.90195">
        <ele>1469.51</ele>
        <time>2013-06-08T06:14:54Z</time>
      </trkpt>
      <trkpt lat="46.22105" lon="5.90203">
        <ele>1475.76</ele>
        <time>2013-06-08T06:15:08Z</time>
      </trkpt>
      <trkpt lat="46.22113" lon="5.90213">
        <ele>1476.72</ele>
        <time>2013-06-08T06:15:23Z</time>
      </trkpt>
      <trkpt lat="46.22117" lon="5.90225">
        <ele>1478.65</ele>
        <time>2013-06-08T06:15:37Z</time>
      </trkpt>
      <trkpt lat="46.22117" lon="5.90227">
        <ele>1479.61</ele>
        <time>2013-06-08T06:15:41Z</time>
      </trkpt>
      <trkpt lat="46.22126" lon="5.90235">
        <ele>1483.45</ele>
        <time>2013-06-08T06:15:55Z</time>
      </trkpt>
      <trkpt lat="46.22128" lon="5.90239">
        <ele>1484.89</ele>
        <time>2013-06-08T06:16:12Z</time>
      </trkpt>
      <trkpt lat="46.22129" lon="5.90248">
        <ele>1486.82</ele>
        <time>2013-06-08T06:16:20Z</time>
      </trkpt>
      <trkpt lat="46.22137" lon="5.90255">
        <ele>1490.18</ele>
        <time>2013-06-08T06:16:33Z</time>
      </trkpt>
      <trkpt lat="46.22141" lon="5.90256">
        <ele>1491.62</ele>
        <time>2013-06-08T06:16:37Z</time>
      </trkpt>
      <trkpt lat="46.22148" lon="5.90254">
        <ele>1493.55</ele>
        <time>2013-06-08T06:16:45Z</time>
      </trkpt>
      <trkpt lat="46.2215" lon="5.90257">
        <ele>1494.03</ele>
        <time>2013-06-08T06:16:49Z</time>
      </trkpt>
      <trkpt lat="46.22158" lon="5.90263">
        <ele>1495.47</ele>
        <time>2013-06-08T06:17:02Z</time>
      </trkpt>
      <trkpt lat="46.22165" lon="5.90268">
        <ele>1497.39</ele>
        <time>2013-06-08T06:17:14Z</time>
      </trkpt>
      <trkpt lat="46.22165" lon="5.90267">
        <ele>1497.39</ele>
        <time>2013-06-08T06:17:20Z</time>
      </trkpt>
      <trkpt lat="46.22168" lon="5.90269">
        <ele>1497.87</ele>
        <time>2013-06-08T06:17:23Z</time>
      </trkpt>
      <trkpt lat="46.22179" lon="5.90281">
        <ele>1501.24</ele>
        <time>2013-06-08T06:17:36Z</time>
      </trkpt>
      <trkpt lat="46.22188" lon="5.90292">
        <ele>1504.6</ele>
        <time>2013-06-08T06:17:49Z</time>
      </trkpt>
      <trkpt lat="46.22192" lon="5.90296">
        <ele>1505.56</ele>
        <time>2013-06-08T06:18:03Z</time>
      </trkpt>
      <trkpt lat="46.22193" lon="5.90297">
        <ele>1505.08</ele>
        <time>2013-06-08T06:18:04Z</time>
      </trkpt>
      <trkpt lat="46.22204" lon="5.90301">
        <ele>1505.56</ele>
        <time>2013-06-08T06:18:16Z</time>
      </trkpt>
      <trkpt lat="46.22212" lon="5.90309">
        <ele>1505.08</ele>
        <time>2013-06-08T06:18:27Z</time>
      </trkpt>
      <trkpt lat="46.22216" lon="5.90312">
        <ele>1505.56</ele>
        <time>2013-06-08T06:18:31Z</time>
      </trkpt>
      <trkpt lat="46.22219" lon="5.90317">
        <ele>1505.56</ele>
        <time>2013-06-08T06:18:35Z</time>
      </trkpt>
      <trkpt lat="46.22227" lon="5.90326">
        <ele>1504.12</ele>
        <time>2013-06-08T06:18:43Z</time>
      </trkpt>
      <trkpt lat="46.22235" lon="5.90339">
        <ele>1502.2</ele>
        <time>2013-06-08T06:18:53Z</time>
      </trkpt>
      <trkpt lat="46.22239" lon="5.90344">
        <ele>1501.24</ele>
        <time>2013-06-08T06:18:57Z</time>
      </trkpt>
      <trkpt lat="46.2225" lon="5.90352">
        <ele>1499.31</ele>
        <time>2013-06-08T06:19:05Z</time>
      </trkpt>
      <trkpt lat="46.22259" lon="5.90357">
        <ele>1497.39</ele>
        <time>2013-06-08T06:19:12Z</time>
      </trkpt>
      <trkpt lat="46.22264" lon="5.90361">
        <ele>1497.87</ele>
        <time>2013-06-08T06:19:18Z</time>
      </trkpt>
      <trkpt lat="46.22279" lon="5.90379">
        <ele>1494.99</ele>
        <time>2013-06-08T06:19:32Z</time>
      </trkpt>
      <trkpt lat="46.22282" lon="5.90385">
        <ele>1493.55</ele>
        <time>2013-06-08T06:19:40Z</time>
      </trkpt>
      <trkpt lat="46.22292" lon="5.9039">
        <ele>1490.18</ele>
        <time>2013-06-08T06:19:50Z</time>
      </trkpt>
      <trkpt lat="46.22298" lon="5.90391">
        <ele>1487.3</ele>
        <time>2013-06-08T06:19:56Z</time>
      </trkpt>
      <trkpt lat="46.22311" lon="5.90398">
        <ele>1483.93</ele>
        <time>2013-06-08T06:20:09Z</time>
      </trkpt>
      <trkpt lat="46.22316" lon="5.90402">
        <ele>1482.49</ele>
        <time>2013-06-08T06:20:15Z</time>
      </trkpt>
      <trkpt lat="46.22327" lon="5.90418">
        <ele>1478.65</ele>
        <time>2013-06-08T06:20:27Z</time>
      </trkpt>
      <trkpt lat="46.22338" lon="5.90436">
        <ele>1476.24</ele>
        <time>2013-06-08T06:20:40Z</time>
      </trkpt>
      <trkpt lat="46.22355" lon="5.90446">
        <ele>1475.28</ele>
        <time>2013-06-08T06:20:53Z</time>
      </trkpt>
      <trkpt lat="46.22358" lon="5.90449">
        <ele>1475.76</ele>
        <time>2013-06-08T06:20:59Z</time>
      </trkpt>
      <trkpt lat="46.22358" lon="5.90455">
        <ele>1476.24</ele>
        <time>2013-06-08T06:21:03Z</time>
      </trkpt>
      <trkpt lat="46.22359" lon="5.90477">
        <ele>1479.13</ele>
        <time>2013-06-08T06:21:16Z</time>
      </trkpt>
      <trkpt lat="46.22361" lon="5.90488">
        <ele>1482.97</ele>
        <time>2013-06-08T06:21:26Z</time>
      </trkpt>
      <trkpt lat="46.22362" lon="5.90496">
        <ele>1486.82</ele>
        <time>2013-06-08T06:21:34Z</time>
      </trkpt>
      <trkpt lat="46.22359" lon="5.90501">
        <ele>1488.74</ele>
        <time>2013-06-08T06:21:38Z</time>
      </trkpt>
      <trkpt lat="46.22358" lon="5.90508">
        <ele>1489.22</ele>
        <time>2013-06-08T06:21:42Z</time>
      </trkpt>
      <trkpt lat="46.2236" lon="5.90525">
        <ele>1492.1</ele>
        <time>2013-06-08T06:21:55Z</time>
      </trkpt>
      <trkpt lat="46.22362" lon="5.90528">
        <ele>1492.1</ele>
        <time>2013-06-08T06:21:59Z</time>
      </trkpt>
      <trkpt lat="46.22363" lon="5.90534">
        <ele>1492.58</ele>
        <time>2013-06-08T06:22:03Z</time>
      </trkpt>
      <trkpt lat="46.22367" lon="5.90543">
        <ele>1494.51</ele>
        <time>2013-06-08T06:22:17Z</time>
      </trkpt>
      <trkpt lat="46.22367" lon="5.90549">
        <ele>1494.99</ele>
        <time>2013-06-08T06:22:21Z</time>
      </trkpt>
      <trkpt lat="46.22376" lon="5.90565">
        <ele>1495.47</ele>
        <time>2013-06-08T06:22:34Z</time>
      </trkpt>
      <trkpt lat="46.22386" lon="5.90576">
        <ele>1495.47</ele>
        <time>2013-06-08T06:22:47Z</time>
      </trkpt>
      <trkpt lat="46.22387" lon="5.90575">
        <ele>1494.03</ele>
        <time>2013-06-08T06:23:10Z</time>
      </trkpt>
      <trkpt lat="46.22387" lon="5.90575">
        <ele>1494.51</ele>
        <time>2013-06-08T06:23:34Z</time>
      </trkpt>
      <trkpt lat="46.22387" lon="5.90575">
        <ele>1494.99</ele>
        <time>2013-06-08T06:24:07Z</time>
      </trkpt>
      <trkpt lat="46.22387" lon="5.90577">
        <ele>1494.99</ele>
        <time>2013-06-08T06:24:19Z</time>
      </trkpt>
      <trkpt lat="46.22393" lon="5.90581">
        <ele>1494.51</ele>
        <time>2013-06-08T06:24:24Z</time>
      </trkpt>
      <trkpt lat="46.2241" lon="5.90593">
        <ele>1494.03</ele>
        <time>2013-06-08T06:24:38Z</time>
      </trkpt>
      <trkpt lat="46.22413" lon="5.90595">
        <ele>1493.55</ele>
        <time>2013-06-08T06:24:40Z</time>
      </trkpt>
      <trkpt lat="46.2243" lon="5.90596">
        <ele>1489.7</ele>
        <time>2013-06-08T06:24:56Z</time>
      </trkpt>
      <trkpt lat="46.22434" lon="5.90597">
        <ele>1488.74</ele>
        <time>2013-06-08T06:24:59Z</time>
      </trkpt>
      <trkpt lat="46.22441" lon="5.90594">
        <ele>1487.78</ele>
        <time>2013-06-08T06:25:04Z</time>
      </trkpt>
      <trkpt lat="46.22448" lon="5.90594">
        <ele>1487.3</ele>
        <time>2013-06-08T06:25:09Z</time>
      </trkpt>
      <trkpt lat="46.2245" lon="5.90597">
        <ele>1486.82</ele>
        <time>2013-06-08T06:25:12Z</time>
      </trkpt>
      <trkpt lat="46.22468" lon="5.90599">
        <ele>1483.45</ele>
        <time>2013-06-08T06:25:24Z</time>
      </trkpt>
      <trkpt lat="46.22478" lon="5.90613">
        <ele>1482.97</ele>
        <time>2013-06-08T06:25:34Z</time>
      </trkpt>
      <trkpt lat="46.22479" lon="5.90621">
        <ele>1483.45</ele>
        <time>2013-06-08T06:25:38Z</time>
      </trkpt>
      <trkpt lat="46.22485" lon="5.9064">
        <ele>1485.37</ele>
        <time>2013-06-08T06:25:49Z</time>
      </trkpt>
      <trkpt lat="46.22494" lon="5.90648">
        <ele>1485.85</ele>
        <time>2013-06-08T06:26:01Z</time>
      </trkpt>
      <trkpt lat="46.22495" lon="5.90649">
        <ele>1485.85</ele>
        <time>2013-06-08T06:26:04Z</time>
      </trkpt>
      <trkpt lat="46.22499" lon="5.9065">
        <ele>1486.34</ele>
        <time>2013-06-08T06:26:08Z</time>
      </trkpt>
      <trkpt lat="46.22521" lon="5.90658">
        <ele>1484.89</ele>
        <time>2013-06-08T06:26:23Z</time>
      </trkpt>
      <trkpt lat="46.22524" lon="5.90662">
        <ele>1484.89</ele>
        <time>2013-06-08T06:26:26Z</time>
      </trkpt>
      <trkpt lat="46.22532" lon="5.90673">
        <ele>1487.3</ele>
        <time>2013-06-08T06:26:36Z</time>
      </trkpt>
      <trkpt lat="46.22539" lon="5.90687">
        <ele>1490.18</ele>
        <time>2013-06-08T06:26:49Z</time>
      </trkpt>
      <trkpt lat="46.2254" lon="5.90687">
        <ele>1490.66</ele>
        <time>2013-06-08T06:26:50Z</time>
      </trkpt>
      <trkpt lat="46.22553" lon="5.907">
        <ele>1493.06</ele>
        <time>2013-06-08T06:27:05Z</time>
      </trkpt>
      <trkpt lat="46.22554" lon="5.90702">
        <ele>1493.06</ele>
        <time>2013-06-08T06:27:06Z</time>
      </trkpt>
      <trkpt lat="46.22559" lon="5.90707">
        <ele>1492.58</ele>
        <time>2013-06-08T06:27:10Z</time>
      </trkpt>
      <trkpt lat="46.22572" lon="5.90723">
        <ele>1489.7</ele>
        <time>2013-06-08T06:27:23Z</time>
      </trkpt>
      <trkpt lat="46.22578" lon="5.90727">
        <ele>1488.26</ele>
        <time>2013-06-08T06:27:29Z</time>
      </trkpt>
      <trkpt lat="46.22579" lon="5.9073">
        <ele>1487.78</ele>
        <time>2013-06-08T06:27:31Z</time>
      </trkpt>
      <trkpt lat="46.22585" lon="5.90741">
        <ele>1488.74</ele>
        <time>2013-06-08T06:27:39Z</time>
      </trkpt>
      <trkpt lat="46.22586" lon="5.90745">
        <ele>1490.66</ele>
        <time>2013-06-08T06:27:45Z</time>
      </trkpt>
      <trkpt lat="46.22589" lon="5.90751">
        <ele>1492.58</ele>
        <time>2013-06-08T06:27:50Z</time>
      </trkpt>
      <trkpt lat="46.22596" lon="5.90754">
        <ele>1494.03</ele>
        <time>2013-06-08T06:27:56Z</time>
      </trkpt>
      <trkpt lat="46.22608" lon="5.90768">
        <ele>1496.91</ele>
        <time>2013-06-08T06:28:10Z</time>
      </trkpt>
      <trkpt lat="46.22622" lon="5.90784">
        <ele>1496.91</ele>
        <time>2013-06-08T06:28:24Z</time>
      </trkpt>
      <trkpt lat="46.22634" lon="5.90792">
        <ele>1493.06</ele>
        <time>2013-06-08T06:28:39Z</time>
      </trkpt>
      <trkpt lat="46.22643" lon="5.90806">
        <ele>1488.74</ele>
        <time>2013-06-08T06:28:51Z</time>
      </trkpt>
      <trkpt lat="46.22654" lon="5.90825">
        <ele>1486.34</ele>
        <time>2013-06-08T06:29:05Z</time>
      </trkpt>
      <trkpt lat="46.22656" lon="5.90827">
        <ele>1486.82</ele>
        <time>2013-06-08T06:29:07Z</time>
      </trkpt>
      <trkpt lat="46.22658" lon="5.90834">
        <ele>1489.22</ele>
        <time>2013-06-08T06:29:11Z</time>
      </trkpt>
      <trkpt lat="46.22668" lon="5.90849">
        <ele>1493.06</ele>
        <time>2013-06-08T06:29:24Z</time>
      </trkpt>
      <trkpt lat="46.22678" lon="5.90863">
        <ele>1494.99</ele>
        <time>2013-06-08T06:29:37Z</time>
      </trkpt>
      <trkpt lat="46.22691" lon="5.9088">
        <ele>1495.47</ele>
        <time>2013-06-08T06:29:51Z</time>
      </trkpt>
      <trkpt lat="46.22705" lon="5.90894">
        <ele>1494.03</ele>
        <time>2013-06-08T06:30:04Z</time>
      </trkpt>
      <trkpt lat="46.2271" lon="5.90902">
        <ele>1493.55</ele>
        <time>2013-06-08T06:30:16Z</time>
      </trkpt>
      <trkpt lat="46.22711" lon="5.90904">
        <ele>1493.55</ele>
        <time>2013-06-08T06:30:29Z</time>
      </trkpt>
      <trkpt lat="46.22712" lon="5.90902">
        <ele>1493.06</ele>
        <time>2013-06-08T06:30:50Z</time>
      </trkpt>
      <trkpt lat="46.22712" lon="5.90902">
        <ele>1493.06</ele>
        <time>2013-06-08T06:31:18Z</time>
      </trkpt>
      <trkpt lat="46.22711" lon="5.90902">
        <ele>1493.06</ele>
        <time>2013-06-08T06:31:43Z</time>
      </trkpt>
      <trkpt lat="46.22712" lon="5.90902">
        <ele>1493.55</ele>
        <time>2013-06-08T06:32:13Z</time>
      </trkpt>
      <trkpt lat="46.22712" lon="5.90902">
        <ele>1493.55</ele>
        <time>2013-06-08T06:32:41Z</time>
      </trkpt>
      <trkpt lat="46.22712" lon="5.90902">
        <ele>1493.55</ele>
        <time>2013-06-08T06:33:04Z</time>
      </trkpt>
      <trkpt lat="46.22712" lon="5.90903">
        <ele>1493.55</ele>
        <time>2013-06-08T06:33:30Z</time>
      </trkpt>
      <trkpt lat="46.22712" lon="5.90903">
        <ele>1494.03</ele>
        <time>2013-06-08T06:33:57Z</time>
      </trkpt>
      <trkpt lat="46.22712" lon="5.90903">
        <ele>1494.03</ele>
        <time>2013-06-08T06:34:29Z</time>
      </trkpt>
      <trkpt lat="46.22712" lon="5.90903">
        <ele>1493.55</ele>
        <time>2013-06-08T06:35:00Z</time>
      </trkpt>
      <trkpt lat="46.22712" lon="5.90903">
        <ele>1493.55</ele>
        <time>2013-06-08T06:35:33Z</time>
      </trkpt>
      <trkpt lat="46.22712" lon="5.90903">
        <ele>1493.55</ele>
        <time>2013-06-08T06:36:08Z</time>
      </trkpt>
      <trkpt lat="46.22712" lon="5.90904">
        <ele>1493.55</ele>
        <time>2013-06-08T06:36:37Z</time>
      </trkpt>
      <trkpt lat="46.22712" lon="5.90903">
        <ele>1493.55</ele>
        <time>2013-06-08T06:37:08Z</time>
      </trkpt>
      <trkpt lat="46.22712" lon="5.90903">
        <ele>1493.55</ele>
        <time>2013-06-08T06:37:22Z</time>
      </trkpt>
      <trkpt lat="46.22712" lon="5.90903">
        <ele>1493.55</ele>
        <time>2013-06-08T06:37:47Z</time>
      </trkpt>
      <trkpt lat="46.22712" lon="5.90904">
        <ele>1492.58</ele>
        <time>2013-06-08T06:38:04Z</time>
      </trkpt>
      <trkpt lat="46.22713" lon="5.90905">
        <ele>1492.58</ele>
        <time>2013-06-08T06:38:19Z</time>
      </trkpt>
      <trkpt lat="46.22716" lon="5.90906">
        <ele>1492.58</ele>
        <time>2013-06-08T06:38:30Z</time>
      </trkpt>
      <trkpt lat="46.22728" lon="5.90917">
        <ele>1489.7</ele>
        <time>2013-06-08T06:38:39Z</time>
      </trkpt>
      <trkpt lat="46.22742" lon="5.90936">
        <ele>1486.34</ele>
        <time>2013-06-08T06:38:52Z</time>
      </trkpt>
      <trkpt lat="46.22747" lon="5.90941">
        <ele>1485.85</ele>
        <time>2013-06-08T06:38:57Z</time>
      </trkpt>
      <trkpt lat="46.22749" lon="5.90944">
        <ele>1485.37</ele>
        <time>2013-06-08T06:38:59Z</time>
      </trkpt>
      <trkpt lat="46.22757" lon="5.90964">
        <ele>1482.49</ele>
        <time>2013-06-08T06:39:11Z</time>
      </trkpt>
      <trkpt lat="46.22761" lon="5.90976">
        <ele>1481.53</ele>
        <time>2013-06-08T06:39:17Z</time>
      </trkpt>
      <trkpt lat="46.22762" lon="5.9098">
        <ele>1481.53</ele>
        <time>2013-06-08T06:39:19Z</time>
      </trkpt>
      <trkpt lat="46.22781" lon="5.90998">
        <ele>1479.13</ele>
        <time>2013-06-08T06:39:34Z</time>
      </trkpt>
      <trkpt lat="46.22789" lon="5.91004">
        <ele>1479.13</ele>
        <time>2013-06-08T06:39:40Z</time>
      </trkpt>
      <trkpt lat="46.22805" lon="5.91013">
        <ele>1478.16</ele>
        <time>2013-06-08T06:39:52Z</time>
      </trkpt>
      <trkpt lat="46.22817" lon="5.91025">
        <ele>1475.76</ele>
        <time>2013-06-08T06:40:03Z</time>
      </trkpt>
      <trkpt lat="46.22821" lon="5.9103">
        <ele>1474.32</ele>
        <time>2013-06-08T06:40:11Z</time>
      </trkpt>
      <trkpt lat="46.22837" lon="5.91035">
        <ele>1470.47</ele>
        <time>2013-06-08T06:40:24Z</time>
      </trkpt>
      <trkpt lat="46.2284" lon="5.91037">
        <ele>1469.51</ele>
        <time>2013-06-08T06:40:27Z</time>
      </trkpt>
      <trkpt lat="46.22846" lon="5.91043">
        <ele>1466.63</ele>
        <time>2013-06-08T06:40:34Z</time>
      </trkpt>
      <trkpt lat="46.22857" lon="5.91049">
        <ele>1461.34</ele>
        <time>2013-06-08T06:40:42Z</time>
      </trkpt>
      <trkpt lat="46.22867" lon="5.91054">
        <ele>1458.94</ele>
        <time>2013-06-08T06:40:49Z</time>
      </trkpt>
      <trkpt lat="46.22871" lon="5.91057">
        <ele>1457.5</ele>
        <time>2013-06-08T06:41:03Z</time>
      </trkpt>
      <trkpt lat="46.22882" lon="5.91068">
        <ele>1455.09</ele>
        <time>2013-06-08T06:41:20Z</time>
      </trkpt>
      <trkpt lat="46.22886" lon="5.91075">
        <ele>1453.65</ele>
        <time>2013-06-08T06:41:24Z</time>
      </trkpt>
      <trkpt lat="46.22892" lon="5.91079">
        <ele>1453.17</ele>
        <time>2013-06-08T06:41:28Z</time>
      </trkpt>
      <trkpt lat="46.22901" lon="5.91089">
        <ele>1451.25</ele>
        <time>2013-06-08T06:41:36Z</time>
      </trkpt>
      <trkpt lat="46.22917" lon="5.91102">
        <ele>1448.84</ele>
        <time>2013-06-08T06:41:51Z</time>
      </trkpt>
      <trkpt lat="46.22917" lon="5.91102">
        <ele>1448.84</ele>
        <time>2013-06-08T06:42:09Z</time>
      </trkpt>
      <trkpt lat="46.22917" lon="5.91102">
        <ele>1448.84</ele>
        <time>2013-06-08T06:42:31Z</time>
      </trkpt>
      <trkpt lat="46.22916" lon="5.91102">
        <ele>1449.32</ele>
        <time>2013-06-08T06:42:54Z</time>
      </trkpt>
      <trkpt lat="46.22916" lon="5.91102">
        <ele>1449.32</ele>
        <time>2013-06-08T06:43:18Z</time>
      </trkpt>
      <trkpt lat="46.22932" lon="5.91118">
        <ele>1448.84</ele>
        <time>2013-06-08T06:43:30Z</time>
      </trkpt>
      <trkpt lat="46.22946" lon="5.91124">
        <ele>1452.21</ele>
        <time>2013-06-08T06:43:41Z</time>
      </trkpt>
      <trkpt lat="46.22958" lon="5.9114">
        <ele>1455.09</ele>
        <time>2013-06-08T06:43:55Z</time>
      </trkpt>
      <trkpt lat="46.2296" lon="5.91142">
        <ele>1455.09</ele>
        <time>2013-06-08T06:43:57Z</time>
      </trkpt>
      <trkpt lat="46.22971" lon="5.91157">
        <ele>1458.46</ele>
        <time>2013-06-08T06:44:11Z</time>
      </trkpt>
      <trkpt lat="46.22976" lon="5.91165">
        <ele>1459.42</ele>
        <time>2013-06-08T06:44:18Z</time>
      </trkpt>
      <trkpt lat="46.22983" lon="5.91169">
        <ele>1460.86</ele>
        <time>2013-06-08T06:44:25Z</time>
      </trkpt>
      <trkpt lat="46.22997" lon="5.9118">
        <ele>1464.71</ele>
        <time>2013-06-08T06:44:40Z</time>
      </trkpt>
      <trkpt lat="46.23009" lon="5.91195">
        <ele>1468.07</ele>
        <time>2013-06-08T06:44:55Z</time>
      </trkpt>
      <trkpt lat="46.2302" lon="5.91211">
        <ele>1469.99</ele>
        <time>2013-06-08T06:45:08Z</time>
      </trkpt>
      <trkpt lat="46.23033" lon="5.91229">
        <ele>1470.95</ele>
        <time>2013-06-08T06:45:23Z</time>
      </trkpt>
      <trkpt lat="46.23038" lon="5.91231">
        <ele>1471.92</ele>
        <time>2013-06-08T06:45:27Z</time>
      </trkpt>
      <trkpt lat="46.23042" lon="5.91237">
        <ele>1471.92</ele>
        <time>2013-06-08T06:45:31Z</time>
      </trkpt>
      <trkpt lat="46.23059" lon="5.91254">
        <ele>1471.44</ele>
        <time>2013-06-08T06:45:46Z</time>
      </trkpt>
      <trkpt lat="46.23079" lon="5.91268">
        <ele>1471.92</ele>
        <time>2013-06-08T06:46:00Z</time>
      </trkpt>
      <trkpt lat="46.23102" lon="5.91283">
        <ele>1470.95</ele>
        <time>2013-06-08T06:46:16Z</time>
      </trkpt>
      <trkpt lat="46.23111" lon="5.91285">
        <ele>1469.51</ele>
        <time>2013-06-08T06:46:26Z</time>
      </trkpt>
      <trkpt lat="46.23113" lon="5.91289">
        <ele>1469.03</ele>
        <time>2013-06-08T06:46:32Z</time>
      </trkpt>
      <trkpt lat="46.23119" lon="5.91297">
        <ele>1468.55</ele>
        <time>2013-06-08T06:46:38Z</time>
      </trkpt>
      <trkpt lat="46.23136" lon="5.91315">
        <ele>1467.11</ele>
        <time>2013-06-08T06:46:52Z</time>
      </trkpt>
      <trkpt lat="46.23138" lon="5.91319">
        <ele>1467.59</ele>
        <time>2013-06-08T06:46:55Z</time>
      </trkpt>
      <trkpt lat="46.23151" lon="5.91336">
        <ele>1470.47</ele>
        <time>2013-06-08T06:47:09Z</time>
      </trkpt>
      <trkpt lat="46.23164" lon="5.9135">
        <ele>1474.32</ele>
        <time>2013-06-08T06:47:22Z</time>
      </trkpt>
      <trkpt lat="46.23168" lon="5.91354">
        <ele>1475.28</ele>
        <time>2013-06-08T06:47:26Z</time>
      </trkpt>
      <trkpt lat="46.23177" lon="5.91371">
        <ele>1477.68</ele>
        <time>2013-06-08T06:47:38Z</time>
      </trkpt>
      <trkpt lat="46.23187" lon="5.9139">
        <ele>1479.61</ele>
        <time>2013-06-08T06:47:51Z</time>
      </trkpt>
      <trkpt lat="46.23203" lon="5.91409">
        <ele>1478.65</ele>
        <time>2013-06-08T06:48:05Z</time>
      </trkpt>
      <trkpt lat="46.23222" lon="5.91422">
        <ele>1477.68</ele>
        <time>2013-06-08T06:48:20Z</time>
      </trkpt>
      <trkpt lat="46.23242" lon="5.91429">
        <ele>1476.24</ele>
        <time>2013-06-08T06:48:35Z</time>
      </trkpt>
      <trkpt lat="46.23253" lon="5.91439">
        <ele>1477.2</ele>
        <time>2013-06-08T06:48:48Z</time>
      </trkpt>
      <trkpt lat="46.23258" lon="5.91446">
        <ele>1478.16</ele>
        <time>2013-06-08T06:48:58Z</time>
      </trkpt>
      <trkpt lat="46.23269" lon="5.91459">
        <ele>1475.76</ele>
        <time>2013-06-08T06:49:08Z</time>
      </trkpt>
      <trkpt lat="46.23273" lon="5.91462">
        <ele>1474.8</ele>
        <time>2013-06-08T06:49:11Z</time>
      </trkpt>
      <trkpt lat="46.23291" lon="5.91484">
        <ele>1468.55</ele>
        <time>2013-06-08T06:49:22Z</time>
      </trkpt>
      <trkpt lat="46.23307" lon="5.91509">
        <ele>1462.78</ele>
        <time>2013-06-08T06:49:37Z</time>
      </trkpt>
      <trkpt lat="46.23322" lon="5.91526">
        <ele>1460.86</ele>
        <time>2013-06-08T06:49:50Z</time>
      </trkpt>
      <trkpt lat="46.23326" lon="5.91532">
        <ele>1461.34</ele>
        <time>2013-06-08T06:49:54Z</time>
      </trkpt>
      <trkpt lat="46.23331" lon="5.91536">
        <ele>1461.34</ele>
        <time>2013-06-08T06:49:58Z</time>
      </trkpt>
      <trkpt lat="46.23337" lon="5.91544">
        <ele>1461.82</ele>
        <time>2013-06-08T06:50:12Z</time>
      </trkpt>
      <trkpt lat="46.23351" lon="5.91551">
        <ele>1462.3</ele>
        <time>2013-06-08T06:50:22Z</time>
      </trkpt>
      <trkpt lat="46.23364" lon="5.91574">
        <ele>1461.82</ele>
        <time>2013-06-08T06:50:37Z</time>
      </trkpt>
      <trkpt lat="46.2338" lon="5.91593">
        <ele>1461.34</ele>
        <time>2013-06-08T06:50:51Z</time>
      </trkpt>
      <trkpt lat="46.23384" lon="5.91601">
        <ele>1462.78</ele>
        <time>2013-06-08T06:50:57Z</time>
      </trkpt>
      <trkpt lat="46.23397" lon="5.9162">
        <ele>1467.11</ele>
        <time>2013-06-08T06:51:11Z</time>
      </trkpt>
      <trkpt lat="46.23402" lon="5.91627">
        <ele>1467.59</ele>
        <time>2013-06-08T06:51:17Z</time>
      </trkpt>
      <trkpt lat="46.2342" lon="5.9164">
        <ele>1468.55</ele>
        <time>2013-06-08T06:51:32Z</time>
      </trkpt>
      <trkpt lat="46.23433" lon="5.91653">
        <ele>1468.55</ele>
        <time>2013-06-08T06:51:44Z</time>
      </trkpt>
      <trkpt lat="46.23443" lon="5.91664">
        <ele>1472.4</ele>
        <time>2013-06-08T06:51:55Z</time>
      </trkpt>
      <trkpt lat="46.23447" lon="5.91669">
        <ele>1474.32</ele>
        <time>2013-06-08T06:52:00Z</time>
      </trkpt>
      <trkpt lat="46.23455" lon="5.91684">
        <ele>1479.13</ele>
        <time>2013-06-08T06:52:12Z</time>
      </trkpt>
      <trkpt lat="46.23455" lon="5.91687">
        <ele>1480.09</ele>
        <time>2013-06-08T06:52:14Z</time>
      </trkpt>
      <trkpt lat="46.23458" lon="5.91696">
        <ele>1481.53</ele>
        <time>2013-06-08T06:52:20Z</time>
      </trkpt>
      <trkpt lat="46.23461" lon="5.91715">
        <ele>1484.41</ele>
        <time>2013-06-08T06:52:33Z</time>
      </trkpt>
      <trkpt lat="46.23456" lon="5.91736">
        <ele>1486.34</ele>
        <time>2013-06-08T06:52:46Z</time>
      </trkpt>
      <trkpt lat="46.23454" lon="5.91756">
        <ele>1488.26</ele>
        <time>2013-06-08T06:52:59Z</time>
      </trkpt>
      <trkpt lat="46.23454" lon="5.91769">
        <ele>1490.66</ele>
        <time>2013-06-08T06:53:08Z</time>
      </trkpt>
      <trkpt lat="46.2345" lon="5.91788">
        <ele>1494.03</ele>
        <time>2013-06-08T06:53:21Z</time>
      </trkpt>
      <trkpt lat="46.23448" lon="5.918">
        <ele>1494.03</ele>
        <time>2013-06-08T06:53:29Z</time>
      </trkpt>
      <trkpt lat="46.23451" lon="5.91812">
        <ele>1494.03</ele>
        <time>2013-06-08T06:53:36Z</time>
      </trkpt>
      <trkpt lat="46.23453" lon="5.9182">
        <ele>1494.51</ele>
        <time>2013-06-08T06:53:41Z</time>
      </trkpt>
      <trkpt lat="46.23454" lon="5.91824">
        <ele>1494.99</ele>
        <time>2013-06-08T06:53:43Z</time>
      </trkpt>
      <trkpt lat="46.23456" lon="5.9183">
        <ele>1494.99</ele>
        <time>2013-06-08T06:53:47Z</time>
      </trkpt>
      <trkpt lat="46.23457" lon="5.91834">
        <ele>1495.95</ele>
        <time>2013-06-08T06:53:49Z</time>
      </trkpt>
      <trkpt lat="46.23458" lon="5.91838">
        <ele>1496.91</ele>
        <time>2013-06-08T06:53:53Z</time>
      </trkpt>
      <trkpt lat="46.23453" lon="5.91864">
        <ele>1497.39</ele>
        <time>2013-06-08T06:54:07Z</time>
      </trkpt>
      <trkpt lat="46.23456" lon="5.91875">
        <ele>1499.79</ele>
        <time>2013-06-08T06:54:14Z</time>
      </trkpt>
      <trkpt lat="46.23457" lon="5.9188">
        <ele>1501.24</ele>
        <time>2013-06-08T06:54:18Z</time>
      </trkpt>
      <trkpt lat="46.2346" lon="5.91887">
        <ele>1502.68</ele>
        <time>2013-06-08T06:54:23Z</time>
      </trkpt>
      <trkpt lat="46.2346" lon="5.91893">
        <ele>1504.12</ele>
        <time>2013-06-08T06:54:27Z</time>
      </trkpt>
      <trkpt lat="46.23464" lon="5.91903">
        <ele>1505.08</ele>
        <time>2013-06-08T06:54:35Z</time>
      </trkpt>
      <trkpt lat="46.23464" lon="5.9192">
        <ele>1512.77</ele>
        <time>2013-06-08T06:54:50Z</time>
      </trkpt>
      <trkpt lat="46.23464" lon="5.91925">
        <ele>1514.21</ele>
        <time>2013-06-08T06:54:58Z</time>
      </trkpt>
      <trkpt lat="46.23462" lon="5.91928">
        <ele>1515.18</ele>
        <time>2013-06-08T06:55:01Z</time>
      </trkpt>
      <trkpt lat="46.23466" lon="5.91941">
        <ele>1517.1</ele>
        <time>2013-06-08T06:55:14Z</time>
      </trkpt>
      <trkpt lat="46.23467" lon="5.91941">
        <ele>1517.58</ele>
        <time>2013-06-08T06:55:28Z</time>
      </trkpt>
      <trkpt lat="46.23468" lon="5.91942">
        <ele>1518.06</ele>
        <time>2013-06-08T06:55:41Z</time>
      </trkpt>
      <trkpt lat="46.2347" lon="5.91942">
        <ele>1518.54</ele>
        <time>2013-06-08T06:55:44Z</time>
      </trkpt>
      <trkpt lat="46.23475" lon="5.91944">
        <ele>1520.46</ele>
        <time>2013-06-08T06:55:51Z</time>
      </trkpt>
      <trkpt lat="46.23485" lon="5.91942">
        <ele>1525.27</ele>
        <time>2013-06-08T06:56:06Z</time>
      </trkpt>
      <trkpt lat="46.23493" lon="5.91938">
        <ele>1528.15</ele>
        <time>2013-06-08T06:56:17Z</time>
      </trkpt>
      <trkpt lat="46.235" lon="5.91932">
        <ele>1532</ele>
        <time>2013-06-08T06:56:30Z</time>
      </trkpt>
      <trkpt lat="46.23505" lon="5.91928">
        <ele>1535.84</ele>
        <time>2013-06-08T06:56:43Z</time>
      </trkpt>
      <trkpt lat="46.23511" lon="5.91923">
        <ele>1539.21</ele>
        <time>2013-06-08T06:56:56Z</time>
      </trkpt>
      <trkpt lat="46.23518" lon="5.91918">
        <ele>1542.57</ele>
        <time>2013-06-08T06:57:09Z</time>
      </trkpt>
      <trkpt lat="46.23526" lon="5.91909">
        <ele>1545.46</ele>
        <time>2013-06-08T06:57:23Z</time>
      </trkpt>
      <trkpt lat="46.23532" lon="5.91905">
        <ele>1551.22</ele>
        <time>2013-06-08T06:57:37Z</time>
      </trkpt>
      <trkpt lat="46.23538" lon="5.91898">
        <ele>1555.55</ele>
        <time>2013-06-08T06:57:50Z</time>
      </trkpt>
      <trkpt lat="46.2354" lon="5.91894">
        <ele>1556.51</ele>
        <time>2013-06-08T06:58:02Z</time>
      </trkpt>
      <trkpt lat="46.23545" lon="5.91884">
        <ele>1558.92</ele>
        <time>2013-06-08T06:58:16Z</time>
      </trkpt>
      <trkpt lat="46.23552" lon="5.91878">
        <ele>1563.72</ele>
        <time>2013-06-08T06:58:29Z</time>
      </trkpt>
      <trkpt lat="46.2356" lon="5.91873">
        <ele>1568.53</ele>
        <time>2013-06-08T06:58:44Z</time>
      </trkpt>
      <trkpt lat="46.23566" lon="5.91865">
        <ele>1571.41</ele>
        <time>2013-06-08T06:58:58Z</time>
      </trkpt>
      <trkpt lat="46.23567" lon="5.91864">
        <ele>1571.41</ele>
        <time>2013-06-08T06:58:59Z</time>
      </trkpt>
      <trkpt lat="46.23574" lon="5.91861">
        <ele>1574.3</ele>
        <time>2013-06-08T06:59:13Z</time>
      </trkpt>
      <trkpt lat="46.23583" lon="5.91861">
        <ele>1578.14</ele>
        <time>2013-06-08T06:59:26Z</time>
      </trkpt>
      <trkpt lat="46.23588" lon="5.91862">
        <ele>1580.54</ele>
        <time>2013-06-08T06:59:33Z</time>
      </trkpt>
      <trkpt lat="46.23596" lon="5.91869">
        <ele>1582.47</ele>
        <time>2013-06-08T06:59:45Z</time>
      </trkpt>
      <trkpt lat="46.23602" lon="5.91873">
        <ele>1583.91</ele>
        <time>2013-06-08T06:59:54Z</time>
      </trkpt>
      <trkpt lat="46.23615" lon="5.91889">
        <ele>1583.91</ele>
        <time>2013-06-08T07:00:09Z</time>
      </trkpt>
      <trkpt lat="46.23625" lon="5.91905">
        <ele>1585.35</ele>
        <time>2013-06-08T07:00:22Z</time>
      </trkpt>
      <trkpt lat="46.23634" lon="5.91912">
        <ele>1587.27</ele>
        <time>2013-06-08T07:00:33Z</time>
      </trkpt>
      <trkpt lat="46.23642" lon="5.91914">
        <ele>1591.12</ele>
        <time>2013-06-08T07:00:46Z</time>
      </trkpt>
      <trkpt lat="46.2365" lon="5.91915">
        <ele>1594.96</ele>
        <time>2013-06-08T07:00:58Z</time>
      </trkpt>
      <trkpt lat="46.23651" lon="5.91915">
        <ele>1595.45</ele>
        <time>2013-06-08T07:00:59Z</time>
      </trkpt>
      <trkpt lat="46.2366" lon="5.91917">
        <ele>1596.41</ele>
        <time>2013-06-08T07:01:11Z</time>
      </trkpt>
      <trkpt lat="46.23666" lon="5.91919">
        <ele>1596.89</ele>
        <time>2013-06-08T07:01:20Z</time>
      </trkpt>
      <trkpt lat="46.23669" lon="5.91921">
        <ele>1597.85</ele>
        <time>2013-06-08T07:01:35Z</time>
      </trkpt>
      <trkpt lat="46.2367" lon="5.91922">
        <ele>1598.33</ele>
        <time>2013-06-08T07:01:36Z</time>
      </trkpt>
      <trkpt lat="46.23681" lon="5.91926">
        <ele>1599.29</ele>
        <time>2013-06-08T07:01:46Z</time>
      </trkpt>
      <trkpt lat="46.23683" lon="5.91926">
        <ele>1599.29</ele>
        <time>2013-06-08T07:01:48Z</time>
      </trkpt>
      <trkpt lat="46.23686" lon="5.91929">
        <ele>1599.29</ele>
        <time>2013-06-08T07:01:51Z</time>
      </trkpt>
      <trkpt lat="46.23695" lon="5.91929">
        <ele>1600.73</ele>
        <time>2013-06-08T07:01:59Z</time>
      </trkpt>
      <trkpt lat="46.23698" lon="5.91926">
        <ele>1601.69</ele>
        <time>2013-06-08T07:02:03Z</time>
      </trkpt>
      <trkpt lat="46.23701" lon="5.91925">
        <ele>1602.66</ele>
        <time>2013-06-08T07:02:06Z</time>
      </trkpt>
      <trkpt lat="46.23714" lon="5.91931">
        <ele>1604.1</ele>
        <time>2013-06-08T07:02:17Z</time>
      </trkpt>
      <trkpt lat="46.23727" lon="5.91937">
        <ele>1605.06</ele>
        <time>2013-06-08T07:02:28Z</time>
      </trkpt>
      <trkpt lat="46.23736" lon="5.91936">
        <ele>1606.02</ele>
        <time>2013-06-08T07:02:35Z</time>
      </trkpt>
      <trkpt lat="46.2374" lon="5.91938">
        <ele>1606.5</ele>
        <time>2013-06-08T07:02:39Z</time>
      </trkpt>
      <trkpt lat="46.2376" lon="5.91937">
        <ele>1607.94</ele>
        <time>2013-06-08T07:02:54Z</time>
      </trkpt>
      <trkpt lat="46.23778" lon="5.91942">
        <ele>1610.35</ele>
        <time>2013-06-08T07:03:10Z</time>
      </trkpt>
      <trkpt lat="46.23785" lon="5.91944">
        <ele>1611.31</ele>
        <time>2013-06-08T07:03:16Z</time>
      </trkpt>
      <trkpt lat="46.23797" lon="5.91944">
        <ele>1612.27</ele>
        <time>2013-06-08T07:03:28Z</time>
      </trkpt>
      <trkpt lat="46.23804" lon="5.91943">
        <ele>1613.23</ele>
        <time>2013-06-08T07:03:34Z</time>
      </trkpt>
      <trkpt lat="46.23815" lon="5.91941">
        <ele>1615.63</ele>
        <time>2013-06-08T07:03:47Z</time>
      </trkpt>
      <trkpt lat="46.23825" lon="5.91936">
        <ele>1618.52</ele>
        <time>2013-06-08T07:03:59Z</time>
      </trkpt>
      <trkpt lat="46.23825" lon="5.91934">
        <ele>1619.48</ele>
        <time>2013-06-08T07:04:03Z</time>
      </trkpt>
      <trkpt lat="46.23832" lon="5.91939">
        <ele>1619.96</ele>
        <time>2013-06-08T07:04:10Z</time>
      </trkpt>
      <trkpt lat="46.23847" lon="5.91941">
        <ele>1622.84</ele>
        <time>2013-06-08T07:04:24Z</time>
      </trkpt>
      <trkpt lat="46.23851" lon="5.91942">
        <ele>1623.8</ele>
        <time>2013-06-08T07:04:39Z</time>
      </trkpt>
      <trkpt lat="46.23849" lon="5.91941">
        <ele>1624.77</ele>
        <time>2013-06-08T07:04:46Z</time>
      </trkpt>
      <trkpt lat="46.23848" lon="5.91943">
        <ele>1625.25</ele>
        <time>2013-06-08T07:04:48Z</time>
      </trkpt>
      <trkpt lat="46.23852" lon="5.91952">
        <ele>1628.13</ele>
        <time>2013-06-08T07:04:56Z</time>
      </trkpt>
      <trkpt lat="46.23858" lon="5.91956">
        <ele>1629.09</ele>
        <time>2013-06-08T07:05:03Z</time>
      </trkpt>
      <trkpt lat="46.23873" lon="5.91963">
        <ele>1631.98</ele>
        <time>2013-06-08T07:05:17Z</time>
      </trkpt>
      <trkpt lat="46.23887" lon="5.9197">
        <ele>1634.38</ele>
        <time>2013-06-08T07:05:30Z</time>
      </trkpt>
      <trkpt lat="46.23888" lon="5.91972">
        <ele>1634.86</ele>
        <time>2013-06-08T07:05:40Z</time>
      </trkpt>
      <trkpt lat="46.23894" lon="5.91976">
        <ele>1635.34</ele>
        <time>2013-06-08T07:05:50Z</time>
      </trkpt>
      <trkpt lat="46.23899" lon="5.91981">
        <ele>1637.26</ele>
        <time>2013-06-08T07:05:57Z</time>
      </trkpt>
      <trkpt lat="46.23904" lon="5.91989">
        <ele>1637.26</ele>
        <time>2013-06-08T07:06:04Z</time>
      </trkpt>
      <trkpt lat="46.23904" lon="5.91992">
        <ele>1637.26</ele>
        <time>2013-06-08T07:06:06Z</time>
      </trkpt>
      <trkpt lat="46.23907" lon="5.91995">
        <ele>1636.78</ele>
        <time>2013-06-08T07:06:10Z</time>
      </trkpt>
      <trkpt lat="46.23917" lon="5.91997">
        <ele>1635.34</ele>
        <time>2013-06-08T07:06:22Z</time>
      </trkpt>
      <trkpt lat="46.23917" lon="5.91998">
        <ele>1634.86</ele>
        <time>2013-06-08T07:06:23Z</time>
      </trkpt>
      <trkpt lat="46.23916" lon="5.9201">
        <ele>1630.53</ele>
        <time>2013-06-08T07:06:37Z</time>
      </trkpt>
      <trkpt lat="46.23917" lon="5.92018">
        <ele>1627.65</ele>
        <time>2013-06-08T07:06:47Z</time>
      </trkpt>
      <trkpt lat="46.23916" lon="5.92023">
        <ele>1625.25</ele>
        <time>2013-06-08T07:06:51Z</time>
      </trkpt>
      <trkpt lat="46.23924" lon="5.92026">
        <ele>1623.32</ele>
        <time>2013-06-08T07:06:57Z</time>
      </trkpt>
      <trkpt lat="46.23931" lon="5.92035">
        <ele>1621.4</ele>
        <time>2013-06-08T07:07:04Z</time>
      </trkpt>
      <trkpt lat="46.23943" lon="5.9204">
        <ele>1619</ele>
        <time>2013-06-08T07:07:13Z</time>
      </trkpt>
      <trkpt lat="46.23948" lon="5.92043">
        <ele>1618.52</ele>
        <time>2013-06-08T07:07:17Z</time>
      </trkpt>
      <trkpt lat="46.23965" lon="5.92049">
        <ele>1617.56</ele>
        <time>2013-06-08T07:07:29Z</time>
      </trkpt>
      <trkpt lat="46.2398" lon="5.92055">
        <ele>1619</ele>
        <time>2013-06-08T07:07:42Z</time>
      </trkpt>
      <trkpt lat="46.23995" lon="5.92054">
        <ele>1619.96</ele>
        <time>2013-06-08T07:07:54Z</time>
      </trkpt>
      <trkpt lat="46.24" lon="5.92053">
        <ele>1619.96</ele>
        <time>2013-06-08T07:07:58Z</time>
      </trkpt>
      <trkpt lat="46.24017" lon="5.92048">
        <ele>1619.48</ele>
        <time>2013-06-08T07:08:11Z</time>
      </trkpt>
      <trkpt lat="46.24032" lon="5.92042">
        <ele>1620.92</ele>
        <time>2013-06-08T07:08:24Z</time>
      </trkpt>
      <trkpt lat="46.2405" lon="5.92046">
        <ele>1619.96</ele>
        <time>2013-06-08T07:08:37Z</time>
      </trkpt>
      <trkpt lat="46.24056" lon="5.92048">
        <ele>1619</ele>
        <time>2013-06-08T07:08:41Z</time>
      </trkpt>
      <trkpt lat="46.24062" lon="5.9205">
        <ele>1618.04</ele>
        <time>2013-06-08T07:08:46Z</time>
      </trkpt>
      <trkpt lat="46.24085" lon="5.92067">
        <ele>1620.92</ele>
        <time>2013-06-08T07:09:03Z</time>
      </trkpt>
      <trkpt lat="46.24101" lon="5.92071">
        <ele>1619.96</ele>
        <time>2013-06-08T07:09:15Z</time>
      </trkpt>
      <trkpt lat="46.24122" lon="5.92072">
        <ele>1618.52</ele>
        <time>2013-06-08T07:09:29Z</time>
      </trkpt>
      <trkpt lat="46.2414" lon="5.92075">
        <ele>1619</ele>
        <time>2013-06-08T07:09:41Z</time>
      </trkpt>
      <trkpt lat="46.24161" lon="5.92079">
        <ele>1619</ele>
        <time>2013-06-08T07:09:55Z</time>
      </trkpt>
      <trkpt lat="46.24181" lon="5.92083">
        <ele>1615.15</ele>
        <time>2013-06-08T07:10:09Z</time>
      </trkpt>
      <trkpt lat="46.24202" lon="5.92093">
        <ele>1612.75</ele>
        <time>2013-06-08T07:10:23Z</time>
      </trkpt>
      <trkpt lat="46.24223" lon="5.92105">
        <ele>1612.75</ele>
        <time>2013-06-08T07:10:38Z</time>
      </trkpt>
      <trkpt lat="46.2424" lon="5.9212">
        <ele>1610.83</ele>
        <time>2013-06-08T07:10:52Z</time>
      </trkpt>
      <trkpt lat="46.24259" lon="5.92135">
        <ele>1609.86</ele>
        <time>2013-06-08T07:11:06Z</time>
      </trkpt>
      <trkpt lat="46.24275" lon="5.92146">
        <ele>1608.42</ele>
        <time>2013-06-08T07:11:18Z</time>
      </trkpt>
      <trkpt lat="46.24293" lon="5.92157">
        <ele>1609.86</ele>
        <time>2013-06-08T07:11:33Z</time>
      </trkpt>
      <trkpt lat="46.24307" lon="5.92167">
        <ele>1610.83</ele>
        <time>2013-06-08T07:11:44Z</time>
      </trkpt>
      <trkpt lat="46.24312" lon="5.92169">
        <ele>1611.79</ele>
        <time>2013-06-08T07:11:48Z</time>
      </trkpt>
      <trkpt lat="46.24319" lon="5.9217">
        <ele>1613.23</ele>
        <time>2013-06-08T07:11:54Z</time>
      </trkpt>
      <trkpt lat="46.24327" lon="5.92174">
        <ele>1614.67</ele>
        <time>2013-06-08T07:12:00Z</time>
      </trkpt>
      <trkpt lat="46.24344" lon="5.92178">
        <ele>1617.07</ele>
        <time>2013-06-08T07:12:14Z</time>
      </trkpt>
      <trkpt lat="46.24346" lon="5.92179">
        <ele>1618.04</ele>
        <time>2013-06-08T07:12:16Z</time>
      </trkpt>
      <trkpt lat="46.24356" lon="5.92187">
        <ele>1621.4</ele>
        <time>2013-06-08T07:12:28Z</time>
      </trkpt>
      <trkpt lat="46.2436" lon="5.92191">
        <ele>1621.88</ele>
        <time>2013-06-08T07:12:33Z</time>
      </trkpt>
      <trkpt lat="46.24364" lon="5.92193">
        <ele>1622.36</ele>
        <time>2013-06-08T07:12:36Z</time>
      </trkpt>
      <trkpt lat="46.24375" lon="5.92205">
        <ele>1625.25</ele>
        <time>2013-06-08T07:12:49Z</time>
      </trkpt>
      <trkpt lat="46.24387" lon="5.92216">
        <ele>1627.65</ele>
        <time>2013-06-08T07:13:02Z</time>
      </trkpt>
      <trkpt lat="46.24398" lon="5.92233">
        <ele>1631.01</ele>
        <time>2013-06-08T07:13:17Z</time>
      </trkpt>
      <trkpt lat="46.24404" lon="5.92241">
        <ele>1632.46</ele>
        <time>2013-06-08T07:13:24Z</time>
      </trkpt>
      <trkpt lat="46.24407" lon="5.92245">
        <ele>1633.42</ele>
        <time>2013-06-08T07:13:28Z</time>
      </trkpt>
      <trkpt lat="46.24409" lon="5.92248">
        <ele>1633.9</ele>
        <time>2013-06-08T07:13:31Z</time>
      </trkpt>
      <trkpt lat="46.24414" lon="5.9225">
        <ele>1635.34</ele>
        <time>2013-06-08T07:13:36Z</time>
      </trkpt>
      <trkpt lat="46.24416" lon="5.92253">
        <ele>1635.82</ele>
        <time>2013-06-08T07:13:39Z</time>
      </trkpt>
      <trkpt lat="46.24426" lon="5.92261">
        <ele>1638.7</ele>
        <time>2013-06-08T07:13:53Z</time>
      </trkpt>
      <trkpt lat="46.24428" lon="5.92264">
        <ele>1639.67</ele>
        <time>2013-06-08T07:13:56Z</time>
      </trkpt>
      <trkpt lat="46.24434" lon="5.92266">
        <ele>1641.11</ele>
        <time>2013-06-08T07:14:02Z</time>
      </trkpt>
      <trkpt lat="46.24445" lon="5.9228">
        <ele>1645.43</ele>
        <time>2013-06-08T07:14:17Z</time>
      </trkpt>
      <trkpt lat="46.24446" lon="5.92281">
        <ele>1645.91</ele>
        <time>2013-06-08T07:14:18Z</time>
      </trkpt>
      <trkpt lat="46.24459" lon="5.92289">
        <ele>1647.84</ele>
        <time>2013-06-08T07:14:31Z</time>
      </trkpt>
      <trkpt lat="46.2447" lon="5.92295">
        <ele>1648.32</ele>
        <time>2013-06-08T07:14:42Z</time>
      </trkpt>
      <trkpt lat="46.24471" lon="5.92296">
        <ele>1648.32</ele>
        <time>2013-06-08T07:14:43Z</time>
      </trkpt>
      <trkpt lat="46.24484" lon="5.92307">
        <ele>1649.76</ele>
        <time>2013-06-08T07:14:56Z</time>
      </trkpt>
      <trkpt lat="46.24488" lon="5.9231">
        <ele>1650.72</ele>
        <time>2013-06-08T07:15:00Z</time>
      </trkpt>
      <trkpt lat="46.24498" lon="5.92322">
        <ele>1651.2</ele>
        <time>2013-06-08T07:15:11Z</time>
      </trkpt>
      <trkpt lat="46.24505" lon="5.92328">
        <ele>1652.16</ele>
        <time>2013-06-08T07:15:18Z</time>
      </trkpt>
      <trkpt lat="46.2451" lon="5.9233">
        <ele>1653.12</ele>
        <time>2013-06-08T07:15:22Z</time>
      </trkpt>
      <trkpt lat="46.24513" lon="5.92333">
        <ele>1654.57</ele>
        <time>2013-06-08T07:15:26Z</time>
      </trkpt>
      <trkpt lat="46.24518" lon="5.92336">
        <ele>1656.01</ele>
        <time>2013-06-08T07:15:30Z</time>
      </trkpt>
      <trkpt lat="46.24524" lon="5.92341">
        <ele>1657.45</ele>
        <time>2013-06-08T07:15:36Z</time>
      </trkpt>
      <trkpt lat="46.24533" lon="5.92346">
        <ele>1658.89</ele>
        <time>2013-06-08T07:15:44Z</time>
      </trkpt>
      <trkpt lat="46.24538" lon="5.92347">
        <ele>1658.89</ele>
        <time>2013-06-08T07:15:48Z</time>
      </trkpt>
      <trkpt lat="46.24543" lon="5.92345">
        <ele>1659.37</ele>
        <time>2013-06-08T07:15:53Z</time>
      </trkpt>
      <trkpt lat="46.24547" lon="5.92345">
        <ele>1659.85</ele>
        <time>2013-06-08T07:16:02Z</time>
      </trkpt>
      <trkpt lat="46.24559" lon="5.92352">
        <ele>1660.81</ele>
        <time>2013-06-08T07:16:12Z</time>
      </trkpt>
      <trkpt lat="46.24565" lon="5.92354">
        <ele>1661.78</ele>
        <time>2013-06-08T07:16:17Z</time>
      </trkpt>
      <trkpt lat="46.24582" lon="5.92357">
        <ele>1664.18</ele>
        <time>2013-06-08T07:16:31Z</time>
      </trkpt>
      <trkpt lat="46.24586" lon="5.9236">
        <ele>1663.7</ele>
        <time>2013-06-08T07:16:37Z</time>
      </trkpt>
      <trkpt lat="46.2459" lon="5.92361">
        <ele>1663.7</ele>
        <time>2013-06-08T07:16:40Z</time>
      </trkpt>
      <trkpt lat="46.24594" lon="5.92365">
        <ele>1664.18</ele>
        <time>2013-06-08T07:16:45Z</time>
      </trkpt>
      <trkpt lat="46.24598" lon="5.9237">
        <ele>1661.78</ele>
        <time>2013-06-08T07:16:50Z</time>
      </trkpt>
      <trkpt lat="46.24614" lon="5.92374">
        <ele>1660.81</ele>
        <time>2013-06-08T07:17:01Z</time>
      </trkpt>
      <trkpt lat="46.24621" lon="5.92376">
        <ele>1660.81</ele>
        <time>2013-06-08T07:17:07Z</time>
      </trkpt>
      <trkpt lat="46.24629" lon="5.92381">
        <ele>1662.26</ele>
        <time>2013-06-08T07:17:15Z</time>
      </trkpt>
      <trkpt lat="46.24636" lon="5.92384">
        <ele>1663.22</ele>
        <time>2013-06-08T07:17:21Z</time>
      </trkpt>
      <trkpt lat="46.24642" lon="5.92383">
        <ele>1664.18</ele>
        <time>2013-06-08T07:17:25Z</time>
      </trkpt>
      <trkpt lat="46.24646" lon="5.9238">
        <ele>1665.14</ele>
        <time>2013-06-08T07:17:29Z</time>
      </trkpt>
      <trkpt lat="46.24654" lon="5.92381">
        <ele>1666.1</ele>
        <time>2013-06-08T07:17:35Z</time>
      </trkpt>
      <trkpt lat="46.24659" lon="5.92382">
        <ele>1666.1</ele>
        <time>2013-06-08T07:17:39Z</time>
      </trkpt>
      <trkpt lat="46.24678" lon="5.9239">
        <ele>1666.58</ele>
        <time>2013-06-08T07:17:53Z</time>
      </trkpt>
      <trkpt lat="46.24686" lon="5.92394">
        <ele>1667.06</ele>
        <time>2013-06-08T07:17:59Z</time>
      </trkpt>
      <trkpt lat="46.2469" lon="5.92398">
        <ele>1666.58</ele>
        <time>2013-06-08T07:18:03Z</time>
      </trkpt>
      <trkpt lat="46.24704" lon="5.92406">
        <ele>1665.14</ele>
        <time>2013-06-08T07:18:13Z</time>
      </trkpt>
      <trkpt lat="46.24724" lon="5.9242">
        <ele>1664.18</ele>
        <time>2013-06-08T07:18:26Z</time>
      </trkpt>
      <trkpt lat="46.24743" lon="5.92429">
        <ele>1664.66</ele>
        <time>2013-06-08T07:18:40Z</time>
      </trkpt>
      <trkpt lat="46.24759" lon="5.92438">
        <ele>1666.1</ele>
        <time>2013-06-08T07:18:53Z</time>
      </trkpt>
      <trkpt lat="46.24776" lon="5.9244">
        <ele>1667.06</ele>
        <time>2013-06-08T07:19:06Z</time>
      </trkpt>
      <trkpt lat="46.24793" lon="5.92439">
        <ele>1668.51</ele>
        <time>2013-06-08T07:19:19Z</time>
      </trkpt>
      <trkpt lat="46.24811" lon="5.92434">
        <ele>1669.95</ele>
        <time>2013-06-08T07:19:33Z</time>
      </trkpt>
      <trkpt lat="46.24828" lon="5.92421">
        <ele>1671.87</ele>
        <time>2013-06-08T07:19:47Z</time>
      </trkpt>
      <trkpt lat="46.24845" lon="5.92409">
        <ele>1671.39</ele>
        <time>2013-06-08T07:19:59Z</time>
      </trkpt>
      <trkpt lat="46.24862" lon="5.92404">
        <ele>1668.99</ele>
        <time>2013-06-08T07:20:12Z</time>
      </trkpt>
      <trkpt lat="46.24878" lon="5.92396">
        <ele>1665.14</ele>
        <time>2013-06-08T07:20:25Z</time>
      </trkpt>
      <trkpt lat="46.24888" lon="5.92386">
        <ele>1664.18</ele>
        <time>2013-06-08T07:20:33Z</time>
      </trkpt>
      <trkpt lat="46.24898" lon="5.92375">
        <ele>1661.78</ele>
        <time>2013-06-08T07:20:45Z</time>
      </trkpt>
      <trkpt lat="46.24916" lon="5.92365">
        <ele>1659.85</ele>
        <time>2013-06-08T07:20:56Z</time>
      </trkpt>
      <trkpt lat="46.24933" lon="5.92352">
        <ele>1656.97</ele>
        <time>2013-06-08T07:21:08Z</time>
      </trkpt>
      <trkpt lat="46.24934" lon="5.9235">
        <ele>1656.49</ele>
        <time>2013-06-08T07:21:21Z</time>
      </trkpt>
      <trkpt lat="46.24934" lon="5.9235">
        <ele>1657.45</ele>
        <time>2013-06-08T07:21:31Z</time>
      </trkpt>
      <trkpt lat="46.24952" lon="5.92341">
        <ele>1656.01</ele>
        <time>2013-06-08T07:21:43Z</time>
      </trkpt>
      <trkpt lat="46.24975" lon="5.92336">
        <ele>1653.6</ele>
        <time>2013-06-08T07:21:57Z</time>
      </trkpt>
      <trkpt lat="46.24994" lon="5.9233">
        <ele>1653.12</ele>
        <time>2013-06-08T07:22:09Z</time>
      </trkpt>
      <trkpt lat="46.25008" lon="5.92326">
        <ele>1652.64</ele>
        <time>2013-06-08T07:22:21Z</time>
      </trkpt>
      <trkpt lat="46.25027" lon="5.92324">
        <ele>1652.64</ele>
        <time>2013-06-08T07:22:36Z</time>
      </trkpt>
      <trkpt lat="46.25041" lon="5.92321">
        <ele>1652.16</ele>
        <time>2013-06-08T07:22:48Z</time>
      </trkpt>
      <trkpt lat="46.25059" lon="5.92318">
        <ele>1656.01</ele>
        <time>2013-06-08T07:23:03Z</time>
      </trkpt>
      <trkpt lat="46.25078" lon="5.92318">
        <ele>1659.37</ele>
        <time>2013-06-08T07:23:17Z</time>
      </trkpt>
      <trkpt lat="46.25094" lon="5.92323">
        <ele>1662.26</ele>
        <time>2013-06-08T07:23:30Z</time>
      </trkpt>
      <trkpt lat="46.25114" lon="5.92327">
        <ele>1661.3</ele>
        <time>2013-06-08T07:23:43Z</time>
      </trkpt>
      <trkpt lat="46.25128" lon="5.92333">
        <ele>1660.81</ele>
        <time>2013-06-08T07:23:53Z</time>
      </trkpt>
      <trkpt lat="46.25136" lon="5.92339">
        <ele>1660.81</ele>
        <time>2013-06-08T07:23:58Z</time>
      </trkpt>
      <trkpt lat="46.25143" lon="5.92342">
        <ele>1660.81</ele>
        <time>2013-06-08T07:24:03Z</time>
      </trkpt>
      <trkpt lat="46.25165" lon="5.92357">
        <ele>1662.74</ele>
        <time>2013-06-08T07:24:19Z</time>
      </trkpt>
      <trkpt lat="46.25188" lon="5.92378">
        <ele>1659.37</ele>
        <time>2013-06-08T07:24:34Z</time>
      </trkpt>
      <trkpt lat="46.25204" lon="5.9239">
        <ele>1662.26</ele>
        <time>2013-06-08T07:24:46Z</time>
      </trkpt>
      <trkpt lat="46.25217" lon="5.92398">
        <ele>1664.18</ele>
        <time>2013-06-08T07:24:56Z</time>
      </trkpt>
      <trkpt lat="46.25233" lon="5.92415">
        <ele>1665.62</ele>
        <time>2013-06-08T07:25:11Z</time>
      </trkpt>
      <trkpt lat="46.2525" lon="5.9243">
        <ele>1665.14</ele>
        <time>2013-06-08T07:25:25Z</time>
      </trkpt>
      <trkpt lat="46.25255" lon="5.92433">
        <ele>1664.66</ele>
        <time>2013-06-08T07:25:29Z</time>
      </trkpt>
      <trkpt lat="46.25262" lon="5.92438">
        <ele>1663.7</ele>
        <time>2013-06-08T07:25:35Z</time>
      </trkpt>
      <trkpt lat="46.2527" lon="5.92446">
        <ele>1663.22</ele>
        <time>2013-06-08T07:25:42Z</time>
      </trkpt>
      <trkpt lat="46.25279" lon="5.92452">
        <ele>1662.74</ele>
        <time>2013-06-08T07:25:49Z</time>
      </trkpt>
      <trkpt lat="46.2529" lon="5.92463">
        <ele>1663.22</ele>
        <time>2013-06-08T07:25:59Z</time>
      </trkpt>
      <trkpt lat="46.25312" lon="5.92476">
        <ele>1661.78</ele>
        <time>2013-06-08T07:26:14Z</time>
      </trkpt>
      <trkpt lat="46.2533" lon="5.9248">
        <ele>1663.7</ele>
        <time>2013-06-08T07:26:26Z</time>
      </trkpt>
      <trkpt lat="46.25339" lon="5.92483">
        <ele>1664.18</ele>
        <time>2013-06-08T07:26:33Z</time>
      </trkpt>
      <trkpt lat="46.25346" lon="5.92482">
        <ele>1664.18</ele>
        <time>2013-06-08T07:26:37Z</time>
      </trkpt>
      <trkpt lat="46.25354" lon="5.92483">
        <ele>1665.14</ele>
        <time>2013-06-08T07:26:43Z</time>
      </trkpt>
      <trkpt lat="46.25373" lon="5.92485">
        <ele>1665.62</ele>
        <time>2013-06-08T07:26:57Z</time>
      </trkpt>
      <trkpt lat="46.25387" lon="5.92484">
        <ele>1669.47</ele>
        <time>2013-06-08T07:27:11Z</time>
      </trkpt>
      <trkpt lat="46.25389" lon="5.92483">
        <ele>1670.43</ele>
        <time>2013-06-08T07:27:14Z</time>
      </trkpt>
      <trkpt lat="46.25393" lon="5.92481">
        <ele>1671.39</ele>
        <time>2013-06-08T07:27:18Z</time>
      </trkpt>
      <trkpt lat="46.25411" lon="5.92491">
        <ele>1671.87</ele>
        <time>2013-06-08T07:27:32Z</time>
      </trkpt>
      <trkpt lat="46.25415" lon="5.92494">
        <ele>1671.87</ele>
        <time>2013-06-08T07:27:35Z</time>
      </trkpt>
      <trkpt lat="46.2542" lon="5.9251">
        <ele>1672.83</ele>
        <time>2013-06-08T07:27:43Z</time>
      </trkpt>
      <trkpt lat="46.25427" lon="5.92529">
        <ele>1671.39</ele>
        <time>2013-06-08T07:27:55Z</time>
      </trkpt>
      <trkpt lat="46.25432" lon="5.92543">
        <ele>1669.95</ele>
        <time>2013-06-08T07:28:03Z</time>
      </trkpt>
      <trkpt lat="46.25447" lon="5.92571">
        <ele>1667.06</ele>
        <time>2013-06-08T07:28:18Z</time>
      </trkpt>
      <trkpt lat="46.25473" lon="5.92598">
        <ele>1661.3</ele>
        <time>2013-06-08T07:28:32Z</time>
      </trkpt>
      <trkpt lat="46.25504" lon="5.92618">
        <ele>1656.49</ele>
        <time>2013-06-08T07:28:46Z</time>
      </trkpt>
      <trkpt lat="46.25509" lon="5.92623">
        <ele>1655.05</ele>
        <time>2013-06-08T07:28:57Z</time>
      </trkpt>
      <trkpt lat="46.25508" lon="5.92625">
        <ele>1656.01</ele>
        <time>2013-06-08T07:29:10Z</time>
      </trkpt>
      <trkpt lat="46.25508" lon="5.92624">
        <ele>1655.53</ele>
        <time>2013-06-08T07:29:25Z</time>
      </trkpt>
      <trkpt lat="46.25523" lon="5.92632">
        <ele>1655.53</ele>
        <time>2013-06-08T07:29:37Z</time>
      </trkpt>
      <trkpt lat="46.25544" lon="5.92656">
        <ele>1654.09</ele>
        <time>2013-06-08T07:29:51Z</time>
      </trkpt>
      <trkpt lat="46.25546" lon="5.9266">
        <ele>1653.12</ele>
        <time>2013-06-08T07:30:03Z</time>
      </trkpt>
      <trkpt lat="46.25545" lon="5.9266">
        <ele>1653.6</ele>
        <time>2013-06-08T07:30:12Z</time>
      </trkpt>
      <trkpt lat="46.25546" lon="5.92674">
        <ele>1653.6</ele>
        <time>2013-06-08T07:30:17Z</time>
      </trkpt>
      <trkpt lat="46.25556" lon="5.927">
        <ele>1655.05</ele>
        <time>2013-06-08T07:30:30Z</time>
      </trkpt>
      <trkpt lat="46.25558" lon="5.92704">
        <ele>1655.53</ele>
        <time>2013-06-08T07:30:32Z</time>
      </trkpt>
      <trkpt lat="46.25562" lon="5.9271">
        <ele>1656.49</ele>
        <time>2013-06-08T07:30:36Z</time>
      </trkpt>
      <trkpt lat="46.2557" lon="5.9274">
        <ele>1660.81</ele>
        <time>2013-06-08T07:30:51Z</time>
      </trkpt>
      <trkpt lat="46.25573" lon="5.92744">
        <ele>1661.3</ele>
        <time>2013-06-08T07:30:54Z</time>
      </trkpt>
      <trkpt lat="46.25578" lon="5.92749">
        <ele>1661.3</ele>
        <time>2013-06-08T07:30:58Z</time>
      </trkpt>
      <trkpt lat="46.25589" lon="5.92772">
        <ele>1663.22</ele>
        <time>2013-06-08T07:31:12Z</time>
      </trkpt>
      <trkpt lat="46.25592" lon="5.92784">
        <ele>1664.66</ele>
        <time>2013-06-08T07:31:20Z</time>
      </trkpt>
      <trkpt lat="46.25593" lon="5.92801">
        <ele>1668.02</ele>
        <time>2013-06-08T07:31:33Z</time>
      </trkpt>
      <trkpt lat="46.25596" lon="5.92812">
        <ele>1669.95</ele>
        <time>2013-06-08T07:31:44Z</time>
      </trkpt>
      <trkpt lat="46.25604" lon="5.92827">
        <ele>1673.79</ele>
        <time>2013-06-08T07:31:56Z</time>
      </trkpt>
      <trkpt lat="46.25608" lon="5.92839">
        <ele>1676.68</ele>
        <time>2013-06-08T07:32:06Z</time>
      </trkpt>
      <trkpt lat="46.25615" lon="5.92852">
        <ele>1681</ele>
        <time>2013-06-08T07:32:20Z</time>
      </trkpt>
      <trkpt lat="46.25624" lon="5.92863">
        <ele>1684.37</ele>
        <time>2013-06-08T07:32:32Z</time>
      </trkpt>
      <trkpt lat="46.25625" lon="5.92865">
        <ele>1684.85</ele>
        <time>2013-06-08T07:32:34Z</time>
      </trkpt>
      <trkpt lat="46.25626" lon="5.92867">
        <ele>1685.81</ele>
        <time>2013-06-08T07:32:36Z</time>
      </trkpt>
      <trkpt lat="46.25634" lon="5.92881">
        <ele>1688.69</ele>
        <time>2013-06-08T07:32:49Z</time>
      </trkpt>
      <trkpt lat="46.25641" lon="5.92892">
        <ele>1691.58</ele>
        <time>2013-06-08T07:33:01Z</time>
      </trkpt>
      <trkpt lat="46.2565" lon="5.92909">
        <ele>1693.5</ele>
        <time>2013-06-08T07:33:16Z</time>
      </trkpt>
      <trkpt lat="46.2566" lon="5.92924">
        <ele>1694.46</ele>
        <time>2013-06-08T07:33:31Z</time>
      </trkpt>
      <trkpt lat="46.25669" lon="5.92935">
        <ele>1697.83</ele>
        <time>2013-06-08T07:33:43Z</time>
      </trkpt>
      <trkpt lat="46.25679" lon="5.92946">
        <ele>1702.15</ele>
        <time>2013-06-08T07:33:58Z</time>
      </trkpt>
      <trkpt lat="46.25679" lon="5.92948">
        <ele>1702.63</ele>
        <time>2013-06-08T07:34:00Z</time>
      </trkpt>
      <trkpt lat="46.2568" lon="5.9295">
        <ele>1703.59</ele>
        <time>2013-06-08T07:34:02Z</time>
      </trkpt>
      <trkpt lat="46.25686" lon="5.9296">
        <ele>1708.4</ele>
        <time>2013-06-08T07:34:14Z</time>
      </trkpt>
      <trkpt lat="46.2569" lon="5.92967">
        <ele>1712.25</ele>
        <time>2013-06-08T07:34:23Z</time>
      </trkpt>
      <trkpt lat="46.25694" lon="5.92975">
        <ele>1716.57</ele>
        <time>2013-06-08T07:34:35Z</time>
      </trkpt>
      <trkpt lat="46.25694" lon="5.92982">
        <ele>1717.53</ele>
        <time>2013-06-08T07:34:45Z</time>
      </trkpt>
      <trkpt lat="46.25694" lon="5.92983">
        <ele>1717.53</ele>
        <time>2013-06-08T07:34:46Z</time>
      </trkpt>
      <trkpt lat="46.25698" lon="5.92983">
        <ele>1718.49</ele>
        <time>2013-06-08T07:34:51Z</time>
      </trkpt>
      <trkpt lat="46.257" lon="5.92985">
        <ele>1719.46</ele>
        <time>2013-06-08T07:35:01Z</time>
      </trkpt>
      <trkpt lat="46.25701" lon="5.92985">
        <ele>1719.94</ele>
        <time>2013-06-08T07:35:03Z</time>
      </trkpt>
      <trkpt lat="46.25703" lon="5.92986">
        <ele>1718.97</ele>
        <time>2013-06-08T07:35:16Z</time>
      </trkpt>
      <trkpt lat="46.25703" lon="5.92987">
        <ele>1718.49</ele>
        <time>2013-06-08T07:35:52Z</time>
      </trkpt>
      <trkpt lat="46.25703" lon="5.92987">
        <ele>1717.53</ele>
        <time>2013-06-08T07:36:26Z</time>
      </trkpt>
      <trkpt lat="46.25703" lon="5.92987">
        <ele>1717.53</ele>
        <time>2013-06-08T07:36:46Z</time>
      </trkpt>
      <trkpt lat="46.25704" lon="5.92989">
        <ele>1717.53</ele>
        <time>2013-06-08T07:37:07Z</time>
      </trkpt>
      <trkpt lat="46.25724" lon="5.92998">
        <ele>1715.61</ele>
        <time>2013-06-08T07:37:19Z</time>
      </trkpt>
      <trkpt lat="46.25747" lon="5.93009">
        <ele>1711.28</ele>
        <time>2013-06-08T07:37:31Z</time>
      </trkpt>
      <trkpt lat="46.25766" lon="5.93015">
        <ele>1706.96</ele>
        <time>2013-06-08T07:37:42Z</time>
      </trkpt>
      <trkpt lat="46.25767" lon="5.93018">
        <ele>1704.07</ele>
        <time>2013-06-08T07:37:54Z</time>
      </trkpt>
      <trkpt lat="46.25767" lon="5.93017">
        <ele>1703.59</ele>
        <time>2013-06-08T07:38:21Z</time>
      </trkpt>
      <trkpt lat="46.25768" lon="5.93018">
        <ele>1703.11</ele>
        <time>2013-06-08T07:38:24Z</time>
      </trkpt>
      <trkpt lat="46.25771" lon="5.93018">
        <ele>1703.11</ele>
        <time>2013-06-08T07:38:27Z</time>
      </trkpt>
      <trkpt lat="46.25776" lon="5.93022">
        <ele>1702.63</ele>
        <time>2013-06-08T07:38:32Z</time>
      </trkpt>
      <trkpt lat="46.25803" lon="5.93043">
        <ele>1695.9</ele>
        <time>2013-06-08T07:38:44Z</time>
      </trkpt>
      <trkpt lat="46.25824" lon="5.93065">
        <ele>1686.29</ele>
        <time>2013-06-08T07:38:54Z</time>
      </trkpt>
      <trkpt lat="46.25838" lon="5.93079">
        <ele>1679.56</ele>
        <time>2013-06-08T07:39:02Z</time>
      </trkpt>
      <trkpt lat="46.25856" lon="5.93076">
        <ele>1672.35</ele>
        <time>2013-06-08T07:39:13Z</time>
      </trkpt>
      <trkpt lat="46.25857" lon="5.93076">
        <ele>1671.39</ele>
        <time>2013-06-08T07:39:14Z</time>
      </trkpt>
      <trkpt lat="46.25866" lon="5.93076">
        <ele>1667.54</ele>
        <time>2013-06-08T07:39:19Z</time>
      </trkpt>
      <trkpt lat="46.25889" lon="5.93064">
        <ele>1656.97</ele>
        <time>2013-06-08T07:39:34Z</time>
      </trkpt>
      <trkpt lat="46.25906" lon="5.93071">
        <ele>1653.6</ele>
        <time>2013-06-08T07:39:45Z</time>
      </trkpt>
      <trkpt lat="46.25923" lon="5.93074">
        <ele>1649.28</ele>
        <time>2013-06-08T07:39:57Z</time>
      </trkpt>
      <trkpt lat="46.25938" lon="5.93083">
        <ele>1644.47</ele>
        <time>2013-06-08T07:40:09Z</time>
      </trkpt>
      <trkpt lat="46.25961" lon="5.93103">
        <ele>1643.99</ele>
        <time>2013-06-08T07:40:25Z</time>
      </trkpt>
      <trkpt lat="46.2598" lon="5.93118">
        <ele>1640.63</ele>
        <time>2013-06-08T07:40:38Z</time>
      </trkpt>
      <trkpt lat="46.26003" lon="5.93132">
        <ele>1638.22</ele>
        <time>2013-06-08T07:40:53Z</time>
      </trkpt>
      <trkpt lat="46.26016" lon="5.93141">
        <ele>1638.7</ele>
        <time>2013-06-08T07:41:01Z</time>
      </trkpt>
      <trkpt lat="46.26035" lon="5.93156">
        <ele>1640.63</ele>
        <time>2013-06-08T07:41:16Z</time>
      </trkpt>
      <trkpt lat="46.26055" lon="5.93166">
        <ele>1643.03</ele>
        <time>2013-06-08T07:41:30Z</time>
      </trkpt>
      <trkpt lat="46.2608" lon="5.93176">
        <ele>1645.91</ele>
        <time>2013-06-08T07:41:47Z</time>
      </trkpt>
      <trkpt lat="46.26097" lon="5.93173">
        <ele>1647.36</ele>
        <time>2013-06-08T07:41:58Z</time>
      </trkpt>
      <trkpt lat="46.26118" lon="5.9317">
        <ele>1647.84</ele>
        <time>2013-06-08T07:42:11Z</time>
      </trkpt>
      <trkpt lat="46.26137" lon="5.93171">
        <ele>1648.32</ele>
        <time>2013-06-08T07:42:23Z</time>
      </trkpt>
      <trkpt lat="46.26156" lon="5.93185">
        <ele>1650.24</ele>
        <time>2013-06-08T07:42:37Z</time>
      </trkpt>
      <trkpt lat="46.26171" lon="5.93201">
        <ele>1654.09</ele>
        <time>2013-06-08T07:42:50Z</time>
      </trkpt>
      <trkpt lat="46.26177" lon="5.93209">
        <ele>1655.05</ele>
        <time>2013-06-08T07:42:56Z</time>
      </trkpt>
      <trkpt lat="46.2618" lon="5.93214">
        <ele>1656.97</ele>
        <time>2013-06-08T07:43:00Z</time>
      </trkpt>
      <trkpt lat="46.26182" lon="5.93219">
        <ele>1657.93</ele>
        <time>2013-06-08T07:43:03Z</time>
      </trkpt>
      <trkpt lat="46.2619" lon="5.93233">
        <ele>1660.81</ele>
        <time>2013-06-08T07:43:13Z</time>
      </trkpt>
      <trkpt lat="46.26204" lon="5.93254">
        <ele>1664.18</ele>
        <time>2013-06-08T07:43:29Z</time>
      </trkpt>
      <trkpt lat="46.26206" lon="5.93257">
        <ele>1664.66</ele>
        <time>2013-06-08T07:43:31Z</time>
      </trkpt>
      <trkpt lat="46.26219" lon="5.93274">
        <ele>1667.54</ele>
        <time>2013-06-08T07:43:45Z</time>
      </trkpt>
      <trkpt lat="46.26227" lon="5.93283">
        <ele>1669.95</ele>
        <time>2013-06-08T07:43:55Z</time>
      </trkpt>
      <trkpt lat="46.26234" lon="5.93292">
        <ele>1672.35</ele>
        <time>2013-06-08T07:44:03Z</time>
      </trkpt>
      <trkpt lat="46.26241" lon="5.93305">
        <ele>1674.27</ele>
        <time>2013-06-08T07:44:12Z</time>
      </trkpt>
      <trkpt lat="46.26246" lon="5.93311">
        <ele>1674.75</ele>
        <time>2013-06-08T07:44:18Z</time>
      </trkpt>
      <trkpt lat="46.26249" lon="5.93315">
        <ele>1674.75</ele>
        <time>2013-06-08T07:44:33Z</time>
      </trkpt>
      <trkpt lat="46.2627" lon="5.93341">
        <ele>1670.91</ele>
        <time>2013-06-08T07:44:46Z</time>
      </trkpt>
      <trkpt lat="46.26278" lon="5.93349">
        <ele>1668.51</ele>
        <time>2013-06-08T07:44:50Z</time>
      </trkpt>
      <trkpt lat="46.26286" lon="5.93361">
        <ele>1665.14</ele>
        <time>2013-06-08T07:44:57Z</time>
      </trkpt>
      <trkpt lat="46.26289" lon="5.93371">
        <ele>1663.22</ele>
        <time>2013-06-08T07:45:02Z</time>
      </trkpt>
      <trkpt lat="46.26293" lon="5.9338">
        <ele>1660.33</ele>
        <time>2013-06-08T07:45:13Z</time>
      </trkpt>
      <trkpt lat="46.26301" lon="5.934">
        <ele>1658.89</ele>
        <time>2013-06-08T07:45:25Z</time>
      </trkpt>
      <trkpt lat="46.26318" lon="5.93417">
        <ele>1658.89</ele>
        <time>2013-06-08T07:45:38Z</time>
      </trkpt>
      <trkpt lat="46.26327" lon="5.93423">
        <ele>1658.41</ele>
        <time>2013-06-08T07:45:44Z</time>
      </trkpt>
      <trkpt lat="46.26344" lon="5.93427">
        <ele>1657.93</ele>
        <time>2013-06-08T07:45:56Z</time>
      </trkpt>
      <trkpt lat="46.26349" lon="5.93428">
        <ele>1657.93</ele>
        <time>2013-06-08T07:45:59Z</time>
      </trkpt>
      <trkpt lat="46.2636" lon="5.93432">
        <ele>1657.45</ele>
        <time>2013-06-08T07:46:08Z</time>
      </trkpt>
      <trkpt lat="46.26375" lon="5.9344">
        <ele>1657.93</ele>
        <time>2013-06-08T07:46:19Z</time>
      </trkpt>
      <trkpt lat="46.26382" lon="5.93444">
        <ele>1657.45</ele>
        <time>2013-06-08T07:46:25Z</time>
      </trkpt>
      <trkpt lat="46.26384" lon="5.93446">
        <ele>1657.93</ele>
        <time>2013-06-08T07:46:28Z</time>
      </trkpt>
      <trkpt lat="46.26394" lon="5.93449">
        <ele>1657.45</ele>
        <time>2013-06-08T07:46:36Z</time>
      </trkpt>
      <trkpt lat="46.26397" lon="5.93456">
        <ele>1657.93</ele>
        <time>2013-06-08T07:46:41Z</time>
      </trkpt>
      <trkpt lat="46.26401" lon="5.93462">
        <ele>1658.41</ele>
        <time>2013-06-08T07:46:47Z</time>
      </trkpt>
      <trkpt lat="46.2641" lon="5.93467">
        <ele>1658.89</ele>
        <time>2013-06-08T07:46:54Z</time>
      </trkpt>
      <trkpt lat="46.26415" lon="5.93473">
        <ele>1659.85</ele>
        <time>2013-06-08T07:47:00Z</time>
      </trkpt>
      <trkpt lat="46.26421" lon="5.9348">
        <ele>1660.33</ele>
        <time>2013-06-08T07:47:06Z</time>
      </trkpt>
      <trkpt lat="46.26436" lon="5.93488">
        <ele>1661.78</ele>
        <time>2013-06-08T07:47:20Z</time>
      </trkpt>
      <trkpt lat="46.26443" lon="5.93487">
        <ele>1661.78</ele>
        <time>2013-06-08T07:47:25Z</time>
      </trkpt>
      <trkpt lat="46.2645" lon="5.93484">
        <ele>1663.22</ele>
        <time>2013-06-08T07:47:31Z</time>
      </trkpt>
      <trkpt lat="46.26464" lon="5.93479">
        <ele>1664.66</ele>
        <time>2013-06-08T07:47:44Z</time>
      </trkpt>
      <trkpt lat="46.26479" lon="5.9347">
        <ele>1666.1</ele>
        <time>2013-06-08T07:47:56Z</time>
      </trkpt>
      <trkpt lat="46.26494" lon="5.93464">
        <ele>1667.54</ele>
        <time>2013-06-08T07:48:09Z</time>
      </trkpt>
      <trkpt lat="46.26503" lon="5.93466">
        <ele>1668.51</ele>
        <time>2013-06-08T07:48:16Z</time>
      </trkpt>
      <trkpt lat="46.2651" lon="5.93466">
        <ele>1668.51</ele>
        <time>2013-06-08T07:48:22Z</time>
      </trkpt>
      <trkpt lat="46.2653" lon="5.93472">
        <ele>1667.54</ele>
        <time>2013-06-08T07:48:36Z</time>
      </trkpt>
      <trkpt lat="46.26538" lon="5.93472">
        <ele>1665.62</ele>
        <time>2013-06-08T07:48:41Z</time>
      </trkpt>
      <trkpt lat="46.26548" lon="5.93473">
        <ele>1664.18</ele>
        <time>2013-06-08T07:48:47Z</time>
      </trkpt>
      <trkpt lat="46.26566" lon="5.93471">
        <ele>1662.26</ele>
        <time>2013-06-08T07:49:00Z</time>
      </trkpt>
      <trkpt lat="46.26569" lon="5.93468">
        <ele>1662.74</ele>
        <time>2013-06-08T07:49:02Z</time>
      </trkpt>
      <trkpt lat="46.26585" lon="5.93471">
        <ele>1665.62</ele>
        <time>2013-06-08T07:49:16Z</time>
      </trkpt>
      <trkpt lat="46.26591" lon="5.93474">
        <ele>1667.54</ele>
        <time>2013-06-08T07:49:23Z</time>
      </trkpt>
      <trkpt lat="46.266" lon="5.9348">
        <ele>1670.43</ele>
        <time>2013-06-08T07:49:32Z</time>
      </trkpt>
      <trkpt lat="46.26608" lon="5.93482">
        <ele>1669.95</ele>
        <time>2013-06-08T07:49:39Z</time>
      </trkpt>
      <trkpt lat="46.26612" lon="5.93482">
        <ele>1669.95</ele>
        <time>2013-06-08T07:49:42Z</time>
      </trkpt>
      <trkpt lat="46.26615" lon="5.93484">
        <ele>1669.95</ele>
        <time>2013-06-08T07:49:45Z</time>
      </trkpt>
      <trkpt lat="46.26622" lon="5.93493">
        <ele>1669.95</ele>
        <time>2013-06-08T07:49:52Z</time>
      </trkpt>
      <trkpt lat="46.26623" lon="5.93494">
        <ele>1670.43</ele>
        <time>2013-06-08T07:49:54Z</time>
      </trkpt>
      <trkpt lat="46.26628" lon="5.93501">
        <ele>1670.91</ele>
        <time>2013-06-08T07:50:00Z</time>
      </trkpt>
      <trkpt lat="46.2663" lon="5.93505">
        <ele>1671.39</ele>
        <time>2013-06-08T07:50:03Z</time>
      </trkpt>
      <trkpt lat="46.26633" lon="5.9351">
        <ele>1671.39</ele>
        <time>2013-06-08T07:50:07Z</time>
      </trkpt>
      <trkpt lat="46.26636" lon="5.93511">
        <ele>1671.87</ele>
        <time>2013-06-08T07:50:09Z</time>
      </trkpt>
      <trkpt lat="46.2664" lon="5.93519">
        <ele>1673.31</ele>
        <time>2013-06-08T07:50:16Z</time>
      </trkpt>
      <trkpt lat="46.26644" lon="5.93525">
        <ele>1673.79</ele>
        <time>2013-06-08T07:50:20Z</time>
      </trkpt>
      <trkpt lat="46.26649" lon="5.93522">
        <ele>1673.31</ele>
        <time>2013-06-08T07:50:24Z</time>
      </trkpt>
      <trkpt lat="46.26663" lon="5.93508">
        <ele>1673.31</ele>
        <time>2013-06-08T07:50:40Z</time>
      </trkpt>
      <trkpt lat="46.26675" lon="5.93498">
        <ele>1674.75</ele>
        <time>2013-06-08T07:50:52Z</time>
      </trkpt>
      <trkpt lat="46.26678" lon="5.93495">
        <ele>1675.23</ele>
        <time>2013-06-08T07:50:55Z</time>
      </trkpt>
      <trkpt lat="46.2669" lon="5.93489">
        <ele>1675.72</ele>
        <time>2013-06-08T07:51:08Z</time>
      </trkpt>
      <trkpt lat="46.26693" lon="5.93489">
        <ele>1675.72</ele>
        <time>2013-06-08T07:51:11Z</time>
      </trkpt>
      <trkpt lat="46.26697" lon="5.93493">
        <ele>1674.27</ele>
        <time>2013-06-08T07:51:15Z</time>
      </trkpt>
      <trkpt lat="46.26701" lon="5.93498">
        <ele>1673.79</ele>
        <time>2013-06-08T07:51:20Z</time>
      </trkpt>
      <trkpt lat="46.26705" lon="5.93508">
        <ele>1675.23</ele>
        <time>2013-06-08T07:51:27Z</time>
      </trkpt>
      <trkpt lat="46.26709" lon="5.93525">
        <ele>1680.04</ele>
        <time>2013-06-08T07:51:39Z</time>
      </trkpt>
      <trkpt lat="46.26713" lon="5.93528">
        <ele>1681</ele>
        <time>2013-06-08T07:51:42Z</time>
      </trkpt>
      <trkpt lat="46.26723" lon="5.93544">
        <ele>1682.44</ele>
        <time>2013-06-08T07:51:52Z</time>
      </trkpt>
      <trkpt lat="46.26732" lon="5.93559">
        <ele>1682.44</ele>
        <time>2013-06-08T07:52:01Z</time>
      </trkpt>
      <trkpt lat="46.26748" lon="5.9357">
        <ele>1680.04</ele>
        <time>2013-06-08T07:52:13Z</time>
      </trkpt>
      <trkpt lat="46.26757" lon="5.93582">
        <ele>1678.12</ele>
        <time>2013-06-08T07:52:22Z</time>
      </trkpt>
      <trkpt lat="46.26765" lon="5.93595">
        <ele>1676.68</ele>
        <time>2013-06-08T07:52:37Z</time>
      </trkpt>
      <trkpt lat="46.26764" lon="5.93594">
        <ele>1676.68</ele>
        <time>2013-06-08T07:52:52Z</time>
      </trkpt>
      <trkpt lat="46.26765" lon="5.93605">
        <ele>1678.12</ele>
        <time>2013-06-08T07:53:01Z</time>
      </trkpt>
      <trkpt lat="46.26764" lon="5.93607">
        <ele>1678.6</ele>
        <time>2013-06-08T07:53:03Z</time>
      </trkpt>
      <trkpt lat="46.26764" lon="5.9361">
        <ele>1679.56</ele>
        <time>2013-06-08T07:53:05Z</time>
      </trkpt>
      <trkpt lat="46.26768" lon="5.93625">
        <ele>1682.93</ele>
        <time>2013-06-08T07:53:18Z</time>
      </trkpt>
      <trkpt lat="46.2677" lon="5.9363">
        <ele>1684.37</ele>
        <time>2013-06-08T07:53:22Z</time>
      </trkpt>
      <trkpt lat="46.26781" lon="5.93643">
        <ele>1686.77</ele>
        <time>2013-06-08T07:53:36Z</time>
      </trkpt>
      <trkpt lat="46.26791" lon="5.9365">
        <ele>1685.81</ele>
        <time>2013-06-08T07:53:47Z</time>
      </trkpt>
      <trkpt lat="46.26793" lon="5.93651">
        <ele>1685.81</ele>
        <time>2013-06-08T07:53:49Z</time>
      </trkpt>
      <trkpt lat="46.26799" lon="5.93652">
        <ele>1686.29</ele>
        <time>2013-06-08T07:53:55Z</time>
      </trkpt>
      <trkpt lat="46.26802" lon="5.93656">
        <ele>1686.77</ele>
        <time>2013-06-08T07:53:59Z</time>
      </trkpt>
      <trkpt lat="46.26802" lon="5.9366">
        <ele>1686.29</ele>
        <time>2013-06-08T07:54:01Z</time>
      </trkpt>
      <trkpt lat="46.26804" lon="5.93665">
        <ele>1686.29</ele>
        <time>2013-06-08T07:54:03Z</time>
      </trkpt>
      <trkpt lat="46.26819" lon="5.93672">
        <ele>1687.25</ele>
        <time>2013-06-08T07:54:15Z</time>
      </trkpt>
      <trkpt lat="46.26822" lon="5.93679">
        <ele>1687.25</ele>
        <time>2013-06-08T07:54:20Z</time>
      </trkpt>
      <trkpt lat="46.26827" lon="5.93682">
        <ele>1687.73</ele>
        <time>2013-06-08T07:54:24Z</time>
      </trkpt>
      <trkpt lat="46.26836" lon="5.93691">
        <ele>1684.85</ele>
        <time>2013-06-08T07:54:36Z</time>
      </trkpt>
      <trkpt lat="46.26836" lon="5.93691">
        <ele>1684.37</ele>
        <time>2013-06-08T07:54:37Z</time>
      </trkpt>
      <trkpt lat="46.26849" lon="5.93694">
        <ele>1682.44</ele>
        <time>2013-06-08T07:54:47Z</time>
      </trkpt>
      <trkpt lat="46.26859" lon="5.937">
        <ele>1680.52</ele>
        <time>2013-06-08T07:54:58Z</time>
      </trkpt>
      <trkpt lat="46.26859" lon="5.93699">
        <ele>1680.04</ele>
        <time>2013-06-08T07:54:59Z</time>
      </trkpt>
      <trkpt lat="46.26857" lon="5.93702">
        <ele>1679.56</ele>
        <time>2013-06-08T07:55:04Z</time>
      </trkpt>
      <trkpt lat="46.26872" lon="5.93719">
        <ele>1679.56</ele>
        <time>2013-06-08T07:55:22Z</time>
      </trkpt>
      <trkpt lat="46.26872" lon="5.93727">
        <ele>1680.52</ele>
        <time>2013-06-08T07:55:28Z</time>
      </trkpt>
      <trkpt lat="46.26874" lon="5.93745">
        <ele>1681.96</ele>
        <time>2013-06-08T07:55:38Z</time>
      </trkpt>
      <trkpt lat="46.26881" lon="5.93754">
        <ele>1683.41</ele>
        <time>2013-06-08T07:55:48Z</time>
      </trkpt>
      <trkpt lat="46.26884" lon="5.9376">
        <ele>1683.89</ele>
        <time>2013-06-08T07:55:53Z</time>
      </trkpt>
      <trkpt lat="46.26888" lon="5.93764">
        <ele>1684.37</ele>
        <time>2013-06-08T07:55:57Z</time>
      </trkpt>
      <trkpt lat="46.26893" lon="5.93766">
        <ele>1684.37</ele>
        <time>2013-06-08T07:56:01Z</time>
      </trkpt>
      <trkpt lat="46.2691" lon="5.93777">
        <ele>1684.85</ele>
        <time>2013-06-08T07:56:16Z</time>
      </trkpt>
      <trkpt lat="46.2692" lon="5.93785">
        <ele>1685.81</ele>
        <time>2013-06-08T07:56:28Z</time>
      </trkpt>
      <trkpt lat="46.26924" lon="5.93788">
        <ele>1686.77</ele>
        <time>2013-06-08T07:56:32Z</time>
      </trkpt>
      <trkpt lat="46.2693" lon="5.9379">
        <ele>1687.73</ele>
        <time>2013-06-08T07:56:39Z</time>
      </trkpt>
      <trkpt lat="46.26933" lon="5.93795">
        <ele>1689.17</ele>
        <time>2013-06-08T07:56:44Z</time>
      </trkpt>
      <trkpt lat="46.26934" lon="5.93798">
        <ele>1689.65</ele>
        <time>2013-06-08T07:56:46Z</time>
      </trkpt>
      <trkpt lat="46.26943" lon="5.9382">
        <ele>1690.14</ele>
        <time>2013-06-08T07:57:01Z</time>
      </trkpt>
      <trkpt lat="46.26954" lon="5.93834">
        <ele>1690.14</ele>
        <time>2013-06-08T07:57:12Z</time>
      </trkpt>
      <trkpt lat="46.26957" lon="5.93837">
        <ele>1690.14</ele>
        <time>2013-06-08T07:57:16Z</time>
      </trkpt>
      <trkpt lat="46.26974" lon="5.93851">
        <ele>1691.58</ele>
        <time>2013-06-08T07:57:31Z</time>
      </trkpt>
      <trkpt lat="46.26974" lon="5.93852">
        <ele>1692.06</ele>
        <time>2013-06-08T07:57:32Z</time>
      </trkpt>
      <trkpt lat="46.26977" lon="5.93855">
        <ele>1692.06</ele>
        <time>2013-06-08T07:57:35Z</time>
      </trkpt>
      <trkpt lat="46.26982" lon="5.9387">
        <ele>1695.42</ele>
        <time>2013-06-08T07:57:48Z</time>
      </trkpt>
      <trkpt lat="46.26986" lon="5.93873">
        <ele>1695.9</ele>
        <time>2013-06-08T07:57:55Z</time>
      </trkpt>
      <trkpt lat="46.26991" lon="5.93881">
        <ele>1697.34</ele>
        <time>2013-06-08T07:58:02Z</time>
      </trkpt>
      <trkpt lat="46.26994" lon="5.93884">
        <ele>1698.31</ele>
        <time>2013-06-08T07:58:05Z</time>
      </trkpt>
      <trkpt lat="46.27008" lon="5.93899">
        <ele>1697.83</ele>
        <time>2013-06-08T07:58:18Z</time>
      </trkpt>
      <trkpt lat="46.27013" lon="5.93901">
        <ele>1697.34</ele>
        <time>2013-06-08T07:58:22Z</time>
      </trkpt>
      <trkpt lat="46.27018" lon="5.93901">
        <ele>1698.31</ele>
        <time>2013-06-08T07:58:27Z</time>
      </trkpt>
      <trkpt lat="46.27025" lon="5.93903">
        <ele>1698.31</ele>
        <time>2013-06-08T07:58:34Z</time>
      </trkpt>
      <trkpt lat="46.27029" lon="5.9391">
        <ele>1698.79</ele>
        <time>2013-06-08T07:58:39Z</time>
      </trkpt>
      <trkpt lat="46.27044" lon="5.93923">
        <ele>1699.27</ele>
        <time>2013-06-08T07:58:54Z</time>
      </trkpt>
      <trkpt lat="46.27047" lon="5.93925">
        <ele>1699.27</ele>
        <time>2013-06-08T07:58:56Z</time>
      </trkpt>
      <trkpt lat="46.27052" lon="5.93931">
        <ele>1699.27</ele>
        <time>2013-06-08T07:59:01Z</time>
      </trkpt>
      <trkpt lat="46.27055" lon="5.93932">
        <ele>1700.23</ele>
        <time>2013-06-08T07:59:04Z</time>
      </trkpt>
      <trkpt lat="46.27067" lon="5.93943">
        <ele>1702.63</ele>
        <time>2013-06-08T07:59:18Z</time>
      </trkpt>
      <trkpt lat="46.27071" lon="5.93948">
        <ele>1705.04</ele>
        <time>2013-06-08T07:59:26Z</time>
      </trkpt>
      <trkpt lat="46.27077" lon="5.93953">
        <ele>1708.88</ele>
        <time>2013-06-08T07:59:37Z</time>
      </trkpt>
      <trkpt lat="46.27086" lon="5.93956">
        <ele>1711.76</ele>
        <time>2013-06-08T07:59:49Z</time>
      </trkpt>
      <trkpt lat="46.27092" lon="5.9395">
        <ele>1712.73</ele>
        <time>2013-06-08T08:00:04Z</time>
      </trkpt>
      <trkpt lat="46.27092" lon="5.9395">
        <ele>1713.21</ele>
        <time>2013-06-08T08:00:10Z</time>
      </trkpt>
      <trkpt lat="46.27093" lon="5.93954">
        <ele>1714.17</ele>
        <time>2013-06-08T08:00:15Z</time>
      </trkpt>
      <trkpt lat="46.27095" lon="5.93963">
        <ele>1717.53</ele>
        <time>2013-06-08T08:00:26Z</time>
      </trkpt>
      <trkpt lat="46.27096" lon="5.93985">
        <ele>1718.49</ele>
        <time>2013-06-08T08:00:37Z</time>
      </trkpt>
      <trkpt lat="46.27098" lon="5.93991">
        <ele>1718.49</ele>
        <time>2013-06-08T08:00:41Z</time>
      </trkpt>
      <trkpt lat="46.27098" lon="5.93997">
        <ele>1718.49</ele>
        <time>2013-06-08T08:00:45Z</time>
      </trkpt>
      <trkpt lat="46.27104" lon="5.94004">
        <ele>1717.53</ele>
        <time>2013-06-08T08:00:57Z</time>
      </trkpt>
      <trkpt lat="46.27104" lon="5.94007">
        <ele>1716.09</ele>
        <time>2013-06-08T08:01:09Z</time>
      </trkpt>
      <trkpt lat="46.27105" lon="5.9401">
        <ele>1715.61</ele>
        <time>2013-06-08T08:01:24Z</time>
      </trkpt>
      <trkpt lat="46.27106" lon="5.94012">
        <ele>1714.65</ele>
        <time>2013-06-08T08:01:45Z</time>
      </trkpt>
      <trkpt lat="46.27106" lon="5.94012">
        <ele>1713.69</ele>
        <time>2013-06-08T08:02:28Z</time>
      </trkpt>
      <trkpt lat="46.27106" lon="5.94011">
        <ele>1713.21</ele>
        <time>2013-06-08T08:03:07Z</time>
      </trkpt>
      <trkpt lat="46.27106" lon="5.94011">
        <ele>1712.25</ele>
        <time>2013-06-08T08:03:31Z</time>
      </trkpt>
      <trkpt lat="46.27106" lon="5.94011">
        <ele>1712.25</ele>
        <time>2013-06-08T08:04:01Z</time>
      </trkpt>
      <trkpt lat="46.27107" lon="5.9401">
        <ele>1711.76</ele>
        <time>2013-06-08T08:04:29Z</time>
      </trkpt>
      <trkpt lat="46.27107" lon="5.9401">
        <ele>1711.76</ele>
        <time>2013-06-08T08:04:52Z</time>
      </trkpt>
      <trkpt lat="46.27107" lon="5.94009">
        <ele>1711.76</ele>
        <time>2013-06-08T08:05:23Z</time>
      </trkpt>
      <trkpt lat="46.27107" lon="5.9401">
        <ele>1711.76</ele>
        <time>2013-06-08T08:05:47Z</time>
      </trkpt>
      <trkpt lat="46.27106" lon="5.9401">
        <ele>1712.25</ele>
        <time>2013-06-08T08:06:24Z</time>
      </trkpt>
      <trkpt lat="46.27106" lon="5.94009">
        <ele>1712.25</ele>
        <time>2013-06-08T08:06:53Z</time>
      </trkpt>
      <trkpt lat="46.27106" lon="5.9401">
        <ele>1712.73</ele>
        <time>2013-06-08T08:07:21Z</time>
      </trkpt>
      <trkpt lat="46.27106" lon="5.94009">
        <ele>1712.73</ele>
        <time>2013-06-08T08:07:51Z</time>
      </trkpt>
      <trkpt lat="46.27106" lon="5.94009">
        <ele>1712.73</ele>
        <time>2013-06-08T08:08:23Z</time>
      </trkpt>
      <trkpt lat="46.27105" lon="5.94009">
        <ele>1712.73</ele>
        <time>2013-06-08T08:08:55Z</time>
      </trkpt>
      <trkpt lat="46.27105" lon="5.94009">
        <ele>1713.21</ele>
        <time>2013-06-08T08:09:28Z</time>
      </trkpt>
      <trkpt lat="46.27104" lon="5.94008">
        <ele>1713.21</ele>
        <time>2013-06-08T08:10:02Z</time>
      </trkpt>
      <trkpt lat="46.27104" lon="5.94008">
        <ele>1713.21</ele>
        <time>2013-06-08T08:10:38Z</time>
      </trkpt>
      <trkpt lat="46.27103" lon="5.94007">
        <ele>1713.21</ele>
        <time>2013-06-08T08:11:16Z</time>
      </trkpt>
      <trkpt lat="46.27102" lon="5.94007">
        <ele>1713.69</ele>
        <time>2013-06-08T08:11:50Z</time>
      </trkpt>
      <trkpt lat="46.27102" lon="5.94007">
        <ele>1714.17</ele>
        <time>2013-06-08T08:12:23Z</time>
      </trkpt>
      <trkpt lat="46.27102" lon="5.94007">
        <ele>1714.65</ele>
        <time>2013-06-08T08:13:00Z</time>
      </trkpt>
      <trkpt lat="46.27101" lon="5.94007">
        <ele>1715.13</ele>
        <time>2013-06-08T08:13:33Z</time>
      </trkpt>
      <trkpt lat="46.27101" lon="5.94007">
        <ele>1715.13</ele>
        <time>2013-06-08T08:14:05Z</time>
      </trkpt>
      <trkpt lat="46.27102" lon="5.94008">
        <ele>1715.13</ele>
        <time>2013-06-08T08:14:34Z</time>
      </trkpt>
      <trkpt lat="46.27103" lon="5.94008">
        <ele>1714.17</ele>
        <time>2013-06-08T08:14:58Z</time>
      </trkpt>
      <trkpt lat="46.27104" lon="5.94011">
        <ele>1712.25</ele>
        <time>2013-06-08T08:15:29Z</time>
      </trkpt>
      <trkpt lat="46.27105" lon="5.94011">
        <ele>1710.8</ele>
        <time>2013-06-08T08:15:56Z</time>
      </trkpt>
      <trkpt lat="46.27104" lon="5.9401">
        <ele>1709.84</ele>
        <time>2013-06-08T08:16:23Z</time>
      </trkpt>
      <trkpt lat="46.27104" lon="5.9401">
        <ele>1708.4</ele>
        <time>2013-06-08T08:16:46Z</time>
      </trkpt>
      <trkpt lat="46.27104" lon="5.94009">
        <ele>1707.44</ele>
        <time>2013-06-08T08:17:09Z</time>
      </trkpt>
      <trkpt lat="46.27104" lon="5.94009">
        <ele>1706.48</ele>
        <time>2013-06-08T08:17:44Z</time>
      </trkpt>
      <trkpt lat="46.27104" lon="5.94009">
        <ele>1706</ele>
        <time>2013-06-08T08:18:00Z</time>
      </trkpt>
      <trkpt lat="46.27104" lon="5.9401">
        <ele>1706.48</ele>
        <time>2013-06-08T08:18:11Z</time>
      </trkpt>
      <trkpt lat="46.27105" lon="5.94011">
        <ele>1706.96</ele>
        <time>2013-06-08T08:18:29Z</time>
      </trkpt>
      <trkpt lat="46.27105" lon="5.94011">
        <ele>1706.96</ele>
        <time>2013-06-08T08:18:36Z</time>
      </trkpt>
      <trkpt lat="46.27105" lon="5.94013">
        <ele>1706.96</ele>
        <time>2013-06-08T08:18:48Z</time>
      </trkpt>
      <trkpt lat="46.27106" lon="5.94013">
        <ele>1706.96</ele>
        <time>2013-06-08T08:18:59Z</time>
      </trkpt>
      <trkpt lat="46.27108" lon="5.94016">
        <ele>1708.4</ele>
        <time>2013-06-08T08:19:04Z</time>
      </trkpt>
      <trkpt lat="46.27107" lon="5.94035">
        <ele>1711.76</ele>
        <time>2013-06-08T08:19:14Z</time>
      </trkpt>
      <trkpt lat="46.2711" lon="5.94047">
        <ele>1711.76</ele>
        <time>2013-06-08T08:19:20Z</time>
      </trkpt>
      <trkpt lat="46.27109" lon="5.94052">
        <ele>1712.25</ele>
        <time>2013-06-08T08:19:23Z</time>
      </trkpt>
      <trkpt lat="46.27117" lon="5.94062">
        <ele>1711.76</ele>
        <time>2013-06-08T08:19:29Z</time>
      </trkpt>
      <trkpt lat="46.27121" lon="5.94092">
        <ele>1709.36</ele>
        <time>2013-06-08T08:19:42Z</time>
      </trkpt>
      <trkpt lat="46.2713" lon="5.94106">
        <ele>1707.92</ele>
        <time>2013-06-08T08:19:50Z</time>
      </trkpt>
      <trkpt lat="46.27135" lon="5.94135">
        <ele>1707.44</ele>
        <time>2013-06-08T08:20:03Z</time>
      </trkpt>
      <trkpt lat="46.27144" lon="5.94164">
        <ele>1708.4</ele>
        <time>2013-06-08T08:20:17Z</time>
      </trkpt>
      <trkpt lat="46.27155" lon="5.94187">
        <ele>1709.84</ele>
        <time>2013-06-08T08:20:30Z</time>
      </trkpt>
      <trkpt lat="46.27157" lon="5.9419">
        <ele>1709.84</ele>
        <time>2013-06-08T08:20:32Z</time>
      </trkpt>
      <trkpt lat="46.27165" lon="5.94214">
        <ele>1710.8</ele>
        <time>2013-06-08T08:20:46Z</time>
      </trkpt>
      <trkpt lat="46.27177" lon="5.94235">
        <ele>1710.8</ele>
        <time>2013-06-08T08:20:59Z</time>
      </trkpt>
      <trkpt lat="46.27177" lon="5.94245">
        <ele>1710.32</ele>
        <time>2013-06-08T08:21:05Z</time>
      </trkpt>
      <trkpt lat="46.27181" lon="5.94261">
        <ele>1708.88</ele>
        <time>2013-06-08T08:21:15Z</time>
      </trkpt>
      <trkpt lat="46.27188" lon="5.94288">
        <ele>1709.84</ele>
        <time>2013-06-08T08:21:28Z</time>
      </trkpt>
      <trkpt lat="46.27191" lon="5.94293">
        <ele>1710.8</ele>
        <time>2013-06-08T08:21:33Z</time>
      </trkpt>
      <trkpt lat="46.2719" lon="5.943">
        <ele>1711.28</ele>
        <time>2013-06-08T08:21:37Z</time>
      </trkpt>
      <trkpt lat="46.2719" lon="5.94306">
        <ele>1712.25</ele>
        <time>2013-06-08T08:21:40Z</time>
      </trkpt>
      <trkpt lat="46.27196" lon="5.94318">
        <ele>1712.73</ele>
        <time>2013-06-08T08:21:46Z</time>
      </trkpt>
      <trkpt lat="46.27206" lon="5.94328">
        <ele>1712.73</ele>
        <time>2013-06-08T08:21:52Z</time>
      </trkpt>
      <trkpt lat="46.27208" lon="5.94333">
        <ele>1712.25</ele>
        <time>2013-06-08T08:21:56Z</time>
      </trkpt>
      <trkpt lat="46.27221" lon="5.94343">
        <ele>1711.76</ele>
        <time>2013-06-08T08:22:05Z</time>
      </trkpt>
      <trkpt lat="46.27231" lon="5.94358">
        <ele>1710.32</ele>
        <time>2013-06-08T08:22:17Z</time>
      </trkpt>
      <trkpt lat="46.27231" lon="5.94359">
        <ele>1709.84</ele>
        <time>2013-06-08T08:22:20Z</time>
      </trkpt>
      <trkpt lat="46.27233" lon="5.94364">
        <ele>1708.88</ele>
        <time>2013-06-08T08:22:26Z</time>
      </trkpt>
      <trkpt lat="46.27233" lon="5.94367">
        <ele>1708.88</ele>
        <time>2013-06-08T08:22:28Z</time>
      </trkpt>
      <trkpt lat="46.27236" lon="5.94372">
        <ele>1708.88</ele>
        <time>2013-06-08T08:22:32Z</time>
      </trkpt>
      <trkpt lat="46.27237" lon="5.94391">
        <ele>1708.88</ele>
        <time>2013-06-08T08:22:43Z</time>
      </trkpt>
      <trkpt lat="46.27247" lon="5.94412">
        <ele>1708.4</ele>
        <time>2013-06-08T08:22:57Z</time>
      </trkpt>
      <trkpt lat="46.27248" lon="5.94418">
        <ele>1708.4</ele>
        <time>2013-06-08T08:22:59Z</time>
      </trkpt>
      <trkpt lat="46.27253" lon="5.94428">
        <ele>1707.44</ele>
        <time>2013-06-08T08:23:05Z</time>
      </trkpt>
      <trkpt lat="46.27257" lon="5.94437">
        <ele>1706.96</ele>
        <time>2013-06-08T08:23:11Z</time>
      </trkpt>
      <trkpt lat="46.27264" lon="5.94453">
        <ele>1706</ele>
        <time>2013-06-08T08:23:21Z</time>
      </trkpt>
      <trkpt lat="46.27272" lon="5.94473">
        <ele>1706.48</ele>
        <time>2013-06-08T08:23:34Z</time>
      </trkpt>
      <trkpt lat="46.27275" lon="5.94477">
        <ele>1706.48</ele>
        <time>2013-06-08T08:23:40Z</time>
      </trkpt>
      <trkpt lat="46.27277" lon="5.94481">
        <ele>1706.48</ele>
        <time>2013-06-08T08:23:43Z</time>
      </trkpt>
      <trkpt lat="46.27283" lon="5.945">
        <ele>1701.67</ele>
        <time>2013-06-08T08:23:56Z</time>
      </trkpt>
      <trkpt lat="46.27285" lon="5.94518">
        <ele>1698.31</ele>
        <time>2013-06-08T08:24:05Z</time>
      </trkpt>
      <trkpt lat="46.27288" lon="5.9453">
        <ele>1697.34</ele>
        <time>2013-06-08T08:24:11Z</time>
      </trkpt>
      <trkpt lat="46.27288" lon="5.94537">
        <ele>1697.34</ele>
        <time>2013-06-08T08:24:15Z</time>
      </trkpt>
      <trkpt lat="46.27289" lon="5.94543">
        <ele>1697.34</ele>
        <time>2013-06-08T08:24:18Z</time>
      </trkpt>
      <trkpt lat="46.27292" lon="5.94561">
        <ele>1697.83</ele>
        <time>2013-06-08T08:24:28Z</time>
      </trkpt>
      <trkpt lat="46.27294" lon="5.94589">
        <ele>1699.27</ele>
        <time>2013-06-08T08:24:43Z</time>
      </trkpt>
      <trkpt lat="46.27291" lon="5.94607">
        <ele>1700.23</ele>
        <time>2013-06-08T08:24:52Z</time>
      </trkpt>
      <trkpt lat="46.27294" lon="5.94614">
        <ele>1701.67</ele>
        <time>2013-06-08T08:24:56Z</time>
      </trkpt>
      <trkpt lat="46.27309" lon="5.94623">
        <ele>1705.52</ele>
        <time>2013-06-08T08:25:10Z</time>
      </trkpt>
      <trkpt lat="46.27311" lon="5.94624">
        <ele>1706.96</ele>
        <time>2013-06-08T08:25:28Z</time>
      </trkpt>
      <trkpt lat="46.2732" lon="5.94623">
        <ele>1707.44</ele>
        <time>2013-06-08T08:25:35Z</time>
      </trkpt>
      <trkpt lat="46.27339" lon="5.94627">
        <ele>1707.92</ele>
        <time>2013-06-08T08:25:50Z</time>
      </trkpt>
      <trkpt lat="46.27354" lon="5.94632">
        <ele>1708.88</ele>
        <time>2013-06-08T08:26:02Z</time>
      </trkpt>
      <trkpt lat="46.27358" lon="5.94637">
        <ele>1708.4</ele>
        <time>2013-06-08T08:26:06Z</time>
      </trkpt>
      <trkpt lat="46.27365" lon="5.94647">
        <ele>1708.88</ele>
        <time>2013-06-08T08:26:14Z</time>
      </trkpt>
      <trkpt lat="46.27367" lon="5.94648">
        <ele>1708.88</ele>
        <time>2013-06-08T08:26:16Z</time>
      </trkpt>
      <trkpt lat="46.27368" lon="5.94651">
        <ele>1708.88</ele>
        <time>2013-06-08T08:26:18Z</time>
      </trkpt>
      <trkpt lat="46.27382" lon="5.94676">
        <ele>1708.4</ele>
        <time>2013-06-08T08:26:33Z</time>
      </trkpt>
      <trkpt lat="46.274" lon="5.94697">
        <ele>1706.48</ele>
        <time>2013-06-08T08:26:49Z</time>
      </trkpt>
      <trkpt lat="46.27412" lon="5.94708">
        <ele>1704.07</ele>
        <time>2013-06-08T08:26:58Z</time>
      </trkpt>
      <trkpt lat="46.27428" lon="5.9472">
        <ele>1701.19</ele>
        <time>2013-06-08T08:27:11Z</time>
      </trkpt>
      <trkpt lat="46.27431" lon="5.94722">
        <ele>1701.19</ele>
        <time>2013-06-08T08:27:13Z</time>
      </trkpt>
      <trkpt lat="46.27446" lon="5.94743">
        <ele>1700.23</ele>
        <time>2013-06-08T08:27:27Z</time>
      </trkpt>
      <trkpt lat="46.27447" lon="5.94744">
        <ele>1700.23</ele>
        <time>2013-06-08T08:27:28Z</time>
      </trkpt>
      <trkpt lat="46.2745" lon="5.94748">
        <ele>1700.23</ele>
        <time>2013-06-08T08:27:31Z</time>
      </trkpt>
      <trkpt lat="46.27456" lon="5.94756">
        <ele>1700.23</ele>
        <time>2013-06-08T08:27:44Z</time>
      </trkpt>
      <trkpt lat="46.27473" lon="5.9478">
        <ele>1696.38</ele>
        <time>2013-06-08T08:27:56Z</time>
      </trkpt>
      <trkpt lat="46.27488" lon="5.94786">
        <ele>1693.02</ele>
        <time>2013-06-08T08:28:05Z</time>
      </trkpt>
      <trkpt lat="46.27507" lon="5.94784">
        <ele>1688.69</ele>
        <time>2013-06-08T08:28:17Z</time>
      </trkpt>
      <trkpt lat="46.27512" lon="5.94784">
        <ele>1687.73</ele>
        <time>2013-06-08T08:28:20Z</time>
      </trkpt>
      <trkpt lat="46.2753" lon="5.94797">
        <ele>1683.89</ele>
        <time>2013-06-08T08:28:32Z</time>
      </trkpt>
      <trkpt lat="46.27538" lon="5.94794">
        <ele>1681.48</ele>
        <time>2013-06-08T08:28:37Z</time>
      </trkpt>
      <trkpt lat="46.27545" lon="5.94792">
        <ele>1679.56</ele>
        <time>2013-06-08T08:28:42Z</time>
      </trkpt>
      <trkpt lat="46.2756" lon="5.94786">
        <ele>1676.68</ele>
        <time>2013-06-08T08:28:55Z</time>
      </trkpt>
      <trkpt lat="46.27564" lon="5.94787">
        <ele>1676.2</ele>
        <time>2013-06-08T08:29:00Z</time>
      </trkpt>
      <trkpt lat="46.27574" lon="5.948">
        <ele>1673.31</ele>
        <time>2013-06-08T08:29:14Z</time>
      </trkpt>
      <trkpt lat="46.27576" lon="5.94804">
        <ele>1672.35</ele>
        <time>2013-06-08T08:29:18Z</time>
      </trkpt>
      <trkpt lat="46.27582" lon="5.94812">
        <ele>1670.91</ele>
        <time>2013-06-08T08:29:28Z</time>
      </trkpt>
      <trkpt lat="46.2759" lon="5.94816">
        <ele>1669.47</ele>
        <time>2013-06-08T08:29:34Z</time>
      </trkpt>
      <trkpt lat="46.27595" lon="5.94821">
        <ele>1668.99</ele>
        <time>2013-06-08T08:29:38Z</time>
      </trkpt>
      <trkpt lat="46.27597" lon="5.94827">
        <ele>1668.51</ele>
        <time>2013-06-08T08:29:41Z</time>
      </trkpt>
      <trkpt lat="46.27604" lon="5.94838">
        <ele>1664.66</ele>
        <time>2013-06-08T08:29:53Z</time>
      </trkpt>
      <trkpt lat="46.27608" lon="5.94848">
        <ele>1663.7</ele>
        <time>2013-06-08T08:30:01Z</time>
      </trkpt>
      <trkpt lat="46.27611" lon="5.94866">
        <ele>1661.78</ele>
        <time>2013-06-08T08:30:09Z</time>
      </trkpt>
      <trkpt lat="46.27611" lon="5.94889">
        <ele>1661.78</ele>
        <time>2013-06-08T08:30:23Z</time>
      </trkpt>
      <trkpt lat="46.27612" lon="5.94893">
        <ele>1661.78</ele>
        <time>2013-06-08T08:30:30Z</time>
      </trkpt>
      <trkpt lat="46.27613" lon="5.94896">
        <ele>1661.78</ele>
        <time>2013-06-08T08:30:32Z</time>
      </trkpt>
      <trkpt lat="46.27611" lon="5.94916">
        <ele>1662.74</ele>
        <time>2013-06-08T08:30:45Z</time>
      </trkpt>
      <trkpt lat="46.27612" lon="5.94918">
        <ele>1663.7</ele>
        <time>2013-06-08T08:30:47Z</time>
      </trkpt>
      <trkpt lat="46.27616" lon="5.94928">
        <ele>1665.62</ele>
        <time>2013-06-08T08:30:53Z</time>
      </trkpt>
      <trkpt lat="46.27619" lon="5.94946">
        <ele>1667.54</ele>
        <time>2013-06-08T08:31:02Z</time>
      </trkpt>
      <trkpt lat="46.27619" lon="5.94949">
        <ele>1668.51</ele>
        <time>2013-06-08T08:31:04Z</time>
      </trkpt>
      <trkpt lat="46.27621" lon="5.94957">
        <ele>1669.95</ele>
        <time>2013-06-08T08:31:08Z</time>
      </trkpt>
      <trkpt lat="46.2762" lon="5.94963">
        <ele>1670.43</ele>
        <time>2013-06-08T08:31:11Z</time>
      </trkpt>
      <trkpt lat="46.27624" lon="5.94974">
        <ele>1670.91</ele>
        <time>2013-06-08T08:31:20Z</time>
      </trkpt>
      <trkpt lat="46.27632" lon="5.94975">
        <ele>1670.43</ele>
        <time>2013-06-08T08:31:26Z</time>
      </trkpt>
      <trkpt lat="46.27634" lon="5.94976">
        <ele>1669.95</ele>
        <time>2013-06-08T08:31:28Z</time>
      </trkpt>
      <trkpt lat="46.27637" lon="5.94988">
        <ele>1667.54</ele>
        <time>2013-06-08T08:31:35Z</time>
      </trkpt>
      <trkpt lat="46.27639" lon="5.94992">
        <ele>1667.54</ele>
        <time>2013-06-08T08:31:37Z</time>
      </trkpt>
      <trkpt lat="46.27645" lon="5.95005">
        <ele>1667.06</ele>
        <time>2013-06-08T08:31:46Z</time>
      </trkpt>
      <trkpt lat="46.27647" lon="5.95007">
        <ele>1667.06</ele>
        <time>2013-06-08T08:31:48Z</time>
      </trkpt>
      <trkpt lat="46.27651" lon="5.95026">
        <ele>1667.54</ele>
        <time>2013-06-08T08:31:58Z</time>
      </trkpt>
      <trkpt lat="46.27654" lon="5.95029">
        <ele>1668.51</ele>
        <time>2013-06-08T08:32:01Z</time>
      </trkpt>
      <trkpt lat="46.27654" lon="5.95032">
        <ele>1668.51</ele>
        <time>2013-06-08T08:32:03Z</time>
      </trkpt>
      <trkpt lat="46.27667" lon="5.95053">
        <ele>1668.99</ele>
        <time>2013-06-08T08:32:16Z</time>
      </trkpt>
      <trkpt lat="46.27669" lon="5.95055">
        <ele>1668.99</ele>
        <time>2013-06-08T08:32:18Z</time>
      </trkpt>
      <trkpt lat="46.27678" lon="5.9506">
        <ele>1668.99</ele>
        <time>2013-06-08T08:32:25Z</time>
      </trkpt>
      <trkpt lat="46.27684" lon="5.95067">
        <ele>1669.95</ele>
        <time>2013-06-08T08:32:30Z</time>
      </trkpt>
      <trkpt lat="46.27689" lon="5.95076">
        <ele>1671.39</ele>
        <time>2013-06-08T08:32:36Z</time>
      </trkpt>
      <trkpt lat="46.27696" lon="5.95079">
        <ele>1672.83</ele>
        <time>2013-06-08T08:32:41Z</time>
      </trkpt>
      <trkpt lat="46.27706" lon="5.95086">
        <ele>1675.23</ele>
        <time>2013-06-08T08:32:50Z</time>
      </trkpt>
      <trkpt lat="46.2771" lon="5.95089">
        <ele>1675.23</ele>
        <time>2013-06-08T08:32:53Z</time>
      </trkpt>
      <trkpt lat="46.27716" lon="5.95093">
        <ele>1675.23</ele>
        <time>2013-06-08T08:32:58Z</time>
      </trkpt>
      <trkpt lat="46.27724" lon="5.95103">
        <ele>1675.23</ele>
        <time>2013-06-08T08:33:07Z</time>
      </trkpt>
      <trkpt lat="46.27732" lon="5.95118">
        <ele>1676.2</ele>
        <time>2013-06-08T08:33:16Z</time>
      </trkpt>
      <trkpt lat="46.27735" lon="5.95129">
        <ele>1676.68</ele>
        <time>2013-06-08T08:33:22Z</time>
      </trkpt>
      <trkpt lat="46.27737" lon="5.95134">
        <ele>1676.68</ele>
        <time>2013-06-08T08:33:25Z</time>
      </trkpt>
      <trkpt lat="46.27749" lon="5.95145">
        <ele>1677.16</ele>
        <time>2013-06-08T08:33:36Z</time>
      </trkpt>
      <trkpt lat="46.27756" lon="5.95157">
        <ele>1677.64</ele>
        <time>2013-06-08T08:33:44Z</time>
      </trkpt>
      <trkpt lat="46.27767" lon="5.95173">
        <ele>1677.16</ele>
        <time>2013-06-08T08:33:57Z</time>
      </trkpt>
      <trkpt lat="46.27776" lon="5.95186">
        <ele>1678.12</ele>
        <time>2013-06-08T08:34:12Z</time>
      </trkpt>
      <trkpt lat="46.27776" lon="5.95187">
        <ele>1678.6</ele>
        <time>2013-06-08T08:34:16Z</time>
      </trkpt>
      <trkpt lat="46.2778" lon="5.95186">
        <ele>1678.12</ele>
        <time>2013-06-08T08:34:23Z</time>
      </trkpt>
      <trkpt lat="46.27798" lon="5.9518">
        <ele>1676.2</ele>
        <time>2013-06-08T08:34:36Z</time>
      </trkpt>
      <trkpt lat="46.27799" lon="5.95179">
        <ele>1675.72</ele>
        <time>2013-06-08T08:34:50Z</time>
      </trkpt>
      <trkpt lat="46.27799" lon="5.95179">
        <ele>1674.75</ele>
        <time>2013-06-08T08:35:25Z</time>
      </trkpt>
      <trkpt lat="46.27799" lon="5.95179">
        <ele>1674.75</ele>
        <time>2013-06-08T08:36:00Z</time>
      </trkpt>
      <trkpt lat="46.27799" lon="5.95178">
        <ele>1674.75</ele>
        <time>2013-06-08T08:36:33Z</time>
      </trkpt>
      <trkpt lat="46.27799" lon="5.95179">
        <ele>1675.72</ele>
        <time>2013-06-08T08:36:43Z</time>
      </trkpt>
      <trkpt lat="46.27799" lon="5.9518">
        <ele>1676.2</ele>
        <time>2013-06-08T08:36:58Z</time>
      </trkpt>
      <trkpt lat="46.27799" lon="5.9518">
        <ele>1676.2</ele>
        <time>2013-06-08T08:37:04Z</time>
      </trkpt>
      <trkpt lat="46.27803" lon="5.95175">
        <ele>1675.23</ele>
        <time>2013-06-08T08:37:08Z</time>
      </trkpt>
      <trkpt lat="46.27807" lon="5.95172">
        <ele>1673.31</ele>
        <time>2013-06-08T08:37:22Z</time>
      </trkpt>
      <trkpt lat="46.27807" lon="5.95171">
        <ele>1673.31</ele>
        <time>2013-06-08T08:37:45Z</time>
      </trkpt>
      <trkpt lat="46.27807" lon="5.95172">
        <ele>1672.35</ele>
        <time>2013-06-08T08:38:01Z</time>
      </trkpt>
      <trkpt lat="46.27815" lon="5.95162">
        <ele>1670.43</ele>
        <time>2013-06-08T08:38:12Z</time>
      </trkpt>
      <trkpt lat="46.27816" lon="5.95162">
        <ele>1670.43</ele>
        <time>2013-06-08T08:38:19Z</time>
      </trkpt>
      <trkpt lat="46.27821" lon="5.9516">
        <ele>1669.95</ele>
        <time>2013-06-08T08:38:23Z</time>
      </trkpt>
      <trkpt lat="46.27837" lon="5.95155">
        <ele>1668.02</ele>
        <time>2013-06-08T08:38:29Z</time>
      </trkpt>
      <trkpt lat="46.27849" lon="5.95155">
        <ele>1664.18</ele>
        <time>2013-06-08T08:38:37Z</time>
      </trkpt>
      <trkpt lat="46.27866" lon="5.95146">
        <ele>1659.37</ele>
        <time>2013-06-08T08:38:50Z</time>
      </trkpt>
      <trkpt lat="46.27878" lon="5.95137">
        <ele>1657.45</ele>
        <time>2013-06-08T08:38:59Z</time>
      </trkpt>
      <trkpt lat="46.27881" lon="5.95133">
        <ele>1656.97</ele>
        <time>2013-06-08T08:39:01Z</time>
      </trkpt>
      <trkpt lat="46.27896" lon="5.95105">
        <ele>1651.68</ele>
        <time>2013-06-08T08:39:15Z</time>
      </trkpt>
      <trkpt lat="46.279" lon="5.95098">
        <ele>1650.24</ele>
        <time>2013-06-08T08:39:18Z</time>
      </trkpt>
      <trkpt lat="46.27912" lon="5.95085">
        <ele>1645.91</ele>
        <time>2013-06-08T08:39:25Z</time>
      </trkpt>
      <trkpt lat="46.27921" lon="5.95082">
        <ele>1642.55</ele>
        <time>2013-06-08T08:39:32Z</time>
      </trkpt>
      <trkpt lat="46.27927" lon="5.95079">
        <ele>1641.59</ele>
        <time>2013-06-08T08:39:37Z</time>
      </trkpt>
      <trkpt lat="46.27934" lon="5.95073">
        <ele>1640.15</ele>
        <time>2013-06-08T08:39:44Z</time>
      </trkpt>
      <trkpt lat="46.27944" lon="5.95074">
        <ele>1639.67</ele>
        <time>2013-06-08T08:39:52Z</time>
      </trkpt>
      <trkpt lat="46.2795" lon="5.95078">
        <ele>1638.22</ele>
        <time>2013-06-08T08:39:58Z</time>
      </trkpt>
      <trkpt lat="46.27952" lon="5.95076">
        <ele>1637.26</ele>
        <time>2013-06-08T08:40:01Z</time>
      </trkpt>
      <trkpt lat="46.27955" lon="5.95077">
        <ele>1637.26</ele>
        <time>2013-06-08T08:40:03Z</time>
      </trkpt>
      <trkpt lat="46.27956" lon="5.9508">
        <ele>1637.26</ele>
        <time>2013-06-08T08:40:05Z</time>
      </trkpt>
      <trkpt lat="46.27957" lon="5.95084">
        <ele>1636.78</ele>
        <time>2013-06-08T08:40:08Z</time>
      </trkpt>
      <trkpt lat="46.2796" lon="5.95086">
        <ele>1636.3</ele>
        <time>2013-06-08T08:40:10Z</time>
      </trkpt>
      <trkpt lat="46.27971" lon="5.95081">
        <ele>1632.94</ele>
        <time>2013-06-08T08:40:22Z</time>
      </trkpt>
      <trkpt lat="46.27977" lon="5.95081">
        <ele>1631.98</ele>
        <time>2013-06-08T08:40:27Z</time>
      </trkpt>
      <trkpt lat="46.2798" lon="5.95078">
        <ele>1631.01</ele>
        <time>2013-06-08T08:40:31Z</time>
      </trkpt>
      <trkpt lat="46.27989" lon="5.95071">
        <ele>1627.65</ele>
        <time>2013-06-08T08:40:43Z</time>
      </trkpt>
      <trkpt lat="46.27993" lon="5.95067">
        <ele>1625.73</ele>
        <time>2013-06-08T08:40:49Z</time>
      </trkpt>
      <trkpt lat="46.27998" lon="5.95065">
        <ele>1626.21</ele>
        <time>2013-06-08T08:40:55Z</time>
      </trkpt>
      <trkpt lat="46.28002" lon="5.95065">
        <ele>1625.25</ele>
        <time>2013-06-08T08:40:59Z</time>
      </trkpt>
      <trkpt lat="46.28009" lon="5.95055">
        <ele>1625.25</ele>
        <time>2013-06-08T08:41:09Z</time>
      </trkpt>
      <trkpt lat="46.28011" lon="5.95054">
        <ele>1625.25</ele>
        <time>2013-06-08T08:41:11Z</time>
      </trkpt>
      <trkpt lat="46.28021" lon="5.95047">
        <ele>1621.4</ele>
        <time>2013-06-08T08:41:25Z</time>
      </trkpt>
      <trkpt lat="46.28021" lon="5.95047">
        <ele>1620.92</ele>
        <time>2013-06-08T08:41:27Z</time>
      </trkpt>
      <trkpt lat="46.28027" lon="5.95053">
        <ele>1621.4</ele>
        <time>2013-06-08T08:41:32Z</time>
      </trkpt>
      <trkpt lat="46.28033" lon="5.95056">
        <ele>1621.4</ele>
        <time>2013-06-08T08:41:37Z</time>
      </trkpt>
      <trkpt lat="46.28047" lon="5.95057">
        <ele>1621.88</ele>
        <time>2013-06-08T08:41:48Z</time>
      </trkpt>
      <trkpt lat="46.28054" lon="5.95057">
        <ele>1621.4</ele>
        <time>2013-06-08T08:41:52Z</time>
      </trkpt>
      <trkpt lat="46.28057" lon="5.95069">
        <ele>1621.88</ele>
        <time>2013-06-08T08:42:01Z</time>
      </trkpt>
      <trkpt lat="46.2807" lon="5.95079">
        <ele>1622.84</ele>
        <time>2013-06-08T08:42:14Z</time>
      </trkpt>
      <trkpt lat="46.28075" lon="5.95087">
        <ele>1622.84</ele>
        <time>2013-06-08T08:42:22Z</time>
      </trkpt>
      <trkpt lat="46.28082" lon="5.95099">
        <ele>1623.32</ele>
        <time>2013-06-08T08:42:30Z</time>
      </trkpt>
      <trkpt lat="46.28089" lon="5.95111">
        <ele>1624.28</ele>
        <time>2013-06-08T08:42:40Z</time>
      </trkpt>
      <trkpt lat="46.28102" lon="5.95119">
        <ele>1623.32</ele>
        <time>2013-06-08T08:42:53Z</time>
      </trkpt>
      <trkpt lat="46.28104" lon="5.95115">
        <ele>1621.88</ele>
        <time>2013-06-08T08:43:14Z</time>
      </trkpt>
      <trkpt lat="46.28103" lon="5.95114">
        <ele>1620.44</ele>
        <time>2013-06-08T08:43:35Z</time>
      </trkpt>
      <trkpt lat="46.28103" lon="5.95114">
        <ele>1619.48</ele>
        <time>2013-06-08T08:43:51Z</time>
      </trkpt>
      <trkpt lat="46.28103" lon="5.95113">
        <ele>1620.44</ele>
        <time>2013-06-08T08:44:14Z</time>
      </trkpt>
      <trkpt lat="46.28103" lon="5.95113">
        <ele>1620.44</ele>
        <time>2013-06-08T08:44:30Z</time>
      </trkpt>
      <trkpt lat="46.2812" lon="5.951">
        <ele>1618.04</ele>
        <time>2013-06-08T08:44:45Z</time>
      </trkpt>
      <trkpt lat="46.28129" lon="5.95092">
        <ele>1616.59</ele>
        <time>2013-06-08T08:44:53Z</time>
      </trkpt>
      <trkpt lat="46.28131" lon="5.95085">
        <ele>1615.15</ele>
        <time>2013-06-08T08:44:57Z</time>
      </trkpt>
      <trkpt lat="46.28138" lon="5.95079">
        <ele>1614.67</ele>
        <time>2013-06-08T08:45:03Z</time>
      </trkpt>
      <trkpt lat="46.28152" lon="5.95071">
        <ele>1612.75</ele>
        <time>2013-06-08T08:45:16Z</time>
      </trkpt>
      <trkpt lat="46.2817" lon="5.9507">
        <ele>1613.23</ele>
        <time>2013-06-08T08:45:30Z</time>
      </trkpt>
      <trkpt lat="46.28182" lon="5.9507">
        <ele>1614.19</ele>
        <time>2013-06-08T08:45:42Z</time>
      </trkpt>
      <trkpt lat="46.282" lon="5.95075">
        <ele>1611.31</ele>
        <time>2013-06-08T08:45:56Z</time>
      </trkpt>
      <trkpt lat="46.28202" lon="5.95074">
        <ele>1610.83</ele>
        <time>2013-06-08T08:45:57Z</time>
      </trkpt>
      <trkpt lat="46.28209" lon="5.95072">
        <ele>1609.38</ele>
        <time>2013-06-08T08:46:02Z</time>
      </trkpt>
      <trkpt lat="46.28216" lon="5.95068">
        <ele>1608.9</ele>
        <time>2013-06-08T08:46:08Z</time>
      </trkpt>
      <trkpt lat="46.28226" lon="5.95062">
        <ele>1607.94</ele>
        <time>2013-06-08T08:46:18Z</time>
      </trkpt>
      <trkpt lat="46.28233" lon="5.95058">
        <ele>1606.5</ele>
        <time>2013-06-08T08:46:27Z</time>
      </trkpt>
      <trkpt lat="46.28246" lon="5.95054">
        <ele>1605.06</ele>
        <time>2013-06-08T08:46:37Z</time>
      </trkpt>
      <trkpt lat="46.28252" lon="5.95047">
        <ele>1604.1</ele>
        <time>2013-06-08T08:46:42Z</time>
      </trkpt>
      <trkpt lat="46.28272" lon="5.95037">
        <ele>1602.66</ele>
        <time>2013-06-08T08:46:56Z</time>
      </trkpt>
      <trkpt lat="46.28297" lon="5.95035">
        <ele>1601.69</ele>
        <time>2013-06-08T08:47:12Z</time>
      </trkpt>
      <trkpt lat="46.28298" lon="5.95034">
        <ele>1601.69</ele>
        <time>2013-06-08T08:47:13Z</time>
      </trkpt>
      <trkpt lat="46.28301" lon="5.9503">
        <ele>1600.25</ele>
        <time>2013-06-08T08:47:16Z</time>
      </trkpt>
      <trkpt lat="46.28306" lon="5.95027">
        <ele>1599.29</ele>
        <time>2013-06-08T08:47:20Z</time>
      </trkpt>
      <trkpt lat="46.28322" lon="5.95029">
        <ele>1597.37</ele>
        <time>2013-06-08T08:47:32Z</time>
      </trkpt>
      <trkpt lat="46.28325" lon="5.95032">
        <ele>1596.89</ele>
        <time>2013-06-08T08:47:34Z</time>
      </trkpt>
      <trkpt lat="46.2833" lon="5.95036">
        <ele>1595.93</ele>
        <time>2013-06-08T08:47:38Z</time>
      </trkpt>
      <trkpt lat="46.28343" lon="5.95052">
        <ele>1593.52</ele>
        <time>2013-06-08T08:47:50Z</time>
      </trkpt>
      <trkpt lat="46.28344" lon="5.95054">
        <ele>1593.04</ele>
        <time>2013-06-08T08:47:51Z</time>
      </trkpt>
      <trkpt lat="46.28351" lon="5.95067">
        <ele>1588.24</ele>
        <time>2013-06-08T08:48:01Z</time>
      </trkpt>
      <trkpt lat="46.28352" lon="5.9507">
        <ele>1587.27</ele>
        <time>2013-06-08T08:48:03Z</time>
      </trkpt>
      <trkpt lat="46.28361" lon="5.95083">
        <ele>1583.91</ele>
        <time>2013-06-08T08:48:09Z</time>
      </trkpt>
      <trkpt lat="46.28365" lon="5.95111">
        <ele>1578.14</ele>
        <time>2013-06-08T08:48:19Z</time>
      </trkpt>
      <trkpt lat="46.28369" lon="5.95115">
        <ele>1577.18</ele>
        <time>2013-06-08T08:48:22Z</time>
      </trkpt>
      <trkpt lat="46.28371" lon="5.9513">
        <ele>1572.85</ele>
        <time>2013-06-08T08:48:29Z</time>
      </trkpt>
      <trkpt lat="46.28379" lon="5.95151">
        <ele>1567.57</ele>
        <time>2013-06-08T08:48:41Z</time>
      </trkpt>
      <trkpt lat="46.28376" lon="5.95178">
        <ele>1564.2</ele>
        <time>2013-06-08T08:48:55Z</time>
      </trkpt>
      <trkpt lat="46.28376" lon="5.95182">
        <ele>1563.24</ele>
        <time>2013-06-08T08:49:10Z</time>
      </trkpt>
      <trkpt lat="46.28377" lon="5.95198">
        <ele>1561.32</ele>
        <time>2013-06-08T08:49:22Z</time>
      </trkpt>
      <trkpt lat="46.28379" lon="5.95214">
        <ele>1560.84</ele>
        <time>2013-06-08T08:49:33Z</time>
      </trkpt>
      <trkpt lat="46.28384" lon="5.95234">
        <ele>1560.36</ele>
        <time>2013-06-08T08:49:48Z</time>
      </trkpt>
      <trkpt lat="46.2839" lon="5.95251">
        <ele>1558.92</ele>
        <time>2013-06-08T08:50:00Z</time>
      </trkpt>
      <trkpt lat="46.28397" lon="5.95253">
        <ele>1558.43</ele>
        <time>2013-06-08T08:50:06Z</time>
      </trkpt>
      <trkpt lat="46.28411" lon="5.95261">
        <ele>1559.88</ele>
        <time>2013-06-08T08:50:19Z</time>
      </trkpt>
      <trkpt lat="46.28417" lon="5.95265">
        <ele>1560.36</ele>
        <time>2013-06-08T08:50:24Z</time>
      </trkpt>
      <trkpt lat="46.28425" lon="5.95274">
        <ele>1560.84</ele>
        <time>2013-06-08T08:50:31Z</time>
      </trkpt>
      <trkpt lat="46.28427" lon="5.95275">
        <ele>1561.32</ele>
        <time>2013-06-08T08:50:33Z</time>
      </trkpt>
      <trkpt lat="46.2844" lon="5.95282">
        <ele>1562.28</ele>
        <time>2013-06-08T08:50:48Z</time>
      </trkpt>
      <trkpt lat="46.28442" lon="5.95281">
        <ele>1562.28</ele>
        <time>2013-06-08T08:51:10Z</time>
      </trkpt>
      <trkpt lat="46.28442" lon="5.9528">
        <ele>1563.24</ele>
        <time>2013-06-08T08:51:28Z</time>
      </trkpt>
      <trkpt lat="46.28451" lon="5.95283">
        <ele>1563.72</ele>
        <time>2013-06-08T08:51:45Z</time>
      </trkpt>
      <trkpt lat="46.28467" lon="5.95293">
        <ele>1563.72</ele>
        <time>2013-06-08T08:51:56Z</time>
      </trkpt>
      <trkpt lat="46.28478" lon="5.95305">
        <ele>1563.24</ele>
        <time>2013-06-08T08:52:05Z</time>
      </trkpt>
      <trkpt lat="46.28486" lon="5.9531">
        <ele>1563.72</ele>
        <time>2013-06-08T08:52:17Z</time>
      </trkpt>
      <trkpt lat="46.28487" lon="5.9531">
        <ele>1564.68</ele>
        <time>2013-06-08T08:52:37Z</time>
      </trkpt>
      <trkpt lat="46.28495" lon="5.95311">
        <ele>1563.24</ele>
        <time>2013-06-08T08:52:43Z</time>
      </trkpt>
      <trkpt lat="46.28498" lon="5.95311">
        <ele>1561.8</ele>
        <time>2013-06-08T08:52:46Z</time>
      </trkpt>
      <trkpt lat="46.28503" lon="5.95317">
        <ele>1559.4</ele>
        <time>2013-06-08T08:52:52Z</time>
      </trkpt>
      <trkpt lat="46.28511" lon="5.95326">
        <ele>1556.51</ele>
        <time>2013-06-08T08:53:00Z</time>
      </trkpt>
      <trkpt lat="46.28515" lon="5.95337">
        <ele>1553.63</ele>
        <time>2013-06-08T08:53:07Z</time>
      </trkpt>
      <trkpt lat="46.28517" lon="5.95342">
        <ele>1552.67</ele>
        <time>2013-06-08T08:53:10Z</time>
      </trkpt>
      <trkpt lat="46.28518" lon="5.95344">
        <ele>1552.19</ele>
        <time>2013-06-08T08:53:12Z</time>
      </trkpt>
      <trkpt lat="46.28521" lon="5.95344">
        <ele>1551.22</ele>
        <time>2013-06-08T08:53:14Z</time>
      </trkpt>
      <trkpt lat="46.28528" lon="5.95347">
        <ele>1549.78</ele>
        <time>2013-06-08T08:53:25Z</time>
      </trkpt>
      <trkpt lat="46.28536" lon="5.95346">
        <ele>1548.82</ele>
        <time>2013-06-08T08:53:30Z</time>
      </trkpt>
      <trkpt lat="46.28555" lon="5.95339">
        <ele>1545.94</ele>
        <time>2013-06-08T08:53:41Z</time>
      </trkpt>
      <trkpt lat="46.28557" lon="5.95335">
        <ele>1544.98</ele>
        <time>2013-06-08T08:53:43Z</time>
      </trkpt>
      <trkpt lat="46.28565" lon="5.95323">
        <ele>1542.09</ele>
        <time>2013-06-08T08:53:51Z</time>
      </trkpt>
      <trkpt lat="46.28573" lon="5.95312">
        <ele>1537.77</ele>
        <time>2013-06-08T08:54:05Z</time>
      </trkpt>
      <trkpt lat="46.28576" lon="5.95312">
        <ele>1534.88</ele>
        <time>2013-06-08T08:54:11Z</time>
      </trkpt>
      <trkpt lat="46.2859" lon="5.95312">
        <ele>1528.63</ele>
        <time>2013-06-08T08:54:22Z</time>
      </trkpt>
      <trkpt lat="46.28595" lon="5.95304">
        <ele>1523.35</ele>
        <time>2013-06-08T08:54:34Z</time>
      </trkpt>
      <trkpt lat="46.28594" lon="5.95307">
        <ele>1525.27</ele>
        <time>2013-06-08T08:54:57Z</time>
      </trkpt>
      <trkpt lat="46.28596" lon="5.95305">
        <ele>1526.71</ele>
        <time>2013-06-08T08:55:24Z</time>
      </trkpt>
      <trkpt lat="46.28598" lon="5.95304">
        <ele>1527.19</ele>
        <time>2013-06-08T08:55:43Z</time>
      </trkpt>
      <trkpt lat="46.28599" lon="5.95303">
        <ele>1526.71</ele>
        <time>2013-06-08T08:55:44Z</time>
      </trkpt>
      <trkpt lat="46.28601" lon="5.95303">
        <ele>1525.27</ele>
        <time>2013-06-08T08:55:47Z</time>
      </trkpt>
      <trkpt lat="46.28604" lon="5.953">
        <ele>1524.31</ele>
        <time>2013-06-08T08:55:50Z</time>
      </trkpt>
      <trkpt lat="46.28605" lon="5.95293">
        <ele>1522.39</ele>
        <time>2013-06-08T08:55:55Z</time>
      </trkpt>
      <trkpt lat="46.28615" lon="5.95287">
        <ele>1517.1</ele>
        <time>2013-06-08T08:56:07Z</time>
      </trkpt>
      <trkpt lat="46.28618" lon="5.9529">
        <ele>1515.18</ele>
        <time>2013-06-08T08:56:12Z</time>
      </trkpt>
      <trkpt lat="46.28625" lon="5.9528">
        <ele>1512.29</ele>
        <time>2013-06-08T08:56:23Z</time>
      </trkpt>
      <trkpt lat="46.28627" lon="5.95277">
        <ele>1511.33</ele>
        <time>2013-06-08T08:56:26Z</time>
      </trkpt>
      <trkpt lat="46.2863" lon="5.95263">
        <ele>1508.93</ele>
        <time>2013-06-08T08:56:37Z</time>
      </trkpt>
      <trkpt lat="46.28633" lon="5.95252">
        <ele>1507.97</ele>
        <time>2013-06-08T08:56:45Z</time>
      </trkpt>
      <trkpt lat="46.28627" lon="5.95228">
        <ele>1504.6</ele>
        <time>2013-06-08T08:57:01Z</time>
      </trkpt>
      <trkpt lat="46.28626" lon="5.95226">
        <ele>1504.12</ele>
        <time>2013-06-08T08:57:03Z</time>
      </trkpt>
      <trkpt lat="46.28624" lon="5.95218">
        <ele>1503.16</ele>
        <time>2013-06-08T08:57:07Z</time>
      </trkpt>
      <trkpt lat="46.28622" lon="5.95212">
        <ele>1502.68</ele>
        <time>2013-06-08T08:57:10Z</time>
      </trkpt>
      <trkpt lat="46.28612" lon="5.95191">
        <ele>1502.2</ele>
        <time>2013-06-08T08:57:23Z</time>
      </trkpt>
      <trkpt lat="46.28601" lon="5.95172">
        <ele>1499.79</ele>
        <time>2013-06-08T08:57:38Z</time>
      </trkpt>
      <trkpt lat="46.28592" lon="5.95162">
        <ele>1499.31</ele>
        <time>2013-06-08T08:57:52Z</time>
      </trkpt>
      <trkpt lat="46.28585" lon="5.95155">
        <ele>1498.35</ele>
        <time>2013-06-08T08:58:20Z</time>
      </trkpt>
      <trkpt lat="46.28579" lon="5.95143">
        <ele>1499.31</ele>
        <time>2013-06-08T08:58:28Z</time>
      </trkpt>
      <trkpt lat="46.28571" lon="5.95123">
        <ele>1497.39</ele>
        <time>2013-06-08T08:58:38Z</time>
      </trkpt>
      <trkpt lat="46.28568" lon="5.9511">
        <ele>1495.95</ele>
        <time>2013-06-08T08:58:46Z</time>
      </trkpt>
      <trkpt lat="46.28571" lon="5.95105">
        <ele>1494.03</ele>
        <time>2013-06-08T08:58:50Z</time>
      </trkpt>
      <trkpt lat="46.28577" lon="5.95106">
        <ele>1489.7</ele>
        <time>2013-06-08T08:58:56Z</time>
      </trkpt>
      <trkpt lat="46.28597" lon="5.95095">
        <ele>1480.09</ele>
        <time>2013-06-08T08:59:11Z</time>
      </trkpt>
      <trkpt lat="46.2861" lon="5.95097">
        <ele>1474.32</ele>
        <time>2013-06-08T08:59:22Z</time>
      </trkpt>
      <trkpt lat="46.28621" lon="5.951">
        <ele>1470.47</ele>
        <time>2013-06-08T08:59:32Z</time>
      </trkpt>
      <trkpt lat="46.28625" lon="5.95098">
        <ele>1469.99</ele>
        <time>2013-06-08T08:59:35Z</time>
      </trkpt>
      <trkpt lat="46.28633" lon="5.95096">
        <ele>1468.07</ele>
        <time>2013-06-08T08:59:41Z</time>
      </trkpt>
      <trkpt lat="46.28638" lon="5.9509">
        <ele>1467.59</ele>
        <time>2013-06-08T08:59:45Z</time>
      </trkpt>
      <trkpt lat="46.2864" lon="5.95085">
        <ele>1466.63</ele>
        <time>2013-06-08T08:59:47Z</time>
      </trkpt>
      <trkpt lat="46.28652" lon="5.95083">
        <ele>1466.63</ele>
        <time>2013-06-08T08:59:58Z</time>
      </trkpt>
      <trkpt lat="46.28655" lon="5.95083">
        <ele>1469.03</ele>
        <time>2013-06-08T09:00:03Z</time>
      </trkpt>
      <trkpt lat="46.28661" lon="5.9509">
        <ele>1469.03</ele>
        <time>2013-06-08T09:00:11Z</time>
      </trkpt>
      <trkpt lat="46.28662" lon="5.95095">
        <ele>1469.99</ele>
        <time>2013-06-08T09:00:14Z</time>
      </trkpt>
      <trkpt lat="46.2867" lon="5.95105">
        <ele>1469.03</ele>
        <time>2013-06-08T09:00:24Z</time>
      </trkpt>
      <trkpt lat="46.28669" lon="5.9511">
        <ele>1469.03</ele>
        <time>2013-06-08T09:00:27Z</time>
      </trkpt>
      <trkpt lat="46.28673" lon="5.95114">
        <ele>1469.51</ele>
        <time>2013-06-08T09:00:30Z</time>
      </trkpt>
      <trkpt lat="46.28683" lon="5.95135">
        <ele>1469.03</ele>
        <time>2013-06-08T09:00:42Z</time>
      </trkpt>
      <trkpt lat="46.28684" lon="5.95139">
        <ele>1469.51</ele>
        <time>2013-06-08T09:00:45Z</time>
      </trkpt>
      <trkpt lat="46.2869" lon="5.95162">
        <ele>1468.55</ele>
        <time>2013-06-08T09:00:56Z</time>
      </trkpt>
      <trkpt lat="46.28699" lon="5.95175">
        <ele>1470.47</ele>
        <time>2013-06-08T09:01:10Z</time>
      </trkpt>
      <trkpt lat="46.28707" lon="5.95165">
        <ele>1471.92</ele>
        <time>2013-06-08T09:01:23Z</time>
      </trkpt>
      <trkpt lat="46.28709" lon="5.95165">
        <ele>1473.36</ele>
        <time>2013-06-08T09:01:36Z</time>
      </trkpt>
      <trkpt lat="46.28709" lon="5.95166">
        <ele>1473.36</ele>
        <time>2013-06-08T09:01:44Z</time>
      </trkpt>
      <trkpt lat="46.28716" lon="5.95174">
        <ele>1474.32</ele>
        <time>2013-06-08T09:01:49Z</time>
      </trkpt>
      <trkpt lat="46.2872" lon="5.95176">
        <ele>1474.8</ele>
        <time>2013-06-08T09:01:52Z</time>
      </trkpt>
      <trkpt lat="46.28734" lon="5.95173">
        <ele>1479.13</ele>
        <time>2013-06-08T09:02:03Z</time>
      </trkpt>
      <trkpt lat="46.28742" lon="5.95164">
        <ele>1477.2</ele>
        <time>2013-06-08T09:02:08Z</time>
      </trkpt>
      <trkpt lat="46.2875" lon="5.95167">
        <ele>1476.24</ele>
        <time>2013-06-08T09:02:13Z</time>
      </trkpt>
      <trkpt lat="46.28755" lon="5.95166">
        <ele>1476.24</ele>
        <time>2013-06-08T09:02:17Z</time>
      </trkpt>
      <trkpt lat="46.28768" lon="5.95151">
        <ele>1476.24</ele>
        <time>2013-06-08T09:02:34Z</time>
      </trkpt>
      <trkpt lat="46.28768" lon="5.95151">
        <ele>1475.76</ele>
        <time>2013-06-08T09:02:36Z</time>
      </trkpt>
      <trkpt lat="46.28771" lon="5.95152">
        <ele>1476.24</ele>
        <time>2013-06-08T09:02:40Z</time>
      </trkpt>
      <trkpt lat="46.28782" lon="5.95168">
        <ele>1475.76</ele>
        <time>2013-06-08T09:02:54Z</time>
      </trkpt>
      <trkpt lat="46.28791" lon="5.95181">
        <ele>1474.8</ele>
        <time>2013-06-08T09:03:03Z</time>
      </trkpt>
      <trkpt lat="46.28797" lon="5.95189">
        <ele>1473.84</ele>
        <time>2013-06-08T09:03:09Z</time>
      </trkpt>
      <trkpt lat="46.28801" lon="5.952">
        <ele>1473.84</ele>
        <time>2013-06-08T09:03:15Z</time>
      </trkpt>
      <trkpt lat="46.28814" lon="5.95206">
        <ele>1472.4</ele>
        <time>2013-06-08T09:03:25Z</time>
      </trkpt>
      <trkpt lat="46.28818" lon="5.95207">
        <ele>1472.88</ele>
        <time>2013-06-08T09:03:28Z</time>
      </trkpt>
      <trkpt lat="46.2882" lon="5.95209">
        <ele>1472.88</ele>
        <time>2013-06-08T09:03:30Z</time>
      </trkpt>
      <trkpt lat="46.28832" lon="5.95208">
        <ele>1472.4</ele>
        <time>2013-06-08T09:03:43Z</time>
      </trkpt>
      <trkpt lat="46.28833" lon="5.95208">
        <ele>1472.4</ele>
        <time>2013-06-08T09:03:44Z</time>
      </trkpt>
      <trkpt lat="46.28844" lon="5.95217">
        <ele>1470.47</ele>
        <time>2013-06-08T09:03:53Z</time>
      </trkpt>
      <trkpt lat="46.28846" lon="5.9522">
        <ele>1470.95</ele>
        <time>2013-06-08T09:03:55Z</time>
      </trkpt>
      <trkpt lat="46.28853" lon="5.95222">
        <ele>1470.47</ele>
        <time>2013-06-08T09:03:59Z</time>
      </trkpt>
      <trkpt lat="46.28867" lon="5.95218">
        <ele>1468.07</ele>
        <time>2013-06-08T09:04:06Z</time>
      </trkpt>
      <trkpt lat="46.28871" lon="5.95218">
        <ele>1467.11</ele>
        <time>2013-06-08T09:04:08Z</time>
      </trkpt>
      <trkpt lat="46.2888" lon="5.952">
        <ele>1463.74</ele>
        <time>2013-06-08T09:04:17Z</time>
      </trkpt>
      <trkpt lat="46.28881" lon="5.95189">
        <ele>1462.3</ele>
        <time>2013-06-08T09:04:22Z</time>
      </trkpt>
      <trkpt lat="46.28899" lon="5.95185">
        <ele>1458.94</ele>
        <time>2013-06-08T09:04:32Z</time>
      </trkpt>
      <trkpt lat="46.28908" lon="5.952">
        <ele>1457.98</ele>
        <time>2013-06-08T09:04:41Z</time>
      </trkpt>
      <trkpt lat="46.28914" lon="5.95201">
        <ele>1457.5</ele>
        <time>2013-06-08T09:04:46Z</time>
      </trkpt>
      <trkpt lat="46.28918" lon="5.95207">
        <ele>1456.53</ele>
        <time>2013-06-08T09:04:51Z</time>
      </trkpt>
      <trkpt lat="46.2892" lon="5.95211">
        <ele>1456.05</ele>
        <time>2013-06-08T09:04:53Z</time>
      </trkpt>
      <trkpt lat="46.28926" lon="5.95215">
        <ele>1456.05</ele>
        <time>2013-06-08T09:04:58Z</time>
      </trkpt>
      <trkpt lat="46.28938" lon="5.95226">
        <ele>1456.53</ele>
        <time>2013-06-08T09:05:07Z</time>
      </trkpt>
      <trkpt lat="46.28949" lon="5.9523">
        <ele>1456.05</ele>
        <time>2013-06-08T09:05:15Z</time>
      </trkpt>
      <trkpt lat="46.28951" lon="5.95232">
        <ele>1456.05</ele>
        <time>2013-06-08T09:05:17Z</time>
      </trkpt>
      <trkpt lat="46.28957" lon="5.95233">
        <ele>1457.02</ele>
        <time>2013-06-08T09:05:28Z</time>
      </trkpt>
      <trkpt lat="46.28967" lon="5.95247">
        <ele>1457.02</ele>
        <time>2013-06-08T09:05:39Z</time>
      </trkpt>
      <trkpt lat="46.28972" lon="5.95252">
        <ele>1455.57</ele>
        <time>2013-06-08T09:05:43Z</time>
      </trkpt>
      <trkpt lat="46.28977" lon="5.95265">
        <ele>1454.13</ele>
        <time>2013-06-08T09:05:50Z</time>
      </trkpt>
      <trkpt lat="46.2898" lon="5.95284">
        <ele>1452.21</ele>
        <time>2013-06-08T09:05:59Z</time>
      </trkpt>
      <trkpt lat="46.28981" lon="5.9529">
        <ele>1451.73</ele>
        <time>2013-06-08T09:06:01Z</time>
      </trkpt>
      <trkpt lat="46.28985" lon="5.95295">
        <ele>1452.21</ele>
        <time>2013-06-08T09:06:04Z</time>
      </trkpt>
      <trkpt lat="46.28993" lon="5.95302">
        <ele>1451.25</ele>
        <time>2013-06-08T09:06:09Z</time>
      </trkpt>
      <trkpt lat="46.28998" lon="5.95304">
        <ele>1450.29</ele>
        <time>2013-06-08T09:06:12Z</time>
      </trkpt>
      <trkpt lat="46.29" lon="5.95308">
        <ele>1449.32</ele>
        <time>2013-06-08T09:06:15Z</time>
      </trkpt>
      <trkpt lat="46.29014" lon="5.95323">
        <ele>1446.92</ele>
        <time>2013-06-08T09:06:25Z</time>
      </trkpt>
      <trkpt lat="46.29016" lon="5.95327">
        <ele>1447.4</ele>
        <time>2013-06-08T09:06:27Z</time>
      </trkpt>
      <trkpt lat="46.29031" lon="5.95335">
        <ele>1446.44</ele>
        <time>2013-06-08T09:06:35Z</time>
      </trkpt>
      <trkpt lat="46.29037" lon="5.95342">
        <ele>1445.48</ele>
        <time>2013-06-08T09:06:40Z</time>
      </trkpt>
      <trkpt lat="46.29052" lon="5.95365">
        <ele>1444.52</ele>
        <time>2013-06-08T09:06:54Z</time>
      </trkpt>
      <trkpt lat="46.29066" lon="5.9538">
        <ele>1445.96</ele>
        <time>2013-06-08T09:07:06Z</time>
      </trkpt>
      <trkpt lat="46.29086" lon="5.95384">
        <ele>1446.92</ele>
        <time>2013-06-08T09:07:18Z</time>
      </trkpt>
      <trkpt lat="46.29105" lon="5.95389">
        <ele>1448.84</ele>
        <time>2013-06-08T09:07:31Z</time>
      </trkpt>
      <trkpt lat="46.29118" lon="5.9539">
        <ele>1449.32</ele>
        <time>2013-06-08T09:07:38Z</time>
      </trkpt>
      <trkpt lat="46.29124" lon="5.9539">
        <ele>1448.36</ele>
        <time>2013-06-08T09:07:42Z</time>
      </trkpt>
      <trkpt lat="46.29135" lon="5.95384">
        <ele>1445.48</ele>
        <time>2013-06-08T09:07:48Z</time>
      </trkpt>
      <trkpt lat="46.29141" lon="5.95382">
        <ele>1444.04</ele>
        <time>2013-06-08T09:07:52Z</time>
      </trkpt>
      <trkpt lat="46.29161" lon="5.95386">
        <ele>1438.75</ele>
        <time>2013-06-08T09:08:07Z</time>
      </trkpt>
      <trkpt lat="46.2917" lon="5.95386">
        <ele>1438.27</ele>
        <time>2013-06-08T09:08:13Z</time>
      </trkpt>
      <trkpt lat="46.29176" lon="5.95389">
        <ele>1437.79</ele>
        <time>2013-06-08T09:08:18Z</time>
      </trkpt>
      <trkpt lat="46.29185" lon="5.95395">
        <ele>1436.35</ele>
        <time>2013-06-08T09:08:26Z</time>
      </trkpt>
      <trkpt lat="46.29197" lon="5.9541">
        <ele>1433.94</ele>
        <time>2013-06-08T09:08:38Z</time>
      </trkpt>
      <trkpt lat="46.29202" lon="5.95417">
        <ele>1433.46</ele>
        <time>2013-06-08T09:08:44Z</time>
      </trkpt>
      <trkpt lat="46.29209" lon="5.95423">
        <ele>1432.5</ele>
        <time>2013-06-08T09:08:49Z</time>
      </trkpt>
      <trkpt lat="46.29219" lon="5.95438">
        <ele>1429.62</ele>
        <time>2013-06-08T09:08:58Z</time>
      </trkpt>
      <trkpt lat="46.29227" lon="5.95465">
        <ele>1426.73</ele>
        <time>2013-06-08T09:09:11Z</time>
      </trkpt>
      <trkpt lat="46.2923" lon="5.95472">
        <ele>1427.21</ele>
        <time>2013-06-08T09:09:15Z</time>
      </trkpt>
      <trkpt lat="46.29251" lon="5.9549">
        <ele>1428.18</ele>
        <time>2013-06-08T09:09:32Z</time>
      </trkpt>
      <trkpt lat="46.29278" lon="5.95479">
        <ele>1430.1</ele>
        <time>2013-06-08T09:09:45Z</time>
      </trkpt>
      <trkpt lat="46.29293" lon="5.95483">
        <ele>1427.21</ele>
        <time>2013-06-08T09:09:57Z</time>
      </trkpt>
      <trkpt lat="46.29316" lon="5.95487">
        <ele>1426.25</ele>
        <time>2013-06-08T09:10:12Z</time>
      </trkpt>
      <trkpt lat="46.2934" lon="5.95493">
        <ele>1424.81</ele>
        <time>2013-06-08T09:10:27Z</time>
      </trkpt>
      <trkpt lat="46.29362" lon="5.95503">
        <ele>1420</ele>
        <time>2013-06-08T09:10:40Z</time>
      </trkpt>
      <trkpt lat="46.29376" lon="5.95533">
        <ele>1416.16</ele>
        <time>2013-06-08T09:10:56Z</time>
      </trkpt>
      <trkpt lat="46.29384" lon="5.95537">
        <ele>1415.2</ele>
        <time>2013-06-08T09:11:01Z</time>
      </trkpt>
      <trkpt lat="46.29405" lon="5.95536">
        <ele>1410.87</ele>
        <time>2013-06-08T09:11:12Z</time>
      </trkpt>
      <trkpt lat="46.29421" lon="5.95538">
        <ele>1407.03</ele>
        <time>2013-06-08T09:11:22Z</time>
      </trkpt>
      <trkpt lat="46.2943" lon="5.95552">
        <ele>1404.62</ele>
        <time>2013-06-08T09:11:33Z</time>
      </trkpt>
      <trkpt lat="46.29434" lon="5.95554">
        <ele>1404.62</ele>
        <time>2013-06-08T09:11:41Z</time>
      </trkpt>
      <trkpt lat="46.29442" lon="5.95556">
        <ele>1404.14</ele>
        <time>2013-06-08T09:11:47Z</time>
      </trkpt>
      <trkpt lat="46.29461" lon="5.95566">
        <ele>1401.74</ele>
        <time>2013-06-08T09:11:59Z</time>
      </trkpt>
      <trkpt lat="46.29465" lon="5.9557">
        <ele>1401.26</ele>
        <time>2013-06-08T09:12:02Z</time>
      </trkpt>
      <trkpt lat="46.2948" lon="5.95581">
        <ele>1396.45</ele>
        <time>2013-06-08T09:12:14Z</time>
      </trkpt>
      <trkpt lat="46.29489" lon="5.956">
        <ele>1391.17</ele>
        <time>2013-06-08T09:12:27Z</time>
      </trkpt>
      <trkpt lat="46.29491" lon="5.95605">
        <ele>1389.72</ele>
        <time>2013-06-08T09:12:32Z</time>
      </trkpt>
      <trkpt lat="46.29498" lon="5.95615">
        <ele>1387.8</ele>
        <time>2013-06-08T09:12:38Z</time>
      </trkpt>
      <trkpt lat="46.29512" lon="5.95633">
        <ele>1381.07</ele>
        <time>2013-06-08T09:12:50Z</time>
      </trkpt>
      <trkpt lat="46.29517" lon="5.95636">
        <ele>1380.59</ele>
        <time>2013-06-08T09:12:52Z</time>
      </trkpt>
      <trkpt lat="46.29532" lon="5.95641">
        <ele>1378.67</ele>
        <time>2013-06-08T09:13:02Z</time>
      </trkpt>
      <trkpt lat="46.29534" lon="5.95643">
        <ele>1377.71</ele>
        <time>2013-06-08T09:13:18Z</time>
      </trkpt>
      <trkpt lat="46.29548" lon="5.9565">
        <ele>1376.26</ele>
        <time>2013-06-08T09:13:30Z</time>
      </trkpt>
      <trkpt lat="46.2955" lon="5.95651">
        <ele>1376.26</ele>
        <time>2013-06-08T09:13:31Z</time>
      </trkpt>
      <trkpt lat="46.29564" lon="5.95668">
        <ele>1379.63</ele>
        <time>2013-06-08T09:13:45Z</time>
      </trkpt>
      <trkpt lat="46.29568" lon="5.95673">
        <ele>1380.11</ele>
        <time>2013-06-08T09:13:50Z</time>
      </trkpt>
      <trkpt lat="46.29589" lon="5.95699">
        <ele>1377.23</ele>
        <time>2013-06-08T09:14:06Z</time>
      </trkpt>
      <trkpt lat="46.296" lon="5.95709">
        <ele>1373.86</ele>
        <time>2013-06-08T09:14:13Z</time>
      </trkpt>
      <trkpt lat="46.29604" lon="5.95713">
        <ele>1371.94</ele>
        <time>2013-06-08T09:14:17Z</time>
      </trkpt>
      <trkpt lat="46.29613" lon="5.95713">
        <ele>1366.17</ele>
        <time>2013-06-08T09:14:22Z</time>
      </trkpt>
      <trkpt lat="46.29619" lon="5.95716">
        <ele>1364.73</ele>
        <time>2013-06-08T09:14:27Z</time>
      </trkpt>
      <trkpt lat="46.29626" lon="5.95694">
        <ele>1359.92</ele>
        <time>2013-06-08T09:14:39Z</time>
      </trkpt>
      <trkpt lat="46.29636" lon="5.95662">
        <ele>1352.71</ele>
        <time>2013-06-08T09:14:52Z</time>
      </trkpt>
      <trkpt lat="46.29655" lon="5.9565">
        <ele>1347.91</ele>
        <time>2013-06-08T09:15:02Z</time>
      </trkpt>
      <trkpt lat="46.29673" lon="5.95633">
        <ele>1342.62</ele>
        <time>2013-06-08T09:15:14Z</time>
      </trkpt>
      <trkpt lat="46.29678" lon="5.95625">
        <ele>1339.73</ele>
        <time>2013-06-08T09:15:19Z</time>
      </trkpt>
      <trkpt lat="46.29686" lon="5.95616">
        <ele>1338.29</ele>
        <time>2013-06-08T09:15:25Z</time>
      </trkpt>
      <trkpt lat="46.2969" lon="5.95613">
        <ele>1337.33</ele>
        <time>2013-06-08T09:15:28Z</time>
      </trkpt>
      <trkpt lat="46.2971" lon="5.95599">
        <ele>1335.89</ele>
        <time>2013-06-08T09:15:38Z</time>
      </trkpt>
      <trkpt lat="46.29734" lon="5.95589">
        <ele>1332.04</ele>
        <time>2013-06-08T09:15:49Z</time>
      </trkpt>
      <trkpt lat="46.2975" lon="5.95583">
        <ele>1327.72</ele>
        <time>2013-06-08T09:16:00Z</time>
      </trkpt>
      <trkpt lat="46.29766" lon="5.95563">
        <ele>1322.43</ele>
        <time>2013-06-08T09:16:13Z</time>
      </trkpt>
      <trkpt lat="46.29771" lon="5.95558">
        <ele>1321.47</ele>
        <time>2013-06-08T09:16:16Z</time>
      </trkpt>
      <trkpt lat="46.29779" lon="5.95549">
        <ele>1319.55</ele>
        <time>2013-06-08T09:16:22Z</time>
      </trkpt>
      <trkpt lat="46.29789" lon="5.95531">
        <ele>1316.18</ele>
        <time>2013-06-08T09:16:30Z</time>
      </trkpt>
      <trkpt lat="46.29799" lon="5.95499">
        <ele>1309.93</ele>
        <time>2013-06-08T09:16:46Z</time>
      </trkpt>
      <trkpt lat="46.29799" lon="5.95496">
        <ele>1309.45</ele>
        <time>2013-06-08T09:16:47Z</time>
      </trkpt>
      <trkpt lat="46.29794" lon="5.95467">
        <ele>1305.13</ele>
        <time>2013-06-08T09:16:59Z</time>
      </trkpt>
      <trkpt lat="46.29795" lon="5.95439">
        <ele>1301.28</ele>
        <time>2013-06-08T09:17:14Z</time>
      </trkpt>
      <trkpt lat="46.29797" lon="5.95436">
        <ele>1301.28</ele>
        <time>2013-06-08T09:17:16Z</time>
      </trkpt>
      <trkpt lat="46.29806" lon="5.95418">
        <ele>1301.76</ele>
        <time>2013-06-08T09:17:24Z</time>
      </trkpt>
      <trkpt lat="46.29809" lon="5.95389">
        <ele>1301.28</ele>
        <time>2013-06-08T09:17:40Z</time>
      </trkpt>
      <trkpt lat="46.29808" lon="5.9536">
        <ele>1297.92</ele>
        <time>2013-06-08T09:17:51Z</time>
      </trkpt>
      <trkpt lat="46.29791" lon="5.95313">
        <ele>1293.59</ele>
        <time>2013-06-08T09:18:05Z</time>
      </trkpt>
      <trkpt lat="46.29778" lon="5.95279">
        <ele>1289.27</ele>
        <time>2013-06-08T09:18:18Z</time>
      </trkpt>
      <trkpt lat="46.29774" lon="5.95277">
        <ele>1286.86</ele>
        <time>2013-06-08T09:18:44Z</time>
      </trkpt>
      <trkpt lat="46.29775" lon="5.95277">
        <ele>1286.38</ele>
        <time>2013-06-08T09:19:01Z</time>
      </trkpt>
      <trkpt lat="46.29777" lon="5.95267">
        <ele>1285.42</ele>
        <time>2013-06-08T09:19:07Z</time>
      </trkpt>
      <trkpt lat="46.29776" lon="5.95219">
        <ele>1285.42</ele>
        <time>2013-06-08T09:19:22Z</time>
      </trkpt>
      <trkpt lat="46.29769" lon="5.95168">
        <ele>1281.09</ele>
        <time>2013-06-08T09:19:35Z</time>
      </trkpt>
      <trkpt lat="46.2976" lon="5.95121">
        <ele>1276.29</ele>
        <time>2013-06-08T09:19:49Z</time>
      </trkpt>
      <trkpt lat="46.2974" lon="5.95065">
        <ele>1268.12</ele>
        <time>2013-06-08T09:20:06Z</time>
      </trkpt>
      <trkpt lat="46.29727" lon="5.95001">
        <ele>1258.02</ele>
        <time>2013-06-08T09:20:24Z</time>
      </trkpt>
      <trkpt lat="46.29718" lon="5.94969">
        <ele>1254.18</ele>
        <time>2013-06-08T09:20:39Z</time>
      </trkpt>
      <trkpt lat="46.2971" lon="5.94962">
        <ele>1247.93</ele>
        <time>2013-06-08T09:20:52Z</time>
      </trkpt>
      <trkpt lat="46.29704" lon="5.94937">
        <ele>1245.04</ele>
        <time>2013-06-08T09:21:06Z</time>
      </trkpt>
      <trkpt lat="46.29701" lon="5.9492">
        <ele>1243.6</ele>
        <time>2013-06-08T09:21:14Z</time>
      </trkpt>
      <trkpt lat="46.29693" lon="5.94889">
        <ele>1241.2</ele>
        <time>2013-06-08T09:21:29Z</time>
      </trkpt>
      <trkpt lat="46.29679" lon="5.94867">
        <ele>1237.35</ele>
        <time>2013-06-08T09:21:44Z</time>
      </trkpt>
      <trkpt lat="46.29675" lon="5.94848">
        <ele>1235.43</ele>
        <time>2013-06-08T09:21:58Z</time>
      </trkpt>
      <trkpt lat="46.29671" lon="5.94818">
        <ele>1233.99</ele>
        <time>2013-06-08T09:22:13Z</time>
      </trkpt>
      <trkpt lat="46.29669" lon="5.94793">
        <ele>1233.03</ele>
        <time>2013-06-08T09:22:26Z</time>
      </trkpt>
      <trkpt lat="46.29671" lon="5.94788">
        <ele>1233.51</ele>
        <time>2013-06-08T09:22:30Z</time>
      </trkpt>
      <trkpt lat="46.29676" lon="5.94762">
        <ele>1234.47</ele>
        <time>2013-06-08T09:22:42Z</time>
      </trkpt>
      <trkpt lat="46.29677" lon="5.94755">
        <ele>1232.55</ele>
        <time>2013-06-08T09:22:55Z</time>
      </trkpt>
      <trkpt lat="46.2968" lon="5.94749">
        <ele>1230.14</ele>
        <time>2013-06-08T09:23:02Z</time>
      </trkpt>
      <trkpt lat="46.29686" lon="5.94745">
        <ele>1227.74</ele>
        <time>2013-06-08T09:23:06Z</time>
      </trkpt>
      <trkpt lat="46.29692" lon="5.94737">
        <ele>1227.26</ele>
        <time>2013-06-08T09:23:12Z</time>
      </trkpt>
      <trkpt lat="46.29711" lon="5.94728">
        <ele>1224.38</ele>
        <time>2013-06-08T09:23:22Z</time>
      </trkpt>
      <trkpt lat="46.29713" lon="5.9472">
        <ele>1223.9</ele>
        <time>2013-06-08T09:23:25Z</time>
      </trkpt>
      <trkpt lat="46.29714" lon="5.94716">
        <ele>1223.9</ele>
        <time>2013-06-08T09:23:27Z</time>
      </trkpt>
      <trkpt lat="46.29714" lon="5.94707">
        <ele>1223.42</ele>
        <time>2013-06-08T09:23:31Z</time>
      </trkpt>
      <trkpt lat="46.29713" lon="5.947">
        <ele>1222.93</ele>
        <time>2013-06-08T09:23:34Z</time>
      </trkpt>
      <trkpt lat="46.2971" lon="5.94691">
        <ele>1221.01</ele>
        <time>2013-06-08T09:23:50Z</time>
      </trkpt>
      <trkpt lat="46.29707" lon="5.94689">
        <ele>1216.69</ele>
        <time>2013-06-08T09:24:15Z</time>
      </trkpt>
      <trkpt lat="46.29708" lon="5.94688">
        <ele>1214.76</ele>
        <time>2013-06-08T09:24:30Z</time>
      </trkpt>
      <trkpt lat="46.29708" lon="5.94686">
        <ele>1215.24</ele>
        <time>2013-06-08T09:24:32Z</time>
      </trkpt>
      <trkpt lat="46.29707" lon="5.94668">
        <ele>1217.17</ele>
        <time>2013-06-08T09:24:47Z</time>
      </trkpt>
      <trkpt lat="46.29703" lon="5.94665">
        <ele>1216.69</ele>
        <time>2013-06-08T09:24:51Z</time>
      </trkpt>
      <trkpt lat="46.29695" lon="5.94626">
        <ele>1214.28</ele>
        <time>2013-06-08T09:25:09Z</time>
      </trkpt>
      <trkpt lat="46.29695" lon="5.94621">
        <ele>1213.8</ele>
        <time>2013-06-08T09:25:11Z</time>
      </trkpt>
      <trkpt lat="46.2969" lon="5.94593">
        <ele>1210.44</ele>
        <time>2013-06-08T09:25:24Z</time>
      </trkpt>
      <trkpt lat="46.29674" lon="5.94551">
        <ele>1204.19</ele>
        <time>2013-06-08T09:25:39Z</time>
      </trkpt>
      <trkpt lat="46.29672" lon="5.94523">
        <ele>1196.98</ele>
        <time>2013-06-08T09:25:55Z</time>
      </trkpt>
      <trkpt lat="46.29654" lon="5.94497">
        <ele>1193.61</ele>
        <time>2013-06-08T09:26:12Z</time>
      </trkpt>
      <trkpt lat="46.29647" lon="5.9449">
        <ele>1191.69</ele>
        <time>2013-06-08T09:26:15Z</time>
      </trkpt>
      <trkpt lat="46.29643" lon="5.94475">
        <ele>1186.88</ele>
        <time>2013-06-08T09:26:22Z</time>
      </trkpt>
      <trkpt lat="46.2964" lon="5.94472">
        <ele>1186.4</ele>
        <time>2013-06-08T09:26:25Z</time>
      </trkpt>
      <trkpt lat="46.29631" lon="5.94461">
        <ele>1183.52</ele>
        <time>2013-06-08T09:26:35Z</time>
      </trkpt>
      <trkpt lat="46.2963" lon="5.94432">
        <ele>1182.56</ele>
        <time>2013-06-08T09:26:52Z</time>
      </trkpt>
      <trkpt lat="46.29624" lon="5.94397">
        <ele>1178.71</ele>
        <time>2013-06-08T09:27:10Z</time>
      </trkpt>
      <trkpt lat="46.29607" lon="5.94352">
        <ele>1172.47</ele>
        <time>2013-06-08T09:27:29Z</time>
      </trkpt>
      <trkpt lat="46.29607" lon="5.94345">
        <ele>1169.58</ele>
        <time>2013-06-08T09:27:52Z</time>
      </trkpt>
      <trkpt lat="46.296" lon="5.94316">
        <ele>1164.29</ele>
        <time>2013-06-08T09:28:09Z</time>
      </trkpt>
      <trkpt lat="46.29608" lon="5.94311">
        <ele>1159.49</ele>
        <time>2013-06-08T09:28:24Z</time>
      </trkpt>
      <trkpt lat="46.29624" lon="5.94292">
        <ele>1150.35</ele>
        <time>2013-06-08T09:28:40Z</time>
      </trkpt>
      <trkpt lat="46.29627" lon="5.94274">
        <ele>1141.22</ele>
        <time>2013-06-08T09:28:57Z</time>
      </trkpt>
      <trkpt lat="46.29628" lon="5.9426">
        <ele>1135.94</ele>
        <time>2013-06-08T09:29:10Z</time>
      </trkpt>
      <trkpt lat="46.29615" lon="5.94231">
        <ele>1123.44</ele>
        <time>2013-06-08T09:29:26Z</time>
      </trkpt>
      <trkpt lat="46.29606" lon="5.94214">
        <ele>1118.63</ele>
        <time>2013-06-08T09:29:38Z</time>
      </trkpt>
      <trkpt lat="46.29595" lon="5.94206">
        <ele>1115.27</ele>
        <time>2013-06-08T09:29:46Z</time>
      </trkpt>
      <trkpt lat="46.29577" lon="5.94196">
        <ele>1108.06</ele>
        <time>2013-06-08T09:29:57Z</time>
      </trkpt>
      <trkpt lat="46.29575" lon="5.94187">
        <ele>1106.13</ele>
        <time>2013-06-08T09:30:02Z</time>
      </trkpt>
      <trkpt lat="46.29587" lon="5.94181">
        <ele>1103.25</ele>
        <time>2013-06-08T09:30:17Z</time>
      </trkpt>
      <trkpt lat="46.2961" lon="5.9418">
        <ele>1099.89</ele>
        <time>2013-06-08T09:30:33Z</time>
      </trkpt>
      <trkpt lat="46.29633" lon="5.94178">
        <ele>1095.56</ele>
        <time>2013-06-08T09:30:50Z</time>
      </trkpt>
      <trkpt lat="46.29641" lon="5.94181">
        <ele>1093.64</ele>
        <time>2013-06-08T09:30:59Z</time>
      </trkpt>
      <trkpt lat="46.29676" lon="5.94203">
        <ele>1088.83</ele>
        <time>2013-06-08T09:31:14Z</time>
      </trkpt>
      <trkpt lat="46.2971" lon="5.94217">
        <ele>1077.29</ele>
        <time>2013-06-08T09:31:30Z</time>
      </trkpt>
      <trkpt lat="46.29752" lon="5.94244">
        <ele>1064.8</ele>
        <time>2013-06-08T09:31:42Z</time>
      </trkpt>
      <trkpt lat="46.29777" lon="5.94258">
        <ele>1057.11</ele>
        <time>2013-06-08T09:31:56Z</time>
      </trkpt>
      <trkpt lat="46.29798" lon="5.94276">
        <ele>1047.49</ele>
        <time>2013-06-08T09:32:13Z</time>
      </trkpt>
      <trkpt lat="46.29816" lon="5.94284">
        <ele>1043.17</ele>
        <time>2013-06-08T09:32:24Z</time>
      </trkpt>
      <trkpt lat="46.29826" lon="5.9429">
        <ele>1041.25</ele>
        <time>2013-06-08T09:32:30Z</time>
      </trkpt>
      <trkpt lat="46.29827" lon="5.9429">
        <ele>1040.76</ele>
        <time>2013-06-08T09:32:31Z</time>
      </trkpt>
      <trkpt lat="46.29829" lon="5.94291">
        <ele>1040.28</ele>
        <time>2013-06-08T09:32:32Z</time>
      </trkpt>
      <trkpt lat="46.2983" lon="5.94293">
        <ele>1039.8</ele>
        <time>2013-06-08T09:32:33Z</time>
      </trkpt>
      <trkpt lat="46.29832" lon="5.94294">
        <ele>1039.32</ele>
        <time>2013-06-08T09:32:34Z</time>
      </trkpt>
      <trkpt lat="46.29833" lon="5.94296">
        <ele>1039.32</ele>
        <time>2013-06-08T09:32:35Z</time>
      </trkpt>
      <trkpt lat="46.29834" lon="5.94297">
        <ele>1039.32</ele>
        <time>2013-06-08T09:32:36Z</time>
      </trkpt>
      <trkpt lat="46.29836" lon="5.94298">
        <ele>1038.84</ele>
        <time>2013-06-08T09:32:37Z</time>
      </trkpt>
      <trkpt lat="46.29837" lon="5.943">
        <ele>1038.84</ele>
        <time>2013-06-08T09:32:38Z</time>
      </trkpt>
      <trkpt lat="46.29839" lon="5.94302">
        <ele>1038.84</ele>
        <time>2013-06-08T09:32:39Z</time>
      </trkpt>
      <trkpt lat="46.29854" lon="5.94316">
        <ele>1037.88</ele>
        <time>2013-06-08T09:32:50Z</time>
      </trkpt>
      <trkpt lat="46.29865" lon="5.94325">
        <ele>1038.36</ele>
        <time>2013-06-08T09:32:57Z</time>
      </trkpt>
      <trkpt lat="46.29866" lon="5.94325">
        <ele>1038.36</ele>
        <time>2013-06-08T09:32:58Z</time>
      </trkpt>
      <trkpt lat="46.29879" lon="5.94327">
        <ele>1035.96</ele>
        <time>2013-06-08T09:33:09Z</time>
      </trkpt>
      <trkpt lat="46.29881" lon="5.94328">
        <ele>1035.96</ele>
        <time>2013-06-08T09:33:10Z</time>
      </trkpt>
      <trkpt lat="46.29901" lon="5.94326">
        <ele>1028.75</ele>
        <time>2013-06-08T09:33:23Z</time>
      </trkpt>
      <trkpt lat="46.29905" lon="5.94328">
        <ele>1026.83</ele>
        <time>2013-06-08T09:33:25Z</time>
      </trkpt>
      <trkpt lat="46.29906" lon="5.94328">
        <ele>1025.38</ele>
        <time>2013-06-08T09:33:26Z</time>
      </trkpt>
      <trkpt lat="46.29916" lon="5.94336">
        <ele>1021.54</ele>
        <time>2013-06-08T09:33:33Z</time>
      </trkpt>
      <trkpt lat="46.29917" lon="5.94338">
        <ele>1021.54</ele>
        <time>2013-06-08T09:33:34Z</time>
      </trkpt>
      <trkpt lat="46.2992" lon="5.94341">
        <ele>1021.06</ele>
        <time>2013-06-08T09:33:37Z</time>
      </trkpt>
      <trkpt lat="46.29923" lon="5.94347">
        <ele>1020.58</ele>
        <time>2013-06-08T09:33:41Z</time>
      </trkpt>
      <trkpt lat="46.29924" lon="5.94348">
        <ele>1020.58</ele>
        <time>2013-06-08T09:33:42Z</time>
      </trkpt>
      <trkpt lat="46.29925" lon="5.9435">
        <ele>1020.58</ele>
        <time>2013-06-08T09:33:43Z</time>
      </trkpt>
      <trkpt lat="46.29926" lon="5.94351">
        <ele>1020.1</ele>
        <time>2013-06-08T09:33:44Z</time>
      </trkpt>
      <trkpt lat="46.29928" lon="5.94352">
        <ele>1020.1</ele>
        <time>2013-06-08T09:33:45Z</time>
      </trkpt>
      <trkpt lat="46.29928" lon="5.94353">
        <ele>1020.1</ele>
        <time>2013-06-08T09:33:46Z</time>
      </trkpt>
      <trkpt lat="46.29929" lon="5.94354">
        <ele>1019.62</ele>
        <time>2013-06-08T09:33:47Z</time>
      </trkpt>
      <trkpt lat="46.29931" lon="5.94355">
        <ele>1019.62</ele>
        <time>2013-06-08T09:33:48Z</time>
      </trkpt>
      <trkpt lat="46.29935" lon="5.94356">
        <ele>1019.62</ele>
        <time>2013-06-08T09:33:52Z</time>
      </trkpt>
      <trkpt lat="46.29937" lon="5.94356">
        <ele>1019.62</ele>
        <time>2013-06-08T09:33:53Z</time>
      </trkpt>
      <trkpt lat="46.29938" lon="5.94355">
        <ele>1019.62</ele>
        <time>2013-06-08T09:33:54Z</time>
      </trkpt>
      <trkpt lat="46.2994" lon="5.94356">
        <ele>1019.13</ele>
        <time>2013-06-08T09:33:55Z</time>
      </trkpt>
      <trkpt lat="46.29941" lon="5.94356">
        <ele>1019.13</ele>
        <time>2013-06-08T09:33:56Z</time>
      </trkpt>
      <trkpt lat="46.29943" lon="5.94356">
        <ele>1019.13</ele>
        <time>2013-06-08T09:33:57Z</time>
      </trkpt>
      <trkpt lat="46.29944" lon="5.94356">
        <ele>1019.13</ele>
        <time>2013-06-08T09:33:58Z</time>
      </trkpt>
      <trkpt lat="46.29965" lon="5.94366">
        <ele>1016.73</ele>
        <time>2013-06-08T09:34:13Z</time>
      </trkpt>
      <trkpt lat="46.29989" lon="5.9438">
        <ele>1013.37</ele>
        <time>2013-06-08T09:34:29Z</time>
      </trkpt>
      <trkpt lat="46.29996" lon="5.94375">
        <ele>1010.48</ele>
        <time>2013-06-08T09:34:34Z</time>
      </trkpt>
      <trkpt lat="46.30016" lon="5.94375">
        <ele>1007.12</ele>
        <time>2013-06-08T09:34:44Z</time>
      </trkpt>
      <trkpt lat="46.3003" lon="5.9437">
        <ele>1004.72</ele>
        <time>2013-06-08T09:34:52Z</time>
      </trkpt>
      <trkpt lat="46.30032" lon="5.94369">
        <ele>1004.23</ele>
        <time>2013-06-08T09:34:53Z</time>
      </trkpt>
      <trkpt lat="46.30032" lon="5.94367">
        <ele>1003.75</ele>
        <time>2013-06-08T09:34:54Z</time>
      </trkpt>
      <trkpt lat="46.30035" lon="5.9432">
        <ele>995.1</ele>
        <time>2013-06-08T09:35:08Z</time>
      </trkpt>
      <trkpt lat="46.30027" lon="5.94301">
        <ele>988.37</ele>
        <time>2013-06-08T09:35:19Z</time>
      </trkpt>
      <trkpt lat="46.30023" lon="5.94291">
        <ele>985.97</ele>
        <time>2013-06-08T09:35:23Z</time>
      </trkpt>
      <trkpt lat="46.3002" lon="5.94283">
        <ele>984.05</ele>
        <time>2013-06-08T09:35:26Z</time>
      </trkpt>
      <trkpt lat="46.30009" lon="5.94247">
        <ele>977.32</ele>
        <time>2013-06-08T09:35:37Z</time>
      </trkpt>
      <trkpt lat="46.3001" lon="5.94245">
        <ele>970.11</ele>
        <time>2013-06-08T09:35:44Z</time>
      </trkpt>
      <trkpt lat="46.30011" lon="5.94245">
        <ele>969.15</ele>
        <time>2013-06-08T09:35:45Z</time>
      </trkpt>
      <trkpt lat="46.30023" lon="5.94258">
        <ele>961.94</ele>
        <time>2013-06-08T09:35:58Z</time>
      </trkpt>
      <trkpt lat="46.30038" lon="5.94262">
        <ele>956.17</ele>
        <time>2013-06-08T09:36:09Z</time>
      </trkpt>
      <trkpt lat="46.30051" lon="5.94257">
        <ele>951.36</ele>
        <time>2013-06-08T09:36:20Z</time>
      </trkpt>
      <trkpt lat="46.30072" lon="5.94253">
        <ele>949.92</ele>
        <time>2013-06-08T09:36:34Z</time>
      </trkpt>
      <trkpt lat="46.30083" lon="5.94242">
        <ele>950.88</ele>
        <time>2013-06-08T09:36:46Z</time>
      </trkpt>
      <trkpt lat="46.30085" lon="5.94238">
        <ele>949.92</ele>
        <time>2013-06-08T09:36:49Z</time>
      </trkpt>
      <trkpt lat="46.30086" lon="5.94236">
        <ele>949.44</ele>
        <time>2013-06-08T09:36:50Z</time>
      </trkpt>
      <trkpt lat="46.30088" lon="5.94234">
        <ele>949.44</ele>
        <time>2013-06-08T09:36:51Z</time>
      </trkpt>
      <trkpt lat="46.3009" lon="5.94233">
        <ele>949.44</ele>
        <time>2013-06-08T09:36:52Z</time>
      </trkpt>
      <trkpt lat="46.30091" lon="5.9423">
        <ele>948.96</ele>
        <time>2013-06-08T09:36:53Z</time>
      </trkpt>
      <trkpt lat="46.30096" lon="5.94224">
        <ele>947.52</ele>
        <time>2013-06-08T09:36:57Z</time>
      </trkpt>
      <trkpt lat="46.30107" lon="5.94208">
        <ele>941.27</ele>
        <time>2013-06-08T09:37:07Z</time>
      </trkpt>
      <trkpt lat="46.30108" lon="5.94205">
        <ele>939.83</ele>
        <time>2013-06-08T09:37:15Z</time>
      </trkpt>
      <trkpt lat="46.30124" lon="5.94185">
        <ele>930.69</ele>
        <time>2013-06-08T09:37:25Z</time>
      </trkpt>
      <trkpt lat="46.30126" lon="5.94183">
        <ele>929.73</ele>
        <time>2013-06-08T09:37:26Z</time>
      </trkpt>
      <trkpt lat="46.30154" lon="5.94147">
        <ele>920.12</ele>
        <time>2013-06-08T09:37:39Z</time>
      </trkpt>
      <trkpt lat="46.30182" lon="5.94113">
        <ele>910.51</ele>
        <time>2013-06-08T09:37:52Z</time>
      </trkpt>
      <trkpt lat="46.30193" lon="5.941">
        <ele>906.66</ele>
        <time>2013-06-08T09:37:57Z</time>
      </trkpt>
      <trkpt lat="46.30197" lon="5.94094">
        <ele>905.22</ele>
        <time>2013-06-08T09:38:01Z</time>
      </trkpt>
      <trkpt lat="46.30226" lon="5.94099">
        <ele>899.93</ele>
        <time>2013-06-08T09:38:19Z</time>
      </trkpt>
      <trkpt lat="46.30242" lon="5.94091">
        <ele>899.93</ele>
        <time>2013-06-08T09:38:30Z</time>
      </trkpt>
      <trkpt lat="46.30248" lon="5.94087">
        <ele>898.97</ele>
        <time>2013-06-08T09:38:34Z</time>
      </trkpt>
      <trkpt lat="46.30252" lon="5.9408">
        <ele>896.09</ele>
        <time>2013-06-08T09:38:39Z</time>
      </trkpt>
      <trkpt lat="46.30258" lon="5.9407">
        <ele>894.16</ele>
        <time>2013-06-08T09:38:52Z</time>
      </trkpt>
      <trkpt lat="46.30258" lon="5.9407">
        <ele>894.16</ele>
        <time>2013-06-08T09:38:55Z</time>
      </trkpt>
      <trkpt lat="46.30257" lon="5.94071">
        <ele>894.64</ele>
        <time>2013-06-08T09:38:57Z</time>
      </trkpt>
      <trkpt lat="46.3025" lon="5.94069">
        <ele>893.68</ele>
        <time>2013-06-08T09:39:04Z</time>
      </trkpt>
      <trkpt lat="46.30247" lon="5.9406">
        <ele>893.2</ele>
        <time>2013-06-08T09:39:10Z</time>
      </trkpt>
      <trkpt lat="46.30237" lon="5.94047">
        <ele>891.28</ele>
        <time>2013-06-08T09:39:23Z</time>
      </trkpt>
      <trkpt lat="46.30232" lon="5.94041">
        <ele>892.72</ele>
        <time>2013-06-08T09:39:29Z</time>
      </trkpt>
      <trkpt lat="46.30227" lon="5.94035">
        <ele>893.68</ele>
        <time>2013-06-08T09:39:34Z</time>
      </trkpt>
      <trkpt lat="46.30222" lon="5.9403">
        <ele>895.61</ele>
        <time>2013-06-08T09:39:38Z</time>
      </trkpt>
      <trkpt lat="46.30216" lon="5.94021">
        <ele>895.61</ele>
        <time>2013-06-08T09:39:43Z</time>
      </trkpt>
      <trkpt lat="46.30209" lon="5.94014">
        <ele>894.16</ele>
        <time>2013-06-08T09:39:49Z</time>
      </trkpt>
      <trkpt lat="46.30208" lon="5.94006">
        <ele>891.76</ele>
        <time>2013-06-08T09:39:54Z</time>
      </trkpt>
      <trkpt lat="46.30213" lon="5.93996">
        <ele>890.32</ele>
        <time>2013-06-08T09:40:00Z</time>
      </trkpt>
      <trkpt lat="46.30222" lon="5.93976">
        <ele>891.28</ele>
        <time>2013-06-08T09:40:11Z</time>
      </trkpt>
      <trkpt lat="46.30224" lon="5.93972">
        <ele>891.28</ele>
        <time>2013-06-08T09:40:13Z</time>
      </trkpt>
      <trkpt lat="46.3021" lon="5.93956">
        <ele>892.72</ele>
        <time>2013-06-08T09:40:26Z</time>
      </trkpt>
      <trkpt lat="46.30202" lon="5.93956">
        <ele>892.72</ele>
        <time>2013-06-08T09:40:36Z</time>
      </trkpt>
      <trkpt lat="46.30203" lon="5.93956">
        <ele>893.2</ele>
        <time>2013-06-08T09:40:38Z</time>
      </trkpt>
      <trkpt lat="46.30206" lon="5.93958">
        <ele>894.16</ele>
        <time>2013-06-08T09:40:41Z</time>
      </trkpt>
      <trkpt lat="46.3021" lon="5.93959">
        <ele>894.64</ele>
        <time>2013-06-08T09:40:44Z</time>
      </trkpt>
      <trkpt lat="46.30219" lon="5.93968">
        <ele>894.64</ele>
        <time>2013-06-08T09:40:54Z</time>
      </trkpt>
      <trkpt lat="46.30231" lon="5.93948">
        <ele>894.64</ele>
        <time>2013-06-08T09:41:06Z</time>
      </trkpt>
      <trkpt lat="46.30233" lon="5.93941">
        <ele>894.64</ele>
        <time>2013-06-08T09:41:18Z</time>
      </trkpt>
      <trkpt lat="46.30231" lon="5.9394">
        <ele>894.16</ele>
        <time>2013-06-08T09:41:35Z</time>
      </trkpt>
      <trkpt lat="46.3023" lon="5.93943">
        <ele>894.16</ele>
        <time>2013-06-08T09:41:37Z</time>
      </trkpt>
      <trkpt lat="46.3022" lon="5.93964">
        <ele>893.2</ele>
        <time>2013-06-08T09:41:50Z</time>
      </trkpt>
      <trkpt lat="46.3021" lon="5.93987">
        <ele>892.72</ele>
        <time>2013-06-08T09:42:04Z</time>
      </trkpt>
      <trkpt lat="46.30209" lon="5.93988">
        <ele>892.72</ele>
        <time>2013-06-08T09:42:05Z</time>
      </trkpt>
      <trkpt lat="46.30203" lon="5.93998">
        <ele>893.2</ele>
        <time>2013-06-08T09:42:13Z</time>
      </trkpt>
      <trkpt lat="46.30207" lon="5.94011">
        <ele>892.72</ele>
        <time>2013-06-08T09:42:18Z</time>
      </trkpt>
      <trkpt lat="46.30227" lon="5.94048">
        <ele>893.68</ele>
        <time>2013-06-08T09:42:37Z</time>
      </trkpt>
      <trkpt lat="46.30257" lon="5.94052">
        <ele>895.12</ele>
        <time>2013-06-08T09:42:57Z</time>
      </trkpt>
      <trkpt lat="46.30271" lon="5.94061">
        <ele>896.57</ele>
        <time>2013-06-08T09:43:10Z</time>
      </trkpt>
      <trkpt lat="46.30302" lon="5.94094">
        <ele>894.16</ele>
        <time>2013-06-08T09:43:33Z</time>
      </trkpt>
      <trkpt lat="46.30311" lon="5.94109">
        <ele>895.61</ele>
        <time>2013-06-08T09:43:46Z</time>
      </trkpt>
      <trkpt lat="46.3033" lon="5.94143">
        <ele>894.16</ele>
        <time>2013-06-08T09:44:06Z</time>
      </trkpt>
      <trkpt lat="46.30351" lon="5.94173">
        <ele>890.8</ele>
        <time>2013-06-08T09:44:26Z</time>
      </trkpt>
      <trkpt lat="46.30352" lon="5.9418">
        <ele>890.8</ele>
        <time>2013-06-08T09:44:30Z</time>
      </trkpt>
      <trkpt lat="46.30354" lon="5.94187">
        <ele>895.61</ele>
        <time>2013-06-08T09:44:43Z</time>
      </trkpt>
      <trkpt lat="46.30356" lon="5.94186">
        <ele>896.09</ele>
        <time>2013-06-08T09:44:55Z</time>
      </trkpt>
      <trkpt lat="46.30357" lon="5.94186">
        <ele>895.61</ele>
        <time>2013-06-08T09:45:23Z</time>
      </trkpt>
      <trkpt lat="46.30358" lon="5.94187">
        <ele>893.68</ele>
        <time>2013-06-08T09:45:53Z</time>
      </trkpt>
      <trkpt lat="46.30357" lon="5.94188">
        <ele>894.64</ele>
        <time>2013-06-08T09:46:27Z</time>
      </trkpt>
      <trkpt lat="46.30358" lon="5.94188">
        <ele>893.68</ele>
        <time>2013-06-08T09:46:54Z</time>
      </trkpt>
      <trkpt lat="46.30358" lon="5.94188">
        <ele>893.2</ele>
        <time>2013-06-08T09:47:25Z</time>
      </trkpt>
      <trkpt lat="46.30357" lon="5.94189">
        <ele>892.72</ele>
        <time>2013-06-08T09:47:55Z</time>
      </trkpt>
      <trkpt lat="46.30358" lon="5.94189">
        <ele>891.76</ele>
        <time>2013-06-08T09:48:24Z</time>
      </trkpt>
      <trkpt lat="46.30358" lon="5.94189">
        <ele>890.8</ele>
        <time>2013-06-08T09:48:50Z</time>
      </trkpt>
      <trkpt lat="46.30358" lon="5.9419">
        <ele>890.8</ele>
        <time>2013-06-08T09:49:02Z</time>
      </trkpt>
      <trkpt lat="46.30359" lon="5.94189">
        <ele>890.8</ele>
        <time>2013-06-08T09:49:06Z</time>
      </trkpt>
      <trkpt lat="46.3036" lon="5.94182">
        <ele>890.8</ele>
        <time>2013-06-08T09:49:10Z</time>
      </trkpt>
      <trkpt lat="46.30356" lon="5.94168">
        <ele>892.72</ele>
        <time>2013-06-08T09:49:24Z</time>
      </trkpt>
      <trkpt lat="46.30352" lon="5.94162">
        <ele>892.72</ele>
        <time>2013-06-08T09:49:28Z</time>
      </trkpt>
      <trkpt lat="46.30345" lon="5.94138">
        <ele>893.68</ele>
        <time>2013-06-08T09:49:41Z</time>
      </trkpt>
      <trkpt lat="46.30345" lon="5.94138">
        <ele>893.68</ele>
        <time>2013-06-08T09:49:42Z</time>
      </trkpt>
      <trkpt lat="46.30337" lon="5.94132">
        <ele>896.09</ele>
        <time>2013-06-08T09:49:57Z</time>
      </trkpt>
      <trkpt lat="46.30337" lon="5.94132">
        <ele>894.64</ele>
        <time>2013-06-08T09:50:12Z</time>
      </trkpt>
      <trkpt lat="46.30337" lon="5.94132">
        <ele>894.16</ele>
        <time>2013-06-08T09:50:27Z</time>
      </trkpt>
      <trkpt lat="46.30338" lon="5.94132">
        <ele>894.64</ele>
        <time>2013-06-08T09:50:48Z</time>
      </trkpt>
      <trkpt lat="46.30335" lon="5.94128">
        <ele>894.16</ele>
        <time>2013-06-08T09:50:54Z</time>
      </trkpt>
      <trkpt lat="46.3031" lon="5.94096">
        <ele>891.76</ele>
        <time>2013-06-08T09:51:15Z</time>
      </trkpt>
      <trkpt lat="46.30308" lon="5.94093">
        <ele>891.76</ele>
        <time>2013-06-08T09:51:17Z</time>
      </trkpt>
      <trkpt lat="46.30299" lon="5.94072">
        <ele>893.2</ele>
        <time>2013-06-08T09:51:28Z</time>
      </trkpt>
      <trkpt lat="46.30279" lon="5.9405">
        <ele>897.05</ele>
        <time>2013-06-08T09:51:45Z</time>
      </trkpt>
      <trkpt lat="46.30257" lon="5.94041">
        <ele>895.12</ele>
        <time>2013-06-08T09:52:01Z</time>
      </trkpt>
      <trkpt lat="46.30241" lon="5.94034">
        <ele>895.12</ele>
        <time>2013-06-08T09:52:13Z</time>
      </trkpt>
      <trkpt lat="46.30219" lon="5.94018">
        <ele>894.64</ele>
        <time>2013-06-08T09:52:28Z</time>
      </trkpt>
      <trkpt lat="46.30202" lon="5.94004">
        <ele>892.72</ele>
        <time>2013-06-08T09:52:42Z</time>
      </trkpt>
      <trkpt lat="46.30191" lon="5.93994">
        <ele>891.76</ele>
        <time>2013-06-08T09:52:51Z</time>
      </trkpt>
      <trkpt lat="46.30174" lon="5.93983">
        <ele>895.12</ele>
        <time>2013-06-08T09:53:06Z</time>
      </trkpt>
      <trkpt lat="46.30151" lon="5.93964">
        <ele>895.61</ele>
        <time>2013-06-08T09:53:21Z</time>
      </trkpt>
      <trkpt lat="46.30155" lon="5.93949">
        <ele>894.16</ele>
        <time>2013-06-08T09:53:30Z</time>
      </trkpt>
      <trkpt lat="46.30153" lon="5.93911">
        <ele>891.28</ele>
        <time>2013-06-08T09:53:47Z</time>
      </trkpt>
      <trkpt lat="46.30146" lon="5.93875">
        <ele>888.4</ele>
        <time>2013-06-08T09:54:05Z</time>
      </trkpt>
      <trkpt lat="46.30132" lon="5.93839">
        <ele>885.03</ele>
        <time>2013-06-08T09:54:23Z</time>
      </trkpt>
      <trkpt lat="46.30125" lon="5.93813">
        <ele>883.59</ele>
        <time>2013-06-08T09:54:36Z</time>
      </trkpt>
      <trkpt lat="46.30114" lon="5.93781">
        <ele>878.78</ele>
        <time>2013-06-08T09:54:54Z</time>
      </trkpt>
      <trkpt lat="46.30107" lon="5.93757">
        <ele>872.53</ele>
        <time>2013-06-08T09:55:09Z</time>
      </trkpt>
      <trkpt lat="46.30102" lon="5.93731">
        <ele>868.21</ele>
        <time>2013-06-08T09:55:23Z</time>
      </trkpt>
      <trkpt lat="46.30095" lon="5.93705">
        <ele>866.29</ele>
        <time>2013-06-08T09:55:37Z</time>
      </trkpt>
      <trkpt lat="46.30088" lon="5.93676">
        <ele>866.29</ele>
        <time>2013-06-08T09:55:53Z</time>
      </trkpt>
      <trkpt lat="46.30083" lon="5.93649">
        <ele>866.29</ele>
        <time>2013-06-08T09:56:08Z</time>
      </trkpt>
      <trkpt lat="46.3008" lon="5.9363">
        <ele>867.73</ele>
        <time>2013-06-08T09:56:19Z</time>
      </trkpt>
      <trkpt lat="46.30078" lon="5.93625">
        <ele>867.73</ele>
        <time>2013-06-08T09:56:33Z</time>
      </trkpt>
      <trkpt lat="46.30076" lon="5.93623">
        <ele>867.73</ele>
        <time>2013-06-08T09:56:55Z</time>
      </trkpt>
      <trkpt lat="46.30074" lon="5.93622">
        <ele>869.17</ele>
        <time>2013-06-08T09:57:22Z</time>
      </trkpt>
      <trkpt lat="46.30074" lon="5.93619">
        <ele>868.69</ele>
        <time>2013-06-08T09:57:39Z</time>
      </trkpt>
      <trkpt lat="46.30072" lon="5.93598">
        <ele>869.17</ele>
        <time>2013-06-08T09:57:54Z</time>
      </trkpt>
      <trkpt lat="46.30075" lon="5.93577">
        <ele>866.29</ele>
        <time>2013-06-08T09:58:04Z</time>
      </trkpt>
      <trkpt lat="46.30074" lon="5.93574">
        <ele>866.29</ele>
        <time>2013-06-08T09:58:06Z</time>
      </trkpt>
      <trkpt lat="46.30068" lon="5.93537">
        <ele>865.32</ele>
        <time>2013-06-08T09:58:23Z</time>
      </trkpt>
      <trkpt lat="46.30066" lon="5.93504">
        <ele>866.77</ele>
        <time>2013-06-08T09:58:40Z</time>
      </trkpt>
      <trkpt lat="46.30067" lon="5.93498">
        <ele>867.73</ele>
        <time>2013-06-08T09:58:43Z</time>
      </trkpt>
      <trkpt lat="46.30057" lon="5.93462">
        <ele>865.8</ele>
        <time>2013-06-08T09:58:59Z</time>
      </trkpt>
      <trkpt lat="46.30056" lon="5.93453">
        <ele>865.8</ele>
        <time>2013-06-08T09:59:04Z</time>
      </trkpt>
      <trkpt lat="46.30041" lon="5.93417">
        <ele>864.84</ele>
        <time>2013-06-08T09:59:23Z</time>
      </trkpt>
      <trkpt lat="46.30031" lon="5.93391">
        <ele>863.4</ele>
        <time>2013-06-08T09:59:36Z</time>
      </trkpt>
      <trkpt lat="46.30026" lon="5.93375">
        <ele>862.44</ele>
        <time>2013-06-08T09:59:44Z</time>
      </trkpt>
      <trkpt lat="46.30026" lon="5.93366">
        <ele>861</ele>
        <time>2013-06-08T09:59:49Z</time>
      </trkpt>
      <trkpt lat="46.30023" lon="5.93346">
        <ele>860.52</ele>
        <time>2013-06-08T09:59:58Z</time>
      </trkpt>
      <trkpt lat="46.30012" lon="5.93322">
        <ele>859.56</ele>
        <time>2013-06-08T10:00:10Z</time>
      </trkpt>
      <trkpt lat="46.3" lon="5.93294">
        <ele>855.23</ele>
        <time>2013-06-08T10:00:27Z</time>
      </trkpt>
      <trkpt lat="46.29997" lon="5.93281">
        <ele>854.27</ele>
        <time>2013-06-08T10:00:33Z</time>
      </trkpt>
      <trkpt lat="46.29995" lon="5.93263">
        <ele>850.9</ele>
        <time>2013-06-08T10:00:41Z</time>
      </trkpt>
      <trkpt lat="46.29987" lon="5.93239">
        <ele>846.1</ele>
        <time>2013-06-08T10:00:55Z</time>
      </trkpt>
      <trkpt lat="46.29985" lon="5.93232">
        <ele>846.1</ele>
        <time>2013-06-08T10:00:59Z</time>
      </trkpt>
      <trkpt lat="46.29983" lon="5.93212">
        <ele>847.54</ele>
        <time>2013-06-08T10:01:06Z</time>
      </trkpt>
      <trkpt lat="46.29984" lon="5.93183">
        <ele>853.31</ele>
        <time>2013-06-08T10:01:20Z</time>
      </trkpt>
      <trkpt lat="46.29985" lon="5.9318">
        <ele>853.79</ele>
        <time>2013-06-08T10:01:22Z</time>
      </trkpt>
      <trkpt lat="46.29986" lon="5.93153">
        <ele>858.11</ele>
        <time>2013-06-08T10:01:36Z</time>
      </trkpt>
      <trkpt lat="46.29992" lon="5.93128">
        <ele>864.84</ele>
        <time>2013-06-08T10:01:51Z</time>
      </trkpt>
      <trkpt lat="46.29998" lon="5.93104">
        <ele>867.73</ele>
        <time>2013-06-08T10:02:06Z</time>
      </trkpt>
      <trkpt lat="46.29999" lon="5.93097">
        <ele>868.21</ele>
        <time>2013-06-08T10:02:09Z</time>
      </trkpt>
      <trkpt lat="46.29997" lon="5.93088">
        <ele>868.69</ele>
        <time>2013-06-08T10:02:14Z</time>
      </trkpt>
      <trkpt lat="46.29996" lon="5.93074">
        <ele>869.65</ele>
        <time>2013-06-08T10:02:22Z</time>
      </trkpt>
      <trkpt lat="46.2998" lon="5.93042">
        <ele>870.61</ele>
        <time>2013-06-08T10:02:40Z</time>
      </trkpt>
      <trkpt lat="46.29978" lon="5.9304">
        <ele>870.13</ele>
        <time>2013-06-08T10:02:50Z</time>
      </trkpt>
      <trkpt lat="46.29969" lon="5.9302">
        <ele>867.25</ele>
        <time>2013-06-08T10:03:06Z</time>
      </trkpt>
      <trkpt lat="46.29959" lon="5.93003">
        <ele>864.36</ele>
        <time>2013-06-08T10:03:20Z</time>
      </trkpt>
      <trkpt lat="46.29938" lon="5.92982">
        <ele>862.44</ele>
        <time>2013-06-08T10:03:38Z</time>
      </trkpt>
      <trkpt lat="46.29937" lon="5.92979">
        <ele>862.44</ele>
        <time>2013-06-08T10:03:40Z</time>
      </trkpt>
      <trkpt lat="46.29932" lon="5.92973">
        <ele>862.92</ele>
        <time>2013-06-08T10:03:44Z</time>
      </trkpt>
      <trkpt lat="46.29907" lon="5.92955">
        <ele>863.4</ele>
        <time>2013-06-08T10:04:01Z</time>
      </trkpt>
      <trkpt lat="46.29887" lon="5.92935">
        <ele>863.88</ele>
        <time>2013-06-08T10:04:17Z</time>
      </trkpt>
      <trkpt lat="46.2987" lon="5.92913">
        <ele>867.25</ele>
        <time>2013-06-08T10:04:32Z</time>
      </trkpt>
      <trkpt lat="46.29854" lon="5.92886">
        <ele>870.13</ele>
        <time>2013-06-08T10:04:50Z</time>
      </trkpt>
      <trkpt lat="46.2984" lon="5.92856">
        <ele>872.05</ele>
        <time>2013-06-08T10:05:09Z</time>
      </trkpt>
      <trkpt lat="46.29843" lon="5.92831">
        <ele>878.78</ele>
        <time>2013-06-08T10:05:25Z</time>
      </trkpt>
      <trkpt lat="46.29846" lon="5.92828">
        <ele>880.22</ele>
        <time>2013-06-08T10:05:30Z</time>
      </trkpt>
      <trkpt lat="46.2985" lon="5.92827">
        <ele>880.71</ele>
        <time>2013-06-08T10:05:34Z</time>
      </trkpt>
      <trkpt lat="46.2986" lon="5.92835">
        <ele>882.15</ele>
        <time>2013-06-08T10:05:48Z</time>
      </trkpt>
      <trkpt lat="46.29862" lon="5.92834">
        <ele>882.63</ele>
        <time>2013-06-08T10:05:55Z</time>
      </trkpt>
      <trkpt lat="46.29866" lon="5.92835">
        <ele>882.63</ele>
        <time>2013-06-08T10:05:59Z</time>
      </trkpt>
      <trkpt lat="46.29873" lon="5.92839">
        <ele>883.59</ele>
        <time>2013-06-08T10:06:05Z</time>
      </trkpt>
      <trkpt lat="46.29878" lon="5.92843">
        <ele>883.59</ele>
        <time>2013-06-08T10:06:10Z</time>
      </trkpt>
      <trkpt lat="46.2989" lon="5.92847">
        <ele>885.03</ele>
        <time>2013-06-08T10:06:20Z</time>
      </trkpt>
      <trkpt lat="46.29896" lon="5.92846">
        <ele>885.99</ele>
        <time>2013-06-08T10:06:24Z</time>
      </trkpt>
      <trkpt lat="46.29916" lon="5.9285">
        <ele>887.43</ele>
        <time>2013-06-08T10:06:39Z</time>
      </trkpt>
      <trkpt lat="46.29937" lon="5.92859">
        <ele>889.84</ele>
        <time>2013-06-08T10:06:55Z</time>
      </trkpt>
      <trkpt lat="46.29957" lon="5.9287">
        <ele>890.32</ele>
        <time>2013-06-08T10:07:11Z</time>
      </trkpt>
      <trkpt lat="46.29972" lon="5.92892">
        <ele>891.28</ele>
        <time>2013-06-08T10:07:28Z</time>
      </trkpt>
      <trkpt lat="46.29987" lon="5.92909">
        <ele>893.68</ele>
        <time>2013-06-08T10:07:45Z</time>
      </trkpt>
      <trkpt lat="46.29994" lon="5.92912">
        <ele>895.61</ele>
        <time>2013-06-08T10:08:01Z</time>
      </trkpt>
      <trkpt lat="46.29994" lon="5.92912">
        <ele>896.09</ele>
        <time>2013-06-08T10:08:29Z</time>
      </trkpt>
      <trkpt lat="46.29994" lon="5.92912">
        <ele>896.57</ele>
        <time>2013-06-08T10:08:58Z</time>
      </trkpt>
      <trkpt lat="46.29999" lon="5.92914">
        <ele>895.61</ele>
        <time>2013-06-08T10:09:20Z</time>
      </trkpt>
      <trkpt lat="46.30022" lon="5.9292">
        <ele>896.57</ele>
        <time>2013-06-08T10:09:37Z</time>
      </trkpt>
      <trkpt lat="46.30034" lon="5.92904">
        <ele>898.01</ele>
        <time>2013-06-08T10:09:48Z</time>
      </trkpt>
      <trkpt lat="46.30029" lon="5.9289">
        <ele>898.97</ele>
        <time>2013-06-08T10:09:56Z</time>
      </trkpt>
      <trkpt lat="46.30015" lon="5.92868">
        <ele>898.97</ele>
        <time>2013-06-08T10:10:10Z</time>
      </trkpt>
      <trkpt lat="46.3001" lon="5.92862">
        <ele>900.41</ele>
        <time>2013-06-08T10:10:15Z</time>
      </trkpt>
      <trkpt lat="46.30003" lon="5.92852">
        <ele>901.37</ele>
        <time>2013-06-08T10:10:22Z</time>
      </trkpt>
      <trkpt lat="46.29984" lon="5.92827">
        <ele>904.26</ele>
        <time>2013-06-08T10:10:43Z</time>
      </trkpt>
      <trkpt lat="46.29974" lon="5.92804">
        <ele>907.62</ele>
        <time>2013-06-08T10:11:00Z</time>
      </trkpt>
      <trkpt lat="46.29961" lon="5.92781">
        <ele>910.99</ele>
        <time>2013-06-08T10:11:18Z</time>
      </trkpt>
      <trkpt lat="46.29945" lon="5.92757">
        <ele>912.91</ele>
        <time>2013-06-08T10:11:36Z</time>
      </trkpt>
      <trkpt lat="46.29929" lon="5.92737">
        <ele>915.31</ele>
        <time>2013-06-08T10:11:52Z</time>
      </trkpt>
      <trkpt lat="46.29918" lon="5.92718">
        <ele>915.31</ele>
        <time>2013-06-08T10:12:06Z</time>
      </trkpt>
      <trkpt lat="46.29902" lon="5.92706">
        <ele>915.79</ele>
        <time>2013-06-08T10:12:20Z</time>
      </trkpt>
      <trkpt lat="46.29901" lon="5.92705">
        <ele>916.27</ele>
        <time>2013-06-08T10:12:21Z</time>
      </trkpt>
      <trkpt lat="46.29879" lon="5.92688">
        <ele>919.16</ele>
        <time>2013-06-08T10:12:41Z</time>
      </trkpt>
      <trkpt lat="46.29866" lon="5.92677">
        <ele>920.6</ele>
        <time>2013-06-08T10:12:57Z</time>
      </trkpt>
      <trkpt lat="46.29856" lon="5.92661">
        <ele>923.96</ele>
        <time>2013-06-08T10:13:13Z</time>
      </trkpt>
      <trkpt lat="46.29845" lon="5.92641">
        <ele>925.89</ele>
        <time>2013-06-08T10:13:29Z</time>
      </trkpt>
      <trkpt lat="46.29834" lon="5.9262">
        <ele>931.17</ele>
        <time>2013-06-08T10:13:47Z</time>
      </trkpt>
      <trkpt lat="46.29822" lon="5.92596">
        <ele>934.06</ele>
        <time>2013-06-08T10:14:06Z</time>
      </trkpt>
      <trkpt lat="46.29815" lon="5.92598">
        <ele>938.86</ele>
        <time>2013-06-08T10:14:22Z</time>
      </trkpt>
      <trkpt lat="46.29809" lon="5.92598">
        <ele>941.75</ele>
        <time>2013-06-08T10:14:57Z</time>
      </trkpt>
      <trkpt lat="46.29808" lon="5.92597">
        <ele>940.79</ele>
        <time>2013-06-08T10:15:02Z</time>
      </trkpt>
      <trkpt lat="46.29808" lon="5.926">
        <ele>940.31</ele>
        <time>2013-06-08T10:15:15Z</time>
      </trkpt>
      <trkpt lat="46.29806" lon="5.92588">
        <ele>940.79</ele>
        <time>2013-06-08T10:15:29Z</time>
      </trkpt>
      <trkpt lat="46.29794" lon="5.92574">
        <ele>941.75</ele>
        <time>2013-06-08T10:15:42Z</time>
      </trkpt>
      <trkpt lat="46.29766" lon="5.92541">
        <ele>940.31</ele>
        <time>2013-06-08T10:16:01Z</time>
      </trkpt>
      <trkpt lat="46.29745" lon="5.92526">
        <ele>940.31</ele>
        <time>2013-06-08T10:16:19Z</time>
      </trkpt>
      <trkpt lat="46.29723" lon="5.92508">
        <ele>939.35</ele>
        <time>2013-06-08T10:16:35Z</time>
      </trkpt>
      <trkpt lat="46.29709" lon="5.92494">
        <ele>939.35</ele>
        <time>2013-06-08T10:16:51Z</time>
      </trkpt>
      <trkpt lat="46.29698" lon="5.92477">
        <ele>943.67</ele>
        <time>2013-06-08T10:17:08Z</time>
      </trkpt>
      <trkpt lat="46.29679" lon="5.92465">
        <ele>947.04</ele>
        <time>2013-06-08T10:17:24Z</time>
      </trkpt>
      <trkpt lat="46.29667" lon="5.92455">
        <ele>948.96</ele>
        <time>2013-06-08T10:17:37Z</time>
      </trkpt>
      <trkpt lat="46.29664" lon="5.92454">
        <ele>949.44</ele>
        <time>2013-06-08T10:17:39Z</time>
      </trkpt>
      <trkpt lat="46.29652" lon="5.92445">
        <ele>950.4</ele>
        <time>2013-06-08T10:17:52Z</time>
      </trkpt>
      <trkpt lat="46.2964" lon="5.9243">
        <ele>950.88</ele>
        <time>2013-06-08T10:18:09Z</time>
      </trkpt>
      <trkpt lat="46.29614" lon="5.92422">
        <ele>950.88</ele>
        <time>2013-06-08T10:18:25Z</time>
      </trkpt>
      <trkpt lat="46.29601" lon="5.92409">
        <ele>951.36</ele>
        <time>2013-06-08T10:18:40Z</time>
      </trkpt>
      <trkpt lat="46.29587" lon="5.92392">
        <ele>953.28</ele>
        <time>2013-06-08T10:18:56Z</time>
      </trkpt>
      <trkpt lat="46.29569" lon="5.92378">
        <ele>957.61</ele>
        <time>2013-06-08T10:19:09Z</time>
      </trkpt>
      <trkpt lat="46.29565" lon="5.92365">
        <ele>957.61</ele>
        <time>2013-06-08T10:19:24Z</time>
      </trkpt>
      <trkpt lat="46.29562" lon="5.92357">
        <ele>959.53</ele>
        <time>2013-06-08T10:19:36Z</time>
      </trkpt>
      <trkpt lat="46.29558" lon="5.92353">
        <ele>958.57</ele>
        <time>2013-06-08T10:19:46Z</time>
      </trkpt>
      <trkpt lat="46.29557" lon="5.92344">
        <ele>958.09</ele>
        <time>2013-06-08T10:19:51Z</time>
      </trkpt>
      <trkpt lat="46.29545" lon="5.92319">
        <ele>956.65</ele>
        <time>2013-06-08T10:20:09Z</time>
      </trkpt>
      <trkpt lat="46.29532" lon="5.92301">
        <ele>957.61</ele>
        <time>2013-06-08T10:20:26Z</time>
      </trkpt>
      <trkpt lat="46.29525" lon="5.92285">
        <ele>964.34</ele>
        <time>2013-06-08T10:20:42Z</time>
      </trkpt>
      <trkpt lat="46.29513" lon="5.92267">
        <ele>969.63</ele>
        <time>2013-06-08T10:20:58Z</time>
      </trkpt>
      <trkpt lat="46.29497" lon="5.92261">
        <ele>974.43</ele>
        <time>2013-06-08T10:21:11Z</time>
      </trkpt>
      <trkpt lat="46.29496" lon="5.92263">
        <ele>976.36</ele>
        <time>2013-06-08T10:21:23Z</time>
      </trkpt>
      <trkpt lat="46.29497" lon="5.92264">
        <ele>976.36</ele>
        <time>2013-06-08T10:21:30Z</time>
      </trkpt>
      <trkpt lat="46.29507" lon="5.92281">
        <ele>977.8</ele>
        <time>2013-06-08T10:21:43Z</time>
      </trkpt>
      <trkpt lat="46.29519" lon="5.92291">
        <ele>978.76</ele>
        <time>2013-06-08T10:21:53Z</time>
      </trkpt>
      <trkpt lat="46.29526" lon="5.92299">
        <ele>978.28</ele>
        <time>2013-06-08T10:21:57Z</time>
      </trkpt>
      <trkpt lat="46.29529" lon="5.92303">
        <ele>978.76</ele>
        <time>2013-06-08T10:21:59Z</time>
      </trkpt>
      <trkpt lat="46.29532" lon="5.9231">
        <ele>979.24</ele>
        <time>2013-06-08T10:22:07Z</time>
      </trkpt>
      <trkpt lat="46.29537" lon="5.92324">
        <ele>977.32</ele>
        <time>2013-06-08T10:22:16Z</time>
      </trkpt>
      <trkpt lat="46.29542" lon="5.9233">
        <ele>975.88</ele>
        <time>2013-06-08T10:22:21Z</time>
      </trkpt>
      <trkpt lat="46.29549" lon="5.92341">
        <ele>973.47</ele>
        <time>2013-06-08T10:22:30Z</time>
      </trkpt>
      <trkpt lat="46.29553" lon="5.92347">
        <ele>972.03</ele>
        <time>2013-06-08T10:22:34Z</time>
      </trkpt>
      <trkpt lat="46.29555" lon="5.92345">
        <ele>970.59</ele>
        <time>2013-06-08T10:22:44Z</time>
      </trkpt>
      <trkpt lat="46.29548" lon="5.92339">
        <ele>969.15</ele>
        <time>2013-06-08T10:22:55Z</time>
      </trkpt>
      <trkpt lat="46.2954" lon="5.92333">
        <ele>969.63</ele>
        <time>2013-06-08T10:23:07Z</time>
      </trkpt>
      <trkpt lat="46.29537" lon="5.92326">
        <ele>971.55</ele>
        <time>2013-06-08T10:23:22Z</time>
      </trkpt>
      <trkpt lat="46.29526" lon="5.92314">
        <ele>971.55</ele>
        <time>2013-06-08T10:23:35Z</time>
      </trkpt>
      <trkpt lat="46.29525" lon="5.92308">
        <ele>971.55</ele>
        <time>2013-06-08T10:23:39Z</time>
      </trkpt>
      <trkpt lat="46.29521" lon="5.9229">
        <ele>972.51</ele>
        <time>2013-06-08T10:23:52Z</time>
      </trkpt>
      <trkpt lat="46.2952" lon="5.92283">
        <ele>973.95</ele>
        <time>2013-06-08T10:23:59Z</time>
      </trkpt>
      <trkpt lat="46.29514" lon="5.92265">
        <ele>975.39</ele>
        <time>2013-06-08T10:24:14Z</time>
      </trkpt>
      <trkpt lat="46.29503" lon="5.92252">
        <ele>976.84</ele>
        <time>2013-06-08T10:24:28Z</time>
      </trkpt>
      <trkpt lat="46.2949" lon="5.92226">
        <ele>980.68</ele>
        <time>2013-06-08T10:24:47Z</time>
      </trkpt>
      <trkpt lat="46.29475" lon="5.9223">
        <ele>989.81</ele>
        <time>2013-06-08T10:25:05Z</time>
      </trkpt>
      <trkpt lat="46.29467" lon="5.92222">
        <ele>991.26</ele>
        <time>2013-06-08T10:25:21Z</time>
      </trkpt>
      <trkpt lat="46.29463" lon="5.92226">
        <ele>996.06</ele>
        <time>2013-06-08T10:25:36Z</time>
      </trkpt>
      <trkpt lat="46.2946" lon="5.92225">
        <ele>996.54</ele>
        <time>2013-06-08T10:25:57Z</time>
      </trkpt>
      <trkpt lat="46.29445" lon="5.92217">
        <ele>995.58</ele>
        <time>2013-06-08T10:26:09Z</time>
      </trkpt>
      <trkpt lat="46.29433" lon="5.92203">
        <ele>996.06</ele>
        <time>2013-06-08T10:26:24Z</time>
      </trkpt>
      <trkpt lat="46.29414" lon="5.92187">
        <ele>997.02</ele>
        <time>2013-06-08T10:26:42Z</time>
      </trkpt>
      <trkpt lat="46.29388" lon="5.92169">
        <ele>1000.39</ele>
        <time>2013-06-08T10:27:00Z</time>
      </trkpt>
      <trkpt lat="46.29375" lon="5.92153">
        <ele>1002.79</ele>
        <time>2013-06-08T10:27:13Z</time>
      </trkpt>
      <trkpt lat="46.29356" lon="5.92129">
        <ele>1003.75</ele>
        <time>2013-06-08T10:27:32Z</time>
      </trkpt>
      <trkpt lat="46.29343" lon="5.92112">
        <ele>1005.2</ele>
        <time>2013-06-08T10:27:50Z</time>
      </trkpt>
      <trkpt lat="46.29328" lon="5.92092">
        <ele>1006.16</ele>
        <time>2013-06-08T10:28:07Z</time>
      </trkpt>
      <trkpt lat="46.29308" lon="5.92075">
        <ele>1009.52</ele>
        <time>2013-06-08T10:28:26Z</time>
      </trkpt>
      <trkpt lat="46.29279" lon="5.9205">
        <ele>1010.96</ele>
        <time>2013-06-08T10:28:48Z</time>
      </trkpt>
      <trkpt lat="46.29254" lon="5.9202">
        <ele>1010</ele>
        <time>2013-06-08T10:29:10Z</time>
      </trkpt>
      <trkpt lat="46.2924" lon="5.92004">
        <ele>1010.48</ele>
        <time>2013-06-08T10:29:28Z</time>
      </trkpt>
      <trkpt lat="46.29227" lon="5.91992">
        <ele>1011.93</ele>
        <time>2013-06-08T10:29:43Z</time>
      </trkpt>
      <trkpt lat="46.29224" lon="5.91993">
        <ele>1014.33</ele>
        <time>2013-06-08T10:29:46Z</time>
      </trkpt>
      <trkpt lat="46.29231" lon="5.91999">
        <ele>1016.73</ele>
        <time>2013-06-08T10:30:00Z</time>
      </trkpt>
      <trkpt lat="46.29239" lon="5.92012">
        <ele>1022.5</ele>
        <time>2013-06-08T10:30:14Z</time>
      </trkpt>
      <trkpt lat="46.2925" lon="5.92021">
        <ele>1024.42</ele>
        <time>2013-06-08T10:30:25Z</time>
      </trkpt>
      <trkpt lat="46.29264" lon="5.92029">
        <ele>1025.38</ele>
        <time>2013-06-08T10:30:37Z</time>
      </trkpt>
      <trkpt lat="46.2928" lon="5.92032">
        <ele>1028.27</ele>
        <time>2013-06-08T10:30:48Z</time>
      </trkpt>
      <trkpt lat="46.29297" lon="5.92035">
        <ele>1027.31</ele>
        <time>2013-06-08T10:31:02Z</time>
      </trkpt>
      <trkpt lat="46.29299" lon="5.92039">
        <ele>1027.31</ele>
        <time>2013-06-08T10:31:05Z</time>
      </trkpt>
      <trkpt lat="46.29319" lon="5.92052">
        <ele>1027.79</ele>
        <time>2013-06-08T10:31:20Z</time>
      </trkpt>
      <trkpt lat="46.29323" lon="5.92054">
        <ele>1027.79</ele>
        <time>2013-06-08T10:31:24Z</time>
      </trkpt>
      <trkpt lat="46.29339" lon="5.92058">
        <ele>1031.63</ele>
        <time>2013-06-08T10:31:38Z</time>
      </trkpt>
      <trkpt lat="46.29358" lon="5.92063">
        <ele>1036.92</ele>
        <time>2013-06-08T10:31:50Z</time>
      </trkpt>
      <trkpt lat="46.2937" lon="5.9207">
        <ele>1039.8</ele>
        <time>2013-06-08T10:32:05Z</time>
      </trkpt>
      <trkpt lat="46.29379" lon="5.92078">
        <ele>1043.17</ele>
        <time>2013-06-08T10:32:17Z</time>
      </trkpt>
      <trkpt lat="46.29392" lon="5.92083">
        <ele>1045.09</ele>
        <time>2013-06-08T10:32:29Z</time>
      </trkpt>
      <trkpt lat="46.29402" lon="5.92084">
        <ele>1046.53</ele>
        <time>2013-06-08T10:32:45Z</time>
      </trkpt>
      <trkpt lat="46.29418" lon="5.92086">
        <ele>1048.45</ele>
        <time>2013-06-08T10:33:00Z</time>
      </trkpt>
      <trkpt lat="46.29432" lon="5.92082">
        <ele>1049.9</ele>
        <time>2013-06-08T10:33:13Z</time>
      </trkpt>
      <trkpt lat="46.29443" lon="5.92079">
        <ele>1053.74</ele>
        <time>2013-06-08T10:33:28Z</time>
      </trkpt>
      <trkpt lat="46.29454" lon="5.92082">
        <ele>1059.03</ele>
        <time>2013-06-08T10:33:41Z</time>
      </trkpt>
      <trkpt lat="46.29469" lon="5.92087">
        <ele>1066.72</ele>
        <time>2013-06-08T10:33:55Z</time>
      </trkpt>
      <trkpt lat="46.29479" lon="5.92084">
        <ele>1069.6</ele>
        <time>2013-06-08T10:34:09Z</time>
      </trkpt>
      <trkpt lat="46.29482" lon="5.92079">
        <ele>1070.57</ele>
        <time>2013-06-08T10:34:32Z</time>
      </trkpt>
      <trkpt lat="46.29491" lon="5.92067">
        <ele>1068.64</ele>
        <time>2013-06-08T10:34:48Z</time>
      </trkpt>
      <trkpt lat="46.29492" lon="5.92068">
        <ele>1067.68</ele>
        <time>2013-06-08T10:34:51Z</time>
      </trkpt>
      <trkpt lat="46.29497" lon="5.92073">
        <ele>1066.24</ele>
        <time>2013-06-08T10:34:57Z</time>
      </trkpt>
      <trkpt lat="46.29502" lon="5.92086">
        <ele>1062.39</ele>
        <time>2013-06-08T10:35:11Z</time>
      </trkpt>
      <trkpt lat="46.29514" lon="5.92091">
        <ele>1061.91</ele>
        <time>2013-06-08T10:35:23Z</time>
      </trkpt>
      <trkpt lat="46.29522" lon="5.92094">
        <ele>1061.91</ele>
        <time>2013-06-08T10:35:37Z</time>
      </trkpt>
      <trkpt lat="46.29526" lon="5.92102">
        <ele>1061.91</ele>
        <time>2013-06-08T10:35:51Z</time>
      </trkpt>
      <trkpt lat="46.2954" lon="5.92102">
        <ele>1062.39</ele>
        <time>2013-06-08T10:36:01Z</time>
      </trkpt>
      <trkpt lat="46.29555" lon="5.921">
        <ele>1062.87</ele>
        <time>2013-06-08T10:36:13Z</time>
      </trkpt>
      <trkpt lat="46.29567" lon="5.92097">
        <ele>1065.28</ele>
        <time>2013-06-08T10:36:27Z</time>
      </trkpt>
      <trkpt lat="46.29583" lon="5.92091">
        <ele>1069.12</ele>
        <time>2013-06-08T10:36:43Z</time>
      </trkpt>
      <trkpt lat="46.29588" lon="5.92081">
        <ele>1071.05</ele>
        <time>2013-06-08T10:37:01Z</time>
      </trkpt>
      <trkpt lat="46.29591" lon="5.92075">
        <ele>1074.89</ele>
        <time>2013-06-08T10:37:12Z</time>
      </trkpt>
      <trkpt lat="46.29594" lon="5.92067">
        <ele>1079.22</ele>
        <time>2013-06-08T10:37:24Z</time>
      </trkpt>
      <trkpt lat="46.29595" lon="5.92054">
        <ele>1084.02</ele>
        <time>2013-06-08T10:37:42Z</time>
      </trkpt>
      <trkpt lat="46.29591" lon="5.92038">
        <ele>1088.83</ele>
        <time>2013-06-08T10:37:59Z</time>
      </trkpt>
      <trkpt lat="46.29582" lon="5.92024">
        <ele>1096.04</ele>
        <time>2013-06-08T10:38:16Z</time>
      </trkpt>
      <trkpt lat="46.29572" lon="5.92017">
        <ele>1099.4</ele>
        <time>2013-06-08T10:38:32Z</time>
      </trkpt>
      <trkpt lat="46.29574" lon="5.92014">
        <ele>1099.4</ele>
        <time>2013-06-08T10:38:43Z</time>
      </trkpt>
      <trkpt lat="46.29579" lon="5.9201">
        <ele>1099.4</ele>
        <time>2013-06-08T10:38:53Z</time>
      </trkpt>
      <trkpt lat="46.29578" lon="5.92003">
        <ele>1100.37</ele>
        <time>2013-06-08T10:39:19Z</time>
      </trkpt>
      <trkpt lat="46.29568" lon="5.91982">
        <ele>1103.25</ele>
        <time>2013-06-08T10:39:34Z</time>
      </trkpt>
      <trkpt lat="46.29567" lon="5.91968">
        <ele>1104.21</ele>
        <time>2013-06-08T10:39:49Z</time>
      </trkpt>
      <trkpt lat="46.29573" lon="5.91964">
        <ele>1105.65</ele>
        <time>2013-06-08T10:40:04Z</time>
      </trkpt>
      <trkpt lat="46.29579" lon="5.91952">
        <ele>1107.1</ele>
        <time>2013-06-08T10:40:18Z</time>
      </trkpt>
      <trkpt lat="46.29576" lon="5.91932">
        <ele>1109.02</ele>
        <time>2013-06-08T10:40:35Z</time>
      </trkpt>
      <trkpt lat="46.29579" lon="5.9193">
        <ele>1113.34</ele>
        <time>2013-06-08T10:40:50Z</time>
      </trkpt>
      <trkpt lat="46.29591" lon="5.91923">
        <ele>1119.11</ele>
        <time>2013-06-08T10:41:05Z</time>
      </trkpt>
      <trkpt lat="46.29603" lon="5.91928">
        <ele>1120.55</ele>
        <time>2013-06-08T10:41:20Z</time>
      </trkpt>
      <trkpt lat="46.29616" lon="5.91934">
        <ele>1122.96</ele>
        <time>2013-06-08T10:41:36Z</time>
      </trkpt>
      <trkpt lat="46.29631" lon="5.91944">
        <ele>1128.73</ele>
        <time>2013-06-08T10:41:57Z</time>
      </trkpt>
      <trkpt lat="46.29649" lon="5.91948">
        <ele>1133.05</ele>
        <time>2013-06-08T10:42:14Z</time>
      </trkpt>
      <trkpt lat="46.29672" lon="5.91959">
        <ele>1138.82</ele>
        <time>2013-06-08T10:42:31Z</time>
      </trkpt>
      <trkpt lat="46.29694" lon="5.91971">
        <ele>1145.55</ele>
        <time>2013-06-08T10:42:51Z</time>
      </trkpt>
      <trkpt lat="46.2971" lon="5.91983">
        <ele>1149.87</ele>
        <time>2013-06-08T10:43:08Z</time>
      </trkpt>
      <trkpt lat="46.29718" lon="5.91989">
        <ele>1151.8</ele>
        <time>2013-06-08T10:43:16Z</time>
      </trkpt>
      <trkpt lat="46.2974" lon="5.9199">
        <ele>1152.76</ele>
        <time>2013-06-08T10:43:30Z</time>
      </trkpt>
      <trkpt lat="46.29745" lon="5.91993">
        <ele>1153.24</ele>
        <time>2013-06-08T10:43:39Z</time>
      </trkpt>
      <trkpt lat="46.29759" lon="5.9201">
        <ele>1156.12</ele>
        <time>2013-06-08T10:43:52Z</time>
      </trkpt>
      <trkpt lat="46.29769" lon="5.92017">
        <ele>1152.76</ele>
        <time>2013-06-08T10:44:05Z</time>
      </trkpt>
      <trkpt lat="46.29778" lon="5.92018">
        <ele>1152.76</ele>
        <time>2013-06-08T10:44:29Z</time>
      </trkpt>
      <trkpt lat="46.29801" lon="5.92022">
        <ele>1151.8</ele>
        <time>2013-06-08T10:44:46Z</time>
      </trkpt>
      <trkpt lat="46.2982" lon="5.9203">
        <ele>1150.84</ele>
        <time>2013-06-08T10:45:00Z</time>
      </trkpt>
      <trkpt lat="46.29827" lon="5.92033">
        <ele>1150.84</ele>
        <time>2013-06-08T10:45:05Z</time>
      </trkpt>
      <trkpt lat="46.29843" lon="5.92041">
        <ele>1148.43</ele>
        <time>2013-06-08T10:45:19Z</time>
      </trkpt>
      <trkpt lat="46.29862" lon="5.92051">
        <ele>1144.59</ele>
        <time>2013-06-08T10:45:36Z</time>
      </trkpt>
      <trkpt lat="46.2989" lon="5.92056">
        <ele>1141.7</ele>
        <time>2013-06-08T10:45:55Z</time>
      </trkpt>
      <trkpt lat="46.29905" lon="5.92055">
        <ele>1143.14</ele>
        <time>2013-06-08T10:46:10Z</time>
      </trkpt>
      <trkpt lat="46.29926" lon="5.92058">
        <ele>1148.91</ele>
        <time>2013-06-08T10:46:26Z</time>
      </trkpt>
      <trkpt lat="46.29939" lon="5.92057">
        <ele>1158.05</ele>
        <time>2013-06-08T10:46:44Z</time>
      </trkpt>
      <trkpt lat="46.29948" lon="5.92057">
        <ele>1158.53</ele>
        <time>2013-06-08T10:47:00Z</time>
      </trkpt>
      <trkpt lat="46.29957" lon="5.92053">
        <ele>1158.53</ele>
        <time>2013-06-08T10:47:21Z</time>
      </trkpt>
      <trkpt lat="46.29968" lon="5.92047">
        <ele>1162.37</ele>
        <time>2013-06-08T10:47:40Z</time>
      </trkpt>
      <trkpt lat="46.29974" lon="5.92047">
        <ele>1165.26</ele>
        <time>2013-06-08T10:47:52Z</time>
      </trkpt>
      <trkpt lat="46.29987" lon="5.92044">
        <ele>1170.06</ele>
        <time>2013-06-08T10:48:06Z</time>
      </trkpt>
      <trkpt lat="46.29998" lon="5.92042">
        <ele>1175.35</ele>
        <time>2013-06-08T10:48:22Z</time>
      </trkpt>
      <trkpt lat="46.30012" lon="5.92045">
        <ele>1180.64</ele>
        <time>2013-06-08T10:48:42Z</time>
      </trkpt>
      <trkpt lat="46.30028" lon="5.92051">
        <ele>1184.48</ele>
        <time>2013-06-08T10:48:56Z</time>
      </trkpt>
      <trkpt lat="46.30044" lon="5.92055">
        <ele>1188.33</ele>
        <time>2013-06-08T10:49:12Z</time>
      </trkpt>
      <trkpt lat="46.30054" lon="5.92055">
        <ele>1190.25</ele>
        <time>2013-06-08T10:49:26Z</time>
      </trkpt>
      <trkpt lat="46.30054" lon="5.92063">
        <ele>1196.02</ele>
        <time>2013-06-08T10:49:38Z</time>
      </trkpt>
      <trkpt lat="46.30053" lon="5.92067">
        <ele>1196.5</ele>
        <time>2013-06-08T10:49:53Z</time>
      </trkpt>
      <trkpt lat="46.30037" lon="5.92076">
        <ele>1199.86</ele>
        <time>2013-06-08T10:50:13Z</time>
      </trkpt>
      <trkpt lat="46.30027" lon="5.9208">
        <ele>1199.38</ele>
        <time>2013-06-08T10:50:28Z</time>
      </trkpt>
      <trkpt lat="46.30028" lon="5.92082">
        <ele>1196.5</ele>
        <time>2013-06-08T10:50:44Z</time>
      </trkpt>
      <trkpt lat="46.30027" lon="5.92081">
        <ele>1195.06</ele>
        <time>2013-06-08T10:51:13Z</time>
      </trkpt>
      <trkpt lat="46.30028" lon="5.92081">
        <ele>1195.06</ele>
        <time>2013-06-08T10:51:46Z</time>
      </trkpt>
      <trkpt lat="46.30028" lon="5.92083">
        <ele>1196.02</ele>
        <time>2013-06-08T10:52:16Z</time>
      </trkpt>
      <trkpt lat="46.3003" lon="5.92082">
        <ele>1195.54</ele>
        <time>2013-06-08T10:52:45Z</time>
      </trkpt>
      <trkpt lat="46.30028" lon="5.92082">
        <ele>1195.54</ele>
        <time>2013-06-08T10:53:23Z</time>
      </trkpt>
      <trkpt lat="46.30028" lon="5.92083">
        <ele>1195.54</ele>
        <time>2013-06-08T10:53:57Z</time>
      </trkpt>
      <trkpt lat="46.30028" lon="5.92082">
        <ele>1196.02</ele>
        <time>2013-06-08T10:54:35Z</time>
      </trkpt>
      <trkpt lat="46.30028" lon="5.92082">
        <ele>1196.5</ele>
        <time>2013-06-08T10:55:14Z</time>
      </trkpt>
      <trkpt lat="46.30028" lon="5.92082">
        <ele>1196.02</ele>
        <time>2013-06-08T10:55:48Z</time>
      </trkpt>
      <trkpt lat="46.30029" lon="5.92082">
        <ele>1196.02</ele>
        <time>2013-06-08T10:56:22Z</time>
      </trkpt>
      <trkpt lat="46.30031" lon="5.92081">
        <ele>1196.5</ele>
        <time>2013-06-08T10:56:51Z</time>
      </trkpt>
      <trkpt lat="46.30032" lon="5.92081">
        <ele>1196.5</ele>
        <time>2013-06-08T10:57:17Z</time>
      </trkpt>
      <trkpt lat="46.30031" lon="5.9208">
        <ele>1196.5</ele>
        <time>2013-06-08T10:57:42Z</time>
      </trkpt>
      <trkpt lat="46.30028" lon="5.92082">
        <ele>1194.58</ele>
        <time>2013-06-08T10:58:00Z</time>
      </trkpt>
      <trkpt lat="46.30029" lon="5.92081">
        <ele>1194.58</ele>
        <time>2013-06-08T10:58:18Z</time>
      </trkpt>
      <trkpt lat="46.30027" lon="5.9208">
        <ele>1194.58</ele>
        <time>2013-06-08T10:58:35Z</time>
      </trkpt>
      <trkpt lat="46.30028" lon="5.9208">
        <ele>1194.09</ele>
        <time>2013-06-08T10:58:58Z</time>
      </trkpt>
      <trkpt lat="46.30031" lon="5.92082">
        <ele>1193.13</ele>
        <time>2013-06-08T10:59:06Z</time>
      </trkpt>
      <trkpt lat="46.30041" lon="5.92084">
        <ele>1192.65</ele>
        <time>2013-06-08T10:59:14Z</time>
      </trkpt>
      <trkpt lat="46.30043" lon="5.92084">
        <ele>1192.65</ele>
        <time>2013-06-08T10:59:16Z</time>
      </trkpt>
      <trkpt lat="46.30051" lon="5.92078">
        <ele>1192.65</ele>
        <time>2013-06-08T10:59:27Z</time>
      </trkpt>
      <trkpt lat="46.30058" lon="5.92078">
        <ele>1191.69</ele>
        <time>2013-06-08T10:59:36Z</time>
      </trkpt>
      <trkpt lat="46.30061" lon="5.92077">
        <ele>1191.69</ele>
        <time>2013-06-08T10:59:52Z</time>
      </trkpt>
      <trkpt lat="46.30062" lon="5.92077">
        <ele>1191.69</ele>
        <time>2013-06-08T11:00:23Z</time>
      </trkpt>
      <trkpt lat="46.30062" lon="5.92071">
        <ele>1190.73</ele>
        <time>2013-06-08T11:00:39Z</time>
      </trkpt>
      <trkpt lat="46.30071" lon="5.92064">
        <ele>1191.21</ele>
        <time>2013-06-08T11:00:51Z</time>
      </trkpt>
      <trkpt lat="46.30075" lon="5.92063">
        <ele>1190.25</ele>
        <time>2013-06-08T11:01:11Z</time>
      </trkpt>
      <trkpt lat="46.30077" lon="5.92058">
        <ele>1192.65</ele>
        <time>2013-06-08T11:01:33Z</time>
      </trkpt>
      <trkpt lat="46.30081" lon="5.92051">
        <ele>1191.69</ele>
        <time>2013-06-08T11:01:49Z</time>
      </trkpt>
      <trkpt lat="46.301" lon="5.92063">
        <ele>1190.73</ele>
        <time>2013-06-08T11:02:02Z</time>
      </trkpt>
      <trkpt lat="46.30115" lon="5.92074">
        <ele>1191.69</ele>
        <time>2013-06-08T11:02:18Z</time>
      </trkpt>
      <trkpt lat="46.30127" lon="5.92086">
        <ele>1194.09</ele>
        <time>2013-06-08T11:02:30Z</time>
      </trkpt>
      <trkpt lat="46.30137" lon="5.92095">
        <ele>1196.02</ele>
        <time>2013-06-08T11:02:43Z</time>
      </trkpt>
      <trkpt lat="46.30153" lon="5.92114">
        <ele>1196.5</ele>
        <time>2013-06-08T11:02:57Z</time>
      </trkpt>
      <trkpt lat="46.30162" lon="5.92127">
        <ele>1195.54</ele>
        <time>2013-06-08T11:03:08Z</time>
      </trkpt>
      <trkpt lat="46.30172" lon="5.92136">
        <ele>1195.06</ele>
        <time>2013-06-08T11:03:21Z</time>
      </trkpt>
      <trkpt lat="46.30183" lon="5.92145">
        <ele>1195.06</ele>
        <time>2013-06-08T11:03:34Z</time>
      </trkpt>
      <trkpt lat="46.3019" lon="5.92153">
        <ele>1195.06</ele>
        <time>2013-06-08T11:03:48Z</time>
      </trkpt>
      <trkpt lat="46.30194" lon="5.92163">
        <ele>1196.5</ele>
        <time>2013-06-08T11:03:59Z</time>
      </trkpt>
      <trkpt lat="46.30203" lon="5.92177">
        <ele>1196.02</ele>
        <time>2013-06-08T11:04:12Z</time>
      </trkpt>
      <trkpt lat="46.30219" lon="5.92193">
        <ele>1191.69</ele>
        <time>2013-06-08T11:04:25Z</time>
      </trkpt>
      <trkpt lat="46.30236" lon="5.9221">
        <ele>1187.85</ele>
        <time>2013-06-08T11:04:39Z</time>
      </trkpt>
      <trkpt lat="46.30239" lon="5.92212">
        <ele>1187.37</ele>
        <time>2013-06-08T11:04:41Z</time>
      </trkpt>
      <trkpt lat="46.30254" lon="5.9222">
        <ele>1185.92</ele>
        <time>2013-06-08T11:04:56Z</time>
      </trkpt>
      <trkpt lat="46.30258" lon="5.92229">
        <ele>1185.44</ele>
        <time>2013-06-08T11:05:01Z</time>
      </trkpt>
      <trkpt lat="46.30268" lon="5.92243">
        <ele>1185.92</ele>
        <time>2013-06-08T11:05:14Z</time>
      </trkpt>
      <trkpt lat="46.30273" lon="5.92251">
        <ele>1184.96</ele>
        <time>2013-06-08T11:05:23Z</time>
      </trkpt>
      <trkpt lat="46.30296" lon="5.92266">
        <ele>1181.12</ele>
        <time>2013-06-08T11:05:38Z</time>
      </trkpt>
      <trkpt lat="46.30316" lon="5.92262">
        <ele>1176.31</ele>
        <time>2013-06-08T11:05:55Z</time>
      </trkpt>
      <trkpt lat="46.30334" lon="5.92256">
        <ele>1177.27</ele>
        <time>2013-06-08T11:06:11Z</time>
      </trkpt>
      <trkpt lat="46.30348" lon="5.9226">
        <ele>1176.79</ele>
        <time>2013-06-08T11:06:26Z</time>
      </trkpt>
      <trkpt lat="46.30369" lon="5.92255">
        <ele>1173.91</ele>
        <time>2013-06-08T11:06:41Z</time>
      </trkpt>
      <trkpt lat="46.30388" lon="5.92251">
        <ele>1169.1</ele>
        <time>2013-06-08T11:06:54Z</time>
      </trkpt>
      <trkpt lat="46.30397" lon="5.9226">
        <ele>1167.66</ele>
        <time>2013-06-08T11:07:02Z</time>
      </trkpt>
      <trkpt lat="46.30406" lon="5.9227">
        <ele>1166.7</ele>
        <time>2013-06-08T11:07:19Z</time>
      </trkpt>
      <trkpt lat="46.3041" lon="5.92275">
        <ele>1167.18</ele>
        <time>2013-06-08T11:07:44Z</time>
      </trkpt>
      <trkpt lat="46.30411" lon="5.92276">
        <ele>1166.7</ele>
        <time>2013-06-08T11:08:02Z</time>
      </trkpt>
      <trkpt lat="46.30421" lon="5.92282">
        <ele>1166.22</ele>
        <time>2013-06-08T11:08:10Z</time>
      </trkpt>
      <trkpt lat="46.30428" lon="5.92295">
        <ele>1164.77</ele>
        <time>2013-06-08T11:08:17Z</time>
      </trkpt>
      <trkpt lat="46.3043" lon="5.9231">
        <ele>1162.85</ele>
        <time>2013-06-08T11:08:24Z</time>
      </trkpt>
      <trkpt lat="46.30429" lon="5.92316">
        <ele>1161.89</ele>
        <time>2013-06-08T11:08:27Z</time>
      </trkpt>
      <trkpt lat="46.30429" lon="5.92341">
        <ele>1156.6</ele>
        <time>2013-06-08T11:08:42Z</time>
      </trkpt>
      <trkpt lat="46.30431" lon="5.92344">
        <ele>1156.6</ele>
        <time>2013-06-08T11:08:43Z</time>
      </trkpt>
      <trkpt lat="46.30441" lon="5.92379">
        <ele>1156.12</ele>
        <time>2013-06-08T11:08:59Z</time>
      </trkpt>
      <trkpt lat="46.3045" lon="5.92402">
        <ele>1155.64</ele>
        <time>2013-06-08T11:09:14Z</time>
      </trkpt>
      <trkpt lat="46.30468" lon="5.92407">
        <ele>1152.76</ele>
        <time>2013-06-08T11:09:25Z</time>
      </trkpt>
      <trkpt lat="46.30474" lon="5.92412">
        <ele>1153.24</ele>
        <time>2013-06-08T11:09:30Z</time>
      </trkpt>
      <trkpt lat="46.30494" lon="5.9243">
        <ele>1156.12</ele>
        <time>2013-06-08T11:09:43Z</time>
      </trkpt>
      <trkpt lat="46.30508" lon="5.92434">
        <ele>1156.6</ele>
        <time>2013-06-08T11:09:59Z</time>
      </trkpt>
      <trkpt lat="46.30523" lon="5.92426">
        <ele>1156.6</ele>
        <time>2013-06-08T11:10:16Z</time>
      </trkpt>
      <trkpt lat="46.30534" lon="5.92406">
        <ele>1157.08</ele>
        <time>2013-06-08T11:10:30Z</time>
      </trkpt>
      <trkpt lat="46.30544" lon="5.92407">
        <ele>1155.16</ele>
        <time>2013-06-08T11:10:47Z</time>
      </trkpt>
      <trkpt lat="46.30556" lon="5.92402">
        <ele>1152.76</ele>
        <time>2013-06-08T11:11:02Z</time>
      </trkpt>
      <trkpt lat="46.30572" lon="5.92379">
        <ele>1151.8</ele>
        <time>2013-06-08T11:11:19Z</time>
      </trkpt>
      <trkpt lat="46.30581" lon="5.92367">
        <ele>1153.24</ele>
        <time>2013-06-08T11:11:32Z</time>
      </trkpt>
      <trkpt lat="46.30578" lon="5.92346">
        <ele>1159.97</ele>
        <time>2013-06-08T11:11:46Z</time>
      </trkpt>
      <trkpt lat="46.30569" lon="5.92314">
        <ele>1162.37</ele>
        <time>2013-06-08T11:12:07Z</time>
      </trkpt>
      <trkpt lat="46.30559" lon="5.92285">
        <ele>1166.7</ele>
        <time>2013-06-08T11:12:27Z</time>
      </trkpt>
      <trkpt lat="46.30558" lon="5.92269">
        <ele>1171.02</ele>
        <time>2013-06-08T11:12:40Z</time>
      </trkpt>
      <trkpt lat="46.30557" lon="5.9227">
        <ele>1170.06</ele>
        <time>2013-06-08T11:12:43Z</time>
      </trkpt>
      <trkpt lat="46.3056" lon="5.92273">
        <ele>1164.29</ele>
        <time>2013-06-08T11:12:57Z</time>
      </trkpt>
      <trkpt lat="46.30566" lon="5.92273">
        <ele>1165.74</ele>
        <time>2013-06-08T11:13:05Z</time>
      </trkpt>
      <trkpt lat="46.30577" lon="5.92267">
        <ele>1169.58</ele>
        <time>2013-06-08T11:13:19Z</time>
      </trkpt>
      <trkpt lat="46.30586" lon="5.92271">
        <ele>1172.95</ele>
        <time>2013-06-08T11:13:34Z</time>
      </trkpt>
      <trkpt lat="46.30601" lon="5.92265">
        <ele>1174.87</ele>
        <time>2013-06-08T11:13:49Z</time>
      </trkpt>
      <trkpt lat="46.30618" lon="5.92266">
        <ele>1182.08</ele>
        <time>2013-06-08T11:14:06Z</time>
      </trkpt>
      <trkpt lat="46.30631" lon="5.92269">
        <ele>1187.85</ele>
        <time>2013-06-08T11:14:21Z</time>
      </trkpt>
      <trkpt lat="46.30642" lon="5.92272">
        <ele>1193.61</ele>
        <time>2013-06-08T11:14:35Z</time>
      </trkpt>
      <trkpt lat="46.30657" lon="5.9228">
        <ele>1198.42</ele>
        <time>2013-06-08T11:14:50Z</time>
      </trkpt>
      <trkpt lat="46.30672" lon="5.92286">
        <ele>1201.79</ele>
        <time>2013-06-08T11:15:07Z</time>
      </trkpt>
      <trkpt lat="46.30687" lon="5.92286">
        <ele>1206.59</ele>
        <time>2013-06-08T11:15:19Z</time>
      </trkpt>
      <trkpt lat="46.307" lon="5.92296">
        <ele>1212.84</ele>
        <time>2013-06-08T11:15:32Z</time>
      </trkpt>
      <trkpt lat="46.30714" lon="5.92302">
        <ele>1220.53</ele>
        <time>2013-06-08T11:15:46Z</time>
      </trkpt>
      <trkpt lat="46.30725" lon="5.92307">
        <ele>1223.9</ele>
        <time>2013-06-08T11:15:56Z</time>
      </trkpt>
      <trkpt lat="46.30737" lon="5.92311">
        <ele>1225.82</ele>
        <time>2013-06-08T11:16:07Z</time>
      </trkpt>
      <trkpt lat="46.30747" lon="5.92298">
        <ele>1224.86</ele>
        <time>2013-06-08T11:16:22Z</time>
      </trkpt>
      <trkpt lat="46.30747" lon="5.92286">
        <ele>1225.82</ele>
        <time>2013-06-08T11:16:36Z</time>
      </trkpt>
      <trkpt lat="46.30752" lon="5.92281">
        <ele>1222.93</ele>
        <time>2013-06-08T11:16:53Z</time>
      </trkpt>
      <trkpt lat="46.3076" lon="5.92269">
        <ele>1219.09</ele>
        <time>2013-06-08T11:17:05Z</time>
      </trkpt>
      <trkpt lat="46.30767" lon="5.92258">
        <ele>1217.65</ele>
        <time>2013-06-08T11:17:18Z</time>
      </trkpt>
      <trkpt lat="46.30773" lon="5.92252">
        <ele>1215.24</ele>
        <time>2013-06-08T11:17:29Z</time>
      </trkpt>
      <trkpt lat="46.30779" lon="5.92227">
        <ele>1210.44</ele>
        <time>2013-06-08T11:17:47Z</time>
      </trkpt>
      <trkpt lat="46.30772" lon="5.92205">
        <ele>1210.92</ele>
        <time>2013-06-08T11:18:01Z</time>
      </trkpt>
      <trkpt lat="46.30755" lon="5.92192">
        <ele>1212.84</ele>
        <time>2013-06-08T11:18:19Z</time>
      </trkpt>
      <trkpt lat="46.30743" lon="5.9218">
        <ele>1219.57</ele>
        <time>2013-06-08T11:18:36Z</time>
      </trkpt>
      <trkpt lat="46.30729" lon="5.92167">
        <ele>1221.01</ele>
        <time>2013-06-08T11:18:50Z</time>
      </trkpt>
      <trkpt lat="46.30714" lon="5.92153">
        <ele>1226.78</ele>
        <time>2013-06-08T11:19:09Z</time>
      </trkpt>
      <trkpt lat="46.30709" lon="5.92136">
        <ele>1231.11</ele>
        <time>2013-06-08T11:19:25Z</time>
      </trkpt>
      <trkpt lat="46.30695" lon="5.92126">
        <ele>1231.59</ele>
        <time>2013-06-08T11:19:39Z</time>
      </trkpt>
      <trkpt lat="46.30691" lon="5.92126">
        <ele>1230.62</ele>
        <time>2013-06-08T11:19:51Z</time>
      </trkpt>
      <trkpt lat="46.3068" lon="5.92117">
        <ele>1234.47</ele>
        <time>2013-06-08T11:20:03Z</time>
      </trkpt>
      <trkpt lat="46.30673" lon="5.92113">
        <ele>1236.39</ele>
        <time>2013-06-08T11:20:08Z</time>
      </trkpt>
      <trkpt lat="46.30662" lon="5.92105">
        <ele>1238.32</ele>
        <time>2013-06-08T11:20:20Z</time>
      </trkpt>
      <trkpt lat="46.30654" lon="5.92094">
        <ele>1239.28</ele>
        <time>2013-06-08T11:20:34Z</time>
      </trkpt>
      <trkpt lat="46.30654" lon="5.92091">
        <ele>1239.28</ele>
        <time>2013-06-08T11:20:36Z</time>
      </trkpt>
      <trkpt lat="46.30652" lon="5.92066">
        <ele>1244.08</ele>
        <time>2013-06-08T11:20:55Z</time>
      </trkpt>
      <trkpt lat="46.3065" lon="5.92057">
        <ele>1246.49</ele>
        <time>2013-06-08T11:21:04Z</time>
      </trkpt>
      <trkpt lat="46.30646" lon="5.92053">
        <ele>1249.37</ele>
        <time>2013-06-08T11:21:18Z</time>
      </trkpt>
      <trkpt lat="46.30633" lon="5.92046">
        <ele>1251.77</ele>
        <time>2013-06-08T11:21:29Z</time>
      </trkpt>
      <trkpt lat="46.30619" lon="5.92034">
        <ele>1256.58</ele>
        <time>2013-06-08T11:21:44Z</time>
      </trkpt>
      <trkpt lat="46.30608" lon="5.92019">
        <ele>1263.79</ele>
        <time>2013-06-08T11:22:00Z</time>
      </trkpt>
      <trkpt lat="46.30594" lon="5.92002">
        <ele>1269.08</ele>
        <time>2013-06-08T11:22:15Z</time>
      </trkpt>
      <trkpt lat="46.30584" lon="5.91984">
        <ele>1271</ele>
        <time>2013-06-08T11:22:32Z</time>
      </trkpt>
      <trkpt lat="46.30575" lon="5.91966">
        <ele>1273.4</ele>
        <time>2013-06-08T11:22:47Z</time>
      </trkpt>
      <trkpt lat="46.30571" lon="5.91949">
        <ele>1272.92</ele>
        <time>2013-06-08T11:23:02Z</time>
      </trkpt>
      <trkpt lat="46.30559" lon="5.91932">
        <ele>1273.88</ele>
        <time>2013-06-08T11:23:18Z</time>
      </trkpt>
      <trkpt lat="46.3054" lon="5.91916">
        <ele>1273.4</ele>
        <time>2013-06-08T11:23:33Z</time>
      </trkpt>
      <trkpt lat="46.30535" lon="5.91894">
        <ele>1275.81</ele>
        <time>2013-06-08T11:23:49Z</time>
      </trkpt>
      <trkpt lat="46.30536" lon="5.91889">
        <ele>1276.29</ele>
        <time>2013-06-08T11:23:52Z</time>
      </trkpt>
      <trkpt lat="46.30533" lon="5.91869">
        <ele>1278.21</ele>
        <time>2013-06-08T11:24:09Z</time>
      </trkpt>
      <trkpt lat="46.30529" lon="5.91855">
        <ele>1276.77</ele>
        <time>2013-06-08T11:24:17Z</time>
      </trkpt>
      <trkpt lat="46.3053" lon="5.91832">
        <ele>1280.13</ele>
        <time>2013-06-08T11:24:34Z</time>
      </trkpt>
      <trkpt lat="46.30532" lon="5.91807">
        <ele>1282.06</ele>
        <time>2013-06-08T11:24:50Z</time>
      </trkpt>
      <trkpt lat="46.30533" lon="5.91779">
        <ele>1283.02</ele>
        <time>2013-06-08T11:25:06Z</time>
      </trkpt>
      <trkpt lat="46.30529" lon="5.91748">
        <ele>1284.46</ele>
        <time>2013-06-08T11:25:23Z</time>
      </trkpt>
      <trkpt lat="46.30527" lon="5.91717">
        <ele>1283.98</ele>
        <time>2013-06-08T11:25:38Z</time>
      </trkpt>
      <trkpt lat="46.30527" lon="5.91702">
        <ele>1285.42</ele>
        <time>2013-06-08T11:25:54Z</time>
      </trkpt>
      <trkpt lat="46.30527" lon="5.91701">
        <ele>1285.42</ele>
        <time>2013-06-08T11:25:55Z</time>
      </trkpt>
      <trkpt lat="46.30533" lon="5.91682">
        <ele>1283.5</ele>
        <time>2013-06-08T11:26:07Z</time>
      </trkpt>
      <trkpt lat="46.30538" lon="5.91675">
        <ele>1280.61</ele>
        <time>2013-06-08T11:26:16Z</time>
      </trkpt>
      <trkpt lat="46.30539" lon="5.91672">
        <ele>1279.65</ele>
        <time>2013-06-08T11:26:19Z</time>
      </trkpt>
      <trkpt lat="46.30547" lon="5.91643">
        <ele>1278.69</ele>
        <time>2013-06-08T11:26:34Z</time>
      </trkpt>
      <trkpt lat="46.30552" lon="5.91625">
        <ele>1279.65</ele>
        <time>2013-06-08T11:26:43Z</time>
      </trkpt>
      <trkpt lat="46.30557" lon="5.91612">
        <ele>1280.13</ele>
        <time>2013-06-08T11:26:52Z</time>
      </trkpt>
      <trkpt lat="46.30562" lon="5.91602">
        <ele>1280.61</ele>
        <time>2013-06-08T11:26:59Z</time>
      </trkpt>
      <trkpt lat="46.30568" lon="5.91568">
        <ele>1282.06</ele>
        <time>2013-06-08T11:27:12Z</time>
      </trkpt>
      <trkpt lat="46.30575" lon="5.91537">
        <ele>1278.69</ele>
        <time>2013-06-08T11:27:26Z</time>
      </trkpt>
      <trkpt lat="46.30575" lon="5.91524">
        <ele>1278.21</ele>
        <time>2013-06-08T11:27:32Z</time>
      </trkpt>
      <trkpt lat="46.3056" lon="5.91491">
        <ele>1278.21</ele>
        <time>2013-06-08T11:27:50Z</time>
      </trkpt>
      <trkpt lat="46.30541" lon="5.91472">
        <ele>1277.25</ele>
        <time>2013-06-08T11:28:04Z</time>
      </trkpt>
      <trkpt lat="46.30503" lon="5.91461">
        <ele>1277.73</ele>
        <time>2013-06-08T11:28:21Z</time>
      </trkpt>
      <trkpt lat="46.30485" lon="5.91449">
        <ele>1277.73</ele>
        <time>2013-06-08T11:28:34Z</time>
      </trkpt>
      <trkpt lat="46.30468" lon="5.91441">
        <ele>1277.25</ele>
        <time>2013-06-08T11:28:45Z</time>
      </trkpt>
      <trkpt lat="46.30454" lon="5.91436">
        <ele>1278.69</ele>
        <time>2013-06-08T11:28:55Z</time>
      </trkpt>
      <trkpt lat="46.30436" lon="5.91429">
        <ele>1280.61</ele>
        <time>2013-06-08T11:29:09Z</time>
      </trkpt>
      <trkpt lat="46.30429" lon="5.91426">
        <ele>1284.94</ele>
        <time>2013-06-08T11:29:24Z</time>
      </trkpt>
      <trkpt lat="46.30429" lon="5.91429">
        <ele>1284.94</ele>
        <time>2013-06-08T11:29:46Z</time>
      </trkpt>
      <trkpt lat="46.30427" lon="5.91431">
        <ele>1285.9</ele>
        <time>2013-06-08T11:30:07Z</time>
      </trkpt>
      <trkpt lat="46.30426" lon="5.9143">
        <ele>1285.9</ele>
        <time>2013-06-08T11:30:21Z</time>
      </trkpt>
      <trkpt lat="46.30437" lon="5.91444">
        <ele>1284.94</ele>
        <time>2013-06-08T11:30:34Z</time>
      </trkpt>
      <trkpt lat="46.30451" lon="5.91463">
        <ele>1282.54</ele>
        <time>2013-06-08T11:30:49Z</time>
      </trkpt>
      <trkpt lat="46.30471" lon="5.91481">
        <ele>1283.98</ele>
        <time>2013-06-08T11:31:06Z</time>
      </trkpt>
      <trkpt lat="46.30486" lon="5.91485">
        <ele>1284.94</ele>
        <time>2013-06-08T11:31:18Z</time>
      </trkpt>
      <trkpt lat="46.30504" lon="5.91478">
        <ele>1284.46</ele>
        <time>2013-06-08T11:31:30Z</time>
      </trkpt>
      <trkpt lat="46.30508" lon="5.91475">
        <ele>1284.46</ele>
        <time>2013-06-08T11:31:33Z</time>
      </trkpt>
      <trkpt lat="46.30511" lon="5.91468">
        <ele>1283.98</ele>
        <time>2013-06-08T11:31:48Z</time>
      </trkpt>
      <trkpt lat="46.30511" lon="5.91466">
        <ele>1283.02</ele>
        <time>2013-06-08T11:31:51Z</time>
      </trkpt>
      <trkpt lat="46.3051" lon="5.91463">
        <ele>1280.13</ele>
        <time>2013-06-08T11:32:08Z</time>
      </trkpt>
      <trkpt lat="46.30513" lon="5.91463">
        <ele>1279.17</ele>
        <time>2013-06-08T11:32:19Z</time>
      </trkpt>
      <trkpt lat="46.30519" lon="5.91433">
        <ele>1278.21</ele>
        <time>2013-06-08T11:32:34Z</time>
      </trkpt>
      <trkpt lat="46.30518" lon="5.91409">
        <ele>1277.25</ele>
        <time>2013-06-08T11:32:45Z</time>
      </trkpt>
      <trkpt lat="46.30525" lon="5.91373">
        <ele>1275.33</ele>
        <time>2013-06-08T11:33:03Z</time>
      </trkpt>
      <trkpt lat="46.30526" lon="5.91356">
        <ele>1273.4</ele>
        <time>2013-06-08T11:33:12Z</time>
      </trkpt>
      <trkpt lat="46.30528" lon="5.91347">
        <ele>1272.44</ele>
        <time>2013-06-08T11:33:17Z</time>
      </trkpt>
      <trkpt lat="46.30529" lon="5.91338">
        <ele>1270.52</ele>
        <time>2013-06-08T11:33:21Z</time>
      </trkpt>
      <trkpt lat="46.30529" lon="5.91307">
        <ele>1269.08</ele>
        <time>2013-06-08T11:33:34Z</time>
      </trkpt>
      <trkpt lat="46.30538" lon="5.91287">
        <ele>1268.6</ele>
        <time>2013-06-08T11:33:48Z</time>
      </trkpt>
      <trkpt lat="46.30544" lon="5.91277">
        <ele>1269.08</ele>
        <time>2013-06-08T11:33:54Z</time>
      </trkpt>
      <trkpt lat="46.30552" lon="5.9126">
        <ele>1269.56</ele>
        <time>2013-06-08T11:34:05Z</time>
      </trkpt>
      <trkpt lat="46.30559" lon="5.91228">
        <ele>1273.4</ele>
        <time>2013-06-08T11:34:20Z</time>
      </trkpt>
      <trkpt lat="46.30561" lon="5.91215">
        <ele>1271</ele>
        <time>2013-06-08T11:34:25Z</time>
      </trkpt>
      <trkpt lat="46.3056" lon="5.912">
        <ele>1272.44</ele>
        <time>2013-06-08T11:34:37Z</time>
      </trkpt>
      <trkpt lat="46.30549" lon="5.91183">
        <ele>1271</ele>
        <time>2013-06-08T11:34:46Z</time>
      </trkpt>
      <trkpt lat="46.30538" lon="5.91166">
        <ele>1268.12</ele>
        <time>2013-06-08T11:34:52Z</time>
      </trkpt>
      <trkpt lat="46.30534" lon="5.91163">
        <ele>1267.16</ele>
        <time>2013-06-08T11:34:54Z</time>
      </trkpt>
      <trkpt lat="46.30526" lon="5.91144">
        <ele>1261.39</ele>
        <time>2013-06-08T11:35:05Z</time>
      </trkpt>
      <trkpt lat="46.30523" lon="5.91136">
        <ele>1256.1</ele>
        <time>2013-06-08T11:35:12Z</time>
      </trkpt>
      <trkpt lat="46.30527" lon="5.91115">
        <ele>1249.37</ele>
        <time>2013-06-08T11:35:26Z</time>
      </trkpt>
      <trkpt lat="46.30531" lon="5.91096">
        <ele>1246.01</ele>
        <time>2013-06-08T11:35:37Z</time>
      </trkpt>
      <trkpt lat="46.30529" lon="5.91091">
        <ele>1244.56</ele>
        <time>2013-06-08T11:35:47Z</time>
      </trkpt>
      <trkpt lat="46.30528" lon="5.91088">
        <ele>1244.56</ele>
        <time>2013-06-08T11:35:49Z</time>
      </trkpt>
      <trkpt lat="46.30536" lon="5.91062">
        <ele>1242.16</ele>
        <time>2013-06-08T11:36:03Z</time>
      </trkpt>
      <trkpt lat="46.30538" lon="5.91047">
        <ele>1241.68</ele>
        <time>2013-06-08T11:36:10Z</time>
      </trkpt>
      <trkpt lat="46.30534" lon="5.91016">
        <ele>1238.32</ele>
        <time>2013-06-08T11:36:25Z</time>
      </trkpt>
      <trkpt lat="46.30531" lon="5.91">
        <ele>1235.91</ele>
        <time>2013-06-08T11:36:38Z</time>
      </trkpt>
      <trkpt lat="46.30532" lon="5.90995">
        <ele>1235.43</ele>
        <time>2013-06-08T11:36:47Z</time>
      </trkpt>
      <trkpt lat="46.30534" lon="5.90984">
        <ele>1235.43</ele>
        <time>2013-06-08T11:36:54Z</time>
      </trkpt>
      <trkpt lat="46.30537" lon="5.90967">
        <ele>1232.07</ele>
        <time>2013-06-08T11:37:01Z</time>
      </trkpt>
      <trkpt lat="46.30521" lon="5.90955">
        <ele>1229.18</ele>
        <time>2013-06-08T11:37:13Z</time>
      </trkpt>
      <trkpt lat="46.30502" lon="5.90947">
        <ele>1227.74</ele>
        <time>2013-06-08T11:37:27Z</time>
      </trkpt>
      <trkpt lat="46.3048" lon="5.90939">
        <ele>1225.82</ele>
        <time>2013-06-08T11:37:41Z</time>
      </trkpt>
      <trkpt lat="46.30465" lon="5.90936">
        <ele>1228.7</ele>
        <time>2013-06-08T11:37:53Z</time>
      </trkpt>
      <trkpt lat="46.30455" lon="5.90935">
        <ele>1228.7</ele>
        <time>2013-06-08T11:38:01Z</time>
      </trkpt>
      <trkpt lat="46.30439" lon="5.90929">
        <ele>1228.22</ele>
        <time>2013-06-08T11:38:13Z</time>
      </trkpt>
      <trkpt lat="46.3042" lon="5.90922">
        <ele>1228.7</ele>
        <time>2013-06-08T11:38:28Z</time>
      </trkpt>
      <trkpt lat="46.30414" lon="5.90921">
        <ele>1229.18</ele>
        <time>2013-06-08T11:38:33Z</time>
      </trkpt>
      <trkpt lat="46.30392" lon="5.90914">
        <ele>1229.66</ele>
        <time>2013-06-08T11:38:50Z</time>
      </trkpt>
      <trkpt lat="46.30377" lon="5.90907">
        <ele>1228.7</ele>
        <time>2013-06-08T11:39:05Z</time>
      </trkpt>
      <trkpt lat="46.30375" lon="5.90904">
        <ele>1229.66</ele>
        <time>2013-06-08T11:39:20Z</time>
      </trkpt>
      <trkpt lat="46.30375" lon="5.90905">
        <ele>1229.66</ele>
        <time>2013-06-08T11:39:50Z</time>
      </trkpt>
      <trkpt lat="46.30365" lon="5.909">
        <ele>1230.14</ele>
        <time>2013-06-08T11:40:04Z</time>
      </trkpt>
      <trkpt lat="46.30349" lon="5.90895">
        <ele>1231.59</ele>
        <time>2013-06-08T11:40:17Z</time>
      </trkpt>
      <trkpt lat="46.30328" lon="5.90895">
        <ele>1231.59</ele>
        <time>2013-06-08T11:40:32Z</time>
      </trkpt>
      <trkpt lat="46.30313" lon="5.90894">
        <ele>1230.14</ele>
        <time>2013-06-08T11:40:43Z</time>
      </trkpt>
      <trkpt lat="46.3029" lon="5.90886">
        <ele>1231.59</ele>
        <time>2013-06-08T11:40:59Z</time>
      </trkpt>
      <trkpt lat="46.30272" lon="5.90879">
        <ele>1231.11</ele>
        <time>2013-06-08T11:41:13Z</time>
      </trkpt>
      <trkpt lat="46.30251" lon="5.90873">
        <ele>1230.14</ele>
        <time>2013-06-08T11:41:27Z</time>
      </trkpt>
      <trkpt lat="46.30227" lon="5.9087">
        <ele>1227.26</ele>
        <time>2013-06-08T11:41:42Z</time>
      </trkpt>
      <trkpt lat="46.30204" lon="5.90866">
        <ele>1228.22</ele>
        <time>2013-06-08T11:41:58Z</time>
      </trkpt>
      <trkpt lat="46.30179" lon="5.90866">
        <ele>1227.74</ele>
        <time>2013-06-08T11:42:15Z</time>
      </trkpt>
      <trkpt lat="46.30158" lon="5.90865">
        <ele>1228.22</ele>
        <time>2013-06-08T11:42:30Z</time>
      </trkpt>
      <trkpt lat="46.30138" lon="5.90865">
        <ele>1230.62</ele>
        <time>2013-06-08T11:42:45Z</time>
      </trkpt>
      <trkpt lat="46.30137" lon="5.90866">
        <ele>1230.62</ele>
        <time>2013-06-08T11:42:51Z</time>
      </trkpt>
      <trkpt lat="46.30119" lon="5.90862">
        <ele>1230.62</ele>
        <time>2013-06-08T11:43:05Z</time>
      </trkpt>
      <trkpt lat="46.30093" lon="5.90859">
        <ele>1230.62</ele>
        <time>2013-06-08T11:43:22Z</time>
      </trkpt>
      <trkpt lat="46.30078" lon="5.90859">
        <ele>1231.11</ele>
        <time>2013-06-08T11:43:35Z</time>
      </trkpt>
      <trkpt lat="46.30052" lon="5.90859">
        <ele>1228.22</ele>
        <time>2013-06-08T11:43:51Z</time>
      </trkpt>
      <trkpt lat="46.30029" lon="5.90854">
        <ele>1228.22</ele>
        <time>2013-06-08T11:44:08Z</time>
      </trkpt>
      <trkpt lat="46.30012" lon="5.90846">
        <ele>1228.22</ele>
        <time>2013-06-08T11:44:22Z</time>
      </trkpt>
      <trkpt lat="46.30001" lon="5.90843">
        <ele>1228.22</ele>
        <time>2013-06-08T11:44:34Z</time>
      </trkpt>
      <trkpt lat="46.29979" lon="5.90834">
        <ele>1229.66</ele>
        <time>2013-06-08T11:44:52Z</time>
      </trkpt>
      <trkpt lat="46.29978" lon="5.90834">
        <ele>1229.66</ele>
        <time>2013-06-08T11:45:15Z</time>
      </trkpt>
      <trkpt lat="46.29978" lon="5.90835">
        <ele>1230.14</ele>
        <time>2013-06-08T11:45:46Z</time>
      </trkpt>
      <trkpt lat="46.29978" lon="5.90835">
        <ele>1229.66</ele>
        <time>2013-06-08T11:46:15Z</time>
      </trkpt>
      <trkpt lat="46.29965" lon="5.90828">
        <ele>1229.66</ele>
        <time>2013-06-08T11:46:31Z</time>
      </trkpt>
      <trkpt lat="46.29941" lon="5.90817">
        <ele>1229.66</ele>
        <time>2013-06-08T11:46:48Z</time>
      </trkpt>
      <trkpt lat="46.2992" lon="5.90801">
        <ele>1229.18</ele>
        <time>2013-06-08T11:47:05Z</time>
      </trkpt>
      <trkpt lat="46.29896" lon="5.9079">
        <ele>1229.66</ele>
        <time>2013-06-08T11:47:23Z</time>
      </trkpt>
      <trkpt lat="46.29873" lon="5.9078">
        <ele>1227.74</ele>
        <time>2013-06-08T11:47:40Z</time>
      </trkpt>
      <trkpt lat="46.29868" lon="5.90777">
        <ele>1228.22</ele>
        <time>2013-06-08T11:47:43Z</time>
      </trkpt>
      <trkpt lat="46.29847" lon="5.90769">
        <ele>1233.51</ele>
        <time>2013-06-08T11:47:59Z</time>
      </trkpt>
      <trkpt lat="46.29828" lon="5.90755">
        <ele>1235.91</ele>
        <time>2013-06-08T11:48:14Z</time>
      </trkpt>
      <trkpt lat="46.29825" lon="5.90754">
        <ele>1236.39</ele>
        <time>2013-06-08T11:48:16Z</time>
      </trkpt>
      <trkpt lat="46.29815" lon="5.90749">
        <ele>1236.39</ele>
        <time>2013-06-08T11:48:22Z</time>
      </trkpt>
      <trkpt lat="46.2979" lon="5.90743">
        <ele>1234.95</ele>
        <time>2013-06-08T11:48:41Z</time>
      </trkpt>
      <trkpt lat="46.29767" lon="5.90738">
        <ele>1233.99</ele>
        <time>2013-06-08T11:48:56Z</time>
      </trkpt>
      <trkpt lat="46.29741" lon="5.9073">
        <ele>1232.55</ele>
        <time>2013-06-08T11:49:15Z</time>
      </trkpt>
      <trkpt lat="46.29721" lon="5.90722">
        <ele>1232.55</ele>
        <time>2013-06-08T11:49:30Z</time>
      </trkpt>
      <trkpt lat="46.29703" lon="5.90706">
        <ele>1232.55</ele>
        <time>2013-06-08T11:49:44Z</time>
      </trkpt>
      <trkpt lat="46.29683" lon="5.90691">
        <ele>1232.07</ele>
        <time>2013-06-08T11:50:02Z</time>
      </trkpt>
      <trkpt lat="46.29684" lon="5.90692">
        <ele>1233.03</ele>
        <time>2013-06-08T11:50:24Z</time>
      </trkpt>
      <trkpt lat="46.29684" lon="5.90692">
        <ele>1233.51</ele>
        <time>2013-06-08T11:50:49Z</time>
      </trkpt>
      <trkpt lat="46.29683" lon="5.90692">
        <ele>1233.03</ele>
        <time>2013-06-08T11:51:07Z</time>
      </trkpt>
      <trkpt lat="46.29682" lon="5.9069">
        <ele>1233.03</ele>
        <time>2013-06-08T11:51:09Z</time>
      </trkpt>
      <trkpt lat="46.29674" lon="5.90684">
        <ele>1233.51</ele>
        <time>2013-06-08T11:51:16Z</time>
      </trkpt>
      <trkpt lat="46.29648" lon="5.90668">
        <ele>1234.95</ele>
        <time>2013-06-08T11:51:36Z</time>
      </trkpt>
      <trkpt lat="46.29627" lon="5.90658">
        <ele>1236.39</ele>
        <time>2013-06-08T11:51:52Z</time>
      </trkpt>
      <trkpt lat="46.29622" lon="5.90655">
        <ele>1236.39</ele>
        <time>2013-06-08T11:51:57Z</time>
      </trkpt>
      <trkpt lat="46.29616" lon="5.90651">
        <ele>1236.39</ele>
        <time>2013-06-08T11:52:03Z</time>
      </trkpt>
      <trkpt lat="46.29596" lon="5.90639">
        <ele>1236.87</ele>
        <time>2013-06-08T11:52:18Z</time>
      </trkpt>
      <trkpt lat="46.29581" lon="5.90628">
        <ele>1237.35</ele>
        <time>2013-06-08T11:52:32Z</time>
      </trkpt>
      <trkpt lat="46.29561" lon="5.90612">
        <ele>1236.39</ele>
        <time>2013-06-08T11:52:47Z</time>
      </trkpt>
      <trkpt lat="46.2954" lon="5.90595">
        <ele>1234.95</ele>
        <time>2013-06-08T11:53:05Z</time>
      </trkpt>
      <trkpt lat="46.29514" lon="5.90586">
        <ele>1234.47</ele>
        <time>2013-06-08T11:53:21Z</time>
      </trkpt>
      <trkpt lat="46.29494" lon="5.90582">
        <ele>1235.43</ele>
        <time>2013-06-08T11:53:35Z</time>
      </trkpt>
      <trkpt lat="46.29473" lon="5.90574">
        <ele>1235.91</ele>
        <time>2013-06-08T11:53:50Z</time>
      </trkpt>
      <trkpt lat="46.29456" lon="5.90565">
        <ele>1237.35</ele>
        <time>2013-06-08T11:54:02Z</time>
      </trkpt>
      <trkpt lat="46.29434" lon="5.90559">
        <ele>1238.32</ele>
        <time>2013-06-08T11:54:18Z</time>
      </trkpt>
      <trkpt lat="46.29413" lon="5.90558">
        <ele>1238.8</ele>
        <time>2013-06-08T11:54:33Z</time>
      </trkpt>
      <trkpt lat="46.29393" lon="5.90561">
        <ele>1236.87</ele>
        <time>2013-06-08T11:54:46Z</time>
      </trkpt>
      <trkpt lat="46.29368" lon="5.90562">
        <ele>1233.99</ele>
        <time>2013-06-08T11:55:01Z</time>
      </trkpt>
      <trkpt lat="46.2934" lon="5.90566">
        <ele>1232.07</ele>
        <time>2013-06-08T11:55:17Z</time>
      </trkpt>
      <trkpt lat="46.2932" lon="5.90558">
        <ele>1233.03</ele>
        <time>2013-06-08T11:55:31Z</time>
      </trkpt>
      <trkpt lat="46.293" lon="5.90538">
        <ele>1234.95</ele>
        <time>2013-06-08T11:55:48Z</time>
      </trkpt>
      <trkpt lat="46.29284" lon="5.90514">
        <ele>1237.83</ele>
        <time>2013-06-08T11:56:05Z</time>
      </trkpt>
      <trkpt lat="46.29267" lon="5.90489">
        <ele>1240.24</ele>
        <time>2013-06-08T11:56:22Z</time>
      </trkpt>
      <trkpt lat="46.29245" lon="5.9047">
        <ele>1242.64</ele>
        <time>2013-06-08T11:56:40Z</time>
      </trkpt>
      <trkpt lat="46.29224" lon="5.90461">
        <ele>1244.08</ele>
        <time>2013-06-08T11:56:56Z</time>
      </trkpt>
      <trkpt lat="46.29206" lon="5.90453">
        <ele>1245.53</ele>
        <time>2013-06-08T11:57:11Z</time>
      </trkpt>
      <trkpt lat="46.29188" lon="5.90444">
        <ele>1246.49</ele>
        <time>2013-06-08T11:57:25Z</time>
      </trkpt>
      <trkpt lat="46.29169" lon="5.90435">
        <ele>1247.45</ele>
        <time>2013-06-08T11:57:40Z</time>
      </trkpt>
      <trkpt lat="46.29149" lon="5.90424">
        <ele>1246.97</ele>
        <time>2013-06-08T11:57:57Z</time>
      </trkpt>
      <trkpt lat="46.29134" lon="5.90412">
        <ele>1248.41</ele>
        <time>2013-06-08T11:58:09Z</time>
      </trkpt>
      <trkpt lat="46.29121" lon="5.90399">
        <ele>1248.89</ele>
        <time>2013-06-08T11:58:21Z</time>
      </trkpt>
      <trkpt lat="46.29108" lon="5.90375">
        <ele>1248.89</ele>
        <time>2013-06-08T11:58:37Z</time>
      </trkpt>
      <trkpt lat="46.29095" lon="5.90344">
        <ele>1248.41</ele>
        <time>2013-06-08T11:58:55Z</time>
      </trkpt>
      <trkpt lat="46.29083" lon="5.90314">
        <ele>1249.85</ele>
        <time>2013-06-08T11:59:12Z</time>
      </trkpt>
      <trkpt lat="46.29072" lon="5.90282">
        <ele>1249.85</ele>
        <time>2013-06-08T11:59:28Z</time>
      </trkpt>
      <trkpt lat="46.29062" lon="5.9025">
        <ele>1250.33</ele>
        <time>2013-06-08T11:59:45Z</time>
      </trkpt>
      <trkpt lat="46.29049" lon="5.90227">
        <ele>1252.25</ele>
        <time>2013-06-08T12:00:00Z</time>
      </trkpt>
      <trkpt lat="46.29045" lon="5.90219">
        <ele>1252.25</ele>
        <time>2013-06-08T12:00:06Z</time>
      </trkpt>
      <trkpt lat="46.29044" lon="5.90215">
        <ele>1252.74</ele>
        <time>2013-06-08T12:00:09Z</time>
      </trkpt>
      <trkpt lat="46.29036" lon="5.90205">
        <ele>1253.22</ele>
        <time>2013-06-08T12:00:18Z</time>
      </trkpt>
      <trkpt lat="46.29022" lon="5.90194">
        <ele>1254.66</ele>
        <time>2013-06-08T12:00:28Z</time>
      </trkpt>
      <trkpt lat="46.29003" lon="5.90168">
        <ele>1256.1</ele>
        <time>2013-06-08T12:00:47Z</time>
      </trkpt>
      <trkpt lat="46.28987" lon="5.90143">
        <ele>1255.62</ele>
        <time>2013-06-08T12:01:05Z</time>
      </trkpt>
      <trkpt lat="46.28976" lon="5.90127">
        <ele>1256.58</ele>
        <time>2013-06-08T12:01:20Z</time>
      </trkpt>
      <trkpt lat="46.28974" lon="5.90122">
        <ele>1257.06</ele>
        <time>2013-06-08T12:01:44Z</time>
      </trkpt>
      <trkpt lat="46.28967" lon="5.90122">
        <ele>1257.06</ele>
        <time>2013-06-08T12:02:00Z</time>
      </trkpt>
      <trkpt lat="46.28969" lon="5.9012">
        <ele>1257.54</ele>
        <time>2013-06-08T12:02:21Z</time>
      </trkpt>
      <trkpt lat="46.28968" lon="5.9012">
        <ele>1256.58</ele>
        <time>2013-06-08T12:02:28Z</time>
      </trkpt>
      <trkpt lat="46.28968" lon="5.90118">
        <ele>1256.58</ele>
        <time>2013-06-08T12:02:30Z</time>
      </trkpt>
      <trkpt lat="46.28955" lon="5.90091">
        <ele>1256.1</ele>
        <time>2013-06-08T12:02:49Z</time>
      </trkpt>
      <trkpt lat="46.28934" lon="5.90063">
        <ele>1256.58</ele>
        <time>2013-06-08T12:03:09Z</time>
      </trkpt>
      <trkpt lat="46.28915" lon="5.90038">
        <ele>1259.46</ele>
        <time>2013-06-08T12:03:29Z</time>
      </trkpt>
      <trkpt lat="46.28894" lon="5.90027">
        <ele>1260.43</ele>
        <time>2013-06-08T12:03:44Z</time>
      </trkpt>
      <trkpt lat="46.28876" lon="5.90009">
        <ele>1260.91</ele>
        <time>2013-06-08T12:04:00Z</time>
      </trkpt>
      <trkpt lat="46.28861" lon="5.89991">
        <ele>1260.43</ele>
        <time>2013-06-08T12:04:15Z</time>
      </trkpt>
      <trkpt lat="46.28841" lon="5.89979">
        <ele>1261.39</ele>
        <time>2013-06-08T12:04:28Z</time>
      </trkpt>
      <trkpt lat="46.2884" lon="5.89978">
        <ele>1261.87</ele>
        <time>2013-06-08T12:04:29Z</time>
      </trkpt>
      <trkpt lat="46.28823" lon="5.89966">
        <ele>1263.79</ele>
        <time>2013-06-08T12:04:42Z</time>
      </trkpt>
      <trkpt lat="46.28815" lon="5.89963">
        <ele>1266.19</ele>
        <time>2013-06-08T12:04:47Z</time>
      </trkpt>
      <trkpt lat="46.2881" lon="5.89956">
        <ele>1266.19</ele>
        <time>2013-06-08T12:04:53Z</time>
      </trkpt>
      <trkpt lat="46.28789" lon="5.89949">
        <ele>1266.19</ele>
        <time>2013-06-08T12:05:07Z</time>
      </trkpt>
      <trkpt lat="46.28776" lon="5.89945">
        <ele>1265.71</ele>
        <time>2013-06-08T12:05:17Z</time>
      </trkpt>
      <trkpt lat="46.28757" lon="5.89936">
        <ele>1263.79</ele>
        <time>2013-06-08T12:05:32Z</time>
      </trkpt>
      <trkpt lat="46.28739" lon="5.89927">
        <ele>1264.27</ele>
        <time>2013-06-08T12:05:46Z</time>
      </trkpt>
      <trkpt lat="46.28735" lon="5.89926">
        <ele>1264.75</ele>
        <time>2013-06-08T12:05:50Z</time>
      </trkpt>
      <trkpt lat="46.28729" lon="5.89921">
        <ele>1265.71</ele>
        <time>2013-06-08T12:05:56Z</time>
      </trkpt>
      <trkpt lat="46.28724" lon="5.89916">
        <ele>1267.64</ele>
        <time>2013-06-08T12:06:00Z</time>
      </trkpt>
      <trkpt lat="46.28715" lon="5.89911">
        <ele>1267.16</ele>
        <time>2013-06-08T12:06:07Z</time>
      </trkpt>
      <trkpt lat="46.28696" lon="5.89917">
        <ele>1266.19</ele>
        <time>2013-06-08T12:06:23Z</time>
      </trkpt>
      <trkpt lat="46.28693" lon="5.89927">
        <ele>1264.75</ele>
        <time>2013-06-08T12:06:34Z</time>
      </trkpt>
      <trkpt lat="46.28693" lon="5.8993">
        <ele>1264.27</ele>
        <time>2013-06-08T12:06:59Z</time>
      </trkpt>
      <trkpt lat="46.28694" lon="5.89929">
        <ele>1265.23</ele>
        <time>2013-06-08T12:07:13Z</time>
      </trkpt>
      <trkpt lat="46.28691" lon="5.89926">
        <ele>1265.71</ele>
        <time>2013-06-08T12:07:18Z</time>
      </trkpt>
      <trkpt lat="46.28687" lon="5.89919">
        <ele>1268.12</ele>
        <time>2013-06-08T12:07:21Z</time>
      </trkpt>
      <trkpt lat="46.28671" lon="5.89912">
        <ele>1268.6</ele>
        <time>2013-06-08T12:07:35Z</time>
      </trkpt>
      <trkpt lat="46.2865" lon="5.89912">
        <ele>1269.08</ele>
        <time>2013-06-08T12:07:49Z</time>
      </trkpt>
      <trkpt lat="46.28632" lon="5.89907">
        <ele>1270.04</ele>
        <time>2013-06-08T12:08:02Z</time>
      </trkpt>
      <trkpt lat="46.28629" lon="5.89906">
        <ele>1270.52</ele>
        <time>2013-06-08T12:08:05Z</time>
      </trkpt>
      <trkpt lat="46.2861" lon="5.899">
        <ele>1271.96</ele>
        <time>2013-06-08T12:08:19Z</time>
      </trkpt>
      <trkpt lat="46.28593" lon="5.899">
        <ele>1273.4</ele>
        <time>2013-06-08T12:08:31Z</time>
      </trkpt>
      <trkpt lat="46.2857" lon="5.89899">
        <ele>1277.73</ele>
        <time>2013-06-08T12:08:46Z</time>
      </trkpt>
      <trkpt lat="46.28561" lon="5.89895">
        <ele>1277.73</ele>
        <time>2013-06-08T12:08:55Z</time>
      </trkpt>
      <trkpt lat="46.28548" lon="5.89891">
        <ele>1281.57</ele>
        <time>2013-06-08T12:09:06Z</time>
      </trkpt>
      <trkpt lat="46.28543" lon="5.89881">
        <ele>1283.5</ele>
        <time>2013-06-08T12:09:15Z</time>
      </trkpt>
      <trkpt lat="46.28539" lon="5.89864">
        <ele>1288.3</ele>
        <time>2013-06-08T12:09:31Z</time>
      </trkpt>
      <trkpt lat="46.28538" lon="5.89864">
        <ele>1288.3</ele>
        <time>2013-06-08T12:09:32Z</time>
      </trkpt>
      <trkpt lat="46.28518" lon="5.89851">
        <ele>1289.27</ele>
        <time>2013-06-08T12:09:49Z</time>
      </trkpt>
      <trkpt lat="46.28515" lon="5.8985">
        <ele>1289.27</ele>
        <time>2013-06-08T12:09:52Z</time>
      </trkpt>
      <trkpt lat="46.28493" lon="5.89828">
        <ele>1288.3</ele>
        <time>2013-06-08T12:10:09Z</time>
      </trkpt>
      <trkpt lat="46.28474" lon="5.89819">
        <ele>1295.03</ele>
        <time>2013-06-08T12:10:20Z</time>
      </trkpt>
      <trkpt lat="46.2845" lon="5.89808">
        <ele>1301.76</ele>
        <time>2013-06-08T12:10:35Z</time>
      </trkpt>
      <trkpt lat="46.28449" lon="5.89807">
        <ele>1301.76</ele>
        <time>2013-06-08T12:10:36Z</time>
      </trkpt>
      <trkpt lat="46.28431" lon="5.89795">
        <ele>1300.8</ele>
        <time>2013-06-08T12:10:52Z</time>
      </trkpt>
      <trkpt lat="46.28418" lon="5.89773">
        <ele>1294.55</ele>
        <time>2013-06-08T12:11:06Z</time>
      </trkpt>
      <trkpt lat="46.28407" lon="5.89763">
        <ele>1288.3</ele>
        <time>2013-06-08T12:11:18Z</time>
      </trkpt>
      <trkpt lat="46.28396" lon="5.8975">
        <ele>1282.54</ele>
        <time>2013-06-08T12:11:29Z</time>
      </trkpt>
      <trkpt lat="46.2838" lon="5.89729">
        <ele>1276.77</ele>
        <time>2013-06-08T12:11:45Z</time>
      </trkpt>
      <trkpt lat="46.28347" lon="5.89724">
        <ele>1301.28</ele>
        <time>2013-06-08T12:12:02Z</time>
      </trkpt>
      <trkpt lat="46.28342" lon="5.89721">
        <ele>1305.13</ele>
        <time>2013-06-08T12:12:05Z</time>
      </trkpt>
      <trkpt lat="46.28318" lon="5.89711">
        <ele>1311.86</ele>
        <time>2013-06-08T12:12:19Z</time>
      </trkpt>
      <trkpt lat="46.283" lon="5.89701">
        <ele>1313.3</ele>
        <time>2013-06-08T12:12:32Z</time>
      </trkpt>
      <trkpt lat="46.2828" lon="5.89695">
        <ele>1315.22</ele>
        <time>2013-06-08T12:12:46Z</time>
      </trkpt>
      <trkpt lat="46.28262" lon="5.89687">
        <ele>1317.14</ele>
        <time>2013-06-08T12:13:00Z</time>
      </trkpt>
      <trkpt lat="46.28257" lon="5.89685">
        <ele>1318.1</ele>
        <time>2013-06-08T12:13:04Z</time>
      </trkpt>
      <trkpt lat="46.28242" lon="5.89675">
        <ele>1318.59</ele>
        <time>2013-06-08T12:13:18Z</time>
      </trkpt>
      <trkpt lat="46.28228" lon="5.89659">
        <ele>1318.59</ele>
        <time>2013-06-08T12:13:33Z</time>
      </trkpt>
      <trkpt lat="46.28214" lon="5.8964">
        <ele>1320.99</ele>
        <time>2013-06-08T12:13:49Z</time>
      </trkpt>
      <trkpt lat="46.28198" lon="5.89615">
        <ele>1322.43</ele>
        <time>2013-06-08T12:14:08Z</time>
      </trkpt>
      <trkpt lat="46.28184" lon="5.89594">
        <ele>1322.91</ele>
        <time>2013-06-08T12:14:24Z</time>
      </trkpt>
      <trkpt lat="46.28176" lon="5.89585">
        <ele>1321.95</ele>
        <time>2013-06-08T12:14:37Z</time>
      </trkpt>
      <trkpt lat="46.28162" lon="5.89573">
        <ele>1320.99</ele>
        <time>2013-06-08T12:14:49Z</time>
      </trkpt>
      <trkpt lat="46.28138" lon="5.8955">
        <ele>1319.07</ele>
        <time>2013-06-08T12:15:07Z</time>
      </trkpt>
      <trkpt lat="46.28118" lon="5.89545">
        <ele>1318.1</ele>
        <time>2013-06-08T12:15:22Z</time>
      </trkpt>
      <trkpt lat="46.28107" lon="5.89539">
        <ele>1317.14</ele>
        <time>2013-06-08T12:15:38Z</time>
      </trkpt>
      <trkpt lat="46.28107" lon="5.89539">
        <ele>1317.14</ele>
        <time>2013-06-08T12:16:05Z</time>
      </trkpt>
      <trkpt lat="46.28106" lon="5.89539">
        <ele>1316.18</ele>
        <time>2013-06-08T12:16:36Z</time>
      </trkpt>
      <trkpt lat="46.28106" lon="5.8954">
        <ele>1315.7</ele>
        <time>2013-06-08T12:17:07Z</time>
      </trkpt>
      <trkpt lat="46.28106" lon="5.89541">
        <ele>1316.66</ele>
        <time>2013-06-08T12:17:32Z</time>
      </trkpt>
      <trkpt lat="46.28093" lon="5.89533">
        <ele>1317.14</ele>
        <time>2013-06-08T12:17:48Z</time>
      </trkpt>
      <trkpt lat="46.28075" lon="5.89523">
        <ele>1313.3</ele>
        <time>2013-06-08T12:18:03Z</time>
      </trkpt>
      <trkpt lat="46.28057" lon="5.89509">
        <ele>1312.34</ele>
        <time>2013-06-08T12:18:17Z</time>
      </trkpt>
      <trkpt lat="46.28043" lon="5.89501">
        <ele>1310.9</ele>
        <time>2013-06-08T12:18:27Z</time>
      </trkpt>
      <trkpt lat="46.28021" lon="5.89485">
        <ele>1305.61</ele>
        <time>2013-06-08T12:18:44Z</time>
      </trkpt>
      <trkpt lat="46.2802" lon="5.89485">
        <ele>1305.13</ele>
        <time>2013-06-08T12:18:45Z</time>
      </trkpt>
      <trkpt lat="46.27994" lon="5.89464">
        <ele>1303.2</ele>
        <time>2013-06-08T12:19:03Z</time>
      </trkpt>
      <trkpt lat="46.27979" lon="5.8945">
        <ele>1301.76</ele>
        <time>2013-06-08T12:19:16Z</time>
      </trkpt>
      <trkpt lat="46.27957" lon="5.89434">
        <ele>1299.84</ele>
        <time>2013-06-08T12:19:32Z</time>
      </trkpt>
      <trkpt lat="46.27941" lon="5.89416">
        <ele>1298.88</ele>
        <time>2013-06-08T12:19:44Z</time>
      </trkpt>
      <trkpt lat="46.27939" lon="5.89406">
        <ele>1297.44</ele>
        <time>2013-06-08T12:19:49Z</time>
      </trkpt>
      <trkpt lat="46.27921" lon="5.89384">
        <ele>1298.88</ele>
        <time>2013-06-08T12:20:05Z</time>
      </trkpt>
      <trkpt lat="46.27913" lon="5.89358">
        <ele>1300.32</ele>
        <time>2013-06-08T12:20:20Z</time>
      </trkpt>
      <trkpt lat="46.27908" lon="5.89348">
        <ele>1300.8</ele>
        <time>2013-06-08T12:20:27Z</time>
      </trkpt>
      <trkpt lat="46.27906" lon="5.89345">
        <ele>1301.28</ele>
        <time>2013-06-08T12:20:29Z</time>
      </trkpt>
      <trkpt lat="46.27885" lon="5.8933">
        <ele>1304.65</ele>
        <time>2013-06-08T12:20:44Z</time>
      </trkpt>
      <trkpt lat="46.27863" lon="5.89317">
        <ele>1305.61</ele>
        <time>2013-06-08T12:20:59Z</time>
      </trkpt>
      <trkpt lat="46.27846" lon="5.89302">
        <ele>1303.69</ele>
        <time>2013-06-08T12:21:14Z</time>
      </trkpt>
      <trkpt lat="46.27825" lon="5.89287">
        <ele>1301.76</ele>
        <time>2013-06-08T12:21:29Z</time>
      </trkpt>
      <trkpt lat="46.27824" lon="5.89285">
        <ele>1301.76</ele>
        <time>2013-06-08T12:21:30Z</time>
      </trkpt>
      <trkpt lat="46.27822" lon="5.89279">
        <ele>1299.84</ele>
        <time>2013-06-08T12:21:33Z</time>
      </trkpt>
      <trkpt lat="46.2782" lon="5.89275">
        <ele>1298.88</ele>
        <time>2013-06-08T12:21:35Z</time>
      </trkpt>
      <trkpt lat="46.27816" lon="5.89268">
        <ele>1297.92</ele>
        <time>2013-06-08T12:21:40Z</time>
      </trkpt>
      <trkpt lat="46.27808" lon="5.89255">
        <ele>1294.07</ele>
        <time>2013-06-08T12:21:49Z</time>
      </trkpt>
      <trkpt lat="46.27786" lon="5.89238">
        <ele>1292.63</ele>
        <time>2013-06-08T12:22:06Z</time>
      </trkpt>
      <trkpt lat="46.27781" lon="5.89237">
        <ele>1292.63</ele>
        <time>2013-06-08T12:22:09Z</time>
      </trkpt>
      <trkpt lat="46.2776" lon="5.8922">
        <ele>1289.27</ele>
        <time>2013-06-08T12:22:25Z</time>
      </trkpt>
      <trkpt lat="46.27759" lon="5.89219">
        <ele>1289.27</ele>
        <time>2013-06-08T12:22:26Z</time>
      </trkpt>
      <trkpt lat="46.27755" lon="5.89217">
        <ele>1289.27</ele>
        <time>2013-06-08T12:22:29Z</time>
      </trkpt>
      <trkpt lat="46.27749" lon="5.89211">
        <ele>1288.78</ele>
        <time>2013-06-08T12:22:33Z</time>
      </trkpt>
      <trkpt lat="46.27725" lon="5.89187">
        <ele>1284.94</ele>
        <time>2013-06-08T12:22:51Z</time>
      </trkpt>
      <trkpt lat="46.27703" lon="5.89169">
        <ele>1281.09</ele>
        <time>2013-06-08T12:23:07Z</time>
      </trkpt>
      <trkpt lat="46.27684" lon="5.89151">
        <ele>1278.69</ele>
        <time>2013-06-08T12:23:24Z</time>
      </trkpt>
      <trkpt lat="46.27679" lon="5.8915">
        <ele>1277.25</ele>
        <time>2013-06-08T12:23:29Z</time>
      </trkpt>
      <trkpt lat="46.27674" lon="5.89155">
        <ele>1276.29</ele>
        <time>2013-06-08T12:23:37Z</time>
      </trkpt>
      <trkpt lat="46.27657" lon="5.89137">
        <ele>1275.81</ele>
        <time>2013-06-08T12:23:52Z</time>
      </trkpt>
      <trkpt lat="46.27631" lon="5.89114">
        <ele>1274.85</ele>
        <time>2013-06-08T12:24:12Z</time>
      </trkpt>
      <trkpt lat="46.27609" lon="5.89102">
        <ele>1273.4</ele>
        <time>2013-06-08T12:24:27Z</time>
      </trkpt>
      <trkpt lat="46.2759" lon="5.89086">
        <ele>1271</ele>
        <time>2013-06-08T12:24:43Z</time>
      </trkpt>
      <trkpt lat="46.27567" lon="5.89071">
        <ele>1268.6</ele>
        <time>2013-06-08T12:25:00Z</time>
      </trkpt>
      <trkpt lat="46.27551" lon="5.89059">
        <ele>1265.23</ele>
        <time>2013-06-08T12:25:13Z</time>
      </trkpt>
      <trkpt lat="46.27538" lon="5.89063">
        <ele>1264.75</ele>
        <time>2013-06-08T12:25:24Z</time>
      </trkpt>
      <trkpt lat="46.2753" lon="5.89055">
        <ele>1261.39</ele>
        <time>2013-06-08T12:25:36Z</time>
      </trkpt>
      <trkpt lat="46.27526" lon="5.89038">
        <ele>1257.06</ele>
        <time>2013-06-08T12:25:49Z</time>
      </trkpt>
      <trkpt lat="46.27523" lon="5.89015">
        <ele>1254.18</ele>
        <time>2013-06-08T12:26:04Z</time>
      </trkpt>
      <trkpt lat="46.27514" lon="5.8899">
        <ele>1252.25</ele>
        <time>2013-06-08T12:26:20Z</time>
      </trkpt>
      <trkpt lat="46.27502" lon="5.88959">
        <ele>1251.29</ele>
        <time>2013-06-08T12:26:39Z</time>
      </trkpt>
      <trkpt lat="46.27498" lon="5.88948">
        <ele>1250.33</ele>
        <time>2013-06-08T12:26:48Z</time>
      </trkpt>
      <trkpt lat="46.27477" lon="5.88922">
        <ele>1247.45</ele>
        <time>2013-06-08T12:27:07Z</time>
      </trkpt>
      <trkpt lat="46.2747" lon="5.88897">
        <ele>1246.97</ele>
        <time>2013-06-08T12:27:21Z</time>
      </trkpt>
      <trkpt lat="46.27465" lon="5.88892">
        <ele>1247.45</ele>
        <time>2013-06-08T12:27:26Z</time>
      </trkpt>
      <trkpt lat="46.27462" lon="5.88889">
        <ele>1247.45</ele>
        <time>2013-06-08T12:27:29Z</time>
      </trkpt>
      <trkpt lat="46.27449" lon="5.88868">
        <ele>1248.41</ele>
        <time>2013-06-08T12:27:42Z</time>
      </trkpt>
      <trkpt lat="46.27448" lon="5.88867">
        <ele>1248.41</ele>
        <time>2013-06-08T12:27:43Z</time>
      </trkpt>
      <trkpt lat="46.27442" lon="5.88864">
        <ele>1248.41</ele>
        <time>2013-06-08T12:27:47Z</time>
      </trkpt>
      <trkpt lat="46.27422" lon="5.88855">
        <ele>1247.45</ele>
        <time>2013-06-08T12:27:59Z</time>
      </trkpt>
      <trkpt lat="46.27409" lon="5.88849">
        <ele>1247.45</ele>
        <time>2013-06-08T12:28:08Z</time>
      </trkpt>
      <trkpt lat="46.27391" lon="5.88833">
        <ele>1248.89</ele>
        <time>2013-06-08T12:28:23Z</time>
      </trkpt>
      <trkpt lat="46.27381" lon="5.88828">
        <ele>1248.89</ele>
        <time>2013-06-08T12:28:30Z</time>
      </trkpt>
      <trkpt lat="46.2736" lon="5.88808">
        <ele>1248.89</ele>
        <time>2013-06-08T12:28:47Z</time>
      </trkpt>
      <trkpt lat="46.27348" lon="5.88798">
        <ele>1246.97</ele>
        <time>2013-06-08T12:28:57Z</time>
      </trkpt>
      <trkpt lat="46.27344" lon="5.8879">
        <ele>1246.01</ele>
        <time>2013-06-08T12:29:02Z</time>
      </trkpt>
      <trkpt lat="46.27322" lon="5.88773">
        <ele>1243.12</ele>
        <time>2013-06-08T12:29:18Z</time>
      </trkpt>
      <trkpt lat="46.27308" lon="5.8876">
        <ele>1239.28</ele>
        <time>2013-06-08T12:29:31Z</time>
      </trkpt>
      <trkpt lat="46.2729" lon="5.88741">
        <ele>1235.43</ele>
        <time>2013-06-08T12:29:47Z</time>
      </trkpt>
      <trkpt lat="46.27289" lon="5.88739">
        <ele>1235.43</ele>
        <time>2013-06-08T12:29:48Z</time>
      </trkpt>
      <trkpt lat="46.27257" lon="5.88734">
        <ele>1239.76</ele>
        <time>2013-06-08T12:30:03Z</time>
      </trkpt>
      <trkpt lat="46.27255" lon="5.88734">
        <ele>1240.24</ele>
        <time>2013-06-08T12:30:04Z</time>
      </trkpt>
      <trkpt lat="46.27247" lon="5.8874">
        <ele>1245.53</ele>
        <time>2013-06-08T12:30:08Z</time>
      </trkpt>
      <trkpt lat="46.2723" lon="5.88743">
        <ele>1251.29</ele>
        <time>2013-06-08T12:30:20Z</time>
      </trkpt>
      <trkpt lat="46.27217" lon="5.88748">
        <ele>1253.22</ele>
        <time>2013-06-08T12:30:28Z</time>
      </trkpt>
      <trkpt lat="46.272" lon="5.88756">
        <ele>1253.22</ele>
        <time>2013-06-08T12:30:45Z</time>
      </trkpt>
      <trkpt lat="46.2718" lon="5.8876">
        <ele>1254.18</ele>
        <time>2013-06-08T12:31:00Z</time>
      </trkpt>
      <trkpt lat="46.27177" lon="5.8876">
        <ele>1254.18</ele>
        <time>2013-06-08T12:31:02Z</time>
      </trkpt>
      <trkpt lat="46.27162" lon="5.88747">
        <ele>1255.14</ele>
        <time>2013-06-08T12:31:18Z</time>
      </trkpt>
      <trkpt lat="46.27157" lon="5.88731">
        <ele>1254.66</ele>
        <time>2013-06-08T12:31:28Z</time>
      </trkpt>
      <trkpt lat="46.27145" lon="5.88702">
        <ele>1252.25</ele>
        <time>2013-06-08T12:31:45Z</time>
      </trkpt>
      <trkpt lat="46.27132" lon="5.88688">
        <ele>1252.74</ele>
        <time>2013-06-08T12:31:59Z</time>
      </trkpt>
      <trkpt lat="46.27118" lon="5.88672">
        <ele>1253.22</ele>
        <time>2013-06-08T12:32:14Z</time>
      </trkpt>
      <trkpt lat="46.27103" lon="5.88645">
        <ele>1253.7</ele>
        <time>2013-06-08T12:32:32Z</time>
      </trkpt>
      <trkpt lat="46.27084" lon="5.88631">
        <ele>1254.66</ele>
        <time>2013-06-08T12:32:48Z</time>
      </trkpt>
      <trkpt lat="46.27063" lon="5.88619">
        <ele>1255.14</ele>
        <time>2013-06-08T12:33:04Z</time>
      </trkpt>
      <trkpt lat="46.27043" lon="5.88609">
        <ele>1255.14</ele>
        <time>2013-06-08T12:33:18Z</time>
      </trkpt>
      <trkpt lat="46.2704" lon="5.88601">
        <ele>1255.14</ele>
        <time>2013-06-08T12:33:24Z</time>
      </trkpt>
      <trkpt lat="46.27034" lon="5.8859">
        <ele>1255.62</ele>
        <time>2013-06-08T12:33:33Z</time>
      </trkpt>
      <trkpt lat="46.27019" lon="5.88568">
        <ele>1254.66</ele>
        <time>2013-06-08T12:33:51Z</time>
      </trkpt>
      <trkpt lat="46.27005" lon="5.88549">
        <ele>1253.7</ele>
        <time>2013-06-08T12:34:08Z</time>
      </trkpt>
      <trkpt lat="46.26994" lon="5.88531">
        <ele>1252.74</ele>
        <time>2013-06-08T12:34:24Z</time>
      </trkpt>
      <trkpt lat="46.26979" lon="5.88508">
        <ele>1254.18</ele>
        <time>2013-06-08T12:34:41Z</time>
      </trkpt>
      <trkpt lat="46.26955" lon="5.88496">
        <ele>1260.43</ele>
        <time>2013-06-08T12:34:58Z</time>
      </trkpt>
      <trkpt lat="46.26944" lon="5.88482">
        <ele>1268.12</ele>
        <time>2013-06-08T12:35:08Z</time>
      </trkpt>
      <trkpt lat="46.26939" lon="5.88478">
        <ele>1270.04</ele>
        <time>2013-06-08T12:35:12Z</time>
      </trkpt>
      <trkpt lat="46.26932" lon="5.88476">
        <ele>1273.88</ele>
        <time>2013-06-08T12:35:17Z</time>
      </trkpt>
      <trkpt lat="46.26898" lon="5.88484">
        <ele>1288.3</ele>
        <time>2013-06-08T12:35:31Z</time>
      </trkpt>
      <trkpt lat="46.26886" lon="5.88463">
        <ele>1291.67</ele>
        <time>2013-06-08T12:35:46Z</time>
      </trkpt>
      <trkpt lat="46.26875" lon="5.88436">
        <ele>1293.59</ele>
        <time>2013-06-08T12:36:03Z</time>
      </trkpt>
      <trkpt lat="46.26872" lon="5.88411">
        <ele>1295.99</ele>
        <time>2013-06-08T12:36:17Z</time>
      </trkpt>
      <trkpt lat="46.26864" lon="5.88396">
        <ele>1298.4</ele>
        <time>2013-06-08T12:36:28Z</time>
      </trkpt>
      <trkpt lat="46.26861" lon="5.88391">
        <ele>1298.88</ele>
        <time>2013-06-08T12:36:31Z</time>
      </trkpt>
      <trkpt lat="46.26852" lon="5.88375">
        <ele>1301.76</ele>
        <time>2013-06-08T12:36:43Z</time>
      </trkpt>
      <trkpt lat="46.26841" lon="5.88353">
        <ele>1303.2</ele>
        <time>2013-06-08T12:36:58Z</time>
      </trkpt>
      <trkpt lat="46.26833" lon="5.88333">
        <ele>1304.17</ele>
        <time>2013-06-08T12:37:12Z</time>
      </trkpt>
      <trkpt lat="46.26826" lon="5.88312">
        <ele>1304.65</ele>
        <time>2013-06-08T12:37:27Z</time>
      </trkpt>
      <trkpt lat="46.26816" lon="5.88292">
        <ele>1307.05</ele>
        <time>2013-06-08T12:37:42Z</time>
      </trkpt>
      <trkpt lat="46.26814" lon="5.88291">
        <ele>1308.49</ele>
        <time>2013-06-08T12:37:44Z</time>
      </trkpt>
      <trkpt lat="46.26802" lon="5.88274">
        <ele>1313.78</ele>
        <time>2013-06-08T12:37:59Z</time>
      </trkpt>
      <trkpt lat="46.26792" lon="5.88258">
        <ele>1316.18</ele>
        <time>2013-06-08T12:38:11Z</time>
      </trkpt>
      <trkpt lat="46.26786" lon="5.88236">
        <ele>1318.59</ele>
        <time>2013-06-08T12:38:26Z</time>
      </trkpt>
      <trkpt lat="46.26776" lon="5.88215">
        <ele>1325.8</ele>
        <time>2013-06-08T12:38:42Z</time>
      </trkpt>
      <trkpt lat="46.26761" lon="5.88195">
        <ele>1332.52</ele>
        <time>2013-06-08T12:38:57Z</time>
      </trkpt>
      <trkpt lat="46.26755" lon="5.88186">
        <ele>1334.45</ele>
        <time>2013-06-08T12:39:03Z</time>
      </trkpt>
      <trkpt lat="46.26744" lon="5.88152">
        <ele>1338.77</ele>
        <time>2013-06-08T12:39:21Z</time>
      </trkpt>
      <trkpt lat="46.26734" lon="5.88128">
        <ele>1340.7</ele>
        <time>2013-06-08T12:39:38Z</time>
      </trkpt>
      <trkpt lat="46.26731" lon="5.88124">
        <ele>1340.22</ele>
        <time>2013-06-08T12:39:41Z</time>
      </trkpt>
      <trkpt lat="46.26731" lon="5.88099">
        <ele>1339.25</ele>
        <time>2013-06-08T12:39:57Z</time>
      </trkpt>
      <trkpt lat="46.26732" lon="5.88068">
        <ele>1341.66</ele>
        <time>2013-06-08T12:40:13Z</time>
      </trkpt>
      <trkpt lat="46.26728" lon="5.88039">
        <ele>1344.54</ele>
        <time>2013-06-08T12:40:29Z</time>
      </trkpt>
      <trkpt lat="46.26719" lon="5.88014">
        <ele>1349.35</ele>
        <time>2013-06-08T12:40:45Z</time>
      </trkpt>
      <trkpt lat="46.26713" lon="5.87988">
        <ele>1353.19</ele>
        <time>2013-06-08T12:41:00Z</time>
      </trkpt>
      <trkpt lat="46.26713" lon="5.87977">
        <ele>1353.19</ele>
        <time>2013-06-08T12:41:04Z</time>
      </trkpt>
      <trkpt lat="46.26708" lon="5.8794">
        <ele>1351.27</ele>
        <time>2013-06-08T12:41:21Z</time>
      </trkpt>
      <trkpt lat="46.26694" lon="5.87916">
        <ele>1351.27</ele>
        <time>2013-06-08T12:41:36Z</time>
      </trkpt>
      <trkpt lat="46.26679" lon="5.87899">
        <ele>1350.79</ele>
        <time>2013-06-08T12:41:50Z</time>
      </trkpt>
      <trkpt lat="46.26663" lon="5.87874">
        <ele>1347.91</ele>
        <time>2013-06-08T12:42:06Z</time>
      </trkpt>
      <trkpt lat="46.26657" lon="5.87846">
        <ele>1346.94</ele>
        <time>2013-06-08T12:42:24Z</time>
      </trkpt>
      <trkpt lat="46.26645" lon="5.87829">
        <ele>1345.5</ele>
        <time>2013-06-08T12:42:38Z</time>
      </trkpt>
      <trkpt lat="46.26642" lon="5.87815">
        <ele>1345.02</ele>
        <time>2013-06-08T12:42:47Z</time>
      </trkpt>
      <trkpt lat="46.26649" lon="5.87795">
        <ele>1344.54</ele>
        <time>2013-06-08T12:43:00Z</time>
      </trkpt>
      <trkpt lat="46.26656" lon="5.87792">
        <ele>1344.06</ele>
        <time>2013-06-08T12:43:05Z</time>
      </trkpt>
      <trkpt lat="46.26663" lon="5.87793">
        <ele>1343.58</ele>
        <time>2013-06-08T12:43:11Z</time>
      </trkpt>
      <trkpt lat="46.26669" lon="5.87793">
        <ele>1342.62</ele>
        <time>2013-06-08T12:43:15Z</time>
      </trkpt>
      <trkpt lat="46.26694" lon="5.87803">
        <ele>1339.25</ele>
        <time>2013-06-08T12:43:31Z</time>
      </trkpt>
      <trkpt lat="46.26708" lon="5.87796">
        <ele>1339.25</ele>
        <time>2013-06-08T12:43:47Z</time>
      </trkpt>
      <trkpt lat="46.26705" lon="5.87758">
        <ele>1341.66</ele>
        <time>2013-06-08T12:44:02Z</time>
      </trkpt>
      <trkpt lat="46.26706" lon="5.87753">
        <ele>1342.14</ele>
        <time>2013-06-08T12:44:04Z</time>
      </trkpt>
      <trkpt lat="46.26706" lon="5.87743">
        <ele>1341.66</ele>
        <time>2013-06-08T12:44:07Z</time>
      </trkpt>
      <trkpt lat="46.26706" lon="5.87731">
        <ele>1342.14</ele>
        <time>2013-06-08T12:44:12Z</time>
      </trkpt>
      <trkpt lat="46.26707" lon="5.8772">
        <ele>1343.1</ele>
        <time>2013-06-08T12:44:17Z</time>
      </trkpt>
      <trkpt lat="46.26707" lon="5.87714">
        <ele>1342.14</ele>
        <time>2013-06-08T12:44:26Z</time>
      </trkpt>
      <trkpt lat="46.26708" lon="5.87709">
        <ele>1339.25</ele>
        <time>2013-06-08T12:44:30Z</time>
      </trkpt>
      <trkpt lat="46.26711" lon="5.87683">
        <ele>1337.33</ele>
        <time>2013-06-08T12:44:44Z</time>
      </trkpt>
      <trkpt lat="46.26712" lon="5.87676">
        <ele>1337.33</ele>
        <time>2013-06-08T12:44:47Z</time>
      </trkpt>
      <trkpt lat="46.267" lon="5.87648">
        <ele>1336.85</ele>
        <time>2013-06-08T12:45:03Z</time>
      </trkpt>
      <trkpt lat="46.26699" lon="5.87644">
        <ele>1336.85</ele>
        <time>2013-06-08T12:45:05Z</time>
      </trkpt>
      <trkpt lat="46.2669" lon="5.87611">
        <ele>1336.37</ele>
        <time>2013-06-08T12:45:21Z</time>
      </trkpt>
      <trkpt lat="46.26691" lon="5.87581">
        <ele>1336.37</ele>
        <time>2013-06-08T12:45:32Z</time>
      </trkpt>
      <trkpt lat="46.26676" lon="5.87563">
        <ele>1335.89</ele>
        <time>2013-06-08T12:45:47Z</time>
      </trkpt>
      <trkpt lat="46.26655" lon="5.87563">
        <ele>1334.45</ele>
        <time>2013-06-08T12:45:59Z</time>
      </trkpt>
      <trkpt lat="46.26659" lon="5.87556">
        <ele>1334.45</ele>
        <time>2013-06-08T12:46:05Z</time>
      </trkpt>
      <trkpt lat="46.2666" lon="5.87555">
        <ele>1334.45</ele>
        <time>2013-06-08T12:46:07Z</time>
      </trkpt>
      <trkpt lat="46.26657" lon="5.87551">
        <ele>1333.01</ele>
        <time>2013-06-08T12:46:16Z</time>
      </trkpt>
      <trkpt lat="46.26651" lon="5.87526">
        <ele>1333.97</ele>
        <time>2013-06-08T12:46:31Z</time>
      </trkpt>
      <trkpt lat="46.26638" lon="5.87496">
        <ele>1332.04</ele>
        <time>2013-06-08T12:46:44Z</time>
      </trkpt>
      <trkpt lat="46.26634" lon="5.87476">
        <ele>1328.2</ele>
        <time>2013-06-08T12:46:53Z</time>
      </trkpt>
      <trkpt lat="46.26632" lon="5.87462">
        <ele>1327.72</ele>
        <time>2013-06-08T12:47:01Z</time>
      </trkpt>
      <trkpt lat="46.26626" lon="5.87427">
        <ele>1322.91</ele>
        <time>2013-06-08T12:47:17Z</time>
      </trkpt>
      <trkpt lat="46.26622" lon="5.87397">
        <ele>1319.55</ele>
        <time>2013-06-08T12:47:31Z</time>
      </trkpt>
      <trkpt lat="46.2662" lon="5.87368">
        <ele>1320.03</ele>
        <time>2013-06-08T12:47:48Z</time>
      </trkpt>
      <trkpt lat="46.26621" lon="5.87348">
        <ele>1320.99</ele>
        <time>2013-06-08T12:48:05Z</time>
      </trkpt>
      <trkpt lat="46.26616" lon="5.87346">
        <ele>1319.07</ele>
        <time>2013-06-08T12:48:21Z</time>
      </trkpt>
      <trkpt lat="46.26613" lon="5.87346">
        <ele>1317.62</ele>
        <time>2013-06-08T12:48:45Z</time>
      </trkpt>
      <trkpt lat="46.26612" lon="5.87346">
        <ele>1316.66</ele>
        <time>2013-06-08T12:49:17Z</time>
      </trkpt>
      <trkpt lat="46.26611" lon="5.87345">
        <ele>1315.7</ele>
        <time>2013-06-08T12:49:54Z</time>
      </trkpt>
      <trkpt lat="46.26611" lon="5.87345">
        <ele>1315.7</ele>
        <time>2013-06-08T12:50:34Z</time>
      </trkpt>
      <trkpt lat="46.26612" lon="5.87345">
        <ele>1315.7</ele>
        <time>2013-06-08T12:51:02Z</time>
      </trkpt>
      <trkpt lat="46.26612" lon="5.87345">
        <ele>1315.7</ele>
        <time>2013-06-08T12:51:30Z</time>
      </trkpt>
      <trkpt lat="46.26612" lon="5.87345">
        <ele>1316.18</ele>
        <time>2013-06-08T12:52:03Z</time>
      </trkpt>
      <trkpt lat="46.26611" lon="5.87345">
        <ele>1316.18</ele>
        <time>2013-06-08T12:52:28Z</time>
      </trkpt>
      <trkpt lat="46.2661" lon="5.87347">
        <ele>1316.66</ele>
        <time>2013-06-08T12:52:41Z</time>
      </trkpt>
      <trkpt lat="46.26607" lon="5.87346">
        <ele>1317.14</ele>
        <time>2013-06-08T12:52:44Z</time>
      </trkpt>
      <trkpt lat="46.26602" lon="5.8731">
        <ele>1313.78</ele>
        <time>2013-06-08T12:53:00Z</time>
      </trkpt>
      <trkpt lat="46.26592" lon="5.87288">
        <ele>1308.97</ele>
        <time>2013-06-08T12:53:16Z</time>
      </trkpt>
      <trkpt lat="46.26581" lon="5.87257">
        <ele>1306.09</ele>
        <time>2013-06-08T12:53:33Z</time>
      </trkpt>
      <trkpt lat="46.26572" lon="5.87255">
        <ele>1306.09</ele>
        <time>2013-06-08T12:53:37Z</time>
      </trkpt>
      <trkpt lat="46.26549" lon="5.87232">
        <ele>1302.72</ele>
        <time>2013-06-08T12:53:55Z</time>
      </trkpt>
      <trkpt lat="46.26547" lon="5.87202">
        <ele>1299.84</ele>
        <time>2013-06-08T12:54:10Z</time>
      </trkpt>
      <trkpt lat="46.26545" lon="5.87169">
        <ele>1297.44</ele>
        <time>2013-06-08T12:54:23Z</time>
      </trkpt>
      <trkpt lat="46.26531" lon="5.87141">
        <ele>1294.07</ele>
        <time>2013-06-08T12:54:38Z</time>
      </trkpt>
      <trkpt lat="46.26521" lon="5.87099">
        <ele>1292.15</ele>
        <time>2013-06-08T12:54:57Z</time>
      </trkpt>
      <trkpt lat="46.26515" lon="5.87075">
        <ele>1292.15</ele>
        <time>2013-06-08T12:55:09Z</time>
      </trkpt>
      <trkpt lat="46.26513" lon="5.87062">
        <ele>1291.67</ele>
        <time>2013-06-08T12:55:15Z</time>
      </trkpt>
      <trkpt lat="46.26508" lon="5.87026">
        <ele>1290.23</ele>
        <time>2013-06-08T12:55:33Z</time>
      </trkpt>
      <trkpt lat="46.265" lon="5.86994">
        <ele>1288.3</ele>
        <time>2013-06-08T12:55:48Z</time>
      </trkpt>
      <trkpt lat="46.26492" lon="5.86963">
        <ele>1287.82</ele>
        <time>2013-06-08T12:56:03Z</time>
      </trkpt>
      <trkpt lat="46.26497" lon="5.86944">
        <ele>1288.3</ele>
        <time>2013-06-08T12:56:17Z</time>
      </trkpt>
      <trkpt lat="46.26499" lon="5.86943">
        <ele>1288.3</ele>
        <time>2013-06-08T12:56:19Z</time>
      </trkpt>
      <trkpt lat="46.26509" lon="5.86937">
        <ele>1287.82</ele>
        <time>2013-06-08T12:56:29Z</time>
      </trkpt>
      <trkpt lat="46.26516" lon="5.86904">
        <ele>1288.78</ele>
        <time>2013-06-08T12:56:42Z</time>
      </trkpt>
      <trkpt lat="46.26508" lon="5.86886">
        <ele>1289.75</ele>
        <time>2013-06-08T12:56:54Z</time>
      </trkpt>
      <trkpt lat="46.26489" lon="5.86863">
        <ele>1289.75</ele>
        <time>2013-06-08T12:57:09Z</time>
      </trkpt>
      <trkpt lat="46.26479" lon="5.86848">
        <ele>1290.23</ele>
        <time>2013-06-08T12:57:19Z</time>
      </trkpt>
      <trkpt lat="46.2646" lon="5.86831">
        <ele>1291.67</ele>
        <time>2013-06-08T12:57:35Z</time>
      </trkpt>
      <trkpt lat="46.26444" lon="5.86814">
        <ele>1291.67</ele>
        <time>2013-06-08T12:57:51Z</time>
      </trkpt>
      <trkpt lat="46.26433" lon="5.8679">
        <ele>1295.03</ele>
        <time>2013-06-08T12:58:06Z</time>
      </trkpt>
      <trkpt lat="46.26426" lon="5.86769">
        <ele>1300.8</ele>
        <time>2013-06-08T12:58:21Z</time>
      </trkpt>
      <trkpt lat="46.26418" lon="5.86745">
        <ele>1305.61</ele>
        <time>2013-06-08T12:58:35Z</time>
      </trkpt>
      <trkpt lat="46.26414" lon="5.86735">
        <ele>1303.69</ele>
        <time>2013-06-08T12:58:48Z</time>
      </trkpt>
      <trkpt lat="46.26408" lon="5.86715">
        <ele>1301.76</ele>
        <time>2013-06-08T12:59:08Z</time>
      </trkpt>
      <trkpt lat="46.26405" lon="5.86692">
        <ele>1302.24</ele>
        <time>2013-06-08T12:59:21Z</time>
      </trkpt>
      <trkpt lat="46.26403" lon="5.8666">
        <ele>1305.13</ele>
        <time>2013-06-08T12:59:35Z</time>
      </trkpt>
      <trkpt lat="46.26396" lon="5.86628">
        <ele>1309.45</ele>
        <time>2013-06-08T12:59:50Z</time>
      </trkpt>
      <trkpt lat="46.26385" lon="5.86603">
        <ele>1308.49</ele>
        <time>2013-06-08T13:00:07Z</time>
      </trkpt>
      <trkpt lat="46.2638" lon="5.86582">
        <ele>1308.01</ele>
        <time>2013-06-08T13:00:22Z</time>
      </trkpt>
      <trkpt lat="46.26379" lon="5.86579">
        <ele>1309.93</ele>
        <time>2013-06-08T13:00:25Z</time>
      </trkpt>
      <trkpt lat="46.26362" lon="5.86541">
        <ele>1312.82</ele>
        <time>2013-06-08T13:00:43Z</time>
      </trkpt>
      <trkpt lat="46.26357" lon="5.8652">
        <ele>1318.59</ele>
        <time>2013-06-08T13:01:00Z</time>
      </trkpt>
      <trkpt lat="46.26356" lon="5.86516">
        <ele>1319.07</ele>
        <time>2013-06-08T13:01:02Z</time>
      </trkpt>
      <trkpt lat="46.26353" lon="5.86478">
        <ele>1324.83</ele>
        <time>2013-06-08T13:01:19Z</time>
      </trkpt>
      <trkpt lat="46.2635" lon="5.8647">
        <ele>1326.28</ele>
        <time>2013-06-08T13:01:32Z</time>
      </trkpt>
      <trkpt lat="46.26345" lon="5.86462">
        <ele>1322.91</ele>
        <time>2013-06-08T13:01:41Z</time>
      </trkpt>
      <trkpt lat="46.26351" lon="5.86443">
        <ele>1319.07</ele>
        <time>2013-06-08T13:01:56Z</time>
      </trkpt>
      <trkpt lat="46.26352" lon="5.86436">
        <ele>1320.51</ele>
        <time>2013-06-08T13:02:01Z</time>
      </trkpt>
      <trkpt lat="46.26351" lon="5.86419">
        <ele>1322.91</ele>
        <time>2013-06-08T13:02:09Z</time>
      </trkpt>
      <trkpt lat="46.2635" lon="5.86411">
        <ele>1323.87</ele>
        <time>2013-06-08T13:02:13Z</time>
      </trkpt>
      <trkpt lat="46.26346" lon="5.86404">
        <ele>1323.87</ele>
        <time>2013-06-08T13:02:16Z</time>
      </trkpt>
      <trkpt lat="46.26337" lon="5.86369">
        <ele>1318.1</ele>
        <time>2013-06-08T13:02:28Z</time>
      </trkpt>
      <trkpt lat="46.26334" lon="5.86358">
        <ele>1315.7</ele>
        <time>2013-06-08T13:02:31Z</time>
      </trkpt>
      <trkpt lat="46.26331" lon="5.86333">
        <ele>1309.93</ele>
        <time>2013-06-08T13:02:47Z</time>
      </trkpt>
      <trkpt lat="46.26329" lon="5.86331">
        <ele>1309.93</ele>
        <time>2013-06-08T13:02:50Z</time>
      </trkpt>
      <trkpt lat="46.26323" lon="5.86322">
        <ele>1308.97</ele>
        <time>2013-06-08T13:02:57Z</time>
      </trkpt>
      <trkpt lat="46.26315" lon="5.86296">
        <ele>1307.53</ele>
        <time>2013-06-08T13:03:07Z</time>
      </trkpt>
      <trkpt lat="46.26305" lon="5.86281">
        <ele>1307.05</ele>
        <time>2013-06-08T13:03:21Z</time>
      </trkpt>
      <trkpt lat="46.26303" lon="5.86271">
        <ele>1308.01</ele>
        <time>2013-06-08T13:03:28Z</time>
      </trkpt>
      <trkpt lat="46.26293" lon="5.86248">
        <ele>1308.49</ele>
        <time>2013-06-08T13:03:42Z</time>
      </trkpt>
      <trkpt lat="46.26276" lon="5.86227">
        <ele>1314.26</ele>
        <time>2013-06-08T13:03:58Z</time>
      </trkpt>
      <trkpt lat="46.26257" lon="5.86206">
        <ele>1315.7</ele>
        <time>2013-06-08T13:04:12Z</time>
      </trkpt>
      <trkpt lat="46.26252" lon="5.86201">
        <ele>1314.74</ele>
        <time>2013-06-08T13:04:16Z</time>
      </trkpt>
      <trkpt lat="46.26242" lon="5.86181">
        <ele>1315.7</ele>
        <time>2013-06-08T13:04:30Z</time>
      </trkpt>
      <trkpt lat="46.26241" lon="5.8618">
        <ele>1315.7</ele>
        <time>2013-06-08T13:04:31Z</time>
      </trkpt>
      <trkpt lat="46.26239" lon="5.86162">
        <ele>1314.26</ele>
        <time>2013-06-08T13:04:45Z</time>
      </trkpt>
      <trkpt lat="46.26235" lon="5.86162">
        <ele>1310.9</ele>
        <time>2013-06-08T13:05:12Z</time>
      </trkpt>
      <trkpt lat="46.26235" lon="5.86161">
        <ele>1311.86</ele>
        <time>2013-06-08T13:05:18Z</time>
      </trkpt>
      <trkpt lat="46.26234" lon="5.86151">
        <ele>1310.9</ele>
        <time>2013-06-08T13:05:29Z</time>
      </trkpt>
      <trkpt lat="46.26235" lon="5.86148">
        <ele>1311.38</ele>
        <time>2013-06-08T13:05:31Z</time>
      </trkpt>
      <trkpt lat="46.26245" lon="5.86132">
        <ele>1316.66</ele>
        <time>2013-06-08T13:05:45Z</time>
      </trkpt>
      <trkpt lat="46.26259" lon="5.86107">
        <ele>1321.95</ele>
        <time>2013-06-08T13:05:59Z</time>
      </trkpt>
      <trkpt lat="46.26272" lon="5.86079">
        <ele>1329.16</ele>
        <time>2013-06-08T13:06:10Z</time>
      </trkpt>
      <trkpt lat="46.26276" lon="5.86044">
        <ele>1333.97</ele>
        <time>2013-06-08T13:06:23Z</time>
      </trkpt>
      <trkpt lat="46.26271" lon="5.86028">
        <ele>1329.16</ele>
        <time>2013-06-08T13:06:29Z</time>
      </trkpt>
      <trkpt lat="46.26255" lon="5.8601">
        <ele>1327.24</ele>
        <time>2013-06-08T13:06:41Z</time>
      </trkpt>
      <trkpt lat="46.26254" lon="5.86009">
        <ele>1327.24</ele>
        <time>2013-06-08T13:06:42Z</time>
      </trkpt>
      <trkpt lat="46.2623" lon="5.85999">
        <ele>1320.99</ele>
        <time>2013-06-08T13:06:55Z</time>
      </trkpt>
      <trkpt lat="46.2621" lon="5.85998">
        <ele>1316.18</ele>
        <time>2013-06-08T13:07:04Z</time>
      </trkpt>
      <trkpt lat="46.26204" lon="5.85995">
        <ele>1315.22</ele>
        <time>2013-06-08T13:07:07Z</time>
      </trkpt>
      <trkpt lat="46.26185" lon="5.85978">
        <ele>1315.7</ele>
        <time>2013-06-08T13:07:21Z</time>
      </trkpt>
      <trkpt lat="46.26176" lon="5.85956">
        <ele>1315.22</ele>
        <time>2013-06-08T13:07:34Z</time>
      </trkpt>
      <trkpt lat="46.26167" lon="5.85937">
        <ele>1310.9</ele>
        <time>2013-06-08T13:07:47Z</time>
      </trkpt>
      <trkpt lat="46.26162" lon="5.8593">
        <ele>1309.45</ele>
        <time>2013-06-08T13:07:52Z</time>
      </trkpt>
      <trkpt lat="46.26155" lon="5.85909">
        <ele>1308.49</ele>
        <time>2013-06-08T13:08:06Z</time>
      </trkpt>
      <trkpt lat="46.26144" lon="5.85891">
        <ele>1304.17</ele>
        <time>2013-06-08T13:08:20Z</time>
      </trkpt>
      <trkpt lat="46.26142" lon="5.85881">
        <ele>1300.8</ele>
        <time>2013-06-08T13:08:28Z</time>
      </trkpt>
      <trkpt lat="46.26132" lon="5.85857">
        <ele>1294.07</ele>
        <time>2013-06-08T13:08:42Z</time>
      </trkpt>
      <trkpt lat="46.26132" lon="5.85856">
        <ele>1293.59</ele>
        <time>2013-06-08T13:08:43Z</time>
      </trkpt>
      <trkpt lat="46.26128" lon="5.85841">
        <ele>1290.71</ele>
        <time>2013-06-08T13:08:52Z</time>
      </trkpt>
      <trkpt lat="46.26124" lon="5.85824">
        <ele>1287.82</ele>
        <time>2013-06-08T13:09:05Z</time>
      </trkpt>
      <trkpt lat="46.26123" lon="5.85814">
        <ele>1287.82</ele>
        <time>2013-06-08T13:09:12Z</time>
      </trkpt>
      <trkpt lat="46.26119" lon="5.85802">
        <ele>1288.78</ele>
        <time>2013-06-08T13:09:20Z</time>
      </trkpt>
      <trkpt lat="46.26115" lon="5.85787">
        <ele>1290.23</ele>
        <time>2013-06-08T13:09:29Z</time>
      </trkpt>
      <trkpt lat="46.2611" lon="5.85776">
        <ele>1290.71</ele>
        <time>2013-06-08T13:09:34Z</time>
      </trkpt>
      <trkpt lat="46.26098" lon="5.85756">
        <ele>1291.19</ele>
        <time>2013-06-08T13:09:48Z</time>
      </trkpt>
      <trkpt lat="46.26081" lon="5.85751">
        <ele>1289.27</ele>
        <time>2013-06-08T13:10:00Z</time>
      </trkpt>
      <trkpt lat="46.26064" lon="5.85748">
        <ele>1290.23</ele>
        <time>2013-06-08T13:10:15Z</time>
      </trkpt>
      <trkpt lat="46.26049" lon="5.85748">
        <ele>1287.82</ele>
        <time>2013-06-08T13:10:29Z</time>
      </trkpt>
      <trkpt lat="46.26036" lon="5.85747">
        <ele>1285.42</ele>
        <time>2013-06-08T13:10:42Z</time>
      </trkpt>
      <trkpt lat="46.26034" lon="5.85745">
        <ele>1285.9</ele>
        <time>2013-06-08T13:10:43Z</time>
      </trkpt>
      <trkpt lat="46.26014" lon="5.85725">
        <ele>1287.82</ele>
        <time>2013-06-08T13:10:55Z</time>
      </trkpt>
      <trkpt lat="46.26011" lon="5.85719">
        <ele>1287.82</ele>
        <time>2013-06-08T13:10:59Z</time>
      </trkpt>
      <trkpt lat="46.26007" lon="5.85703">
        <ele>1286.38</ele>
        <time>2013-06-08T13:11:14Z</time>
      </trkpt>
      <trkpt lat="46.2601" lon="5.85685">
        <ele>1286.86</ele>
        <time>2013-06-08T13:11:30Z</time>
      </trkpt>
      <trkpt lat="46.26009" lon="5.85679">
        <ele>1287.34</ele>
        <time>2013-06-08T13:11:38Z</time>
      </trkpt>
      <trkpt lat="46.2601" lon="5.85651">
        <ele>1289.27</ele>
        <time>2013-06-08T13:11:50Z</time>
      </trkpt>
      <trkpt lat="46.26002" lon="5.85611">
        <ele>1289.75</ele>
        <time>2013-06-08T13:12:08Z</time>
      </trkpt>
      <trkpt lat="46.26003" lon="5.85603">
        <ele>1289.75</ele>
        <time>2013-06-08T13:12:12Z</time>
      </trkpt>
      <trkpt lat="46.26006" lon="5.85574">
        <ele>1294.55</ele>
        <time>2013-06-08T13:12:28Z</time>
      </trkpt>
      <trkpt lat="46.26011" lon="5.85545">
        <ele>1297.92</ele>
        <time>2013-06-08T13:12:40Z</time>
      </trkpt>
      <trkpt lat="46.26008" lon="5.85523">
        <ele>1299.84</ele>
        <time>2013-06-08T13:12:52Z</time>
      </trkpt>
      <trkpt lat="46.26003" lon="5.8551">
        <ele>1300.8</ele>
        <time>2013-06-08T13:12:59Z</time>
      </trkpt>
      <trkpt lat="46.25995" lon="5.85498">
        <ele>1301.76</ele>
        <time>2013-06-08T13:13:09Z</time>
      </trkpt>
      <trkpt lat="46.2596" lon="5.85482">
        <ele>1296.96</ele>
        <time>2013-06-08T13:13:23Z</time>
      </trkpt>
      <trkpt lat="46.25942" lon="5.85473">
        <ele>1297.92</ele>
        <time>2013-06-08T13:13:34Z</time>
      </trkpt>
      <trkpt lat="46.25938" lon="5.8547">
        <ele>1297.92</ele>
        <time>2013-06-08T13:13:36Z</time>
      </trkpt>
      <trkpt lat="46.25933" lon="5.85469">
        <ele>1298.88</ele>
        <time>2013-06-08T13:13:39Z</time>
      </trkpt>
      <trkpt lat="46.25917" lon="5.85458">
        <ele>1300.8</ele>
        <time>2013-06-08T13:13:52Z</time>
      </trkpt>
      <trkpt lat="46.25903" lon="5.85461">
        <ele>1303.69</ele>
        <time>2013-06-08T13:14:05Z</time>
      </trkpt>
      <trkpt lat="46.259" lon="5.85462">
        <ele>1303.2</ele>
        <time>2013-06-08T13:14:08Z</time>
      </trkpt>
      <trkpt lat="46.25891" lon="5.85461">
        <ele>1303.2</ele>
        <time>2013-06-08T13:14:15Z</time>
      </trkpt>
      <trkpt lat="46.25874" lon="5.85458">
        <ele>1302.24</ele>
        <time>2013-06-08T13:14:29Z</time>
      </trkpt>
      <trkpt lat="46.25864" lon="5.85454">
        <ele>1297.92</ele>
        <time>2013-06-08T13:14:38Z</time>
      </trkpt>
      <trkpt lat="46.25849" lon="5.85439">
        <ele>1296.48</ele>
        <time>2013-06-08T13:14:50Z</time>
      </trkpt>
      <trkpt lat="46.25842" lon="5.85435">
        <ele>1296.96</ele>
        <time>2013-06-08T13:15:05Z</time>
      </trkpt>
      <trkpt lat="46.25842" lon="5.85434">
        <ele>1296.96</ele>
        <time>2013-06-08T13:15:17Z</time>
      </trkpt>
      <trkpt lat="46.25832" lon="5.85416">
        <ele>1296.96</ele>
        <time>2013-06-08T13:15:28Z</time>
      </trkpt>
      <trkpt lat="46.25817" lon="5.85401">
        <ele>1296.48</ele>
        <time>2013-06-08T13:15:38Z</time>
      </trkpt>
      <trkpt lat="46.25815" lon="5.85397">
        <ele>1296.48</ele>
        <time>2013-06-08T13:15:40Z</time>
      </trkpt>
      <trkpt lat="46.258" lon="5.85383">
        <ele>1295.51</ele>
        <time>2013-06-08T13:15:54Z</time>
      </trkpt>
      <trkpt lat="46.25784" lon="5.85369">
        <ele>1294.55</ele>
        <time>2013-06-08T13:16:08Z</time>
      </trkpt>
      <trkpt lat="46.25781" lon="5.85366">
        <ele>1294.07</ele>
        <time>2013-06-08T13:16:10Z</time>
      </trkpt>
      <trkpt lat="46.2577" lon="5.85354">
        <ele>1293.11</ele>
        <time>2013-06-08T13:16:23Z</time>
      </trkpt>
      <trkpt lat="46.25767" lon="5.8535">
        <ele>1293.11</ele>
        <time>2013-06-08T13:16:26Z</time>
      </trkpt>
      <trkpt lat="46.2576" lon="5.85346">
        <ele>1292.63</ele>
        <time>2013-06-08T13:16:31Z</time>
      </trkpt>
      <trkpt lat="46.25748" lon="5.85337">
        <ele>1292.15</ele>
        <time>2013-06-08T13:16:43Z</time>
      </trkpt>
      <trkpt lat="46.25741" lon="5.8533">
        <ele>1292.15</ele>
        <time>2013-06-08T13:16:50Z</time>
      </trkpt>
      <trkpt lat="46.25728" lon="5.85317">
        <ele>1292.15</ele>
        <time>2013-06-08T13:17:02Z</time>
      </trkpt>
      <trkpt lat="46.25727" lon="5.85315">
        <ele>1291.67</ele>
        <time>2013-06-08T13:17:03Z</time>
      </trkpt>
      <trkpt lat="46.25717" lon="5.85295">
        <ele>1292.15</ele>
        <time>2013-06-08T13:17:17Z</time>
      </trkpt>
      <trkpt lat="46.25707" lon="5.85273">
        <ele>1293.59</ele>
        <time>2013-06-08T13:17:27Z</time>
      </trkpt>
      <trkpt lat="46.25691" lon="5.85255">
        <ele>1294.07</ele>
        <time>2013-06-08T13:17:40Z</time>
      </trkpt>
      <trkpt lat="46.25686" lon="5.85227">
        <ele>1295.51</ele>
        <time>2013-06-08T13:17:52Z</time>
      </trkpt>
      <trkpt lat="46.25684" lon="5.85223">
        <ele>1295.51</ele>
        <time>2013-06-08T13:17:54Z</time>
      </trkpt>
      <trkpt lat="46.25677" lon="5.85211">
        <ele>1295.51</ele>
        <time>2013-06-08T13:18:01Z</time>
      </trkpt>
      <trkpt lat="46.25659" lon="5.85193">
        <ele>1296.48</ele>
        <time>2013-06-08T13:18:15Z</time>
      </trkpt>
      <trkpt lat="46.25644" lon="5.85189">
        <ele>1293.11</ele>
        <time>2013-06-08T13:18:26Z</time>
      </trkpt>
      <trkpt lat="46.25631" lon="5.8518">
        <ele>1289.75</ele>
        <time>2013-06-08T13:18:37Z</time>
      </trkpt>
      <trkpt lat="46.25618" lon="5.85171">
        <ele>1287.82</ele>
        <time>2013-06-08T13:18:48Z</time>
      </trkpt>
      <trkpt lat="46.25603" lon="5.85158">
        <ele>1287.34</ele>
        <time>2013-06-08T13:19:00Z</time>
      </trkpt>
      <trkpt lat="46.25586" lon="5.85139">
        <ele>1289.75</ele>
        <time>2013-06-08T13:19:16Z</time>
      </trkpt>
      <trkpt lat="46.25568" lon="5.85123">
        <ele>1292.15</ele>
        <time>2013-06-08T13:19:31Z</time>
      </trkpt>
      <trkpt lat="46.25554" lon="5.85107">
        <ele>1295.51</ele>
        <time>2013-06-08T13:19:45Z</time>
      </trkpt>
      <trkpt lat="46.25538" lon="5.85096">
        <ele>1304.17</ele>
        <time>2013-06-08T13:19:58Z</time>
      </trkpt>
      <trkpt lat="46.25527" lon="5.85087">
        <ele>1310.9</ele>
        <time>2013-06-08T13:20:08Z</time>
      </trkpt>
      <trkpt lat="46.2551" lon="5.85075">
        <ele>1315.7</ele>
        <time>2013-06-08T13:20:22Z</time>
      </trkpt>
      <trkpt lat="46.25496" lon="5.85073">
        <ele>1320.99</ele>
        <time>2013-06-08T13:20:33Z</time>
      </trkpt>
      <trkpt lat="46.25483" lon="5.85083">
        <ele>1322.43</ele>
        <time>2013-06-08T13:20:45Z</time>
      </trkpt>
      <trkpt lat="46.25476" lon="5.85081">
        <ele>1322.43</ele>
        <time>2013-06-08T13:20:51Z</time>
      </trkpt>
      <trkpt lat="46.2547" lon="5.85077">
        <ele>1322.43</ele>
        <time>2013-06-08T13:20:55Z</time>
      </trkpt>
      <trkpt lat="46.2546" lon="5.85076">
        <ele>1321.47</ele>
        <time>2013-06-08T13:21:03Z</time>
      </trkpt>
      <trkpt lat="46.25454" lon="5.85074">
        <ele>1320.51</ele>
        <time>2013-06-08T13:21:09Z</time>
      </trkpt>
      <trkpt lat="46.25446" lon="5.85076">
        <ele>1318.1</ele>
        <time>2013-06-08T13:21:26Z</time>
      </trkpt>
      <trkpt lat="46.25443" lon="5.85076">
        <ele>1316.18</ele>
        <time>2013-06-08T13:21:44Z</time>
      </trkpt>
      <trkpt lat="46.25434" lon="5.85073">
        <ele>1316.18</ele>
        <time>2013-06-08T13:21:55Z</time>
      </trkpt>
      <trkpt lat="46.2542" lon="5.85068">
        <ele>1316.18</ele>
        <time>2013-06-08T13:22:07Z</time>
      </trkpt>
      <trkpt lat="46.25412" lon="5.85065">
        <ele>1316.18</ele>
        <time>2013-06-08T13:22:21Z</time>
      </trkpt>
      <trkpt lat="46.25414" lon="5.85067">
        <ele>1315.22</ele>
        <time>2013-06-08T13:22:34Z</time>
      </trkpt>
      <trkpt lat="46.25412" lon="5.85067">
        <ele>1315.7</ele>
        <time>2013-06-08T13:23:06Z</time>
      </trkpt>
      <trkpt lat="46.25411" lon="5.85067">
        <ele>1315.22</ele>
        <time>2013-06-08T13:23:37Z</time>
      </trkpt>
      <trkpt lat="46.25411" lon="5.85065">
        <ele>1315.7</ele>
        <time>2013-06-08T13:23:49Z</time>
      </trkpt>
      <trkpt lat="46.25408" lon="5.85061">
        <ele>1316.66</ele>
        <time>2013-06-08T13:24:04Z</time>
      </trkpt>
      <trkpt lat="46.25406" lon="5.85055">
        <ele>1315.7</ele>
        <time>2013-06-08T13:24:11Z</time>
      </trkpt>
      <trkpt lat="46.25386" lon="5.85029">
        <ele>1316.66</ele>
        <time>2013-06-08T13:24:26Z</time>
      </trkpt>
      <trkpt lat="46.25375" lon="5.85022">
        <ele>1319.07</ele>
        <time>2013-06-08T13:24:33Z</time>
      </trkpt>
      <trkpt lat="46.25358" lon="5.85007">
        <ele>1319.55</ele>
        <time>2013-06-08T13:24:44Z</time>
      </trkpt>
      <trkpt lat="46.25352" lon="5.85001">
        <ele>1319.55</ele>
        <time>2013-06-08T13:24:49Z</time>
      </trkpt>
      <trkpt lat="46.25343" lon="5.84994">
        <ele>1321.95</ele>
        <time>2013-06-08T13:24:55Z</time>
      </trkpt>
      <trkpt lat="46.25335" lon="5.84975">
        <ele>1322.43</ele>
        <time>2013-06-08T13:25:06Z</time>
      </trkpt>
      <trkpt lat="46.25335" lon="5.84969">
        <ele>1320.99</ele>
        <time>2013-06-08T13:25:09Z</time>
      </trkpt>
      <trkpt lat="46.25327" lon="5.84943">
        <ele>1318.59</ele>
        <time>2013-06-08T13:25:26Z</time>
      </trkpt>
      <trkpt lat="46.25322" lon="5.84931">
        <ele>1319.07</ele>
        <time>2013-06-08T13:25:34Z</time>
      </trkpt>
      <trkpt lat="46.25319" lon="5.84929">
        <ele>1319.07</ele>
        <time>2013-06-08T13:25:36Z</time>
      </trkpt>
      <trkpt lat="46.25309" lon="5.84913">
        <ele>1320.03</ele>
        <time>2013-06-08T13:25:49Z</time>
      </trkpt>
      <trkpt lat="46.25306" lon="5.84909">
        <ele>1320.99</ele>
        <time>2013-06-08T13:25:53Z</time>
      </trkpt>
      <trkpt lat="46.25285" lon="5.84882">
        <ele>1318.59</ele>
        <time>2013-06-08T13:26:06Z</time>
      </trkpt>
      <trkpt lat="46.25284" lon="5.84881">
        <ele>1318.59</ele>
        <time>2013-06-08T13:26:07Z</time>
      </trkpt>
      <trkpt lat="46.25268" lon="5.84864">
        <ele>1316.18</ele>
        <time>2013-06-08T13:26:21Z</time>
      </trkpt>
      <trkpt lat="46.2525" lon="5.84848">
        <ele>1311.86</ele>
        <time>2013-06-08T13:26:34Z</time>
      </trkpt>
      <trkpt lat="46.25234" lon="5.84817">
        <ele>1304.65</ele>
        <time>2013-06-08T13:26:53Z</time>
      </trkpt>
      <trkpt lat="46.25217" lon="5.84797">
        <ele>1300.32</ele>
        <time>2013-06-08T13:27:08Z</time>
      </trkpt>
      <trkpt lat="46.252" lon="5.84777">
        <ele>1301.76</ele>
        <time>2013-06-08T13:27:23Z</time>
      </trkpt>
      <trkpt lat="46.25186" lon="5.84751">
        <ele>1307.05</ele>
        <time>2013-06-08T13:27:41Z</time>
      </trkpt>
      <trkpt lat="46.25183" lon="5.84743">
        <ele>1308.01</ele>
        <time>2013-06-08T13:27:45Z</time>
      </trkpt>
      <trkpt lat="46.25178" lon="5.84737">
        <ele>1308.49</ele>
        <time>2013-06-08T13:27:49Z</time>
      </trkpt>
      <trkpt lat="46.2517" lon="5.84722">
        <ele>1307.05</ele>
        <time>2013-06-08T13:27:57Z</time>
      </trkpt>
      <trkpt lat="46.25184" lon="5.847">
        <ele>1306.57</ele>
        <time>2013-06-08T13:28:13Z</time>
      </trkpt>
      <trkpt lat="46.2519" lon="5.84678">
        <ele>1306.57</ele>
        <time>2013-06-08T13:28:27Z</time>
      </trkpt>
      <trkpt lat="46.25197" lon="5.84657">
        <ele>1305.13</ele>
        <time>2013-06-08T13:28:38Z</time>
      </trkpt>
      <trkpt lat="46.25199" lon="5.84643">
        <ele>1304.17</ele>
        <time>2013-06-08T13:28:44Z</time>
      </trkpt>
      <trkpt lat="46.25203" lon="5.84633">
        <ele>1302.72</ele>
        <time>2013-06-08T13:28:49Z</time>
      </trkpt>
      <trkpt lat="46.25206" lon="5.84609">
        <ele>1301.76</ele>
        <time>2013-06-08T13:29:01Z</time>
      </trkpt>
      <trkpt lat="46.25205" lon="5.84607">
        <ele>1301.28</ele>
        <time>2013-06-08T13:29:02Z</time>
      </trkpt>
      <trkpt lat="46.25202" lon="5.8458">
        <ele>1300.8</ele>
        <time>2013-06-08T13:29:18Z</time>
      </trkpt>
      <trkpt lat="46.252" lon="5.84576">
        <ele>1300.32</ele>
        <time>2013-06-08T13:29:21Z</time>
      </trkpt>
      <trkpt lat="46.25172" lon="5.84532">
        <ele>1300.8</ele>
        <time>2013-06-08T13:29:36Z</time>
      </trkpt>
      <trkpt lat="46.2516" lon="5.84513">
        <ele>1299.84</ele>
        <time>2013-06-08T13:29:45Z</time>
      </trkpt>
      <trkpt lat="46.25153" lon="5.84504">
        <ele>1298.88</ele>
        <time>2013-06-08T13:29:50Z</time>
      </trkpt>
      <trkpt lat="46.25131" lon="5.8448">
        <ele>1295.03</ele>
        <time>2013-06-08T13:30:06Z</time>
      </trkpt>
      <trkpt lat="46.25128" lon="5.84477">
        <ele>1295.99</ele>
        <time>2013-06-08T13:30:09Z</time>
      </trkpt>
      <trkpt lat="46.25116" lon="5.84468">
        <ele>1297.44</ele>
        <time>2013-06-08T13:30:19Z</time>
      </trkpt>
      <trkpt lat="46.25097" lon="5.84458">
        <ele>1295.51</ele>
        <time>2013-06-08T13:30:30Z</time>
      </trkpt>
      <trkpt lat="46.25091" lon="5.84457">
        <ele>1293.59</ele>
        <time>2013-06-08T13:30:34Z</time>
      </trkpt>
      <trkpt lat="46.25077" lon="5.84444">
        <ele>1293.11</ele>
        <time>2013-06-08T13:30:47Z</time>
      </trkpt>
      <trkpt lat="46.25062" lon="5.8443">
        <ele>1293.59</ele>
        <time>2013-06-08T13:30:59Z</time>
      </trkpt>
      <trkpt lat="46.25047" lon="5.84416">
        <ele>1293.59</ele>
        <time>2013-06-08T13:31:10Z</time>
      </trkpt>
      <trkpt lat="46.25032" lon="5.84399">
        <ele>1292.63</ele>
        <time>2013-06-08T13:31:22Z</time>
      </trkpt>
      <trkpt lat="46.2503" lon="5.84398">
        <ele>1292.63</ele>
        <time>2013-06-08T13:31:24Z</time>
      </trkpt>
      <trkpt lat="46.25015" lon="5.84383">
        <ele>1291.19</ele>
        <time>2013-06-08T13:31:38Z</time>
      </trkpt>
      <trkpt lat="46.25013" lon="5.84377">
        <ele>1289.75</ele>
        <time>2013-06-08T13:31:46Z</time>
      </trkpt>
      <trkpt lat="46.25007" lon="5.84369">
        <ele>1290.23</ele>
        <time>2013-06-08T13:31:51Z</time>
      </trkpt>
      <trkpt lat="46.25007" lon="5.84366">
        <ele>1290.23</ele>
        <time>2013-06-08T13:31:53Z</time>
      </trkpt>
      <trkpt lat="46.24998" lon="5.84347">
        <ele>1290.23</ele>
        <time>2013-06-08T13:32:00Z</time>
      </trkpt>
      <trkpt lat="46.24997" lon="5.84334">
        <ele>1291.67</ele>
        <time>2013-06-08T13:32:08Z</time>
      </trkpt>
      <trkpt lat="46.24978" lon="5.84313">
        <ele>1293.59</ele>
        <time>2013-06-08T13:32:18Z</time>
      </trkpt>
      <trkpt lat="46.24972" lon="5.84304">
        <ele>1292.63</ele>
        <time>2013-06-08T13:32:25Z</time>
      </trkpt>
      <trkpt lat="46.24964" lon="5.8429">
        <ele>1290.71</ele>
        <time>2013-06-08T13:32:33Z</time>
      </trkpt>
      <trkpt lat="46.24959" lon="5.84284">
        <ele>1290.23</ele>
        <time>2013-06-08T13:32:38Z</time>
      </trkpt>
      <trkpt lat="46.24953" lon="5.84271">
        <ele>1293.11</ele>
        <time>2013-06-08T13:32:50Z</time>
      </trkpt>
      <trkpt lat="46.24942" lon="5.84256">
        <ele>1290.23</ele>
        <time>2013-06-08T13:33:01Z</time>
      </trkpt>
      <trkpt lat="46.2494" lon="5.84253">
        <ele>1290.23</ele>
        <time>2013-06-08T13:33:03Z</time>
      </trkpt>
      <trkpt lat="46.24935" lon="5.84226">
        <ele>1286.86</ele>
        <time>2013-06-08T13:33:18Z</time>
      </trkpt>
      <trkpt lat="46.24931" lon="5.84219">
        <ele>1285.9</ele>
        <time>2013-06-08T13:33:22Z</time>
      </trkpt>
      <trkpt lat="46.24904" lon="5.84195">
        <ele>1280.61</ele>
        <time>2013-06-08T13:33:39Z</time>
      </trkpt>
      <trkpt lat="46.24888" lon="5.84173">
        <ele>1278.21</ele>
        <time>2013-06-08T13:33:54Z</time>
      </trkpt>
      <trkpt lat="46.24879" lon="5.84163">
        <ele>1276.77</ele>
        <time>2013-06-08T13:34:01Z</time>
      </trkpt>
      <trkpt lat="46.24866" lon="5.84137">
        <ele>1271.96</ele>
        <time>2013-06-08T13:34:16Z</time>
      </trkpt>
      <trkpt lat="46.24852" lon="5.84121">
        <ele>1270.52</ele>
        <time>2013-06-08T13:34:25Z</time>
      </trkpt>
      <trkpt lat="46.24829" lon="5.841">
        <ele>1269.08</ele>
        <time>2013-06-08T13:34:38Z</time>
      </trkpt>
      <trkpt lat="46.24816" lon="5.84095">
        <ele>1266.19</ele>
        <time>2013-06-08T13:34:47Z</time>
      </trkpt>
      <trkpt lat="46.24805" lon="5.84092">
        <ele>1263.79</ele>
        <time>2013-06-08T13:34:55Z</time>
      </trkpt>
      <trkpt lat="46.248" lon="5.84088">
        <ele>1262.83</ele>
        <time>2013-06-08T13:35:00Z</time>
      </trkpt>
      <trkpt lat="46.24786" lon="5.84076">
        <ele>1264.27</ele>
        <time>2013-06-08T13:35:08Z</time>
      </trkpt>
      <trkpt lat="46.24776" lon="5.8406">
        <ele>1265.23</ele>
        <time>2013-06-08T13:35:19Z</time>
      </trkpt>
      <trkpt lat="46.24768" lon="5.84047">
        <ele>1263.31</ele>
        <time>2013-06-08T13:35:30Z</time>
      </trkpt>
      <trkpt lat="46.24761" lon="5.84036">
        <ele>1263.79</ele>
        <time>2013-06-08T13:35:34Z</time>
      </trkpt>
      <trkpt lat="46.24749" lon="5.84013">
        <ele>1261.87</ele>
        <time>2013-06-08T13:35:47Z</time>
      </trkpt>
      <trkpt lat="46.24748" lon="5.84007">
        <ele>1260.43</ele>
        <time>2013-06-08T13:35:52Z</time>
      </trkpt>
      <trkpt lat="46.24746" lon="5.84001">
        <ele>1259.46</ele>
        <time>2013-06-08T13:35:56Z</time>
      </trkpt>
      <trkpt lat="46.24731" lon="5.83979">
        <ele>1256.1</ele>
        <time>2013-06-08T13:36:09Z</time>
      </trkpt>
      <trkpt lat="46.24715" lon="5.83969">
        <ele>1253.22</ele>
        <time>2013-06-08T13:36:21Z</time>
      </trkpt>
      <trkpt lat="46.24706" lon="5.83961">
        <ele>1251.77</ele>
        <time>2013-06-08T13:36:28Z</time>
      </trkpt>
      <trkpt lat="46.24684" lon="5.83967">
        <ele>1243.6</ele>
        <time>2013-06-08T13:36:42Z</time>
      </trkpt>
      <trkpt lat="46.24661" lon="5.83974">
        <ele>1234.47</ele>
        <time>2013-06-08T13:36:56Z</time>
      </trkpt>
      <trkpt lat="46.24645" lon="5.83966">
        <ele>1231.11</ele>
        <time>2013-06-08T13:37:08Z</time>
      </trkpt>
      <trkpt lat="46.2463" lon="5.83951">
        <ele>1230.14</ele>
        <time>2013-06-08T13:37:21Z</time>
      </trkpt>
      <trkpt lat="46.24621" lon="5.8394">
        <ele>1230.62</ele>
        <time>2013-06-08T13:37:29Z</time>
      </trkpt>
      <trkpt lat="46.24603" lon="5.83923">
        <ele>1231.59</ele>
        <time>2013-06-08T13:37:42Z</time>
      </trkpt>
      <trkpt lat="46.24587" lon="5.83907">
        <ele>1231.59</ele>
        <time>2013-06-08T13:37:55Z</time>
      </trkpt>
      <trkpt lat="46.24574" lon="5.83901">
        <ele>1233.03</ele>
        <time>2013-06-08T13:38:03Z</time>
      </trkpt>
      <trkpt lat="46.24569" lon="5.83894">
        <ele>1234.95</ele>
        <time>2013-06-08T13:38:07Z</time>
      </trkpt>
      <trkpt lat="46.24553" lon="5.83883">
        <ele>1240.72</ele>
        <time>2013-06-08T13:38:18Z</time>
      </trkpt>
      <trkpt lat="46.24548" lon="5.83881">
        <ele>1242.64</ele>
        <time>2013-06-08T13:38:22Z</time>
      </trkpt>
      <trkpt lat="46.24534" lon="5.83876">
        <ele>1245.04</ele>
        <time>2013-06-08T13:38:33Z</time>
      </trkpt>
      <trkpt lat="46.24515" lon="5.83871">
        <ele>1245.04</ele>
        <time>2013-06-08T13:38:45Z</time>
      </trkpt>
      <trkpt lat="46.24503" lon="5.83875">
        <ele>1242.64</ele>
        <time>2013-06-08T13:38:52Z</time>
      </trkpt>
      <trkpt lat="46.24495" lon="5.83876">
        <ele>1241.68</ele>
        <time>2013-06-08T13:38:56Z</time>
      </trkpt>
      <trkpt lat="46.24477" lon="5.8387">
        <ele>1237.35</ele>
        <time>2013-06-08T13:39:08Z</time>
      </trkpt>
      <trkpt lat="46.24473" lon="5.83865">
        <ele>1236.87</ele>
        <time>2013-06-08T13:39:12Z</time>
      </trkpt>
      <trkpt lat="46.24461" lon="5.83848">
        <ele>1237.35</ele>
        <time>2013-06-08T13:39:25Z</time>
      </trkpt>
      <trkpt lat="46.2445" lon="5.83828">
        <ele>1238.32</ele>
        <time>2013-06-08T13:39:37Z</time>
      </trkpt>
      <trkpt lat="46.24444" lon="5.83822">
        <ele>1238.8</ele>
        <time>2013-06-08T13:39:40Z</time>
      </trkpt>
      <trkpt lat="46.24438" lon="5.83811">
        <ele>1240.24</ele>
        <time>2013-06-08T13:39:44Z</time>
      </trkpt>
      <trkpt lat="46.24427" lon="5.83794">
        <ele>1241.68</ele>
        <time>2013-06-08T13:39:54Z</time>
      </trkpt>
      <trkpt lat="46.2441" lon="5.83782">
        <ele>1244.56</ele>
        <time>2013-06-08T13:40:07Z</time>
      </trkpt>
      <trkpt lat="46.24389" lon="5.83777">
        <ele>1244.08</ele>
        <time>2013-06-08T13:40:20Z</time>
      </trkpt>
      <trkpt lat="46.24375" lon="5.83773">
        <ele>1242.64</ele>
        <time>2013-06-08T13:40:31Z</time>
      </trkpt>
      <trkpt lat="46.24366" lon="5.83769">
        <ele>1241.2</ele>
        <time>2013-06-08T13:40:37Z</time>
      </trkpt>
      <trkpt lat="46.24348" lon="5.83788">
        <ele>1237.35</ele>
        <time>2013-06-08T13:40:51Z</time>
      </trkpt>
      <trkpt lat="46.24339" lon="5.838">
        <ele>1234.47</ele>
        <time>2013-06-08T13:40:57Z</time>
      </trkpt>
      <trkpt lat="46.24331" lon="5.83807">
        <ele>1231.11</ele>
        <time>2013-06-08T13:41:03Z</time>
      </trkpt>
      <trkpt lat="46.24322" lon="5.83819">
        <ele>1226.3</ele>
        <time>2013-06-08T13:41:12Z</time>
      </trkpt>
      <trkpt lat="46.24319" lon="5.83826">
        <ele>1223.9</ele>
        <time>2013-06-08T13:41:17Z</time>
      </trkpt>
      <trkpt lat="46.24316" lon="5.8383">
        <ele>1221.49</ele>
        <time>2013-06-08T13:41:20Z</time>
      </trkpt>
      <trkpt lat="46.243" lon="5.83825">
        <ele>1211.88</ele>
        <time>2013-06-08T13:41:33Z</time>
      </trkpt>
      <trkpt lat="46.2429" lon="5.83805">
        <ele>1202.75</ele>
        <time>2013-06-08T13:41:47Z</time>
      </trkpt>
      <trkpt lat="46.24288" lon="5.8379">
        <ele>1200.34</ele>
        <time>2013-06-08T13:41:56Z</time>
      </trkpt>
      <trkpt lat="46.24291" lon="5.83759">
        <ele>1199.38</ele>
        <time>2013-06-08T13:42:12Z</time>
      </trkpt>
      <trkpt lat="46.24292" lon="5.83756">
        <ele>1199.38</ele>
        <time>2013-06-08T13:42:15Z</time>
      </trkpt>
      <trkpt lat="46.24286" lon="5.83727">
        <ele>1200.34</ele>
        <time>2013-06-08T13:42:29Z</time>
      </trkpt>
      <trkpt lat="46.2428" lon="5.83715">
        <ele>1201.3</ele>
        <time>2013-06-08T13:42:35Z</time>
      </trkpt>
      <trkpt lat="46.24264" lon="5.83678">
        <ele>1204.67</ele>
        <time>2013-06-08T13:42:50Z</time>
      </trkpt>
      <trkpt lat="46.24263" lon="5.83674">
        <ele>1205.15</ele>
        <time>2013-06-08T13:42:52Z</time>
      </trkpt>
      <trkpt lat="46.2425" lon="5.83648">
        <ele>1206.59</ele>
        <time>2013-06-08T13:43:06Z</time>
      </trkpt>
      <trkpt lat="46.24232" lon="5.83626">
        <ele>1210.44</ele>
        <time>2013-06-08T13:43:18Z</time>
      </trkpt>
      <trkpt lat="46.24228" lon="5.83612">
        <ele>1211.4</ele>
        <time>2013-06-08T13:43:30Z</time>
      </trkpt>
      <trkpt lat="46.24222" lon="5.83599">
        <ele>1204.67</ele>
        <time>2013-06-08T13:43:43Z</time>
      </trkpt>
      <trkpt lat="46.24211" lon="5.83579">
        <ele>1202.75</ele>
        <time>2013-06-08T13:43:53Z</time>
      </trkpt>
      <trkpt lat="46.24202" lon="5.83568">
        <ele>1202.27</ele>
        <time>2013-06-08T13:43:57Z</time>
      </trkpt>
      <trkpt lat="46.24199" lon="5.83558">
        <ele>1200.34</ele>
        <time>2013-06-08T13:44:04Z</time>
      </trkpt>
      <trkpt lat="46.2419" lon="5.8354">
        <ele>1200.82</ele>
        <time>2013-06-08T13:44:10Z</time>
      </trkpt>
      <trkpt lat="46.24182" lon="5.83524">
        <ele>1199.38</ele>
        <time>2013-06-08T13:44:24Z</time>
      </trkpt>
      <trkpt lat="46.24178" lon="5.83517">
        <ele>1198.42</ele>
        <time>2013-06-08T13:44:28Z</time>
      </trkpt>
      <trkpt lat="46.24176" lon="5.83511">
        <ele>1198.42</ele>
        <time>2013-06-08T13:44:31Z</time>
      </trkpt>
      <trkpt lat="46.24162" lon="5.83489">
        <ele>1198.9</ele>
        <time>2013-06-08T13:44:42Z</time>
      </trkpt>
      <trkpt lat="46.24157" lon="5.83485">
        <ele>1199.86</ele>
        <time>2013-06-08T13:44:48Z</time>
      </trkpt>
      <trkpt lat="46.24137" lon="5.83491">
        <ele>1200.82</ele>
        <time>2013-06-08T13:45:05Z</time>
      </trkpt>
      <trkpt lat="46.24139" lon="5.83485">
        <ele>1200.34</ele>
        <time>2013-06-08T13:45:29Z</time>
      </trkpt>
      <trkpt lat="46.2413" lon="5.83479">
        <ele>1197.94</ele>
        <time>2013-06-08T13:45:59Z</time>
      </trkpt>
      <trkpt lat="46.24117" lon="5.83475">
        <ele>1192.65</ele>
        <time>2013-06-08T13:46:12Z</time>
      </trkpt>
      <trkpt lat="46.24106" lon="5.83477">
        <ele>1188.81</ele>
        <time>2013-06-08T13:46:33Z</time>
      </trkpt>
      <trkpt lat="46.241" lon="5.83476">
        <ele>1187.37</ele>
        <time>2013-06-08T13:46:37Z</time>
      </trkpt>
      <trkpt lat="46.24085" lon="5.83475">
        <ele>1184</ele>
        <time>2013-06-08T13:46:47Z</time>
      </trkpt>
      <trkpt lat="46.2407" lon="5.83471">
        <ele>1180.16</ele>
        <time>2013-06-08T13:47:00Z</time>
      </trkpt>
      <trkpt lat="46.24062" lon="5.83471">
        <ele>1177.27</ele>
        <time>2013-06-08T13:47:07Z</time>
      </trkpt>
      <trkpt lat="46.24051" lon="5.83469">
        <ele>1171.5</ele>
        <time>2013-06-08T13:47:20Z</time>
      </trkpt>
      <trkpt lat="46.24038" lon="5.83468">
        <ele>1162.85</ele>
        <time>2013-06-08T13:47:34Z</time>
      </trkpt>
      <trkpt lat="46.24032" lon="5.83467">
        <ele>1160.45</ele>
        <time>2013-06-08T13:47:43Z</time>
      </trkpt>
      <trkpt lat="46.24015" lon="5.83464">
        <ele>1156.12</ele>
        <time>2013-06-08T13:47:57Z</time>
      </trkpt>
      <trkpt lat="46.23999" lon="5.83464">
        <ele>1153.24</ele>
        <time>2013-06-08T13:48:10Z</time>
      </trkpt>
      <trkpt lat="46.23985" lon="5.8346">
        <ele>1152.28</ele>
        <time>2013-06-08T13:48:23Z</time>
      </trkpt>
      <trkpt lat="46.23974" lon="5.83454">
        <ele>1154.68</ele>
        <time>2013-06-08T13:48:34Z</time>
      </trkpt>
      <trkpt lat="46.23971" lon="5.83451">
        <ele>1155.64</ele>
        <time>2013-06-08T13:48:38Z</time>
      </trkpt>
      <trkpt lat="46.23967" lon="5.83445">
        <ele>1157.56</ele>
        <time>2013-06-08T13:48:42Z</time>
      </trkpt>
      <trkpt lat="46.23953" lon="5.83422">
        <ele>1162.85</ele>
        <time>2013-06-08T13:48:54Z</time>
      </trkpt>
      <trkpt lat="46.23947" lon="5.83411">
        <ele>1166.22</ele>
        <time>2013-06-08T13:49:01Z</time>
      </trkpt>
      <trkpt lat="46.23945" lon="5.834">
        <ele>1167.18</ele>
        <time>2013-06-08T13:49:08Z</time>
      </trkpt>
      <trkpt lat="46.23952" lon="5.83386">
        <ele>1166.22</ele>
        <time>2013-06-08T13:49:22Z</time>
      </trkpt>
      <trkpt lat="46.23971" lon="5.83383">
        <ele>1172.47</ele>
        <time>2013-06-08T13:49:38Z</time>
      </trkpt>
      <trkpt lat="46.23977" lon="5.83381">
        <ele>1174.39</ele>
        <time>2013-06-08T13:49:44Z</time>
      </trkpt>
      <trkpt lat="46.23994" lon="5.83356">
        <ele>1176.31</ele>
        <time>2013-06-08T13:50:00Z</time>
      </trkpt>
      <trkpt lat="46.24" lon="5.83349">
        <ele>1176.79</ele>
        <time>2013-06-08T13:50:05Z</time>
      </trkpt>
      <trkpt lat="46.24008" lon="5.83305">
        <ele>1177.27</ele>
        <time>2013-06-08T13:50:22Z</time>
      </trkpt>
      <trkpt lat="46.24002" lon="5.83269">
        <ele>1177.27</ele>
        <time>2013-06-08T13:50:34Z</time>
      </trkpt>
      <trkpt lat="46.23986" lon="5.83252">
        <ele>1180.16</ele>
        <time>2013-06-08T13:50:44Z</time>
      </trkpt>
      <trkpt lat="46.23975" lon="5.83237">
        <ele>1185.92</ele>
        <time>2013-06-08T13:50:56Z</time>
      </trkpt>
      <trkpt lat="46.2397" lon="5.83229">
        <ele>1186.4</ele>
        <time>2013-06-08T13:51:00Z</time>
      </trkpt>
      <trkpt lat="46.2396" lon="5.8321">
        <ele>1186.4</ele>
        <time>2013-06-08T13:51:11Z</time>
      </trkpt>
      <trkpt lat="46.23955" lon="5.83197">
        <ele>1185.44</ele>
        <time>2013-06-08T13:51:18Z</time>
      </trkpt>
      <trkpt lat="46.23953" lon="5.83175">
        <ele>1184.48</ele>
        <time>2013-06-08T13:51:29Z</time>
      </trkpt>
      <trkpt lat="46.23953" lon="5.83174">
        <ele>1184.48</ele>
        <time>2013-06-08T13:51:30Z</time>
      </trkpt>
      <trkpt lat="46.23951" lon="5.83167">
        <ele>1184.48</ele>
        <time>2013-06-08T13:51:34Z</time>
      </trkpt>
      <trkpt lat="46.23934" lon="5.8315">
        <ele>1184.96</ele>
        <time>2013-06-08T13:51:46Z</time>
      </trkpt>
      <trkpt lat="46.23925" lon="5.83131">
        <ele>1179.67</ele>
        <time>2013-06-08T13:52:00Z</time>
      </trkpt>
      <trkpt lat="46.23924" lon="5.83132">
        <ele>1175.35</ele>
        <time>2013-06-08T13:52:16Z</time>
      </trkpt>
      <trkpt lat="46.23926" lon="5.83131">
        <ele>1171.5</ele>
        <time>2013-06-08T13:52:40Z</time>
      </trkpt>
      <trkpt lat="46.23926" lon="5.83129">
        <ele>1169.58</ele>
        <time>2013-06-08T13:53:06Z</time>
      </trkpt>
      <trkpt lat="46.23926" lon="5.83129">
        <ele>1168.62</ele>
        <time>2013-06-08T13:53:24Z</time>
      </trkpt>
      <trkpt lat="46.23924" lon="5.83129">
        <ele>1164.29</ele>
        <time>2013-06-08T13:53:39Z</time>
      </trkpt>
      <trkpt lat="46.23929" lon="5.8311">
        <ele>1161.89</ele>
        <time>2013-06-08T13:53:53Z</time>
      </trkpt>
      <trkpt lat="46.23929" lon="5.8308">
        <ele>1159.01</ele>
        <time>2013-06-08T13:54:08Z</time>
      </trkpt>
      <trkpt lat="46.23932" lon="5.83052">
        <ele>1158.05</ele>
        <time>2013-06-08T13:54:22Z</time>
      </trkpt>
      <trkpt lat="46.23933" lon="5.83039">
        <ele>1157.56</ele>
        <time>2013-06-08T13:54:32Z</time>
      </trkpt>
      <trkpt lat="46.23923" lon="5.83028">
        <ele>1159.01</ele>
        <time>2013-06-08T13:54:38Z</time>
      </trkpt>
      <trkpt lat="46.23907" lon="5.83">
        <ele>1160.93</ele>
        <time>2013-06-08T13:54:55Z</time>
      </trkpt>
      <trkpt lat="46.23901" lon="5.82975">
        <ele>1161.41</ele>
        <time>2013-06-08T13:55:08Z</time>
      </trkpt>
      <trkpt lat="46.23893" lon="5.82957">
        <ele>1165.26</ele>
        <time>2013-06-08T13:55:16Z</time>
      </trkpt>
      <trkpt lat="46.2389" lon="5.8295">
        <ele>1166.22</ele>
        <time>2013-06-08T13:55:19Z</time>
      </trkpt>
      <trkpt lat="46.23881" lon="5.8293">
        <ele>1167.66</ele>
        <time>2013-06-08T13:55:31Z</time>
      </trkpt>
      <trkpt lat="46.23871" lon="5.82911">
        <ele>1166.7</ele>
        <time>2013-06-08T13:55:46Z</time>
      </trkpt>
      <trkpt lat="46.23863" lon="5.82885">
        <ele>1163.81</ele>
        <time>2013-06-08T13:56:01Z</time>
      </trkpt>
      <trkpt lat="46.23853" lon="5.82863">
        <ele>1161.89</ele>
        <time>2013-06-08T13:56:15Z</time>
      </trkpt>
      <trkpt lat="46.23843" lon="5.82835">
        <ele>1163.81</ele>
        <time>2013-06-08T13:56:26Z</time>
      </trkpt>
      <trkpt lat="46.23845" lon="5.82809">
        <ele>1164.77</ele>
        <time>2013-06-08T13:56:40Z</time>
      </trkpt>
      <trkpt lat="46.23842" lon="5.82781">
        <ele>1167.18</ele>
        <time>2013-06-08T13:56:54Z</time>
      </trkpt>
      <trkpt lat="46.23841" lon="5.82778">
        <ele>1167.66</ele>
        <time>2013-06-08T13:56:55Z</time>
      </trkpt>
      <trkpt lat="46.23842" lon="5.82748">
        <ele>1165.26</ele>
        <time>2013-06-08T13:57:05Z</time>
      </trkpt>
      <trkpt lat="46.23831" lon="5.82719">
        <ele>1163.81</ele>
        <time>2013-06-08T13:57:20Z</time>
      </trkpt>
      <trkpt lat="46.23818" lon="5.82701">
        <ele>1164.77</ele>
        <time>2013-06-08T13:57:32Z</time>
      </trkpt>
      <trkpt lat="46.23806" lon="5.82682">
        <ele>1166.7</ele>
        <time>2013-06-08T13:57:46Z</time>
      </trkpt>
      <trkpt lat="46.23793" lon="5.82666">
        <ele>1167.18</ele>
        <time>2013-06-08T13:58:00Z</time>
      </trkpt>
      <trkpt lat="46.23785" lon="5.82644">
        <ele>1162.85</ele>
        <time>2013-06-08T13:58:14Z</time>
      </trkpt>
      <trkpt lat="46.23782" lon="5.82618">
        <ele>1163.33</ele>
        <time>2013-06-08T13:58:28Z</time>
      </trkpt>
      <trkpt lat="46.23791" lon="5.82581">
        <ele>1158.05</ele>
        <time>2013-06-08T13:58:42Z</time>
      </trkpt>
      <trkpt lat="46.23787" lon="5.82551">
        <ele>1155.16</ele>
        <time>2013-06-08T13:58:55Z</time>
      </trkpt>
      <trkpt lat="46.2377" lon="5.8253">
        <ele>1148.91</ele>
        <time>2013-06-08T13:59:10Z</time>
      </trkpt>
      <trkpt lat="46.23764" lon="5.82529">
        <ele>1145.07</ele>
        <time>2013-06-08T13:59:27Z</time>
      </trkpt>
      <trkpt lat="46.2376" lon="5.82529">
        <ele>1145.07</ele>
        <time>2013-06-08T13:59:41Z</time>
      </trkpt>
      <trkpt lat="46.23758" lon="5.82523">
        <ele>1145.55</ele>
        <time>2013-06-08T13:59:55Z</time>
      </trkpt>
      <trkpt lat="46.23752" lon="5.82508">
        <ele>1148.43</ele>
        <time>2013-06-08T14:00:08Z</time>
      </trkpt>
      <trkpt lat="46.23744" lon="5.82485">
        <ele>1150.84</ele>
        <time>2013-06-08T14:00:19Z</time>
      </trkpt>
      <trkpt lat="46.23735" lon="5.82463">
        <ele>1154.68</ele>
        <time>2013-06-08T14:00:35Z</time>
      </trkpt>
      <trkpt lat="46.23725" lon="5.82449">
        <ele>1159.01</ele>
        <time>2013-06-08T14:00:49Z</time>
      </trkpt>
      <trkpt lat="46.23713" lon="5.82431">
        <ele>1160.45</ele>
        <time>2013-06-08T14:01:03Z</time>
      </trkpt>
      <trkpt lat="46.23703" lon="5.82417">
        <ele>1160.93</ele>
        <time>2013-06-08T14:01:11Z</time>
      </trkpt>
      <trkpt lat="46.237" lon="5.82411">
        <ele>1161.41</ele>
        <time>2013-06-08T14:01:15Z</time>
      </trkpt>
      <trkpt lat="46.23687" lon="5.82386">
        <ele>1163.81</ele>
        <time>2013-06-08T14:01:33Z</time>
      </trkpt>
      <trkpt lat="46.23685" lon="5.82382">
        <ele>1164.77</ele>
        <time>2013-06-08T14:01:36Z</time>
      </trkpt>
      <trkpt lat="46.23682" lon="5.82346">
        <ele>1163.81</ele>
        <time>2013-06-08T14:01:51Z</time>
      </trkpt>
      <trkpt lat="46.23683" lon="5.82318">
        <ele>1165.26</ele>
        <time>2013-06-08T14:02:05Z</time>
      </trkpt>
      <trkpt lat="46.23683" lon="5.82293">
        <ele>1170.06</ele>
        <time>2013-06-08T14:02:19Z</time>
      </trkpt>
      <trkpt lat="46.23683" lon="5.82288">
        <ele>1170.06</ele>
        <time>2013-06-08T14:02:21Z</time>
      </trkpt>
      <trkpt lat="46.23686" lon="5.82275">
        <ele>1168.14</ele>
        <time>2013-06-08T14:02:27Z</time>
      </trkpt>
      <trkpt lat="46.23683" lon="5.82249">
        <ele>1167.66</ele>
        <time>2013-06-08T14:02:41Z</time>
      </trkpt>
      <trkpt lat="46.23683" lon="5.82246">
        <ele>1166.22</ele>
        <time>2013-06-08T14:02:55Z</time>
      </trkpt>
      <trkpt lat="46.23682" lon="5.82246">
        <ele>1164.29</ele>
        <time>2013-06-08T14:03:09Z</time>
      </trkpt>
      <trkpt lat="46.23683" lon="5.82236">
        <ele>1165.26</ele>
        <time>2013-06-08T14:03:32Z</time>
      </trkpt>
      <trkpt lat="46.23683" lon="5.82235">
        <ele>1164.77</ele>
        <time>2013-06-08T14:03:33Z</time>
      </trkpt>
      <trkpt lat="46.23684" lon="5.82232">
        <ele>1164.77</ele>
        <time>2013-06-08T14:03:35Z</time>
      </trkpt>
      <trkpt lat="46.23686" lon="5.82228">
        <ele>1164.77</ele>
        <time>2013-06-08T14:03:39Z</time>
      </trkpt>
      <trkpt lat="46.23686" lon="5.82218">
        <ele>1165.74</ele>
        <time>2013-06-08T14:03:46Z</time>
      </trkpt>
      <trkpt lat="46.23687" lon="5.822">
        <ele>1166.7</ele>
        <time>2013-06-08T14:03:56Z</time>
      </trkpt>
      <trkpt lat="46.23688" lon="5.82163">
        <ele>1167.66</ele>
        <time>2013-06-08T14:04:14Z</time>
      </trkpt>
      <trkpt lat="46.23675" lon="5.82138">
        <ele>1170.06</ele>
        <time>2013-06-08T14:04:26Z</time>
      </trkpt>
      <trkpt lat="46.23661" lon="5.82112">
        <ele>1174.39</ele>
        <time>2013-06-08T14:04:43Z</time>
      </trkpt>
      <trkpt lat="46.23654" lon="5.821">
        <ele>1173.91</ele>
        <time>2013-06-08T14:04:52Z</time>
      </trkpt>
      <trkpt lat="46.23637" lon="5.82068">
        <ele>1172.95</ele>
        <time>2013-06-08T14:05:09Z</time>
      </trkpt>
      <trkpt lat="46.23635" lon="5.82058">
        <ele>1174.39</ele>
        <time>2013-06-08T14:05:16Z</time>
      </trkpt>
      <trkpt lat="46.23635" lon="5.82042">
        <ele>1177.75</ele>
        <time>2013-06-08T14:05:28Z</time>
      </trkpt>
      <trkpt lat="46.23635" lon="5.82026">
        <ele>1184.48</ele>
        <time>2013-06-08T14:05:42Z</time>
      </trkpt>
      <trkpt lat="46.23634" lon="5.81997">
        <ele>1189.29</ele>
        <time>2013-06-08T14:05:56Z</time>
      </trkpt>
      <trkpt lat="46.23636" lon="5.8197">
        <ele>1192.17</ele>
        <time>2013-06-08T14:06:08Z</time>
      </trkpt>
      <trkpt lat="46.23634" lon="5.81938">
        <ele>1195.06</ele>
        <time>2013-06-08T14:06:23Z</time>
      </trkpt>
      <trkpt lat="46.23631" lon="5.81919">
        <ele>1199.86</ele>
        <time>2013-06-08T14:06:35Z</time>
      </trkpt>
      <trkpt lat="46.23628" lon="5.81908">
        <ele>1200.34</ele>
        <time>2013-06-08T14:06:40Z</time>
      </trkpt>
      <trkpt lat="46.23612" lon="5.81872">
        <ele>1197.46</ele>
        <time>2013-06-08T14:06:53Z</time>
      </trkpt>
      <trkpt lat="46.23602" lon="5.81859">
        <ele>1193.61</ele>
        <time>2013-06-08T14:07:01Z</time>
      </trkpt>
      <trkpt lat="46.23583" lon="5.81829">
        <ele>1187.37</ele>
        <time>2013-06-08T14:07:19Z</time>
      </trkpt>
      <trkpt lat="46.23586" lon="5.81821">
        <ele>1184.96</ele>
        <time>2013-06-08T14:07:23Z</time>
      </trkpt>
      <trkpt lat="46.23589" lon="5.81786">
        <ele>1172.95</ele>
        <time>2013-06-08T14:07:39Z</time>
      </trkpt>
      <trkpt lat="46.23586" lon="5.81762">
        <ele>1161.89</ele>
        <time>2013-06-08T14:07:56Z</time>
      </trkpt>
      <trkpt lat="46.23587" lon="5.81754">
        <ele>1159.01</ele>
        <time>2013-06-08T14:08:02Z</time>
      </trkpt>
      <trkpt lat="46.23583" lon="5.8173">
        <ele>1154.2</ele>
        <time>2013-06-08T14:08:17Z</time>
      </trkpt>
      <trkpt lat="46.23574" lon="5.81714">
        <ele>1151.8</ele>
        <time>2013-06-08T14:08:27Z</time>
      </trkpt>
      <trkpt lat="46.23561" lon="5.81695">
        <ele>1150.84</ele>
        <time>2013-06-08T14:08:41Z</time>
      </trkpt>
      <trkpt lat="46.23555" lon="5.81691">
        <ele>1151.32</ele>
        <time>2013-06-08T14:08:45Z</time>
      </trkpt>
      <trkpt lat="46.2354" lon="5.8168">
        <ele>1150.84</ele>
        <time>2013-06-08T14:09:01Z</time>
      </trkpt>
      <trkpt lat="46.23532" lon="5.81662">
        <ele>1148.43</ele>
        <time>2013-06-08T14:09:16Z</time>
      </trkpt>
      <trkpt lat="46.23526" lon="5.81654">
        <ele>1147.95</ele>
        <time>2013-06-08T14:09:24Z</time>
      </trkpt>
      <trkpt lat="46.23521" lon="5.8165">
        <ele>1148.91</ele>
        <time>2013-06-08T14:09:28Z</time>
      </trkpt>
      <trkpt lat="46.23512" lon="5.81629">
        <ele>1148.43</ele>
        <time>2013-06-08T14:09:43Z</time>
      </trkpt>
      <trkpt lat="46.23496" lon="5.81598">
        <ele>1144.59</ele>
        <time>2013-06-08T14:10:00Z</time>
      </trkpt>
      <trkpt lat="46.23495" lon="5.81572">
        <ele>1149.39</ele>
        <time>2013-06-08T14:10:15Z</time>
      </trkpt>
      <trkpt lat="46.23494" lon="5.81567">
        <ele>1150.84</ele>
        <time>2013-06-08T14:10:18Z</time>
      </trkpt>
      <trkpt lat="46.23493" lon="5.81556">
        <ele>1152.76</ele>
        <time>2013-06-08T14:10:23Z</time>
      </trkpt>
      <trkpt lat="46.23476" lon="5.81531">
        <ele>1152.28</ele>
        <time>2013-06-08T14:10:39Z</time>
      </trkpt>
      <trkpt lat="46.23468" lon="5.81506">
        <ele>1151.32</ele>
        <time>2013-06-08T14:10:53Z</time>
      </trkpt>
      <trkpt lat="46.23466" lon="5.81478">
        <ele>1149.87</ele>
        <time>2013-06-08T14:11:10Z</time>
      </trkpt>
      <trkpt lat="46.23466" lon="5.81476">
        <ele>1149.87</ele>
        <time>2013-06-08T14:11:11Z</time>
      </trkpt>
      <trkpt lat="46.23459" lon="5.81454">
        <ele>1151.32</ele>
        <time>2013-06-08T14:11:27Z</time>
      </trkpt>
      <trkpt lat="46.23454" lon="5.81422">
        <ele>1153.72</ele>
        <time>2013-06-08T14:11:44Z</time>
      </trkpt>
      <trkpt lat="46.23451" lon="5.81376">
        <ele>1157.56</ele>
        <time>2013-06-08T14:12:01Z</time>
      </trkpt>
      <trkpt lat="46.2344" lon="5.81349">
        <ele>1156.12</ele>
        <time>2013-06-08T14:12:15Z</time>
      </trkpt>
      <trkpt lat="46.23426" lon="5.8132">
        <ele>1156.12</ele>
        <time>2013-06-08T14:12:32Z</time>
      </trkpt>
      <trkpt lat="46.23419" lon="5.813">
        <ele>1157.08</ele>
        <time>2013-06-08T14:12:47Z</time>
      </trkpt>
      <trkpt lat="46.23389" lon="5.8127">
        <ele>1154.2</ele>
        <time>2013-06-08T14:13:03Z</time>
      </trkpt>
      <trkpt lat="46.23375" lon="5.81256">
        <ele>1152.76</ele>
        <time>2013-06-08T14:13:15Z</time>
      </trkpt>
      <trkpt lat="46.23348" lon="5.8124">
        <ele>1151.8</ele>
        <time>2013-06-08T14:13:35Z</time>
      </trkpt>
      <trkpt lat="46.23331" lon="5.81228">
        <ele>1151.8</ele>
        <time>2013-06-08T14:13:51Z</time>
      </trkpt>
      <trkpt lat="46.23324" lon="5.81214">
        <ele>1151.8</ele>
        <time>2013-06-08T14:14:02Z</time>
      </trkpt>
      <trkpt lat="46.23314" lon="5.81186">
        <ele>1153.24</ele>
        <time>2013-06-08T14:14:18Z</time>
      </trkpt>
      <trkpt lat="46.23305" lon="5.81161">
        <ele>1156.6</ele>
        <time>2013-06-08T14:14:33Z</time>
      </trkpt>
      <trkpt lat="46.23304" lon="5.8113">
        <ele>1160.45</ele>
        <time>2013-06-08T14:14:48Z</time>
      </trkpt>
      <trkpt lat="46.23297" lon="5.81099">
        <ele>1159.49</ele>
        <time>2013-06-08T14:15:05Z</time>
      </trkpt>
      <trkpt lat="46.23285" lon="5.81072">
        <ele>1158.05</ele>
        <time>2013-06-08T14:15:20Z</time>
      </trkpt>
      <trkpt lat="46.23276" lon="5.81048">
        <ele>1158.05</ele>
        <time>2013-06-08T14:15:34Z</time>
      </trkpt>
      <trkpt lat="46.23274" lon="5.8104">
        <ele>1157.56</ele>
        <time>2013-06-08T14:15:38Z</time>
      </trkpt>
      <trkpt lat="46.23277" lon="5.81013">
        <ele>1157.56</ele>
        <time>2013-06-08T14:15:53Z</time>
      </trkpt>
      <trkpt lat="46.23287" lon="5.80992">
        <ele>1159.97</ele>
        <time>2013-06-08T14:16:10Z</time>
      </trkpt>
      <trkpt lat="46.23289" lon="5.80989">
        <ele>1159.97</ele>
        <time>2013-06-08T14:16:13Z</time>
      </trkpt>
      <trkpt lat="46.23299" lon="5.80981">
        <ele>1162.37</ele>
        <time>2013-06-08T14:16:24Z</time>
      </trkpt>
      <trkpt lat="46.23301" lon="5.80979">
        <ele>1162.37</ele>
        <time>2013-06-08T14:16:26Z</time>
      </trkpt>
      <trkpt lat="46.23308" lon="5.80969">
        <ele>1161.89</ele>
        <time>2013-06-08T14:16:32Z</time>
      </trkpt>
      <trkpt lat="46.23315" lon="5.80945">
        <ele>1160.45</ele>
        <time>2013-06-08T14:16:45Z</time>
      </trkpt>
      <trkpt lat="46.23314" lon="5.80927">
        <ele>1161.89</ele>
        <time>2013-06-08T14:16:57Z</time>
      </trkpt>
      <trkpt lat="46.23312" lon="5.80918">
        <ele>1161.41</ele>
        <time>2013-06-08T14:17:04Z</time>
      </trkpt>
      <trkpt lat="46.23303" lon="5.80894">
        <ele>1162.37</ele>
        <time>2013-06-08T14:17:18Z</time>
      </trkpt>
      <trkpt lat="46.2329" lon="5.80874">
        <ele>1162.37</ele>
        <time>2013-06-08T14:17:33Z</time>
      </trkpt>
      <trkpt lat="46.23292" lon="5.80865">
        <ele>1161.89</ele>
        <time>2013-06-08T14:17:40Z</time>
      </trkpt>
      <trkpt lat="46.23292" lon="5.80856">
        <ele>1162.37</ele>
        <time>2013-06-08T14:17:45Z</time>
      </trkpt>
      <trkpt lat="46.2329" lon="5.80849">
        <ele>1163.33</ele>
        <time>2013-06-08T14:17:49Z</time>
      </trkpt>
      <trkpt lat="46.23295" lon="5.80828">
        <ele>1167.18</ele>
        <time>2013-06-08T14:18:02Z</time>
      </trkpt>
      <trkpt lat="46.23298" lon="5.80808">
        <ele>1171.02</ele>
        <time>2013-06-08T14:18:13Z</time>
      </trkpt>
      <trkpt lat="46.23303" lon="5.80783">
        <ele>1175.83</ele>
        <time>2013-06-08T14:18:28Z</time>
      </trkpt>
      <trkpt lat="46.23309" lon="5.80767">
        <ele>1184</ele>
        <time>2013-06-08T14:18:44Z</time>
      </trkpt>
      <trkpt lat="46.23317" lon="5.80741">
        <ele>1188.33</ele>
        <time>2013-06-08T14:19:00Z</time>
      </trkpt>
      <trkpt lat="46.23325" lon="5.8072">
        <ele>1195.54</ele>
        <time>2013-06-08T14:19:15Z</time>
      </trkpt>
      <trkpt lat="46.23327" lon="5.80717">
        <ele>1197.94</ele>
        <time>2013-06-08T14:19:20Z</time>
      </trkpt>
      <trkpt lat="46.2333" lon="5.80712">
        <ele>1200.82</ele>
        <time>2013-06-08T14:19:24Z</time>
      </trkpt>
      <trkpt lat="46.23338" lon="5.80692">
        <ele>1210.92</ele>
        <time>2013-06-08T14:19:37Z</time>
      </trkpt>
      <trkpt lat="46.23343" lon="5.80677">
        <ele>1213.8</ele>
        <time>2013-06-08T14:19:45Z</time>
      </trkpt>
      <trkpt lat="46.23353" lon="5.80645">
        <ele>1215.24</ele>
        <time>2013-06-08T14:20:00Z</time>
      </trkpt>
      <trkpt lat="46.23356" lon="5.80632">
        <ele>1214.76</ele>
        <time>2013-06-08T14:20:05Z</time>
      </trkpt>
      <trkpt lat="46.23363" lon="5.80613">
        <ele>1213.8</ele>
        <time>2013-06-08T14:20:13Z</time>
      </trkpt>
      <trkpt lat="46.23364" lon="5.80577">
        <ele>1209.48</ele>
        <time>2013-06-08T14:20:30Z</time>
      </trkpt>
      <trkpt lat="46.23371" lon="5.80556">
        <ele>1207.55</ele>
        <time>2013-06-08T14:20:40Z</time>
      </trkpt>
      <trkpt lat="46.23378" lon="5.80525">
        <ele>1204.19</ele>
        <time>2013-06-08T14:20:56Z</time>
      </trkpt>
      <trkpt lat="46.23377" lon="5.80499">
        <ele>1204.67</ele>
        <time>2013-06-08T14:21:11Z</time>
      </trkpt>
      <trkpt lat="46.23383" lon="5.80471">
        <ele>1206.11</ele>
        <time>2013-06-08T14:21:28Z</time>
      </trkpt>
      <trkpt lat="46.23385" lon="5.80441">
        <ele>1206.11</ele>
        <time>2013-06-08T14:21:40Z</time>
      </trkpt>
      <trkpt lat="46.23389" lon="5.8041">
        <ele>1199.38</ele>
        <time>2013-06-08T14:21:56Z</time>
      </trkpt>
      <trkpt lat="46.23399" lon="5.80387">
        <ele>1194.58</ele>
        <time>2013-06-08T14:22:11Z</time>
      </trkpt>
      <trkpt lat="46.23404" lon="5.80351">
        <ele>1191.69</ele>
        <time>2013-06-08T14:22:29Z</time>
      </trkpt>
      <trkpt lat="46.23404" lon="5.80343">
        <ele>1191.21</ele>
        <time>2013-06-08T14:22:33Z</time>
      </trkpt>
      <trkpt lat="46.23406" lon="5.80316">
        <ele>1188.81</ele>
        <time>2013-06-08T14:22:48Z</time>
      </trkpt>
      <trkpt lat="46.23411" lon="5.80305">
        <ele>1188.33</ele>
        <time>2013-06-08T14:22:58Z</time>
      </trkpt>
      <trkpt lat="46.23415" lon="5.80284">
        <ele>1187.85</ele>
        <time>2013-06-08T14:23:08Z</time>
      </trkpt>
      <trkpt lat="46.23419" lon="5.80274">
        <ele>1187.37</ele>
        <time>2013-06-08T14:23:13Z</time>
      </trkpt>
      <trkpt lat="46.23422" lon="5.80269">
        <ele>1186.4</ele>
        <time>2013-06-08T14:23:16Z</time>
      </trkpt>
      <trkpt lat="46.23432" lon="5.80253">
        <ele>1184.96</ele>
        <time>2013-06-08T14:23:26Z</time>
      </trkpt>
      <trkpt lat="46.23449" lon="5.80236">
        <ele>1182.56</ele>
        <time>2013-06-08T14:23:41Z</time>
      </trkpt>
      <trkpt lat="46.23456" lon="5.80226">
        <ele>1181.6</ele>
        <time>2013-06-08T14:23:50Z</time>
      </trkpt>
      <trkpt lat="46.23457" lon="5.80222">
        <ele>1181.6</ele>
        <time>2013-06-08T14:23:52Z</time>
      </trkpt>
      <trkpt lat="46.23468" lon="5.80212">
        <ele>1180.64</ele>
        <time>2013-06-08T14:24:02Z</time>
      </trkpt>
      <trkpt lat="46.23473" lon="5.80208">
        <ele>1180.64</ele>
        <time>2013-06-08T14:24:06Z</time>
      </trkpt>
      <trkpt lat="46.23487" lon="5.80182">
        <ele>1184.96</ele>
        <time>2013-06-08T14:24:24Z</time>
      </trkpt>
      <trkpt lat="46.23497" lon="5.80154">
        <ele>1185.44</ele>
        <time>2013-06-08T14:24:37Z</time>
      </trkpt>
      <trkpt lat="46.23496" lon="5.80119">
        <ele>1185.92</ele>
        <time>2013-06-08T14:24:53Z</time>
      </trkpt>
      <trkpt lat="46.23483" lon="5.80088">
        <ele>1185.44</ele>
        <time>2013-06-08T14:25:09Z</time>
      </trkpt>
      <trkpt lat="46.23479" lon="5.80069">
        <ele>1185.92</ele>
        <time>2013-06-08T14:25:20Z</time>
      </trkpt>
      <trkpt lat="46.23471" lon="5.80043">
        <ele>1183.04</ele>
        <time>2013-06-08T14:25:35Z</time>
      </trkpt>
      <trkpt lat="46.23478" lon="5.80011">
        <ele>1180.64</ele>
        <time>2013-06-08T14:25:51Z</time>
      </trkpt>
      <trkpt lat="46.23481" lon="5.79997">
        <ele>1178.23</ele>
        <time>2013-06-08T14:25:59Z</time>
      </trkpt>
      <trkpt lat="46.23488" lon="5.79964">
        <ele>1173.91</ele>
        <time>2013-06-08T14:26:15Z</time>
      </trkpt>
      <trkpt lat="46.23489" lon="5.79963">
        <ele>1173.91</ele>
        <time>2013-06-08T14:26:16Z</time>
      </trkpt>
      <trkpt lat="46.2349" lon="5.79958">
        <ele>1173.43</ele>
        <time>2013-06-08T14:26:18Z</time>
      </trkpt>
      <trkpt lat="46.23495" lon="5.79923">
        <ele>1172.47</ele>
        <time>2013-06-08T14:26:35Z</time>
      </trkpt>
      <trkpt lat="46.23495" lon="5.79912">
        <ele>1173.43</ele>
        <time>2013-06-08T14:26:41Z</time>
      </trkpt>
      <trkpt lat="46.23498" lon="5.79899">
        <ele>1173.43</ele>
        <time>2013-06-08T14:26:47Z</time>
      </trkpt>
      <trkpt lat="46.23503" lon="5.7987">
        <ele>1171.02</ele>
        <time>2013-06-08T14:27:00Z</time>
      </trkpt>
      <trkpt lat="46.23501" lon="5.79863">
        <ele>1170.54</ele>
        <time>2013-06-08T14:27:03Z</time>
      </trkpt>
      <trkpt lat="46.23503" lon="5.79849">
        <ele>1168.62</ele>
        <time>2013-06-08T14:27:10Z</time>
      </trkpt>
      <trkpt lat="46.23504" lon="5.7984">
        <ele>1166.7</ele>
        <time>2013-06-08T14:27:15Z</time>
      </trkpt>
      <trkpt lat="46.23504" lon="5.79834">
        <ele>1165.74</ele>
        <time>2013-06-08T14:27:18Z</time>
      </trkpt>
      <trkpt lat="46.23509" lon="5.79805">
        <ele>1162.37</ele>
        <time>2013-06-08T14:27:31Z</time>
      </trkpt>
      <trkpt lat="46.23512" lon="5.79788">
        <ele>1161.41</ele>
        <time>2013-06-08T14:27:41Z</time>
      </trkpt>
      <trkpt lat="46.23512" lon="5.79781">
        <ele>1161.89</ele>
        <time>2013-06-08T14:27:44Z</time>
      </trkpt>
      <trkpt lat="46.23506" lon="5.7975">
        <ele>1162.37</ele>
        <time>2013-06-08T14:27:59Z</time>
      </trkpt>
      <trkpt lat="46.235" lon="5.7972">
        <ele>1160.93</ele>
        <time>2013-06-08T14:28:14Z</time>
      </trkpt>
      <trkpt lat="46.23497" lon="5.79694">
        <ele>1159.97</ele>
        <time>2013-06-08T14:28:27Z</time>
      </trkpt>
      <trkpt lat="46.23494" lon="5.79665">
        <ele>1160.93</ele>
        <time>2013-06-08T14:28:42Z</time>
      </trkpt>
      <trkpt lat="46.23492" lon="5.79648">
        <ele>1162.37</ele>
        <time>2013-06-08T14:28:51Z</time>
      </trkpt>
      <trkpt lat="46.23485" lon="5.79623">
        <ele>1166.7</ele>
        <time>2013-06-08T14:29:08Z</time>
      </trkpt>
      <trkpt lat="46.23475" lon="5.79605">
        <ele>1168.14</ele>
        <time>2013-06-08T14:29:22Z</time>
      </trkpt>
      <trkpt lat="46.23471" lon="5.79573">
        <ele>1172.95</ele>
        <time>2013-06-08T14:29:36Z</time>
      </trkpt>
      <trkpt lat="46.23473" lon="5.79559">
        <ele>1173.91</ele>
        <time>2013-06-08T14:29:42Z</time>
      </trkpt>
      <trkpt lat="46.23476" lon="5.79529">
        <ele>1171.5</ele>
        <time>2013-06-08T14:29:56Z</time>
      </trkpt>
      <trkpt lat="46.23477" lon="5.79506">
        <ele>1171.5</ele>
        <time>2013-06-08T14:30:10Z</time>
      </trkpt>
      <trkpt lat="46.23477" lon="5.79504">
        <ele>1171.5</ele>
        <time>2013-06-08T14:30:11Z</time>
      </trkpt>
      <trkpt lat="46.23466" lon="5.79485">
        <ele>1168.62</ele>
        <time>2013-06-08T14:30:19Z</time>
      </trkpt>
      <trkpt lat="46.2346" lon="5.79456">
        <ele>1164.29</ele>
        <time>2013-06-08T14:30:35Z</time>
      </trkpt>
      <trkpt lat="46.23449" lon="5.79431">
        <ele>1161.41</ele>
        <time>2013-06-08T14:30:51Z</time>
      </trkpt>
      <trkpt lat="46.23443" lon="5.79413">
        <ele>1158.53</ele>
        <time>2013-06-08T14:31:02Z</time>
      </trkpt>
      <trkpt lat="46.23431" lon="5.79393">
        <ele>1150.35</ele>
        <time>2013-06-08T14:31:20Z</time>
      </trkpt>
      <trkpt lat="46.23405" lon="5.79382">
        <ele>1147.47</ele>
        <time>2013-06-08T14:31:33Z</time>
      </trkpt>
      <trkpt lat="46.23404" lon="5.79371">
        <ele>1153.72</ele>
        <time>2013-06-08T14:31:41Z</time>
      </trkpt>
      <trkpt lat="46.23406" lon="5.79352">
        <ele>1158.53</ele>
        <time>2013-06-08T14:31:56Z</time>
      </trkpt>
      <trkpt lat="46.2341" lon="5.79338">
        <ele>1165.26</ele>
        <time>2013-06-08T14:32:09Z</time>
      </trkpt>
      <trkpt lat="46.23415" lon="5.79306">
        <ele>1169.1</ele>
        <time>2013-06-08T14:32:24Z</time>
      </trkpt>
      <trkpt lat="46.2342" lon="5.79284">
        <ele>1169.58</ele>
        <time>2013-06-08T14:32:36Z</time>
      </trkpt>
      <trkpt lat="46.23428" lon="5.79267">
        <ele>1169.58</ele>
        <time>2013-06-08T14:32:53Z</time>
      </trkpt>
      <trkpt lat="46.23445" lon="5.7926">
        <ele>1171.02</ele>
        <time>2013-06-08T14:33:09Z</time>
      </trkpt>
      <trkpt lat="46.23448" lon="5.79258">
        <ele>1171.5</ele>
        <time>2013-06-08T14:33:11Z</time>
      </trkpt>
      <trkpt lat="46.23472" lon="5.7924">
        <ele>1168.14</ele>
        <time>2013-06-08T14:33:28Z</time>
      </trkpt>
      <trkpt lat="46.23473" lon="5.79238">
        <ele>1168.14</ele>
        <time>2013-06-08T14:33:29Z</time>
      </trkpt>
      <trkpt lat="46.23487" lon="5.7921">
        <ele>1166.7</ele>
        <time>2013-06-08T14:33:46Z</time>
      </trkpt>
      <trkpt lat="46.23496" lon="5.79196">
        <ele>1162.37</ele>
        <time>2013-06-08T14:33:55Z</time>
      </trkpt>
      <trkpt lat="46.23505" lon="5.79167">
        <ele>1161.41</ele>
        <time>2013-06-08T14:34:08Z</time>
      </trkpt>
      <trkpt lat="46.23519" lon="5.79142">
        <ele>1161.41</ele>
        <time>2013-06-08T14:34:25Z</time>
      </trkpt>
      <trkpt lat="46.23533" lon="5.79124">
        <ele>1158.53</ele>
        <time>2013-06-08T14:34:41Z</time>
      </trkpt>
      <trkpt lat="46.23546" lon="5.79098">
        <ele>1159.49</ele>
        <time>2013-06-08T14:34:54Z</time>
      </trkpt>
      <trkpt lat="46.23557" lon="5.7908">
        <ele>1160.45</ele>
        <time>2013-06-08T14:35:07Z</time>
      </trkpt>
      <trkpt lat="46.23567" lon="5.79071">
        <ele>1161.41</ele>
        <time>2013-06-08T14:35:18Z</time>
      </trkpt>
      <trkpt lat="46.23584" lon="5.79054">
        <ele>1161.41</ele>
        <time>2013-06-08T14:35:33Z</time>
      </trkpt>
      <trkpt lat="46.23588" lon="5.7905">
        <ele>1160.93</ele>
        <time>2013-06-08T14:35:36Z</time>
      </trkpt>
      <trkpt lat="46.23591" lon="5.79044">
        <ele>1160.93</ele>
        <time>2013-06-08T14:35:39Z</time>
      </trkpt>
      <trkpt lat="46.23608" lon="5.79025">
        <ele>1157.56</ele>
        <time>2013-06-08T14:35:53Z</time>
      </trkpt>
      <trkpt lat="46.2362" lon="5.79007">
        <ele>1155.16</ele>
        <time>2013-06-08T14:36:02Z</time>
      </trkpt>
      <trkpt lat="46.23626" lon="5.78985">
        <ele>1151.8</ele>
        <time>2013-06-08T14:36:13Z</time>
      </trkpt>
      <trkpt lat="46.23629" lon="5.78942">
        <ele>1148.91</ele>
        <time>2013-06-08T14:36:30Z</time>
      </trkpt>
      <trkpt lat="46.23624" lon="5.78911">
        <ele>1146.03</ele>
        <time>2013-06-08T14:36:46Z</time>
      </trkpt>
      <trkpt lat="46.23631" lon="5.78884">
        <ele>1143.14</ele>
        <time>2013-06-08T14:37:00Z</time>
      </trkpt>
      <trkpt lat="46.23635" lon="5.78872">
        <ele>1143.14</ele>
        <time>2013-06-08T14:37:05Z</time>
      </trkpt>
      <trkpt lat="46.23637" lon="5.78867">
        <ele>1143.14</ele>
        <time>2013-06-08T14:37:07Z</time>
      </trkpt>
      <trkpt lat="46.2364" lon="5.78854">
        <ele>1144.11</ele>
        <time>2013-06-08T14:37:12Z</time>
      </trkpt>
      <trkpt lat="46.23641" lon="5.78831">
        <ele>1145.07</ele>
        <time>2013-06-08T14:37:28Z</time>
      </trkpt>
      <trkpt lat="46.23643" lon="5.78804">
        <ele>1143.14</ele>
        <time>2013-06-08T14:37:44Z</time>
      </trkpt>
      <trkpt lat="46.23644" lon="5.78773">
        <ele>1144.11</ele>
        <time>2013-06-08T14:38:00Z</time>
      </trkpt>
      <trkpt lat="46.23648" lon="5.78727">
        <ele>1137.86</ele>
        <time>2013-06-08T14:38:19Z</time>
      </trkpt>
      <trkpt lat="46.23634" lon="5.78698">
        <ele>1133.53</ele>
        <time>2013-06-08T14:38:33Z</time>
      </trkpt>
      <trkpt lat="46.23634" lon="5.78683">
        <ele>1132.57</ele>
        <time>2013-06-08T14:38:39Z</time>
      </trkpt>
      <trkpt lat="46.23632" lon="5.7867">
        <ele>1130.17</ele>
        <time>2013-06-08T14:38:46Z</time>
      </trkpt>
      <trkpt lat="46.23623" lon="5.78664">
        <ele>1128.73</ele>
        <time>2013-06-08T14:38:49Z</time>
      </trkpt>
      <trkpt lat="46.23634" lon="5.78646">
        <ele>1119.11</ele>
        <time>2013-06-08T14:39:03Z</time>
      </trkpt>
      <trkpt lat="46.23641" lon="5.78645">
        <ele>1117.67</ele>
        <time>2013-06-08T14:39:12Z</time>
      </trkpt>
      <trkpt lat="46.23646" lon="5.78653">
        <ele>1118.15</ele>
        <time>2013-06-08T14:39:18Z</time>
      </trkpt>
      <trkpt lat="46.23661" lon="5.78653">
        <ele>1119.59</ele>
        <time>2013-06-08T14:39:32Z</time>
      </trkpt>
      <trkpt lat="46.23688" lon="5.78648">
        <ele>1118.63</ele>
        <time>2013-06-08T14:39:47Z</time>
      </trkpt>
      <trkpt lat="46.23693" lon="5.78641">
        <ele>1118.63</ele>
        <time>2013-06-08T14:39:52Z</time>
      </trkpt>
      <trkpt lat="46.23705" lon="5.78605">
        <ele>1113.34</ele>
        <time>2013-06-08T14:40:06Z</time>
      </trkpt>
      <trkpt lat="46.23704" lon="5.78568">
        <ele>1108.54</ele>
        <time>2013-06-08T14:40:21Z</time>
      </trkpt>
      <trkpt lat="46.237" lon="5.78536">
        <ele>1106.13</ele>
        <time>2013-06-08T14:40:34Z</time>
      </trkpt>
      <trkpt lat="46.23691" lon="5.78524">
        <ele>1106.13</ele>
        <time>2013-06-08T14:40:42Z</time>
      </trkpt>
      <trkpt lat="46.2368" lon="5.78513">
        <ele>1104.21</ele>
        <time>2013-06-08T14:40:52Z</time>
      </trkpt>
      <trkpt lat="46.23658" lon="5.78486">
        <ele>1100.37</ele>
        <time>2013-06-08T14:41:08Z</time>
      </trkpt>
      <trkpt lat="46.23656" lon="5.78484">
        <ele>1100.37</ele>
        <time>2013-06-08T14:41:10Z</time>
      </trkpt>
      <trkpt lat="46.23647" lon="5.78458">
        <ele>1099.89</ele>
        <time>2013-06-08T14:41:25Z</time>
      </trkpt>
      <trkpt lat="46.23631" lon="5.78441">
        <ele>1099.89</ele>
        <time>2013-06-08T14:41:38Z</time>
      </trkpt>
      <trkpt lat="46.23625" lon="5.78434">
        <ele>1099.89</ele>
        <time>2013-06-08T14:41:45Z</time>
      </trkpt>
      <trkpt lat="46.236" lon="5.78415">
        <ele>1097</ele>
        <time>2013-06-08T14:42:00Z</time>
      </trkpt>
      <trkpt lat="46.23589" lon="5.78406">
        <ele>1095.56</ele>
        <time>2013-06-08T14:42:12Z</time>
      </trkpt>
      <trkpt lat="46.23583" lon="5.78393">
        <ele>1098.92</ele>
        <time>2013-06-08T14:42:25Z</time>
      </trkpt>
      <trkpt lat="46.23582" lon="5.78381">
        <ele>1100.37</ele>
        <time>2013-06-08T14:42:32Z</time>
      </trkpt>
      <trkpt lat="46.23578" lon="5.78367">
        <ele>1101.81</ele>
        <time>2013-06-08T14:42:40Z</time>
      </trkpt>
      <trkpt lat="46.23564" lon="5.78346">
        <ele>1097.96</ele>
        <time>2013-06-08T14:42:51Z</time>
      </trkpt>
      <trkpt lat="46.23558" lon="5.78339">
        <ele>1098.44</ele>
        <time>2013-06-08T14:42:55Z</time>
      </trkpt>
      <trkpt lat="46.23546" lon="5.78334">
        <ele>1099.89</ele>
        <time>2013-06-08T14:43:01Z</time>
      </trkpt>
      <trkpt lat="46.2354" lon="5.78327">
        <ele>1098.44</ele>
        <time>2013-06-08T14:43:06Z</time>
      </trkpt>
      <trkpt lat="46.23522" lon="5.78315">
        <ele>1094.12</ele>
        <time>2013-06-08T14:43:20Z</time>
      </trkpt>
      <trkpt lat="46.23516" lon="5.78294">
        <ele>1086.91</ele>
        <time>2013-06-08T14:43:34Z</time>
      </trkpt>
      <trkpt lat="46.23515" lon="5.78264">
        <ele>1077.29</ele>
        <time>2013-06-08T14:43:50Z</time>
      </trkpt>
      <trkpt lat="46.23515" lon="5.78231">
        <ele>1072.97</ele>
        <time>2013-06-08T14:44:03Z</time>
      </trkpt>
      <trkpt lat="46.23515" lon="5.7823">
        <ele>1072.97</ele>
        <time>2013-06-08T14:44:04Z</time>
      </trkpt>
      <trkpt lat="46.23513" lon="5.78226">
        <ele>1072.01</ele>
        <time>2013-06-08T14:44:06Z</time>
      </trkpt>
      <trkpt lat="46.23511" lon="5.78212">
        <ele>1072.01</ele>
        <time>2013-06-08T14:44:12Z</time>
      </trkpt>
      <trkpt lat="46.23507" lon="5.78186">
        <ele>1066.72</ele>
        <time>2013-06-08T14:44:27Z</time>
      </trkpt>
      <trkpt lat="46.23493" lon="5.78163">
        <ele>1064.8</ele>
        <time>2013-06-08T14:44:43Z</time>
      </trkpt>
      <trkpt lat="46.23486" lon="5.78148">
        <ele>1063.36</ele>
        <time>2013-06-08T14:44:53Z</time>
      </trkpt>
      <trkpt lat="46.23485" lon="5.7814">
        <ele>1062.39</ele>
        <time>2013-06-08T14:44:57Z</time>
      </trkpt>
      <trkpt lat="46.23483" lon="5.78132">
        <ele>1061.91</ele>
        <time>2013-06-08T14:45:02Z</time>
      </trkpt>
      <trkpt lat="46.23474" lon="5.78106">
        <ele>1059.99</ele>
        <time>2013-06-08T14:45:17Z</time>
      </trkpt>
      <trkpt lat="46.23462" lon="5.78081">
        <ele>1059.03</ele>
        <time>2013-06-08T14:45:30Z</time>
      </trkpt>
      <trkpt lat="46.23447" lon="5.78052">
        <ele>1054.22</ele>
        <time>2013-06-08T14:45:47Z</time>
      </trkpt>
      <trkpt lat="46.23433" lon="5.78027">
        <ele>1047.49</ele>
        <time>2013-06-08T14:46:00Z</time>
      </trkpt>
      <trkpt lat="46.23424" lon="5.78002">
        <ele>1043.65</ele>
        <time>2013-06-08T14:46:15Z</time>
      </trkpt>
      <trkpt lat="46.23414" lon="5.77977">
        <ele>1041.25</ele>
        <time>2013-06-08T14:46:29Z</time>
      </trkpt>
      <trkpt lat="46.2341" lon="5.77972">
        <ele>1039.8</ele>
        <time>2013-06-08T14:46:33Z</time>
      </trkpt>
      <trkpt lat="46.23398" lon="5.77952">
        <ele>1035.96</ele>
        <time>2013-06-08T14:46:48Z</time>
      </trkpt>
      <trkpt lat="46.23377" lon="5.7793">
        <ele>1035</ele>
        <time>2013-06-08T14:47:04Z</time>
      </trkpt>
      <trkpt lat="46.23363" lon="5.77912">
        <ele>1033.55</ele>
        <time>2013-06-08T14:47:17Z</time>
      </trkpt>
      <trkpt lat="46.23343" lon="5.77903">
        <ele>1031.63</ele>
        <time>2013-06-08T14:47:33Z</time>
      </trkpt>
      <trkpt lat="46.2333" lon="5.77899">
        <ele>1031.15</ele>
        <time>2013-06-08T14:47:43Z</time>
      </trkpt>
      <trkpt lat="46.23308" lon="5.77885">
        <ele>1030.67</ele>
        <time>2013-06-08T14:48:01Z</time>
      </trkpt>
      <trkpt lat="46.23305" lon="5.77863">
        <ele>1029.71</ele>
        <time>2013-06-08T14:48:09Z</time>
      </trkpt>
      <trkpt lat="46.23281" lon="5.77836">
        <ele>1028.27</ele>
        <time>2013-06-08T14:48:24Z</time>
      </trkpt>
      <trkpt lat="46.23279" lon="5.77835">
        <ele>1028.27</ele>
        <time>2013-06-08T14:48:25Z</time>
      </trkpt>
      <trkpt lat="46.23256" lon="5.77824">
        <ele>1026.34</ele>
        <time>2013-06-08T14:48:40Z</time>
      </trkpt>
      <trkpt lat="46.23236" lon="5.7781">
        <ele>1024.9</ele>
        <time>2013-06-08T14:48:55Z</time>
      </trkpt>
      <trkpt lat="46.23218" lon="5.7779">
        <ele>1022.98</ele>
        <time>2013-06-08T14:49:10Z</time>
      </trkpt>
      <trkpt lat="46.23199" lon="5.77772">
        <ele>1022.02</ele>
        <time>2013-06-08T14:49:23Z</time>
      </trkpt>
      <trkpt lat="46.23182" lon="5.77756">
        <ele>1020.1</ele>
        <time>2013-06-08T14:49:38Z</time>
      </trkpt>
      <trkpt lat="46.2318" lon="5.77752">
        <ele>1019.62</ele>
        <time>2013-06-08T14:49:50Z</time>
      </trkpt>
      <trkpt lat="46.23181" lon="5.7775">
        <ele>1019.13</ele>
        <time>2013-06-08T14:50:17Z</time>
      </trkpt>
      <trkpt lat="46.23174" lon="5.77747">
        <ele>1017.69</ele>
        <time>2013-06-08T14:50:24Z</time>
      </trkpt>
      <trkpt lat="46.2316" lon="5.77732">
        <ele>1016.25</ele>
        <time>2013-06-08T14:50:38Z</time>
      </trkpt>
      <trkpt lat="46.23156" lon="5.77727">
        <ele>1015.77</ele>
        <time>2013-06-08T14:50:42Z</time>
      </trkpt>
      <trkpt lat="46.2314" lon="5.77702">
        <ele>1014.81</ele>
        <time>2013-06-08T14:50:58Z</time>
      </trkpt>
      <trkpt lat="46.23133" lon="5.77689">
        <ele>1013.85</ele>
        <time>2013-06-08T14:51:08Z</time>
      </trkpt>
      <trkpt lat="46.23114" lon="5.77668">
        <ele>1011.93</ele>
        <time>2013-06-08T14:51:22Z</time>
      </trkpt>
      <trkpt lat="46.23096" lon="5.77654">
        <ele>1011.44</ele>
        <time>2013-06-08T14:51:36Z</time>
      </trkpt>
      <trkpt lat="46.23084" lon="5.77647">
        <ele>1009.52</ele>
        <time>2013-06-08T14:51:51Z</time>
      </trkpt>
      <trkpt lat="46.23073" lon="5.77635">
        <ele>1007.6</ele>
        <time>2013-06-08T14:52:04Z</time>
      </trkpt>
      <trkpt lat="46.23053" lon="5.77623">
        <ele>1005.68</ele>
        <time>2013-06-08T14:52:20Z</time>
      </trkpt>
      <trkpt lat="46.23033" lon="5.77615">
        <ele>1006.16</ele>
        <time>2013-06-08T14:52:35Z</time>
      </trkpt>
      <trkpt lat="46.23018" lon="5.7761">
        <ele>1006.64</ele>
        <time>2013-06-08T14:52:47Z</time>
      </trkpt>
      <trkpt lat="46.23" lon="5.77602">
        <ele>1005.2</ele>
        <time>2013-06-08T14:53:00Z</time>
      </trkpt>
      <trkpt lat="46.22975" lon="5.77597">
        <ele>1003.27</ele>
        <time>2013-06-08T14:53:17Z</time>
      </trkpt>
      <trkpt lat="46.22952" lon="5.77587">
        <ele>1005.2</ele>
        <time>2013-06-08T14:53:33Z</time>
      </trkpt>
      <trkpt lat="46.22935" lon="5.77578">
        <ele>1007.12</ele>
        <time>2013-06-08T14:53:46Z</time>
      </trkpt>
      <trkpt lat="46.2292" lon="5.77567">
        <ele>1007.6</ele>
        <time>2013-06-08T14:54:00Z</time>
      </trkpt>
      <trkpt lat="46.22903" lon="5.7755">
        <ele>1007.6</ele>
        <time>2013-06-08T14:54:15Z</time>
      </trkpt>
      <trkpt lat="46.22884" lon="5.77534">
        <ele>1006.64</ele>
        <time>2013-06-08T14:54:31Z</time>
      </trkpt>
      <trkpt lat="46.22858" lon="5.77523">
        <ele>1006.16</ele>
        <time>2013-06-08T14:54:48Z</time>
      </trkpt>
      <trkpt lat="46.22855" lon="5.77522">
        <ele>1006.16</ele>
        <time>2013-06-08T14:54:50Z</time>
      </trkpt>
      <trkpt lat="46.22845" lon="5.7752">
        <ele>1007.12</ele>
        <time>2013-06-08T14:54:59Z</time>
      </trkpt>
      <trkpt lat="46.22838" lon="5.77506">
        <ele>1011.93</ele>
        <time>2013-06-08T14:55:11Z</time>
      </trkpt>
      <trkpt lat="46.2282" lon="5.77496">
        <ele>1012.41</ele>
        <time>2013-06-08T14:55:23Z</time>
      </trkpt>
      <trkpt lat="46.22802" lon="5.77483">
        <ele>1011.93</ele>
        <time>2013-06-08T14:55:35Z</time>
      </trkpt>
      <trkpt lat="46.22785" lon="5.77474">
        <ele>1010.96</ele>
        <time>2013-06-08T14:55:47Z</time>
      </trkpt>
      <trkpt lat="46.22764" lon="5.77466">
        <ele>1009.52</ele>
        <time>2013-06-08T14:56:01Z</time>
      </trkpt>
      <trkpt lat="46.22754" lon="5.77464">
        <ele>1008.08</ele>
        <time>2013-06-08T14:56:08Z</time>
      </trkpt>
      <trkpt lat="46.22737" lon="5.77456">
        <ele>1008.08</ele>
        <time>2013-06-08T14:56:22Z</time>
      </trkpt>
      <trkpt lat="46.22736" lon="5.77455">
        <ele>1007.6</ele>
        <time>2013-06-08T14:56:23Z</time>
      </trkpt>
      <trkpt lat="46.22717" lon="5.77449">
        <ele>1008.08</ele>
        <time>2013-06-08T14:56:39Z</time>
      </trkpt>
      <trkpt lat="46.22693" lon="5.77441">
        <ele>1010.96</ele>
        <time>2013-06-08T14:56:54Z</time>
      </trkpt>
      <trkpt lat="46.22675" lon="5.77437">
        <ele>1009.52</ele>
        <time>2013-06-08T14:57:07Z</time>
      </trkpt>
      <trkpt lat="46.22656" lon="5.77436">
        <ele>1008.08</ele>
        <time>2013-06-08T14:57:21Z</time>
      </trkpt>
      <trkpt lat="46.22641" lon="5.77433">
        <ele>1007.6</ele>
        <time>2013-06-08T14:57:34Z</time>
      </trkpt>
      <trkpt lat="46.22636" lon="5.77434">
        <ele>1007.12</ele>
        <time>2013-06-08T14:57:43Z</time>
      </trkpt>
      <trkpt lat="46.22617" lon="5.77432">
        <ele>1006.64</ele>
        <time>2013-06-08T14:57:58Z</time>
      </trkpt>
      <trkpt lat="46.22604" lon="5.77427">
        <ele>1008.08</ele>
        <time>2013-06-08T14:58:12Z</time>
      </trkpt>
      <trkpt lat="46.226" lon="5.77426">
        <ele>1008.08</ele>
        <time>2013-06-08T14:58:33Z</time>
      </trkpt>
      <trkpt lat="46.226" lon="5.77426">
        <ele>1008.08</ele>
        <time>2013-06-08T14:58:53Z</time>
      </trkpt>
      <trkpt lat="46.22591" lon="5.77416">
        <ele>1008.08</ele>
        <time>2013-06-08T14:59:12Z</time>
      </trkpt>
      <trkpt lat="46.22589" lon="5.77413">
        <ele>1007.6</ele>
        <time>2013-06-08T14:59:25Z</time>
      </trkpt>
      <trkpt lat="46.22588" lon="5.7742">
        <ele>1007.6</ele>
        <time>2013-06-08T14:59:34Z</time>
      </trkpt>
      <trkpt lat="46.22587" lon="5.77426">
        <ele>1007.6</ele>
        <time>2013-06-08T14:59:42Z</time>
      </trkpt>
      <trkpt lat="46.22587" lon="5.77413">
        <ele>1003.27</ele>
        <time>2013-06-08T15:01:44Z</time>
      </trkpt>
      <trkpt lat="46.22586" lon="5.77409">
        <ele>1010</ele>
        <time>2013-06-08T15:01:56Z</time>
      </trkpt>
      <trkpt lat="46.22584" lon="5.77405">
        <ele>1006.64</ele>
        <time>2013-06-08T15:02:11Z</time>
      </trkpt>
      <trkpt lat="46.22584" lon="5.77404">
        <ele>1006.16</ele>
        <time>2013-06-08T15:02:14Z</time>
      </trkpt>
      <trkpt lat="46.22576" lon="5.77403">
        <ele>1004.72</ele>
        <time>2013-06-08T15:02:28Z</time>
      </trkpt>
      <trkpt lat="46.22572" lon="5.77407">
        <ele>1004.23</ele>
        <time>2013-06-08T15:03:26Z</time>
      </trkpt>
      <trkpt lat="46.22576" lon="5.77406">
        <ele>1004.23</ele>
        <time>2013-06-08T15:04:30Z</time>
      </trkpt>
      <trkpt lat="46.22576" lon="5.77425">
        <ele>1004.23</ele>
        <time>2013-06-08T15:06:07Z</time>
      </trkpt>
      <trkpt lat="46.22577" lon="5.77402">
        <ele>1003.27</ele>
        <time>2013-06-08T15:06:30Z</time>
      </trkpt>
      <trkpt lat="46.22578" lon="5.77394">
        <ele>1006.16</ele>
        <time>2013-06-08T15:06:53Z</time>
      </trkpt>
      <trkpt lat="46.22572" lon="5.77389">
        <ele>1006.16</ele>
        <time>2013-06-08T15:06:59Z</time>
      </trkpt>
      <trkpt lat="46.22552" lon="5.77381">
        <ele>1007.6</ele>
        <time>2013-06-08T15:07:15Z</time>
      </trkpt>
      <trkpt lat="46.22537" lon="5.77381">
        <ele>1006.64</ele>
        <time>2013-06-08T15:07:26Z</time>
      </trkpt>
      <trkpt lat="46.22533" lon="5.77391">
        <ele>1003.75</ele>
        <time>2013-06-08T15:07:41Z</time>
      </trkpt>
      <trkpt lat="46.22535" lon="5.77389">
        <ele>1002.79</ele>
        <time>2013-06-08T15:08:03Z</time>
      </trkpt>
      <trkpt lat="46.22535" lon="5.77386">
        <ele>1002.79</ele>
        <time>2013-06-08T15:08:17Z</time>
      </trkpt>
      <trkpt lat="46.22535" lon="5.77385">
        <ele>1002.31</ele>
        <time>2013-06-08T15:08:30Z</time>
      </trkpt>
      <trkpt lat="46.22531" lon="5.77381">
        <ele>1003.75</ele>
        <time>2013-06-08T15:08:35Z</time>
      </trkpt>
      <trkpt lat="46.22517" lon="5.77387">
        <ele>1006.16</ele>
        <time>2013-06-08T15:08:47Z</time>
      </trkpt>
      <trkpt lat="46.22501" lon="5.77388">
        <ele>1007.12</ele>
        <time>2013-06-08T15:09:00Z</time>
      </trkpt>
      <trkpt lat="46.22481" lon="5.77414">
        <ele>1002.31</ele>
        <time>2013-06-08T15:09:17Z</time>
      </trkpt>
      <trkpt lat="46.2246" lon="5.77433">
        <ele>1000.39</ele>
        <time>2013-06-08T15:09:34Z</time>
      </trkpt>
      <trkpt lat="46.22446" lon="5.77442">
        <ele>997.99</ele>
        <time>2013-06-08T15:09:46Z</time>
      </trkpt>
      <trkpt lat="46.22427" lon="5.77456">
        <ele>993.18</ele>
        <time>2013-06-08T15:10:01Z</time>
      </trkpt>
      <trkpt lat="46.22417" lon="5.77462">
        <ele>992.22</ele>
        <time>2013-06-08T15:10:10Z</time>
      </trkpt>
      <trkpt lat="46.22408" lon="5.77473">
        <ele>992.7</ele>
        <time>2013-06-08T15:10:25Z</time>
      </trkpt>
      <trkpt lat="46.22405" lon="5.77477">
        <ele>996.06</ele>
        <time>2013-06-08T15:10:46Z</time>
      </trkpt>
      <trkpt lat="46.224" lon="5.77474">
        <ele>997.02</ele>
        <time>2013-06-08T15:10:58Z</time>
      </trkpt>
      <trkpt lat="46.22394" lon="5.77448">
        <ele>994.14</ele>
        <time>2013-06-08T15:11:15Z</time>
      </trkpt>
      <trkpt lat="46.22387" lon="5.77431">
        <ele>994.62</ele>
        <time>2013-06-08T15:11:33Z</time>
      </trkpt>
      <trkpt lat="46.22385" lon="5.77421">
        <ele>992.7</ele>
        <time>2013-06-08T15:11:53Z</time>
      </trkpt>
      <trkpt lat="46.2238" lon="5.774">
        <ele>987.89</ele>
        <time>2013-06-08T15:12:06Z</time>
      </trkpt>
      <trkpt lat="46.22375" lon="5.7738">
        <ele>984.05</ele>
        <time>2013-06-08T15:12:21Z</time>
      </trkpt>
      <trkpt lat="46.22375" lon="5.77379">
        <ele>985.97</ele>
        <time>2013-06-08T15:12:36Z</time>
      </trkpt>
      <trkpt lat="46.22383" lon="5.77345">
        <ele>985.49</ele>
        <time>2013-06-08T15:12:55Z</time>
      </trkpt>
      <trkpt lat="46.22389" lon="5.77322">
        <ele>984.53</ele>
        <time>2013-06-08T15:13:09Z</time>
      </trkpt>
      <trkpt lat="46.22397" lon="5.77305">
        <ele>985.97</ele>
        <time>2013-06-08T15:13:20Z</time>
      </trkpt>
      <trkpt lat="46.22411" lon="5.77282">
        <ele>988.37</ele>
        <time>2013-06-08T15:13:35Z</time>
      </trkpt>
      <trkpt lat="46.22423" lon="5.77252">
        <ele>987.89</ele>
        <time>2013-06-08T15:13:51Z</time>
      </trkpt>
      <trkpt lat="46.22433" lon="5.77229">
        <ele>984.53</ele>
        <time>2013-06-08T15:14:05Z</time>
      </trkpt>
      <trkpt lat="46.22436" lon="5.77215">
        <ele>982.6</ele>
        <time>2013-06-08T15:14:13Z</time>
      </trkpt>
      <trkpt lat="46.22433" lon="5.77208">
        <ele>983.09</ele>
        <time>2013-06-08T15:14:18Z</time>
      </trkpt>
      <trkpt lat="46.22416" lon="5.77217">
        <ele>982.6</ele>
        <time>2013-06-08T15:14:31Z</time>
      </trkpt>
      <trkpt lat="46.22397" lon="5.77225">
        <ele>983.57</ele>
        <time>2013-06-08T15:14:44Z</time>
      </trkpt>
      <trkpt lat="46.22396" lon="5.77226">
        <ele>983.57</ele>
        <time>2013-06-08T15:14:46Z</time>
      </trkpt>
      <trkpt lat="46.22385" lon="5.77232">
        <ele>985.01</ele>
        <time>2013-06-08T15:14:57Z</time>
      </trkpt>
      <trkpt lat="46.2238" lon="5.77232">
        <ele>985.97</ele>
        <time>2013-06-08T15:15:01Z</time>
      </trkpt>
      <trkpt lat="46.22365" lon="5.77226">
        <ele>987.89</ele>
        <time>2013-06-08T15:15:14Z</time>
      </trkpt>
      <trkpt lat="46.22345" lon="5.77217">
        <ele>986.45</ele>
        <time>2013-06-08T15:15:30Z</time>
      </trkpt>
      <trkpt lat="46.22331" lon="5.77212">
        <ele>983.09</ele>
        <time>2013-06-08T15:15:43Z</time>
      </trkpt>
      <trkpt lat="46.22321" lon="5.77189">
        <ele>977.32</ele>
        <time>2013-06-08T15:16:01Z</time>
      </trkpt>
      <trkpt lat="46.22321" lon="5.77185">
        <ele>976.84</ele>
        <time>2013-06-08T15:16:03Z</time>
      </trkpt>
      <trkpt lat="46.22322" lon="5.77177">
        <ele>976.36</ele>
        <time>2013-06-08T15:16:07Z</time>
      </trkpt>
      <trkpt lat="46.2232" lon="5.77165">
        <ele>974.43</ele>
        <time>2013-06-08T15:16:22Z</time>
      </trkpt>
      <trkpt lat="46.22317" lon="5.77156">
        <ele>973.47</ele>
        <time>2013-06-08T15:16:40Z</time>
      </trkpt>
      <trkpt lat="46.22313" lon="5.77151">
        <ele>972.51</ele>
        <time>2013-06-08T15:16:44Z</time>
      </trkpt>
      <trkpt lat="46.22297" lon="5.77144">
        <ele>972.03</ele>
        <time>2013-06-08T15:16:59Z</time>
      </trkpt>
      <trkpt lat="46.22296" lon="5.7714">
        <ele>972.51</ele>
        <time>2013-06-08T15:17:30Z</time>
      </trkpt>
      <trkpt lat="46.22296" lon="5.77138">
        <ele>972.99</ele>
        <time>2013-06-08T15:18:06Z</time>
      </trkpt>
      <trkpt lat="46.22295" lon="5.77137">
        <ele>973.47</ele>
        <time>2013-06-08T15:18:38Z</time>
      </trkpt>
      <trkpt lat="46.22293" lon="5.77139">
        <ele>972.99</ele>
        <time>2013-06-08T15:19:09Z</time>
      </trkpt>
      <trkpt lat="46.22293" lon="5.77139">
        <ele>973.95</ele>
        <time>2013-06-08T15:19:41Z</time>
      </trkpt>
      <trkpt lat="46.22284" lon="5.77141">
        <ele>974.43</ele>
        <time>2013-06-08T15:19:55Z</time>
      </trkpt>
      <trkpt lat="46.22278" lon="5.77143">
        <ele>975.88</ele>
        <time>2013-06-08T15:20:03Z</time>
      </trkpt>
      <trkpt lat="46.22266" lon="5.77138">
        <ele>975.88</ele>
        <time>2013-06-08T15:20:17Z</time>
      </trkpt>
      <trkpt lat="46.22252" lon="5.77129">
        <ele>976.36</ele>
        <time>2013-06-08T15:20:33Z</time>
      </trkpt>
      <trkpt lat="46.22246" lon="5.7712">
        <ele>978.76</ele>
        <time>2013-06-08T15:20:50Z</time>
      </trkpt>
      <trkpt lat="46.22239" lon="5.77115">
        <ele>979.24</ele>
        <time>2013-06-08T15:21:04Z</time>
      </trkpt>
      <trkpt lat="46.22237" lon="5.77108">
        <ele>981.16</ele>
        <time>2013-06-08T15:21:24Z</time>
      </trkpt>
      <trkpt lat="46.22235" lon="5.77103">
        <ele>981.64</ele>
        <time>2013-06-08T15:21:32Z</time>
      </trkpt>
      <trkpt lat="46.22219" lon="5.7708">
        <ele>981.16</ele>
        <time>2013-06-08T15:21:45Z</time>
      </trkpt>
      <trkpt lat="46.22212" lon="5.77073">
        <ele>981.64</ele>
        <time>2013-06-08T15:21:52Z</time>
      </trkpt>
      <trkpt lat="46.22195" lon="5.77061">
        <ele>978.28</ele>
        <time>2013-06-08T15:22:05Z</time>
      </trkpt>
      <trkpt lat="46.2219" lon="5.77061">
        <ele>978.28</ele>
        <time>2013-06-08T15:22:08Z</time>
      </trkpt>
      <trkpt lat="46.22185" lon="5.7706">
        <ele>978.28</ele>
        <time>2013-06-08T15:22:13Z</time>
      </trkpt>
      <trkpt lat="46.22171" lon="5.77063">
        <ele>977.32</ele>
        <time>2013-06-08T15:22:23Z</time>
      </trkpt>
      <trkpt lat="46.22168" lon="5.77062">
        <ele>977.32</ele>
        <time>2013-06-08T15:22:25Z</time>
      </trkpt>
      <trkpt lat="46.22148" lon="5.77066">
        <ele>977.8</ele>
        <time>2013-06-08T15:22:40Z</time>
      </trkpt>
      <trkpt lat="46.22145" lon="5.77067">
        <ele>978.28</ele>
        <time>2013-06-08T15:22:43Z</time>
      </trkpt>
      <trkpt lat="46.22125" lon="5.77072">
        <ele>977.32</ele>
        <time>2013-06-08T15:22:57Z</time>
      </trkpt>
      <trkpt lat="46.22123" lon="5.77072">
        <ele>977.32</ele>
        <time>2013-06-08T15:22:58Z</time>
      </trkpt>
      <trkpt lat="46.22105" lon="5.77076">
        <ele>977.32</ele>
        <time>2013-06-08T15:23:12Z</time>
      </trkpt>
      <trkpt lat="46.22088" lon="5.77072">
        <ele>974.91</ele>
        <time>2013-06-08T15:23:24Z</time>
      </trkpt>
      <trkpt lat="46.22074" lon="5.77061">
        <ele>975.39</ele>
        <time>2013-06-08T15:23:36Z</time>
      </trkpt>
      <trkpt lat="46.22055" lon="5.77048">
        <ele>975.88</ele>
        <time>2013-06-08T15:23:51Z</time>
      </trkpt>
      <trkpt lat="46.22056" lon="5.77048">
        <ele>974.91</ele>
        <time>2013-06-08T15:23:54Z</time>
      </trkpt>
      <trkpt lat="46.22056" lon="5.77046">
        <ele>974.91</ele>
        <time>2013-06-08T15:23:56Z</time>
      </trkpt>
      <trkpt lat="46.22061" lon="5.77042">
        <ele>976.36</ele>
        <time>2013-06-08T15:24:03Z</time>
      </trkpt>
      <trkpt lat="46.22074" lon="5.77044">
        <ele>980.68</ele>
        <time>2013-06-08T15:24:17Z</time>
      </trkpt>
      <trkpt lat="46.22083" lon="5.77044">
        <ele>985.97</ele>
        <time>2013-06-08T15:24:27Z</time>
      </trkpt>
      <trkpt lat="46.22101" lon="5.7704">
        <ele>991.74</ele>
        <time>2013-06-08T15:24:41Z</time>
      </trkpt>
      <trkpt lat="46.22107" lon="5.7704">
        <ele>995.58</ele>
        <time>2013-06-08T15:24:50Z</time>
      </trkpt>
      <trkpt lat="46.22125" lon="5.77026">
        <ele>992.7</ele>
        <time>2013-06-08T15:24:57Z</time>
      </trkpt>
      <trkpt lat="46.22137" lon="5.76992">
        <ele>997.99</ele>
        <time>2013-06-08T15:25:15Z</time>
      </trkpt>
      <trkpt lat="46.22137" lon="5.76982">
        <ele>998.47</ele>
        <time>2013-06-08T15:25:19Z</time>
      </trkpt>
      <trkpt lat="46.22138" lon="5.7697">
        <ele>998.95</ele>
        <time>2013-06-08T15:25:23Z</time>
      </trkpt>
      <trkpt lat="46.22136" lon="5.76953">
        <ele>999.91</ele>
        <time>2013-06-08T15:25:32Z</time>
      </trkpt>
      <trkpt lat="46.22132" lon="5.76937">
        <ele>1000.39</ele>
        <time>2013-06-08T15:25:48Z</time>
      </trkpt>
      <trkpt lat="46.22131" lon="5.76921">
        <ele>1001.35</ele>
        <time>2013-06-08T15:25:58Z</time>
      </trkpt>
      <trkpt lat="46.2213" lon="5.76898">
        <ele>1003.27</ele>
        <time>2013-06-08T15:26:10Z</time>
      </trkpt>
      <trkpt lat="46.2213" lon="5.76899">
        <ele>1004.23</ele>
        <time>2013-06-08T15:26:27Z</time>
      </trkpt>
      <trkpt lat="46.22129" lon="5.769">
        <ele>1005.68</ele>
        <time>2013-06-08T15:26:55Z</time>
      </trkpt>
      <trkpt lat="46.22129" lon="5.76898">
        <ele>1006.16</ele>
        <time>2013-06-08T15:27:28Z</time>
      </trkpt>
      <trkpt lat="46.2212" lon="5.76882">
        <ele>1002.31</ele>
        <time>2013-06-08T15:27:39Z</time>
      </trkpt>
      <trkpt lat="46.22119" lon="5.76879">
        <ele>1001.83</ele>
        <time>2013-06-08T15:27:41Z</time>
      </trkpt>
      <trkpt lat="46.22117" lon="5.76871">
        <ele>1000.39</ele>
        <time>2013-06-08T15:27:57Z</time>
      </trkpt>
      <trkpt lat="46.22111" lon="5.76852">
        <ele>999.91</ele>
        <time>2013-06-08T15:28:09Z</time>
      </trkpt>
      <trkpt lat="46.22106" lon="5.7683">
        <ele>999.91</ele>
        <time>2013-06-08T15:28:22Z</time>
      </trkpt>
      <trkpt lat="46.22098" lon="5.76816">
        <ele>998.95</ele>
        <time>2013-06-08T15:28:31Z</time>
      </trkpt>
      <trkpt lat="46.22086" lon="5.76792">
        <ele>999.43</ele>
        <time>2013-06-08T15:28:45Z</time>
      </trkpt>
      <trkpt lat="46.22078" lon="5.76785">
        <ele>999.91</ele>
        <time>2013-06-08T15:28:51Z</time>
      </trkpt>
      <trkpt lat="46.22067" lon="5.76764">
        <ele>995.1</ele>
        <time>2013-06-08T15:29:05Z</time>
      </trkpt>
      <trkpt lat="46.22055" lon="5.76744">
        <ele>994.14</ele>
        <time>2013-06-08T15:29:20Z</time>
      </trkpt>
      <trkpt lat="46.22046" lon="5.76735">
        <ele>994.62</ele>
        <time>2013-06-08T15:29:28Z</time>
      </trkpt>
      <trkpt lat="46.22031" lon="5.76718">
        <ele>995.1</ele>
        <time>2013-06-08T15:29:41Z</time>
      </trkpt>
      <trkpt lat="46.2202" lon="5.76705">
        <ele>996.06</ele>
        <time>2013-06-08T15:29:51Z</time>
      </trkpt>
      <trkpt lat="46.22004" lon="5.76684">
        <ele>994.14</ele>
        <time>2013-06-08T15:30:06Z</time>
      </trkpt>
      <trkpt lat="46.22" lon="5.7668">
        <ele>993.66</ele>
        <time>2013-06-08T15:30:10Z</time>
      </trkpt>
      <trkpt lat="46.21995" lon="5.76674">
        <ele>993.18</ele>
        <time>2013-06-08T15:30:16Z</time>
      </trkpt>
      <trkpt lat="46.21989" lon="5.76669">
        <ele>992.7</ele>
        <time>2013-06-08T15:30:21Z</time>
      </trkpt>
      <trkpt lat="46.21975" lon="5.76649">
        <ele>993.18</ele>
        <time>2013-06-08T15:30:36Z</time>
      </trkpt>
      <trkpt lat="46.21961" lon="5.76631">
        <ele>992.7</ele>
        <time>2013-06-08T15:30:50Z</time>
      </trkpt>
      <trkpt lat="46.21949" lon="5.7661">
        <ele>989.81</ele>
        <time>2013-06-08T15:31:06Z</time>
      </trkpt>
      <trkpt lat="46.21943" lon="5.76582">
        <ele>991.26</ele>
        <time>2013-06-08T15:31:21Z</time>
      </trkpt>
      <trkpt lat="46.21939" lon="5.76572">
        <ele>991.26</ele>
        <time>2013-06-08T15:31:27Z</time>
      </trkpt>
      <trkpt lat="46.2193" lon="5.76552">
        <ele>991.74</ele>
        <time>2013-06-08T15:31:39Z</time>
      </trkpt>
      <trkpt lat="46.21919" lon="5.76535">
        <ele>994.14</ele>
        <time>2013-06-08T15:31:53Z</time>
      </trkpt>
      <trkpt lat="46.21912" lon="5.76526">
        <ele>995.58</ele>
        <time>2013-06-08T15:32:06Z</time>
      </trkpt>
      <trkpt lat="46.21911" lon="5.76526">
        <ele>995.58</ele>
        <time>2013-06-08T15:32:29Z</time>
      </trkpt>
      <trkpt lat="46.21911" lon="5.76527">
        <ele>996.54</ele>
        <time>2013-06-08T15:32:49Z</time>
      </trkpt>
      <trkpt lat="46.21911" lon="5.76525">
        <ele>996.06</ele>
        <time>2013-06-08T15:32:51Z</time>
      </trkpt>
      <trkpt lat="46.21905" lon="5.76519">
        <ele>995.58</ele>
        <time>2013-06-08T15:32:56Z</time>
      </trkpt>
      <trkpt lat="46.21899" lon="5.76506">
        <ele>994.62</ele>
        <time>2013-06-08T15:33:04Z</time>
      </trkpt>
      <trkpt lat="46.21892" lon="5.7649">
        <ele>993.18</ele>
        <time>2013-06-08T15:33:14Z</time>
      </trkpt>
      <trkpt lat="46.21881" lon="5.76476">
        <ele>992.22</ele>
        <time>2013-06-08T15:33:24Z</time>
      </trkpt>
      <trkpt lat="46.2187" lon="5.76464">
        <ele>992.22</ele>
        <time>2013-06-08T15:33:35Z</time>
      </trkpt>
      <trkpt lat="46.21856" lon="5.76449">
        <ele>993.18</ele>
        <time>2013-06-08T15:33:49Z</time>
      </trkpt>
      <trkpt lat="46.21837" lon="5.76431">
        <ele>991.74</ele>
        <time>2013-06-08T15:34:06Z</time>
      </trkpt>
      <trkpt lat="46.21821" lon="5.76419">
        <ele>992.22</ele>
        <time>2013-06-08T15:34:20Z</time>
      </trkpt>
      <trkpt lat="46.21803" lon="5.76402">
        <ele>993.66</ele>
        <time>2013-06-08T15:34:38Z</time>
      </trkpt>
      <trkpt lat="46.21786" lon="5.76387">
        <ele>997.02</ele>
        <time>2013-06-08T15:34:53Z</time>
      </trkpt>
      <trkpt lat="46.21781" lon="5.76384">
        <ele>997.02</ele>
        <time>2013-06-08T15:34:56Z</time>
      </trkpt>
      <trkpt lat="46.21766" lon="5.7637">
        <ele>999.43</ele>
        <time>2013-06-08T15:35:09Z</time>
      </trkpt>
      <trkpt lat="46.21763" lon="5.76368">
        <ele>1000.39</ele>
        <time>2013-06-08T15:35:11Z</time>
      </trkpt>
      <trkpt lat="46.21747" lon="5.76358">
        <ele>999.91</ele>
        <time>2013-06-08T15:35:25Z</time>
      </trkpt>
      <trkpt lat="46.21743" lon="5.76355">
        <ele>998.95</ele>
        <time>2013-06-08T15:35:28Z</time>
      </trkpt>
      <trkpt lat="46.21735" lon="5.76349">
        <ele>998.47</ele>
        <time>2013-06-08T15:35:36Z</time>
      </trkpt>
      <trkpt lat="46.21717" lon="5.76341">
        <ele>997.99</ele>
        <time>2013-06-08T15:35:50Z</time>
      </trkpt>
      <trkpt lat="46.21696" lon="5.76331">
        <ele>1001.35</ele>
        <time>2013-06-08T15:36:05Z</time>
      </trkpt>
      <trkpt lat="46.21695" lon="5.76331">
        <ele>1001.35</ele>
        <time>2013-06-08T15:36:07Z</time>
      </trkpt>
      <trkpt lat="46.21681" lon="5.76331">
        <ele>1003.75</ele>
        <time>2013-06-08T15:36:16Z</time>
      </trkpt>
      <trkpt lat="46.21656" lon="5.7633">
        <ele>1003.75</ele>
        <time>2013-06-08T15:36:35Z</time>
      </trkpt>
      <trkpt lat="46.2164" lon="5.7634">
        <ele>1001.83</ele>
        <time>2013-06-08T15:36:49Z</time>
      </trkpt>
      <trkpt lat="46.2162" lon="5.76332">
        <ele>997.51</ele>
        <time>2013-06-08T15:37:04Z</time>
      </trkpt>
      <trkpt lat="46.21604" lon="5.76329">
        <ele>998.95</ele>
        <time>2013-06-08T15:37:17Z</time>
      </trkpt>
      <trkpt lat="46.21593" lon="5.76328">
        <ele>1001.83</ele>
        <time>2013-06-08T15:37:24Z</time>
      </trkpt>
      <trkpt lat="46.21581" lon="5.76334">
        <ele>1004.23</ele>
        <time>2013-06-08T15:37:33Z</time>
      </trkpt>
      <trkpt lat="46.21573" lon="5.76334">
        <ele>1005.2</ele>
        <time>2013-06-08T15:37:38Z</time>
      </trkpt>
      <trkpt lat="46.2155" lon="5.76342">
        <ele>1007.6</ele>
        <time>2013-06-08T15:37:55Z</time>
      </trkpt>
      <trkpt lat="46.21544" lon="5.76342">
        <ele>1007.6</ele>
        <time>2013-06-08T15:38:01Z</time>
      </trkpt>
      <trkpt lat="46.21522" lon="5.76341">
        <ele>1007.6</ele>
        <time>2013-06-08T15:38:16Z</time>
      </trkpt>
      <trkpt lat="46.21509" lon="5.76342">
        <ele>1007.6</ele>
        <time>2013-06-08T15:38:27Z</time>
      </trkpt>
      <trkpt lat="46.21492" lon="5.76342">
        <ele>1009.52</ele>
        <time>2013-06-08T15:38:38Z</time>
      </trkpt>
      <trkpt lat="46.21476" lon="5.76342">
        <ele>1009.04</ele>
        <time>2013-06-08T15:38:51Z</time>
      </trkpt>
      <trkpt lat="46.2147" lon="5.76345">
        <ele>1007.6</ele>
        <time>2013-06-08T15:38:57Z</time>
      </trkpt>
      <trkpt lat="46.21449" lon="5.76352">
        <ele>1006.64</ele>
        <time>2013-06-08T15:39:13Z</time>
      </trkpt>
      <trkpt lat="46.21442" lon="5.76351">
        <ele>1008.08</ele>
        <time>2013-06-08T15:39:18Z</time>
      </trkpt>
      <trkpt lat="46.2143" lon="5.76369">
        <ele>1004.23</ele>
        <time>2013-06-08T15:39:31Z</time>
      </trkpt>
      <trkpt lat="46.2142" lon="5.76377">
        <ele>1003.27</ele>
        <time>2013-06-08T15:39:40Z</time>
      </trkpt>
      <trkpt lat="46.21408" lon="5.76377">
        <ele>1003.27</ele>
        <time>2013-06-08T15:39:50Z</time>
      </trkpt>
      <trkpt lat="46.21407" lon="5.76377">
        <ele>1002.79</ele>
        <time>2013-06-08T15:39:51Z</time>
      </trkpt>
      <trkpt lat="46.21394" lon="5.76378">
        <ele>1006.64</ele>
        <time>2013-06-08T15:40:05Z</time>
      </trkpt>
      <trkpt lat="46.21394" lon="5.76386">
        <ele>1009.04</ele>
        <time>2013-06-08T15:40:18Z</time>
      </trkpt>
      <trkpt lat="46.21385" lon="5.76406">
        <ele>1015.77</ele>
        <time>2013-06-08T15:40:32Z</time>
      </trkpt>
      <trkpt lat="46.21375" lon="5.76428">
        <ele>1019.62</ele>
        <time>2013-06-08T15:40:47Z</time>
      </trkpt>
      <trkpt lat="46.21372" lon="5.7645">
        <ele>1019.13</ele>
        <time>2013-06-08T15:41:10Z</time>
      </trkpt>
      <trkpt lat="46.21368" lon="5.7647">
        <ele>1023.46</ele>
        <time>2013-06-08T15:41:27Z</time>
      </trkpt>
      <trkpt lat="46.21368" lon="5.76498">
        <ele>1024.9</ele>
        <time>2013-06-08T15:41:39Z</time>
      </trkpt>
      <trkpt lat="46.21353" lon="5.76521">
        <ele>1024.42</ele>
        <time>2013-06-08T15:41:54Z</time>
      </trkpt>
      <trkpt lat="46.21337" lon="5.76539">
        <ele>1026.83</ele>
        <time>2013-06-08T15:42:10Z</time>
      </trkpt>
      <trkpt lat="46.21333" lon="5.76542">
        <ele>1028.27</ele>
        <time>2013-06-08T15:42:15Z</time>
      </trkpt>
      <trkpt lat="46.21322" lon="5.76577">
        <ele>1027.79</ele>
        <time>2013-06-08T15:42:31Z</time>
      </trkpt>
      <trkpt lat="46.21321" lon="5.76606">
        <ele>1026.34</ele>
        <time>2013-06-08T15:42:44Z</time>
      </trkpt>
      <trkpt lat="46.21323" lon="5.76628">
        <ele>1030.67</ele>
        <time>2013-06-08T15:42:59Z</time>
      </trkpt>
      <trkpt lat="46.21324" lon="5.76664">
        <ele>1028.75</ele>
        <time>2013-06-08T15:43:14Z</time>
      </trkpt>
      <trkpt lat="46.21325" lon="5.76687">
        <ele>1031.15</ele>
        <time>2013-06-08T15:43:29Z</time>
      </trkpt>
      <trkpt lat="46.21328" lon="5.7674">
        <ele>1024.9</ele>
        <time>2013-06-08T15:43:42Z</time>
      </trkpt>
      <trkpt lat="46.21329" lon="5.76747">
        <ele>1016.25</ele>
        <time>2013-06-08T15:43:55Z</time>
      </trkpt>
      <trkpt lat="46.21325" lon="5.76747">
        <ele>1014.81</ele>
        <time>2013-06-08T15:44:00Z</time>
      </trkpt>
      <trkpt lat="46.21306" lon="5.76743">
        <ele>1013.85</ele>
        <time>2013-06-08T15:44:13Z</time>
      </trkpt>
      <trkpt lat="46.2129" lon="5.76736">
        <ele>1013.37</ele>
        <time>2013-06-08T15:44:27Z</time>
      </trkpt>
      <trkpt lat="46.21277" lon="5.7673">
        <ele>1011.44</ele>
        <time>2013-06-08T15:44:39Z</time>
      </trkpt>
      <trkpt lat="46.21257" lon="5.76711">
        <ele>1007.6</ele>
        <time>2013-06-08T15:44:57Z</time>
      </trkpt>
      <trkpt lat="46.21238" lon="5.76701">
        <ele>1003.75</ele>
        <time>2013-06-08T15:45:10Z</time>
      </trkpt>
      <trkpt lat="46.21221" lon="5.76709">
        <ele>1003.27</ele>
        <time>2013-06-08T15:45:25Z</time>
      </trkpt>
      <trkpt lat="46.21204" lon="5.76727">
        <ele>1000.39</ele>
        <time>2013-06-08T15:45:40Z</time>
      </trkpt>
      <trkpt lat="46.21193" lon="5.76755">
        <ele>999.43</ele>
        <time>2013-06-08T15:45:55Z</time>
      </trkpt>
      <trkpt lat="46.21192" lon="5.7678">
        <ele>999.91</ele>
        <time>2013-06-08T15:46:10Z</time>
      </trkpt>
      <trkpt lat="46.21183" lon="5.76808">
        <ele>997.51</ele>
        <time>2013-06-08T15:46:23Z</time>
      </trkpt>
      <trkpt lat="46.21176" lon="5.76828">
        <ele>998.47</ele>
        <time>2013-06-08T15:46:38Z</time>
      </trkpt>
      <trkpt lat="46.21173" lon="5.76851">
        <ele>1000.87</ele>
        <time>2013-06-08T15:46:55Z</time>
      </trkpt>
      <trkpt lat="46.21168" lon="5.76875">
        <ele>999.91</ele>
        <time>2013-06-08T15:47:14Z</time>
      </trkpt>
      <trkpt lat="46.21179" lon="5.76897">
        <ele>997.51</ele>
        <time>2013-06-08T15:47:34Z</time>
      </trkpt>
      <trkpt lat="46.21188" lon="5.76882">
        <ele>997.99</ele>
        <time>2013-06-08T15:47:52Z</time>
      </trkpt>
      <trkpt lat="46.21187" lon="5.76878">
        <ele>998.95</ele>
        <time>2013-06-08T15:48:19Z</time>
      </trkpt>
      <trkpt lat="46.21189" lon="5.7688">
        <ele>1001.35</ele>
        <time>2013-06-08T15:48:50Z</time>
      </trkpt>
      <trkpt lat="46.21192" lon="5.76884">
        <ele>1000.87</ele>
        <time>2013-06-08T15:49:20Z</time>
      </trkpt>
      <trkpt lat="46.21194" lon="5.76883">
        <ele>1001.35</ele>
        <time>2013-06-08T15:49:50Z</time>
      </trkpt>
      <trkpt lat="46.21194" lon="5.76881">
        <ele>999.43</ele>
        <time>2013-06-08T15:50:22Z</time>
      </trkpt>
      <trkpt lat="46.21193" lon="5.76881">
        <ele>998.47</ele>
        <time>2013-06-08T15:50:54Z</time>
      </trkpt>
      <trkpt lat="46.21193" lon="5.76882">
        <ele>997.51</ele>
        <time>2013-06-08T15:51:27Z</time>
      </trkpt>
      <trkpt lat="46.21191" lon="5.76882">
        <ele>997.02</ele>
        <time>2013-06-08T15:51:48Z</time>
      </trkpt>
      <trkpt lat="46.21189" lon="5.76881">
        <ele>996.54</ele>
        <time>2013-06-08T15:51:50Z</time>
      </trkpt>
      <trkpt lat="46.21171" lon="5.76882">
        <ele>993.18</ele>
        <time>2013-06-08T15:52:05Z</time>
      </trkpt>
      <trkpt lat="46.2116" lon="5.76902">
        <ele>992.22</ele>
        <time>2013-06-08T15:52:19Z</time>
      </trkpt>
      <trkpt lat="46.21157" lon="5.76912">
        <ele>992.22</ele>
        <time>2013-06-08T15:52:26Z</time>
      </trkpt>
      <trkpt lat="46.21154" lon="5.7692">
        <ele>992.7</ele>
        <time>2013-06-08T15:52:32Z</time>
      </trkpt>
      <trkpt lat="46.21154" lon="5.7693">
        <ele>992.7</ele>
        <time>2013-06-08T15:52:36Z</time>
      </trkpt>
      <trkpt lat="46.21141" lon="5.76975">
        <ele>987.89</ele>
        <time>2013-06-08T15:52:53Z</time>
      </trkpt>
      <trkpt lat="46.21139" lon="5.7698">
        <ele>984.53</ele>
        <time>2013-06-08T15:52:56Z</time>
      </trkpt>
      <trkpt lat="46.21126" lon="5.76989">
        <ele>978.28</ele>
        <time>2013-06-08T15:53:07Z</time>
      </trkpt>
      <trkpt lat="46.21104" lon="5.76997">
        <ele>972.99</ele>
        <time>2013-06-08T15:53:24Z</time>
      </trkpt>
      <trkpt lat="46.21087" lon="5.77014">
        <ele>967.7</ele>
        <time>2013-06-08T15:53:41Z</time>
      </trkpt>
      <trkpt lat="46.21085" lon="5.77018">
        <ele>967.22</ele>
        <time>2013-06-08T15:53:43Z</time>
      </trkpt>
      <trkpt lat="46.21083" lon="5.77035">
        <ele>966.26</ele>
        <time>2013-06-08T15:53:59Z</time>
      </trkpt>
      <trkpt lat="46.21083" lon="5.77028">
        <ele>965.3</ele>
        <time>2013-06-08T15:54:13Z</time>
      </trkpt>
      <trkpt lat="46.21081" lon="5.77026">
        <ele>961.94</ele>
        <time>2013-06-08T15:54:28Z</time>
      </trkpt>
      <trkpt lat="46.21077" lon="5.77037">
        <ele>962.42</ele>
        <time>2013-06-08T15:54:40Z</time>
      </trkpt>
      <trkpt lat="46.21074" lon="5.77046">
        <ele>963.38</ele>
        <time>2013-06-08T15:54:49Z</time>
      </trkpt>
      <trkpt lat="46.21071" lon="5.77049">
        <ele>964.34</ele>
        <time>2013-06-08T15:54:53Z</time>
      </trkpt>
      <trkpt lat="46.21055" lon="5.77055">
        <ele>965.78</ele>
        <time>2013-06-08T15:55:07Z</time>
      </trkpt>
      <trkpt lat="46.21038" lon="5.7706">
        <ele>965.3</ele>
        <time>2013-06-08T15:55:20Z</time>
      </trkpt>
      <trkpt lat="46.21026" lon="5.7707">
        <ele>965.3</ele>
        <time>2013-06-08T15:55:32Z</time>
      </trkpt>
      <trkpt lat="46.21009" lon="5.77091">
        <ele>964.82</ele>
        <time>2013-06-08T15:55:49Z</time>
      </trkpt>
      <trkpt lat="46.20995" lon="5.77116">
        <ele>963.86</ele>
        <time>2013-06-08T15:56:04Z</time>
      </trkpt>
      <trkpt lat="46.20991" lon="5.7712">
        <ele>964.82</ele>
        <time>2013-06-08T15:56:08Z</time>
      </trkpt>
      <trkpt lat="46.20978" lon="5.77147">
        <ele>965.3</ele>
        <time>2013-06-08T15:56:22Z</time>
      </trkpt>
      <trkpt lat="46.20972" lon="5.77164">
        <ele>965.3</ele>
        <time>2013-06-08T15:56:31Z</time>
      </trkpt>
      <trkpt lat="46.20961" lon="5.77193">
        <ele>964.82</ele>
        <time>2013-06-08T15:56:45Z</time>
      </trkpt>
      <trkpt lat="46.20954" lon="5.77216">
        <ele>964.34</ele>
        <time>2013-06-08T15:57:00Z</time>
      </trkpt>
      <trkpt lat="46.20946" lon="5.77229">
        <ele>969.63</ele>
        <time>2013-06-08T15:57:15Z</time>
      </trkpt>
      <trkpt lat="46.20934" lon="5.77253">
        <ele>975.88</ele>
        <time>2013-06-08T15:57:31Z</time>
      </trkpt>
      <trkpt lat="46.20924" lon="5.77283">
        <ele>977.32</ele>
        <time>2013-06-08T15:57:48Z</time>
      </trkpt>
      <trkpt lat="46.20913" lon="5.77305">
        <ele>974.91</ele>
        <time>2013-06-08T15:58:03Z</time>
      </trkpt>
      <trkpt lat="46.20899" lon="5.77312">
        <ele>973.47</ele>
        <time>2013-06-08T15:58:14Z</time>
      </trkpt>
      <trkpt lat="46.20893" lon="5.77316">
        <ele>970.11</ele>
        <time>2013-06-08T15:58:21Z</time>
      </trkpt>
      <trkpt lat="46.20888" lon="5.77317">
        <ele>969.63</ele>
        <time>2013-06-08T15:58:25Z</time>
      </trkpt>
      <trkpt lat="46.20871" lon="5.77299">
        <ele>967.7</ele>
        <time>2013-06-08T15:58:42Z</time>
      </trkpt>
      <trkpt lat="46.20858" lon="5.77276">
        <ele>969.15</ele>
        <time>2013-06-08T15:58:59Z</time>
      </trkpt>
      <trkpt lat="46.20857" lon="5.77273">
        <ele>969.15</ele>
        <time>2013-06-08T15:59:01Z</time>
      </trkpt>
      <trkpt lat="46.20855" lon="5.7727">
        <ele>969.15</ele>
        <time>2013-06-08T15:59:03Z</time>
      </trkpt>
      <trkpt lat="46.20838" lon="5.77253">
        <ele>967.7</ele>
        <time>2013-06-08T15:59:19Z</time>
      </trkpt>
      <trkpt lat="46.20822" lon="5.77248">
        <ele>969.15</ele>
        <time>2013-06-08T15:59:33Z</time>
      </trkpt>
      <trkpt lat="46.20802" lon="5.77259">
        <ele>970.59</ele>
        <time>2013-06-08T15:59:48Z</time>
      </trkpt>
      <trkpt lat="46.2079" lon="5.77276">
        <ele>972.03</ele>
        <time>2013-06-08T15:59:59Z</time>
      </trkpt>
      <trkpt lat="46.20779" lon="5.77304">
        <ele>971.55</ele>
        <time>2013-06-08T16:00:14Z</time>
      </trkpt>
      <trkpt lat="46.20766" lon="5.77332">
        <ele>971.07</ele>
        <time>2013-06-08T16:00:30Z</time>
      </trkpt>
      <trkpt lat="46.20758" lon="5.77353">
        <ele>967.7</ele>
        <time>2013-06-08T16:00:42Z</time>
      </trkpt>
      <trkpt lat="46.20746" lon="5.77376">
        <ele>964.82</ele>
        <time>2013-06-08T16:00:57Z</time>
      </trkpt>
      <trkpt lat="46.20742" lon="5.77382">
        <ele>964.34</ele>
        <time>2013-06-08T16:01:01Z</time>
      </trkpt>
      <trkpt lat="46.20727" lon="5.77396">
        <ele>963.38</ele>
        <time>2013-06-08T16:01:17Z</time>
      </trkpt>
      <trkpt lat="46.20714" lon="5.77401">
        <ele>961.46</ele>
        <time>2013-06-08T16:01:31Z</time>
      </trkpt>
      <trkpt lat="46.20701" lon="5.77405">
        <ele>962.42</ele>
        <time>2013-06-08T16:01:41Z</time>
      </trkpt>
      <trkpt lat="46.20685" lon="5.77403">
        <ele>966.74</ele>
        <time>2013-06-08T16:01:53Z</time>
      </trkpt>
      <trkpt lat="46.2067" lon="5.77391">
        <ele>973.47</ele>
        <time>2013-06-08T16:02:07Z</time>
      </trkpt>
      <trkpt lat="46.20664" lon="5.77387">
        <ele>974.43</ele>
        <time>2013-06-08T16:02:13Z</time>
      </trkpt>
      <trkpt lat="46.20649" lon="5.7738">
        <ele>978.76</ele>
        <time>2013-06-08T16:02:28Z</time>
      </trkpt>
      <trkpt lat="46.20633" lon="5.77369">
        <ele>977.8</ele>
        <time>2013-06-08T16:02:42Z</time>
      </trkpt>
      <trkpt lat="46.20622" lon="5.77376">
        <ele>980.2</ele>
        <time>2013-06-08T16:02:56Z</time>
      </trkpt>
      <trkpt lat="46.20616" lon="5.7738">
        <ele>983.09</ele>
        <time>2013-06-08T16:03:01Z</time>
      </trkpt>
      <trkpt lat="46.20601" lon="5.77391">
        <ele>990.78</ele>
        <time>2013-06-08T16:03:18Z</time>
      </trkpt>
      <trkpt lat="46.20599" lon="5.77391">
        <ele>990.78</ele>
        <time>2013-06-08T16:03:20Z</time>
      </trkpt>
      <trkpt lat="46.20577" lon="5.77388">
        <ele>992.22</ele>
        <time>2013-06-08T16:03:37Z</time>
      </trkpt>
      <trkpt lat="46.20571" lon="5.77386">
        <ele>993.18</ele>
        <time>2013-06-08T16:03:42Z</time>
      </trkpt>
      <trkpt lat="46.20567" lon="5.77372">
        <ele>994.62</ele>
        <time>2013-06-08T16:03:51Z</time>
      </trkpt>
      <trkpt lat="46.2056" lon="5.77348">
        <ele>989.33</ele>
        <time>2013-06-08T16:04:04Z</time>
      </trkpt>
      <trkpt lat="46.20566" lon="5.7734">
        <ele>990.3</ele>
        <time>2013-06-08T16:04:13Z</time>
      </trkpt>
      <trkpt lat="46.20579" lon="5.77322">
        <ele>995.1</ele>
        <time>2013-06-08T16:04:28Z</time>
      </trkpt>
      <trkpt lat="46.20586" lon="5.77302">
        <ele>998.47</ele>
        <time>2013-06-08T16:04:41Z</time>
      </trkpt>
      <trkpt lat="46.20596" lon="5.77286">
        <ele>1002.31</ele>
        <time>2013-06-08T16:04:53Z</time>
      </trkpt>
      <trkpt lat="46.20605" lon="5.77275">
        <ele>1005.68</ele>
        <time>2013-06-08T16:05:03Z</time>
      </trkpt>
      <trkpt lat="46.20614" lon="5.77251">
        <ele>1013.85</ele>
        <time>2013-06-08T16:05:19Z</time>
      </trkpt>
      <trkpt lat="46.20627" lon="5.77232">
        <ele>1021.54</ele>
        <time>2013-06-08T16:05:34Z</time>
      </trkpt>
      <trkpt lat="46.20642" lon="5.77213">
        <ele>1028.27</ele>
        <time>2013-06-08T16:05:49Z</time>
      </trkpt>
      <trkpt lat="46.20644" lon="5.77211">
        <ele>1028.27</ele>
        <time>2013-06-08T16:05:50Z</time>
      </trkpt>
      <trkpt lat="46.20659" lon="5.77191">
        <ele>1032.11</ele>
        <time>2013-06-08T16:06:05Z</time>
      </trkpt>
      <trkpt lat="46.20665" lon="5.77183">
        <ele>1034.52</ele>
        <time>2013-06-08T16:06:12Z</time>
      </trkpt>
      <trkpt lat="46.20665" lon="5.77177">
        <ele>1035</ele>
        <time>2013-06-08T16:06:15Z</time>
      </trkpt>
      <trkpt lat="46.20665" lon="5.77162">
        <ele>1032.11</ele>
        <time>2013-06-08T16:06:27Z</time>
      </trkpt>
      <trkpt lat="46.20667" lon="5.77139">
        <ele>1023.46</ele>
        <time>2013-06-08T16:06:41Z</time>
      </trkpt>
      <trkpt lat="46.20666" lon="5.77136">
        <ele>1016.73</ele>
        <time>2013-06-08T16:06:58Z</time>
      </trkpt>
      <trkpt lat="46.20665" lon="5.77136">
        <ele>1011.93</ele>
        <time>2013-06-08T16:07:17Z</time>
      </trkpt>
      <trkpt lat="46.20658" lon="5.77136">
        <ele>1008.56</ele>
        <time>2013-06-08T16:07:40Z</time>
      </trkpt>
      <trkpt lat="46.20658" lon="5.77137">
        <ele>1007.6</ele>
        <time>2013-06-08T16:08:05Z</time>
      </trkpt>
      <trkpt lat="46.20655" lon="5.77126">
        <ele>1007.6</ele>
        <time>2013-06-08T16:08:19Z</time>
      </trkpt>
      <trkpt lat="46.20652" lon="5.7711">
        <ele>1010.48</ele>
        <time>2013-06-08T16:08:32Z</time>
      </trkpt>
      <trkpt lat="46.20652" lon="5.77101">
        <ele>1010</ele>
        <time>2013-06-08T16:08:36Z</time>
      </trkpt>
      <trkpt lat="46.20648" lon="5.77076">
        <ele>1010.96</ele>
        <time>2013-06-08T16:08:51Z</time>
      </trkpt>
      <trkpt lat="46.2065" lon="5.77059">
        <ele>1012.41</ele>
        <time>2013-06-08T16:09:04Z</time>
      </trkpt>
      <trkpt lat="46.20652" lon="5.77034">
        <ele>1013.37</ele>
        <time>2013-06-08T16:09:17Z</time>
      </trkpt>
      <trkpt lat="46.2065" lon="5.7701">
        <ele>1014.33</ele>
        <time>2013-06-08T16:09:30Z</time>
      </trkpt>
      <trkpt lat="46.20648" lon="5.77">
        <ele>1014.81</ele>
        <time>2013-06-08T16:09:37Z</time>
      </trkpt>
      <trkpt lat="46.20645" lon="5.76976">
        <ele>1014.33</ele>
        <time>2013-06-08T16:09:49Z</time>
      </trkpt>
      <trkpt lat="46.20637" lon="5.76952">
        <ele>1015.29</ele>
        <time>2013-06-08T16:10:04Z</time>
      </trkpt>
      <trkpt lat="46.20629" lon="5.76926">
        <ele>1020.58</ele>
        <time>2013-06-08T16:10:19Z</time>
      </trkpt>
      <trkpt lat="46.20623" lon="5.76918">
        <ele>1021.54</ele>
        <time>2013-06-08T16:10:24Z</time>
      </trkpt>
      <trkpt lat="46.20621" lon="5.76915">
        <ele>1022.02</ele>
        <time>2013-06-08T16:10:26Z</time>
      </trkpt>
      <trkpt lat="46.20617" lon="5.769">
        <ele>1023.94</ele>
        <time>2013-06-08T16:10:40Z</time>
      </trkpt>
      <trkpt lat="46.20597" lon="5.76887">
        <ele>1026.83</ele>
        <time>2013-06-08T16:10:57Z</time>
      </trkpt>
      <trkpt lat="46.20573" lon="5.76877">
        <ele>1031.15</ele>
        <time>2013-06-08T16:11:10Z</time>
      </trkpt>
      <trkpt lat="46.20562" lon="5.76871">
        <ele>1033.07</ele>
        <time>2013-06-08T16:11:22Z</time>
      </trkpt>
      <trkpt lat="46.20559" lon="5.76866">
        <ele>1033.07</ele>
        <time>2013-06-08T16:11:42Z</time>
      </trkpt>
      <trkpt lat="46.20552" lon="5.76855">
        <ele>1034.04</ele>
        <time>2013-06-08T16:11:56Z</time>
      </trkpt>
      <trkpt lat="46.20545" lon="5.76845">
        <ele>1038.84</ele>
        <time>2013-06-08T16:12:08Z</time>
      </trkpt>
      <trkpt lat="46.20528" lon="5.76833">
        <ele>1040.28</ele>
        <time>2013-06-08T16:12:24Z</time>
      </trkpt>
      <trkpt lat="46.20514" lon="5.76824">
        <ele>1038.84</ele>
        <time>2013-06-08T16:12:36Z</time>
      </trkpt>
      <trkpt lat="46.20503" lon="5.76807">
        <ele>1039.32</ele>
        <time>2013-06-08T16:12:48Z</time>
      </trkpt>
      <trkpt lat="46.20491" lon="5.76788">
        <ele>1038.84</ele>
        <time>2013-06-08T16:13:00Z</time>
      </trkpt>
      <trkpt lat="46.2049" lon="5.76787">
        <ele>1038.36</ele>
        <time>2013-06-08T16:13:01Z</time>
      </trkpt>
      <trkpt lat="46.20478" lon="5.76771">
        <ele>1037.88</ele>
        <time>2013-06-08T16:13:13Z</time>
      </trkpt>
      <trkpt lat="46.20466" lon="5.76751">
        <ele>1040.76</ele>
        <time>2013-06-08T16:13:29Z</time>
      </trkpt>
      <trkpt lat="46.20456" lon="5.76743">
        <ele>1042.21</ele>
        <time>2013-06-08T16:13:40Z</time>
      </trkpt>
      <trkpt lat="46.20443" lon="5.76736">
        <ele>1044.61</ele>
        <time>2013-06-08T16:13:51Z</time>
      </trkpt>
      <trkpt lat="46.20434" lon="5.76735">
        <ele>1042.21</ele>
        <time>2013-06-08T16:13:59Z</time>
      </trkpt>
      <trkpt lat="46.20419" lon="5.7673">
        <ele>1042.69</ele>
        <time>2013-06-08T16:14:06Z</time>
      </trkpt>
      <trkpt lat="46.2041" lon="5.76727">
        <ele>1044.13</ele>
        <time>2013-06-08T16:14:12Z</time>
      </trkpt>
      <trkpt lat="46.20401" lon="5.76726">
        <ele>1044.13</ele>
        <time>2013-06-08T16:14:17Z</time>
      </trkpt>
      <trkpt lat="46.20389" lon="5.76723">
        <ele>1042.21</ele>
        <time>2013-06-08T16:14:28Z</time>
      </trkpt>
      <trkpt lat="46.20388" lon="5.76722">
        <ele>1042.21</ele>
        <time>2013-06-08T16:14:30Z</time>
      </trkpt>
      <trkpt lat="46.20371" lon="5.76716">
        <ele>1044.61</ele>
        <time>2013-06-08T16:14:43Z</time>
      </trkpt>
      <trkpt lat="46.20364" lon="5.76712">
        <ele>1044.61</ele>
        <time>2013-06-08T16:14:47Z</time>
      </trkpt>
      <trkpt lat="46.2036" lon="5.76711">
        <ele>1044.13</ele>
        <time>2013-06-08T16:14:49Z</time>
      </trkpt>
      <trkpt lat="46.20345" lon="5.76706">
        <ele>1045.09</ele>
        <time>2013-06-08T16:15:01Z</time>
      </trkpt>
      <trkpt lat="46.20328" lon="5.76697">
        <ele>1044.13</ele>
        <time>2013-06-08T16:15:15Z</time>
      </trkpt>
      <trkpt lat="46.20315" lon="5.76688">
        <ele>1044.13</ele>
        <time>2013-06-08T16:15:28Z</time>
      </trkpt>
      <trkpt lat="46.20311" lon="5.76664">
        <ele>1043.17</ele>
        <time>2013-06-08T16:15:42Z</time>
      </trkpt>
      <trkpt lat="46.2031" lon="5.7666">
        <ele>1042.69</ele>
        <time>2013-06-08T16:15:57Z</time>
      </trkpt>
      <trkpt lat="46.20309" lon="5.76659">
        <ele>1041.73</ele>
        <time>2013-06-08T16:16:15Z</time>
      </trkpt>
      <trkpt lat="46.20306" lon="5.76654">
        <ele>1041.73</ele>
        <time>2013-06-08T16:16:19Z</time>
      </trkpt>
      <trkpt lat="46.20293" lon="5.76636">
        <ele>1040.76</ele>
        <time>2013-06-08T16:16:31Z</time>
      </trkpt>
      <trkpt lat="46.20278" lon="5.76619">
        <ele>1040.76</ele>
        <time>2013-06-08T16:16:46Z</time>
      </trkpt>
      <trkpt lat="46.20277" lon="5.76618">
        <ele>1041.25</ele>
        <time>2013-06-08T16:16:47Z</time>
      </trkpt>
      <trkpt lat="46.20274" lon="5.76614">
        <ele>1041.25</ele>
        <time>2013-06-08T16:16:51Z</time>
      </trkpt>
      <trkpt lat="46.20268" lon="5.76602">
        <ele>1040.28</ele>
        <time>2013-06-08T16:16:58Z</time>
      </trkpt>
      <trkpt lat="46.20259" lon="5.76592">
        <ele>1039.8</ele>
        <time>2013-06-08T16:17:05Z</time>
      </trkpt>
      <trkpt lat="46.20253" lon="5.76587">
        <ele>1039.32</ele>
        <time>2013-06-08T16:17:10Z</time>
      </trkpt>
      <trkpt lat="46.20251" lon="5.7658">
        <ele>1039.32</ele>
        <time>2013-06-08T16:17:14Z</time>
      </trkpt>
      <trkpt lat="46.20246" lon="5.76572">
        <ele>1039.32</ele>
        <time>2013-06-08T16:17:19Z</time>
      </trkpt>
      <trkpt lat="46.2024" lon="5.76549">
        <ele>1037.4</ele>
        <time>2013-06-08T16:17:32Z</time>
      </trkpt>
      <trkpt lat="46.20231" lon="5.76533">
        <ele>1037.4</ele>
        <time>2013-06-08T16:17:43Z</time>
      </trkpt>
      <trkpt lat="46.20205" lon="5.76514">
        <ele>1035.96</ele>
        <time>2013-06-08T16:17:59Z</time>
      </trkpt>
      <trkpt lat="46.20186" lon="5.76509">
        <ele>1032.11</ele>
        <time>2013-06-08T16:18:06Z</time>
      </trkpt>
      <trkpt lat="46.20167" lon="5.76503">
        <ele>1032.11</ele>
        <time>2013-06-08T16:18:23Z</time>
      </trkpt>
      <trkpt lat="46.20162" lon="5.76486">
        <ele>1031.15</ele>
        <time>2013-06-08T16:18:39Z</time>
      </trkpt>
      <trkpt lat="46.20162" lon="5.76485">
        <ele>1030.67</ele>
        <time>2013-06-08T16:18:40Z</time>
      </trkpt>
      <trkpt lat="46.20162" lon="5.76481">
        <ele>1030.67</ele>
        <time>2013-06-08T16:18:43Z</time>
      </trkpt>
      <trkpt lat="46.20161" lon="5.76479">
        <ele>1030.67</ele>
        <time>2013-06-08T16:18:46Z</time>
      </trkpt>
      <trkpt lat="46.2016" lon="5.76469">
        <ele>1030.67</ele>
        <time>2013-06-08T16:18:53Z</time>
      </trkpt>
      <trkpt lat="46.20147" lon="5.76455">
        <ele>1030.19</ele>
        <time>2013-06-08T16:19:07Z</time>
      </trkpt>
      <trkpt lat="46.20124" lon="5.76441">
        <ele>1027.79</ele>
        <time>2013-06-08T16:19:19Z</time>
      </trkpt>
      <trkpt lat="46.20112" lon="5.76436">
        <ele>1028.27</ele>
        <time>2013-06-08T16:19:37Z</time>
      </trkpt>
      <trkpt lat="46.20104" lon="5.76432">
        <ele>1026.34</ele>
        <time>2013-06-08T16:19:51Z</time>
      </trkpt>
      <trkpt lat="46.20087" lon="5.76427">
        <ele>1023.94</ele>
        <time>2013-06-08T16:20:05Z</time>
      </trkpt>
      <trkpt lat="46.20068" lon="5.76425">
        <ele>1020.58</ele>
        <time>2013-06-08T16:20:20Z</time>
      </trkpt>
      <trkpt lat="46.20061" lon="5.76414">
        <ele>1020.1</ele>
        <time>2013-06-08T16:20:32Z</time>
      </trkpt>
      <trkpt lat="46.20049" lon="5.76392">
        <ele>1016.73</ele>
        <time>2013-06-08T16:20:45Z</time>
      </trkpt>
      <trkpt lat="46.20047" lon="5.76391">
        <ele>1016.73</ele>
        <time>2013-06-08T16:20:46Z</time>
      </trkpt>
      <trkpt lat="46.20043" lon="5.76387">
        <ele>1015.77</ele>
        <time>2013-06-08T16:20:50Z</time>
      </trkpt>
      <trkpt lat="46.20038" lon="5.76384">
        <ele>1014.81</ele>
        <time>2013-06-08T16:20:54Z</time>
      </trkpt>
      <trkpt lat="46.20031" lon="5.76377">
        <ele>1013.85</ele>
        <time>2013-06-08T16:21:00Z</time>
      </trkpt>
      <trkpt lat="46.20016" lon="5.76365">
        <ele>1012.89</ele>
        <time>2013-06-08T16:21:14Z</time>
      </trkpt>
      <trkpt lat="46.20009" lon="5.76355">
        <ele>1008.08</ele>
        <time>2013-06-08T16:21:28Z</time>
      </trkpt>
      <trkpt lat="46.19991" lon="5.7635">
        <ele>1001.35</ele>
        <time>2013-06-08T16:21:42Z</time>
      </trkpt>
      <trkpt lat="46.19989" lon="5.76348">
        <ele>1001.35</ele>
        <time>2013-06-08T16:21:43Z</time>
      </trkpt>
      <trkpt lat="46.19978" lon="5.76332">
        <ele>1000.39</ele>
        <time>2013-06-08T16:21:57Z</time>
      </trkpt>
      <trkpt lat="46.19976" lon="5.76329">
        <ele>1000.39</ele>
        <time>2013-06-08T16:22:00Z</time>
      </trkpt>
      <trkpt lat="46.19975" lon="5.76326">
        <ele>1000.39</ele>
        <time>2013-06-08T16:22:02Z</time>
      </trkpt>
      <trkpt lat="46.19952" lon="5.76302">
        <ele>999.43</ele>
        <time>2013-06-08T16:22:17Z</time>
      </trkpt>
      <trkpt lat="46.19947" lon="5.76302">
        <ele>998.95</ele>
        <time>2013-06-08T16:22:21Z</time>
      </trkpt>
      <trkpt lat="46.19923" lon="5.76293">
        <ele>998.95</ele>
        <time>2013-06-08T16:22:37Z</time>
      </trkpt>
      <trkpt lat="46.19902" lon="5.76287">
        <ele>997.99</ele>
        <time>2013-06-08T16:22:52Z</time>
      </trkpt>
      <trkpt lat="46.19894" lon="5.76285">
        <ele>997.99</ele>
        <time>2013-06-08T16:22:59Z</time>
      </trkpt>
      <trkpt lat="46.19888" lon="5.76284">
        <ele>997.99</ele>
        <time>2013-06-08T16:23:03Z</time>
      </trkpt>
      <trkpt lat="46.19874" lon="5.76281">
        <ele>997.51</ele>
        <time>2013-06-08T16:23:14Z</time>
      </trkpt>
      <trkpt lat="46.19865" lon="5.76273">
        <ele>996.54</ele>
        <time>2013-06-08T16:23:29Z</time>
      </trkpt>
      <trkpt lat="46.1986" lon="5.7627">
        <ele>996.06</ele>
        <time>2013-06-08T16:23:51Z</time>
      </trkpt>
      <trkpt lat="46.19854" lon="5.7627">
        <ele>995.58</ele>
        <time>2013-06-08T16:23:55Z</time>
      </trkpt>
      <trkpt lat="46.19831" lon="5.76262">
        <ele>994.14</ele>
        <time>2013-06-08T16:24:11Z</time>
      </trkpt>
      <trkpt lat="46.19816" lon="5.76251">
        <ele>992.22</ele>
        <time>2013-06-08T16:24:23Z</time>
      </trkpt>
      <trkpt lat="46.19805" lon="5.76246">
        <ele>988.85</ele>
        <time>2013-06-08T16:24:34Z</time>
      </trkpt>
      <trkpt lat="46.19799" lon="5.76239">
        <ele>985.97</ele>
        <time>2013-06-08T16:24:44Z</time>
      </trkpt>
      <trkpt lat="46.1979" lon="5.76222">
        <ele>984.53</ele>
        <time>2013-06-08T16:24:57Z</time>
      </trkpt>
      <trkpt lat="46.19789" lon="5.76212">
        <ele>983.57</ele>
        <time>2013-06-08T16:25:05Z</time>
      </trkpt>
      <trkpt lat="46.19781" lon="5.76195">
        <ele>982.6</ele>
        <time>2013-06-08T16:25:19Z</time>
      </trkpt>
      <trkpt lat="46.19781" lon="5.76191">
        <ele>981.64</ele>
        <time>2013-06-08T16:25:24Z</time>
      </trkpt>
      <trkpt lat="46.19778" lon="5.76174">
        <ele>978.28</ele>
        <time>2013-06-08T16:25:39Z</time>
      </trkpt>
      <trkpt lat="46.1976" lon="5.76147">
        <ele>973.95</ele>
        <time>2013-06-08T16:25:57Z</time>
      </trkpt>
      <trkpt lat="46.1974" lon="5.76117">
        <ele>965.3</ele>
        <time>2013-06-08T16:26:13Z</time>
      </trkpt>
      <trkpt lat="46.19734" lon="5.76092">
        <ele>963.38</ele>
        <time>2013-06-08T16:26:30Z</time>
      </trkpt>
      <trkpt lat="46.19732" lon="5.76087">
        <ele>962.42</ele>
        <time>2013-06-08T16:26:35Z</time>
      </trkpt>
      <trkpt lat="46.19716" lon="5.76065">
        <ele>956.17</ele>
        <time>2013-06-08T16:26:51Z</time>
      </trkpt>
      <trkpt lat="46.19695" lon="5.76051">
        <ele>950.88</ele>
        <time>2013-06-08T16:27:07Z</time>
      </trkpt>
      <trkpt lat="46.1968" lon="5.76058">
        <ele>947.04</ele>
        <time>2013-06-08T16:27:24Z</time>
      </trkpt>
      <trkpt lat="46.19673" lon="5.7605">
        <ele>947.04</ele>
        <time>2013-06-08T16:27:37Z</time>
      </trkpt>
      <trkpt lat="46.19651" lon="5.76025">
        <ele>948.48</ele>
        <time>2013-06-08T16:27:54Z</time>
      </trkpt>
      <trkpt lat="46.19641" lon="5.76001">
        <ele>948</ele>
        <time>2013-06-08T16:28:08Z</time>
      </trkpt>
      <trkpt lat="46.19631" lon="5.75985">
        <ele>946.07</ele>
        <time>2013-06-08T16:28:26Z</time>
      </trkpt>
      <trkpt lat="46.19621" lon="5.75976">
        <ele>945.11</ele>
        <time>2013-06-08T16:28:45Z</time>
      </trkpt>
      <trkpt lat="46.19586" lon="5.75962">
        <ele>946.07</ele>
        <time>2013-06-08T16:29:03Z</time>
      </trkpt>
      <trkpt lat="46.19577" lon="5.75947">
        <ele>941.75</ele>
        <time>2013-06-08T16:29:18Z</time>
      </trkpt>
      <trkpt lat="46.19555" lon="5.75931">
        <ele>935.98</ele>
        <time>2013-06-08T16:29:25Z</time>
      </trkpt>
      <trkpt lat="46.19533" lon="5.75902">
        <ele>928.77</ele>
        <time>2013-06-08T16:29:44Z</time>
      </trkpt>
      <trkpt lat="46.19511" lon="5.75898">
        <ele>926.85</ele>
        <time>2013-06-08T16:30:01Z</time>
      </trkpt>
      <trkpt lat="46.19506" lon="5.75892">
        <ele>924.93</ele>
        <time>2013-06-08T16:30:15Z</time>
      </trkpt>
      <trkpt lat="46.19498" lon="5.75883">
        <ele>922.52</ele>
        <time>2013-06-08T16:30:22Z</time>
      </trkpt>
      <trkpt lat="46.19478" lon="5.75865">
        <ele>917.72</ele>
        <time>2013-06-08T16:30:38Z</time>
      </trkpt>
      <trkpt lat="46.19459" lon="5.75842">
        <ele>917.72</ele>
        <time>2013-06-08T16:30:57Z</time>
      </trkpt>
      <trkpt lat="46.19444" lon="5.75816">
        <ele>921.56</ele>
        <time>2013-06-08T16:31:13Z</time>
      </trkpt>
      <trkpt lat="46.19441" lon="5.758">
        <ele>922.04</ele>
        <time>2013-06-08T16:31:26Z</time>
      </trkpt>
      <trkpt lat="46.19441" lon="5.75798">
        <ele>922.52</ele>
        <time>2013-06-08T16:31:28Z</time>
      </trkpt>
      <trkpt lat="46.19437" lon="5.75789">
        <ele>920.6</ele>
        <time>2013-06-08T16:31:33Z</time>
      </trkpt>
      <trkpt lat="46.19427" lon="5.75776">
        <ele>914.83</ele>
        <time>2013-06-08T16:31:49Z</time>
      </trkpt>
      <trkpt lat="46.19426" lon="5.75774">
        <ele>913.87</ele>
        <time>2013-06-08T16:32:07Z</time>
      </trkpt>
      <trkpt lat="46.19425" lon="5.75771">
        <ele>912.91</ele>
        <time>2013-06-08T16:32:09Z</time>
      </trkpt>
      <trkpt lat="46.19422" lon="5.75767">
        <ele>911.95</ele>
        <time>2013-06-08T16:32:12Z</time>
      </trkpt>
      <trkpt lat="46.19405" lon="5.75744">
        <ele>910.03</ele>
        <time>2013-06-08T16:32:30Z</time>
      </trkpt>
      <trkpt lat="46.19393" lon="5.75728">
        <ele>907.62</ele>
        <time>2013-06-08T16:32:46Z</time>
      </trkpt>
      <trkpt lat="46.19378" lon="5.75701">
        <ele>902.82</ele>
        <time>2013-06-08T16:33:03Z</time>
      </trkpt>
      <trkpt lat="46.19364" lon="5.75679">
        <ele>899.45</ele>
        <time>2013-06-08T16:33:20Z</time>
      </trkpt>
      <trkpt lat="46.19349" lon="5.75659">
        <ele>894.64</ele>
        <time>2013-06-08T16:33:41Z</time>
      </trkpt>
      <trkpt lat="46.19327" lon="5.75646">
        <ele>891.76</ele>
        <time>2013-06-08T16:34:00Z</time>
      </trkpt>
      <trkpt lat="46.19324" lon="5.75645">
        <ele>891.76</ele>
        <time>2013-06-08T16:34:10Z</time>
      </trkpt>
      <trkpt lat="46.19317" lon="5.75636">
        <ele>891.28</ele>
        <time>2013-06-08T16:34:27Z</time>
      </trkpt>
      <trkpt lat="46.19299" lon="5.75624">
        <ele>890.32</ele>
        <time>2013-06-08T16:34:44Z</time>
      </trkpt>
      <trkpt lat="46.19292" lon="5.7562">
        <ele>889.84</ele>
        <time>2013-06-08T16:34:48Z</time>
      </trkpt>
      <trkpt lat="46.19269" lon="5.756">
        <ele>888.88</ele>
        <time>2013-06-08T16:35:07Z</time>
      </trkpt>
      <trkpt lat="46.19246" lon="5.7557">
        <ele>889.36</ele>
        <time>2013-06-08T16:35:28Z</time>
      </trkpt>
      <trkpt lat="46.19227" lon="5.75545">
        <ele>888.88</ele>
        <time>2013-06-08T16:35:47Z</time>
      </trkpt>
      <trkpt lat="46.19208" lon="5.75525">
        <ele>886.95</ele>
        <time>2013-06-08T16:36:08Z</time>
      </trkpt>
      <trkpt lat="46.19172" lon="5.75501">
        <ele>875.42</ele>
        <time>2013-06-08T16:36:29Z</time>
      </trkpt>
      <trkpt lat="46.19164" lon="5.75494">
        <ele>872.53</ele>
        <time>2013-06-08T16:36:46Z</time>
      </trkpt>
      <trkpt lat="46.19154" lon="5.75485">
        <ele>871.57</ele>
        <time>2013-06-08T16:36:57Z</time>
      </trkpt>
      <trkpt lat="46.19145" lon="5.75475">
        <ele>871.09</ele>
        <time>2013-06-08T16:37:04Z</time>
      </trkpt>
      <trkpt lat="46.1913" lon="5.75467">
        <ele>870.13</ele>
        <time>2013-06-08T16:37:10Z</time>
      </trkpt>
      <trkpt lat="46.19092" lon="5.75451">
        <ele>869.17</ele>
        <time>2013-06-08T16:37:31Z</time>
      </trkpt>
      <trkpt lat="46.19074" lon="5.75429">
        <ele>868.21</ele>
        <time>2013-06-08T16:37:50Z</time>
      </trkpt>
      <trkpt lat="46.19069" lon="5.75427">
        <ele>868.69</ele>
        <time>2013-06-08T16:37:56Z</time>
      </trkpt>
      <trkpt lat="46.19035" lon="5.75397">
        <ele>866.29</ele>
        <time>2013-06-08T16:38:18Z</time>
      </trkpt>
      <trkpt lat="46.19016" lon="5.75369">
        <ele>861.96</ele>
        <time>2013-06-08T16:38:37Z</time>
      </trkpt>
      <trkpt lat="46.19009" lon="5.75337">
        <ele>858.59</ele>
        <time>2013-06-08T16:38:54Z</time>
      </trkpt>
      <trkpt lat="46.19008" lon="5.75333">
        <ele>856.19</ele>
        <time>2013-06-08T16:38:58Z</time>
      </trkpt>
      <trkpt lat="46.18998" lon="5.75316">
        <ele>851.38</ele>
        <time>2013-06-08T16:39:16Z</time>
      </trkpt>
      <trkpt lat="46.18995" lon="5.75309">
        <ele>850.42</ele>
        <time>2013-06-08T16:39:34Z</time>
      </trkpt>
      <trkpt lat="46.18992" lon="5.75302">
        <ele>849.94</ele>
        <time>2013-06-08T16:39:52Z</time>
      </trkpt>
      <trkpt lat="46.18966" lon="5.75277">
        <ele>846.1</ele>
        <time>2013-06-08T16:40:12Z</time>
      </trkpt>
      <trkpt lat="46.18956" lon="5.75267">
        <ele>843.21</ele>
        <time>2013-06-08T16:40:34Z</time>
      </trkpt>
      <trkpt lat="46.18912" lon="5.75239">
        <ele>836</ele>
        <time>2013-06-08T16:40:51Z</time>
      </trkpt>
      <trkpt lat="46.18867" lon="5.75209">
        <ele>826.39</ele>
        <time>2013-06-08T16:41:12Z</time>
      </trkpt>
      <trkpt lat="46.18851" lon="5.75183">
        <ele>823.03</ele>
        <time>2013-06-08T16:41:32Z</time>
      </trkpt>
      <trkpt lat="46.18846" lon="5.7516">
        <ele>821.58</ele>
        <time>2013-06-08T16:41:49Z</time>
      </trkpt>
      <trkpt lat="46.18831" lon="5.75139">
        <ele>819.18</ele>
        <time>2013-06-08T16:42:05Z</time>
      </trkpt>
      <trkpt lat="46.18827" lon="5.75127">
        <ele>818.7</ele>
        <time>2013-06-08T16:42:22Z</time>
      </trkpt>
      <trkpt lat="46.18824" lon="5.75124">
        <ele>818.7</ele>
        <time>2013-06-08T16:42:45Z</time>
      </trkpt>
      <trkpt lat="46.18824" lon="5.75119">
        <ele>817.26</ele>
        <time>2013-06-08T16:43:03Z</time>
      </trkpt>
      <trkpt lat="46.18821" lon="5.75117">
        <ele>815.82</ele>
        <time>2013-06-08T16:43:29Z</time>
      </trkpt>
      <trkpt lat="46.18817" lon="5.75112">
        <ele>813.89</ele>
        <time>2013-06-08T16:43:48Z</time>
      </trkpt>
      <trkpt lat="46.18816" lon="5.7511">
        <ele>813.89</ele>
        <time>2013-06-08T16:43:49Z</time>
      </trkpt>
      <trkpt lat="46.18804" lon="5.75092">
        <ele>809.57</ele>
        <time>2013-06-08T16:44:01Z</time>
      </trkpt>
      <trkpt lat="46.18797" lon="5.75082">
        <ele>806.68</ele>
        <time>2013-06-08T16:44:13Z</time>
      </trkpt>
      <trkpt lat="46.18789" lon="5.75071">
        <ele>803.32</ele>
        <time>2013-06-08T16:44:27Z</time>
      </trkpt>
      <trkpt lat="46.1878" lon="5.75053">
        <ele>798.99</ele>
        <time>2013-06-08T16:44:42Z</time>
      </trkpt>
      <trkpt lat="46.18769" lon="5.75035">
        <ele>796.11</ele>
        <time>2013-06-08T16:44:53Z</time>
      </trkpt>
      <trkpt lat="46.18756" lon="5.75018">
        <ele>790.82</ele>
        <time>2013-06-08T16:45:10Z</time>
      </trkpt>
      <trkpt lat="46.18748" lon="5.75008">
        <ele>788.9</ele>
        <time>2013-06-08T16:45:25Z</time>
      </trkpt>
      <trkpt lat="46.1874" lon="5.75004">
        <ele>786.02</ele>
        <time>2013-06-08T16:45:42Z</time>
      </trkpt>
      <trkpt lat="46.18735" lon="5.74995">
        <ele>784.57</ele>
        <time>2013-06-08T16:45:58Z</time>
      </trkpt>
      <trkpt lat="46.18721" lon="5.74968">
        <ele>780.25</ele>
        <time>2013-06-08T16:46:17Z</time>
      </trkpt>
      <trkpt lat="46.18706" lon="5.7495">
        <ele>775.92</ele>
        <time>2013-06-08T16:46:34Z</time>
      </trkpt>
      <trkpt lat="46.18692" lon="5.74934">
        <ele>773.52</ele>
        <time>2013-06-08T16:46:48Z</time>
      </trkpt>
      <trkpt lat="46.18678" lon="5.74918">
        <ele>770.63</ele>
        <time>2013-06-08T16:47:01Z</time>
      </trkpt>
      <trkpt lat="46.18661" lon="5.74903">
        <ele>766.31</ele>
        <time>2013-06-08T16:47:18Z</time>
      </trkpt>
      <trkpt lat="46.18639" lon="5.74883">
        <ele>762.94</ele>
        <time>2013-06-08T16:47:38Z</time>
      </trkpt>
      <trkpt lat="46.18622" lon="5.74869">
        <ele>761.5</ele>
        <time>2013-06-08T16:47:52Z</time>
      </trkpt>
      <trkpt lat="46.18598" lon="5.74851">
        <ele>756.69</ele>
        <time>2013-06-08T16:48:14Z</time>
      </trkpt>
      <trkpt lat="46.18572" lon="5.74834">
        <ele>752.85</ele>
        <time>2013-06-08T16:48:35Z</time>
      </trkpt>
      <trkpt lat="46.18556" lon="5.74815">
        <ele>750.45</ele>
        <time>2013-06-08T16:48:51Z</time>
      </trkpt>
      <trkpt lat="46.18543" lon="5.7479">
        <ele>747.56</ele>
        <time>2013-06-08T16:49:10Z</time>
      </trkpt>
      <trkpt lat="46.18529" lon="5.74762">
        <ele>745.16</ele>
        <time>2013-06-08T16:49:29Z</time>
      </trkpt>
      <trkpt lat="46.18527" lon="5.74755">
        <ele>744.2</ele>
        <time>2013-06-08T16:49:34Z</time>
      </trkpt>
      <trkpt lat="46.18526" lon="5.74725">
        <ele>739.87</ele>
        <time>2013-06-08T16:49:53Z</time>
      </trkpt>
      <trkpt lat="46.18519" lon="5.74717">
        <ele>737.95</ele>
        <time>2013-06-08T16:50:00Z</time>
      </trkpt>
      <trkpt lat="46.185" lon="5.74708">
        <ele>732.66</ele>
        <time>2013-06-08T16:50:21Z</time>
      </trkpt>
      <trkpt lat="46.18496" lon="5.74708">
        <ele>733.14</ele>
        <time>2013-06-08T16:50:40Z</time>
      </trkpt>
      <trkpt lat="46.18483" lon="5.74697">
        <ele>731.7</ele>
        <time>2013-06-08T16:50:56Z</time>
      </trkpt>
      <trkpt lat="46.18471" lon="5.74688">
        <ele>730.26</ele>
        <time>2013-06-08T16:51:10Z</time>
      </trkpt>
      <trkpt lat="46.18452" lon="5.74679">
        <ele>726.89</ele>
        <time>2013-06-08T16:51:26Z</time>
      </trkpt>
      <trkpt lat="46.1845" lon="5.7468">
        <ele>726.41</ele>
        <time>2013-06-08T16:51:34Z</time>
      </trkpt>
      <trkpt lat="46.18431" lon="5.74674">
        <ele>723.05</ele>
        <time>2013-06-08T16:51:54Z</time>
      </trkpt>
      <trkpt lat="46.18411" lon="5.74673">
        <ele>717.28</ele>
        <time>2013-06-08T16:52:12Z</time>
      </trkpt>
      <trkpt lat="46.18404" lon="5.74673">
        <ele>715.84</ele>
        <time>2013-06-08T16:52:17Z</time>
      </trkpt>
      <trkpt lat="46.18379" lon="5.74673">
        <ele>714.4</ele>
        <time>2013-06-08T16:52:36Z</time>
      </trkpt>
      <trkpt lat="46.18356" lon="5.74677">
        <ele>713.44</ele>
        <time>2013-06-08T16:52:55Z</time>
      </trkpt>
      <trkpt lat="46.18345" lon="5.74664">
        <ele>712.47</ele>
        <time>2013-06-08T16:53:14Z</time>
      </trkpt>
      <trkpt lat="46.18343" lon="5.74659">
        <ele>711.51</ele>
        <time>2013-06-08T16:53:17Z</time>
      </trkpt>
      <trkpt lat="46.18334" lon="5.74632">
        <ele>707.67</ele>
        <time>2013-06-08T16:53:37Z</time>
      </trkpt>
      <trkpt lat="46.18324" lon="5.74607">
        <ele>702.38</ele>
        <time>2013-06-08T16:53:52Z</time>
      </trkpt>
      <trkpt lat="46.1832" lon="5.74593">
        <ele>699.02</ele>
        <time>2013-06-08T16:54:03Z</time>
      </trkpt>
      <trkpt lat="46.1831" lon="5.74559">
        <ele>694.69</ele>
        <time>2013-06-08T16:54:22Z</time>
      </trkpt>
      <trkpt lat="46.1831" lon="5.74556">
        <ele>694.21</ele>
        <time>2013-06-08T16:54:23Z</time>
      </trkpt>
      <trkpt lat="46.18307" lon="5.74547">
        <ele>693.25</ele>
        <time>2013-06-08T16:54:27Z</time>
      </trkpt>
      <trkpt lat="46.183" lon="5.74515">
        <ele>691.33</ele>
        <time>2013-06-08T16:54:44Z</time>
      </trkpt>
      <trkpt lat="46.18307" lon="5.7448">
        <ele>685.56</ele>
        <time>2013-06-08T16:55:04Z</time>
      </trkpt>
      <trkpt lat="46.18323" lon="5.74459">
        <ele>682.19</ele>
        <time>2013-06-08T16:55:25Z</time>
      </trkpt>
      <trkpt lat="46.18349" lon="5.74443">
        <ele>680.75</ele>
        <time>2013-06-08T16:55:45Z</time>
      </trkpt>
      <trkpt lat="46.1837" lon="5.74428">
        <ele>680.27</ele>
        <time>2013-06-08T16:56:03Z</time>
      </trkpt>
      <trkpt lat="46.18374" lon="5.74425">
        <ele>679.31</ele>
        <time>2013-06-08T16:56:06Z</time>
      </trkpt>
      <trkpt lat="46.18398" lon="5.74413">
        <ele>676.91</ele>
        <time>2013-06-08T16:56:26Z</time>
      </trkpt>
      <trkpt lat="46.18426" lon="5.7441">
        <ele>671.62</ele>
        <time>2013-06-08T16:56:48Z</time>
      </trkpt>
      <trkpt lat="46.18451" lon="5.74411">
        <ele>667.29</ele>
        <time>2013-06-08T16:57:07Z</time>
      </trkpt>
      <trkpt lat="46.18476" lon="5.74414">
        <ele>663.45</ele>
        <time>2013-06-08T16:57:25Z</time>
      </trkpt>
      <trkpt lat="46.18497" lon="5.74421">
        <ele>662.01</ele>
        <time>2013-06-08T16:57:45Z</time>
      </trkpt>
      <trkpt lat="46.1852" lon="5.7442">
        <ele>661.52</ele>
        <time>2013-06-08T16:58:07Z</time>
      </trkpt>
      <trkpt lat="46.1854" lon="5.7439">
        <ele>655.76</ele>
        <time>2013-06-08T16:58:29Z</time>
      </trkpt>
      <trkpt lat="46.18552" lon="5.74361">
        <ele>652.87</ele>
        <time>2013-06-08T16:58:50Z</time>
      </trkpt>
      <trkpt lat="46.18558" lon="5.74316">
        <ele>650.47</ele>
        <time>2013-06-08T16:59:11Z</time>
      </trkpt>
      <trkpt lat="46.18555" lon="5.74286">
        <ele>639.41</ele>
        <time>2013-06-08T16:59:31Z</time>
      </trkpt>
      <trkpt lat="46.18545" lon="5.74262">
        <ele>634.13</ele>
        <time>2013-06-08T16:59:46Z</time>
      </trkpt>
      <trkpt lat="46.18538" lon="5.74246">
        <ele>629.8</ele>
        <time>2013-06-08T16:59:58Z</time>
      </trkpt>
      <trkpt lat="46.18514" lon="5.74229">
        <ele>622.11</ele>
        <time>2013-06-08T17:00:21Z</time>
      </trkpt>
      <trkpt lat="46.18498" lon="5.74228">
        <ele>618.26</ele>
        <time>2013-06-08T17:00:34Z</time>
      </trkpt>
      <trkpt lat="46.18484" lon="5.74243">
        <ele>613.46</ele>
        <time>2013-06-08T17:00:53Z</time>
      </trkpt>
      <trkpt lat="46.18468" lon="5.74257">
        <ele>612.02</ele>
        <time>2013-06-08T17:01:11Z</time>
      </trkpt>
      <trkpt lat="46.18459" lon="5.74255">
        <ele>611.54</ele>
        <time>2013-06-08T17:01:20Z</time>
      </trkpt>
      <trkpt lat="46.18446" lon="5.74243">
        <ele>609.61</ele>
        <time>2013-06-08T17:01:36Z</time>
      </trkpt>
      <trkpt lat="46.18427" lon="5.74231">
        <ele>608.17</ele>
        <time>2013-06-08T17:01:54Z</time>
      </trkpt>
      <trkpt lat="46.18408" lon="5.74234">
        <ele>601.92</ele>
        <time>2013-06-08T17:02:13Z</time>
      </trkpt>
      <trkpt lat="46.18395" lon="5.74223">
        <ele>601.92</ele>
        <time>2013-06-08T17:02:29Z</time>
      </trkpt>
      <trkpt lat="46.18388" lon="5.74217">
        <ele>601.92</ele>
        <time>2013-06-08T17:02:42Z</time>
      </trkpt>
      <trkpt lat="46.18371" lon="5.74208">
        <ele>599.04</ele>
        <time>2013-06-08T17:02:59Z</time>
      </trkpt>
      <trkpt lat="46.1836" lon="5.74203">
        <ele>597.12</ele>
        <time>2013-06-08T17:03:11Z</time>
      </trkpt>
      <trkpt lat="46.18353" lon="5.74198">
        <ele>595.67</ele>
        <time>2013-06-08T17:03:17Z</time>
      </trkpt>
      <trkpt lat="46.18332" lon="5.74184">
        <ele>592.79</ele>
        <time>2013-06-08T17:03:32Z</time>
      </trkpt>
      <trkpt lat="46.18326" lon="5.74173">
        <ele>590.39</ele>
        <time>2013-06-08T17:03:41Z</time>
      </trkpt>
      <trkpt lat="46.18309" lon="5.74171">
        <ele>588.95</ele>
        <time>2013-06-08T17:03:56Z</time>
      </trkpt>
      <trkpt lat="46.18289" lon="5.74159">
        <ele>588.46</ele>
        <time>2013-06-08T17:04:10Z</time>
      </trkpt>
      <trkpt lat="46.18266" lon="5.74155">
        <ele>583.66</ele>
        <time>2013-06-08T17:04:24Z</time>
      </trkpt>
      <trkpt lat="46.18239" lon="5.74153">
        <ele>579.81</ele>
        <time>2013-06-08T17:04:41Z</time>
      </trkpt>
      <trkpt lat="46.18236" lon="5.74148">
        <ele>579.33</ele>
        <time>2013-06-08T17:04:44Z</time>
      </trkpt>
      <trkpt lat="46.18228" lon="5.74119">
        <ele>575.01</ele>
        <time>2013-06-08T17:05:00Z</time>
      </trkpt>
      <trkpt lat="46.18226" lon="5.74121">
        <ele>573.56</ele>
        <time>2013-06-08T17:05:01Z</time>
      </trkpt>
      <trkpt lat="46.18207" lon="5.74117">
        <ele>567.32</ele>
        <time>2013-06-08T17:05:14Z</time>
      </trkpt>
      <trkpt lat="46.18192" lon="5.74102">
        <ele>564.91</ele>
        <time>2013-06-08T17:05:30Z</time>
      </trkpt>
      <trkpt lat="46.18177" lon="5.74081">
        <ele>562.51</ele>
        <time>2013-06-08T17:05:47Z</time>
      </trkpt>
      <trkpt lat="46.18174" lon="5.74075">
        <ele>562.03</ele>
        <time>2013-06-08T17:05:57Z</time>
      </trkpt>
      <trkpt lat="46.18158" lon="5.74056">
        <ele>562.03</ele>
        <time>2013-06-08T17:06:17Z</time>
      </trkpt>
      <trkpt lat="46.1815" lon="5.74016">
        <ele>562.03</ele>
        <time>2013-06-08T17:06:37Z</time>
      </trkpt>
      <trkpt lat="46.18143" lon="5.73984">
        <ele>562.03</ele>
        <time>2013-06-08T17:06:54Z</time>
      </trkpt>
      <trkpt lat="46.18148" lon="5.73954">
        <ele>562.03</ele>
        <time>2013-06-08T17:07:15Z</time>
      </trkpt>
      <trkpt lat="46.18149" lon="5.73953">
        <ele>562.03</ele>
        <time>2013-06-08T17:07:16Z</time>
      </trkpt>
      <trkpt lat="46.18157" lon="5.73948">
        <ele>562.51</ele>
        <time>2013-06-08T17:07:23Z</time>
      </trkpt>
      <trkpt lat="46.18182" lon="5.73942">
        <ele>562.51</ele>
        <time>2013-06-08T17:07:43Z</time>
      </trkpt>
      <trkpt lat="46.18206" lon="5.73938">
        <ele>562.51</ele>
        <time>2013-06-08T17:08:03Z</time>
      </trkpt>
      <trkpt lat="46.18223" lon="5.73942">
        <ele>562.51</ele>
        <time>2013-06-08T17:08:18Z</time>
      </trkpt>
      <trkpt lat="46.18244" lon="5.73947">
        <ele>562.51</ele>
        <time>2013-06-08T17:08:36Z</time>
      </trkpt>
      <trkpt lat="46.18267" lon="5.7395">
        <ele>562.51</ele>
        <time>2013-06-08T17:08:55Z</time>
      </trkpt>
      <trkpt lat="46.18285" lon="5.73959">
        <ele>562.99</ele>
        <time>2013-06-08T17:09:14Z</time>
      </trkpt>
      <trkpt lat="46.18294" lon="5.7396">
        <ele>562.99</ele>
        <time>2013-06-08T17:09:20Z</time>
      </trkpt>
      <trkpt lat="46.18306" lon="5.73952">
        <ele>562.99</ele>
        <time>2013-06-08T17:09:31Z</time>
      </trkpt>
      <trkpt lat="46.18299" lon="5.73942">
        <ele>562.99</ele>
        <time>2013-06-08T17:09:41Z</time>
      </trkpt>
      <trkpt lat="46.18289" lon="5.73935">
        <ele>562.99</ele>
        <time>2013-06-08T17:09:54Z</time>
      </trkpt>
      <trkpt lat="46.18275" lon="5.73914">
        <ele>562.99</ele>
        <time>2013-06-08T17:10:15Z</time>
      </trkpt>
      <trkpt lat="46.18271" lon="5.73903">
        <ele>562.99</ele>
        <time>2013-06-08T17:10:23Z</time>
      </trkpt>
      <trkpt lat="46.1827" lon="5.73899">
        <ele>562.99</ele>
        <time>2013-06-08T17:10:26Z</time>
      </trkpt>
      <trkpt lat="46.1825" lon="5.73882">
        <ele>562.99</ele>
        <time>2013-06-08T17:10:44Z</time>
      </trkpt>
      <trkpt lat="46.18231" lon="5.73867">
        <ele>562.99</ele>
        <time>2013-06-08T17:11:02Z</time>
      </trkpt>
      <trkpt lat="46.18226" lon="5.7386">
        <ele>562.99</ele>
        <time>2013-06-08T17:11:07Z</time>
      </trkpt>
      <trkpt lat="46.18214" lon="5.73838">
        <ele>562.99</ele>
        <time>2013-06-08T17:11:23Z</time>
      </trkpt>
      <trkpt lat="46.1821" lon="5.73835">
        <ele>562.99</ele>
        <time>2013-06-08T17:11:26Z</time>
      </trkpt>
      <trkpt lat="46.18192" lon="5.73826">
        <ele>562.99</ele>
        <time>2013-06-08T17:11:39Z</time>
      </trkpt>
      <trkpt lat="46.18167" lon="5.73823">
        <ele>562.51</ele>
        <time>2013-06-08T17:11:58Z</time>
      </trkpt>
      <trkpt lat="46.18159" lon="5.73822">
        <ele>562.51</ele>
        <time>2013-06-08T17:12:04Z</time>
      </trkpt>
      <trkpt lat="46.18155" lon="5.7382">
        <ele>562.51</ele>
        <time>2013-06-08T17:12:07Z</time>
      </trkpt>
      <trkpt lat="46.1813" lon="5.73815">
        <ele>562.51</ele>
        <time>2013-06-08T17:12:25Z</time>
      </trkpt>
      <trkpt lat="46.18103" lon="5.73809">
        <ele>562.51</ele>
        <time>2013-06-08T17:12:45Z</time>
      </trkpt>
      <trkpt lat="46.181" lon="5.7381">
        <ele>562.51</ele>
        <time>2013-06-08T17:12:47Z</time>
      </trkpt>
      <trkpt lat="46.18076" lon="5.73815">
        <ele>562.51</ele>
        <time>2013-06-08T17:13:07Z</time>
      </trkpt>
      <trkpt lat="46.1805" lon="5.73827">
        <ele>562.51</ele>
        <time>2013-06-08T17:13:28Z</time>
      </trkpt>
      <trkpt lat="46.1802" lon="5.73829">
        <ele>562.51</ele>
        <time>2013-06-08T17:13:49Z</time>
      </trkpt>
      <trkpt lat="46.1799" lon="5.73828">
        <ele>562.51</ele>
        <time>2013-06-08T17:14:09Z</time>
      </trkpt>
      <trkpt lat="46.17958" lon="5.73828">
        <ele>562.51</ele>
        <time>2013-06-08T17:14:30Z</time>
      </trkpt>
      <trkpt lat="46.17942" lon="5.73827">
        <ele>562.51</ele>
        <time>2013-06-08T17:14:46Z</time>
      </trkpt>
      <trkpt lat="46.17914" lon="5.73825">
        <ele>562.03</ele>
        <time>2013-06-08T17:15:06Z</time>
      </trkpt>
      <trkpt lat="46.179" lon="5.73829">
        <ele>562.03</ele>
        <time>2013-06-08T17:15:18Z</time>
      </trkpt>
      <trkpt lat="46.17882" lon="5.73837">
        <ele>562.03</ele>
        <time>2013-06-08T17:15:31Z</time>
      </trkpt>
      <trkpt lat="46.17864" lon="5.73879">
        <ele>562.03</ele>
        <time>2013-06-08T17:15:52Z</time>
      </trkpt>
      <trkpt lat="46.17855" lon="5.73866">
        <ele>562.03</ele>
        <time>2013-06-08T17:15:57Z</time>
      </trkpt>
      <trkpt lat="46.17835" lon="5.73865">
        <ele>562.03</ele>
        <time>2013-06-08T17:16:12Z</time>
      </trkpt>
      <trkpt lat="46.17822" lon="5.73856">
        <ele>562.03</ele>
        <time>2013-06-08T17:16:27Z</time>
      </trkpt>
      <trkpt lat="46.1782" lon="5.73853">
        <ele>562.03</ele>
        <time>2013-06-08T17:16:32Z</time>
      </trkpt>
      <trkpt lat="46.17815" lon="5.73855">
        <ele>562.03</ele>
        <time>2013-06-08T17:16:37Z</time>
      </trkpt>
      <trkpt lat="46.17801" lon="5.73856">
        <ele>562.03</ele>
        <time>2013-06-08T17:16:53Z</time>
      </trkpt>
      <trkpt lat="46.178" lon="5.73852">
        <ele>562.03</ele>
        <time>2013-06-08T17:16:57Z</time>
      </trkpt>
      <trkpt lat="46.17799" lon="5.73821">
        <ele>562.03</ele>
        <time>2013-06-08T17:17:13Z</time>
      </trkpt>
      <trkpt lat="46.178" lon="5.73803">
        <ele>562.03</ele>
        <time>2013-06-08T17:17:28Z</time>
      </trkpt>
      <trkpt lat="46.17794" lon="5.73791">
        <ele>562.03</ele>
        <time>2013-06-08T17:17:47Z</time>
      </trkpt>
      <trkpt lat="46.17791" lon="5.73776">
        <ele>562.03</ele>
        <time>2013-06-08T17:18:04Z</time>
      </trkpt>
      <trkpt lat="46.17794" lon="5.73776">
        <ele>562.03</ele>
        <time>2013-06-08T17:18:08Z</time>
      </trkpt>
      <trkpt lat="46.17806" lon="5.73778">
        <ele>562.03</ele>
        <time>2013-06-08T17:18:26Z</time>
      </trkpt>
      <trkpt lat="46.17795" lon="5.73807">
        <ele>562.03</ele>
        <time>2013-06-08T17:18:40Z</time>
      </trkpt>
      <trkpt lat="46.17781" lon="5.73836">
        <ele>562.03</ele>
        <time>2013-06-08T17:18:46Z</time>
      </trkpt>
      <trkpt lat="46.17768" lon="5.73871">
        <ele>562.03</ele>
        <time>2013-06-08T17:19:03Z</time>
      </trkpt>
      <trkpt lat="46.17757" lon="5.73889">
        <ele>562.03</ele>
        <time>2013-06-08T17:19:16Z</time>
      </trkpt>
      <trkpt lat="46.17741" lon="5.73915">
        <ele>562.03</ele>
        <time>2013-06-08T17:19:29Z</time>
      </trkpt>
      <trkpt lat="46.17722" lon="5.73951">
        <ele>562.03</ele>
        <time>2013-06-08T17:19:47Z</time>
      </trkpt>
      <trkpt lat="46.17706" lon="5.73976">
        <ele>562.03</ele>
        <time>2013-06-08T17:20:01Z</time>
      </trkpt>
      <trkpt lat="46.177" lon="5.73986">
        <ele>561.07</ele>
        <time>2013-06-08T17:20:09Z</time>
      </trkpt>
      <trkpt lat="46.177" lon="5.7399">
        <ele>557.22</ele>
        <time>2013-06-08T17:20:13Z</time>
      </trkpt>
      <trkpt lat="46.17687" lon="5.74042">
        <ele>552.41</ele>
        <time>2013-06-08T17:20:32Z</time>
      </trkpt>
      <trkpt lat="46.17674" lon="5.74072">
        <ele>551.45</ele>
        <time>2013-06-08T17:20:49Z</time>
      </trkpt>
      <trkpt lat="46.17667" lon="5.74083">
        <ele>551.45</ele>
        <time>2013-06-08T17:20:58Z</time>
      </trkpt>
      <trkpt lat="46.17664" lon="5.74091">
        <ele>537.99</ele>
        <time>2013-06-08T17:21:13Z</time>
      </trkpt>
      <trkpt lat="46.17683" lon="5.7408">
        <ele>517.33</ele>
        <time>2013-06-08T17:21:43Z</time>
      </trkpt>
      <trkpt lat="46.17679" lon="5.74079">
        <ele>515.4</ele>
        <time>2013-06-08T17:22:06Z</time>
      </trkpt>
    </trkseg>
  </trk>
</gpx>